
Distance (Route):
Temperature : 14.8°C
Humidity : 60.2%
Pressure : 954.6hPa| Receiver | Frames | First received | Last received |
|---|---|---|---|
| OE5MMP-10 | 449 | 2026-09-05 23:17:42 | 2026-09-06 01:03:29 |
| DO3MHA-11 | 414 | 2026-09-05 22:47:42 | 2026-09-06 01:01:35 |
| PETON7-10 | 222 | 2026-09-05 23:23:18 | 2026-09-06 00:50:43 |
| OE5WHR-10 | 200 | 2026-09-05 23:13:09 | 2026-09-06 01:00:55 |
| OE5REO-15 | 178 | 2026-09-05 23:20:38 | 2026-09-06 00:56:12 |
| OE5DRO-10 | 172 | 2026-09-05 23:04:07 | 2026-09-06 01:02:17 |
| DL6DJ-15 | 160 | 2026-09-05 22:50:53 | 2026-09-06 00:53:05 |
| OE5HKT-10 | 148 | 2026-09-05 23:19:22 | 2026-09-06 01:01:48 |
| BAUMI2-15 | 136 | 2026-09-05 23:38:43 | 2026-09-06 00:43:12 |
| PG1ADW-2 | 107 | 2026-09-05 23:24:01 | 2026-09-06 00:58:20 |
| OE5DXL-15 | 105 | 2026-09-05 23:06:12 | 2026-09-06 01:02:53 |
| EDDB2-11 | 86 | 2026-09-05 23:24:29 | 2026-09-06 00:45:12 |
| SONDE2-11 | 84 | 2026-09-05 23:24:32 | 2026-09-06 00:48:23 |
| DO9HM | 76 | 2026-09-05 22:53:17 | 2026-09-05 23:30:32 |
| DF8AY | 69 | 2026-09-06 00:02:06 | 2026-09-06 00:15:19 |
| OE3MUC-15 | 65 | 2026-09-05 23:38:21 | 2026-09-06 00:48:15 |
| S52SK | 50 | 2026-09-05 23:26:54 | 2026-09-06 00:51:11 |
| AM1SDL-15 | 43 | 2026-09-05 23:18:09 | 2026-09-05 23:29:29 |
| DO8TBO-1 | 38 | 2026-09-05 22:58:37 | 2026-09-06 00:52:26 |
| DL3JIN-12 | 37 | 2026-09-05 23:56:45 | 2026-09-06 00:42:02 |
| NBG1-10 | 36 | 2026-09-05 22:47:45 | 2026-09-05 23:59:21 |
| SONCRA | 35 | 2026-09-05 23:53:18 | 2026-09-06 00:43:00 |
| DK5PH-5 | 28 | 2026-09-05 23:34:47 | 2026-09-06 00:41:08 |
| SP3BTT-10 | 27 | 2026-09-05 23:41:43 | 2026-09-06 00:44:38 |
| OE3JTB-15 | 27 | 2026-09-06 00:38:39 | 2026-09-06 01:02:07 |
| EDDB2-12 | 26 | 2026-09-06 00:06:46 | 2026-09-06 00:48:10 |
| DB0NH | 24 | 2026-09-05 22:49:03 | 2026-09-05 23:30:37 |
| DM0DOS-11 | 10 | 2026-09-05 23:33:21 | 2026-09-05 23:37:33 |
| DF3TZ-5 | 6 | 2026-09-05 23:00:21 | 2026-09-05 23:06:34 |
| DF9NV-10 | 6 | 2026-09-05 23:01:04 | 2026-09-05 23:03:36 |
| DL1JEZ-13 | 4 | 2026-09-05 23:22:52 | 2026-09-06 00:35:05 |
| ANDY1245 | 1 | 2026-09-05 23:21:54 | 2026-09-05 23:21:54 |
| OE8JPQ-2 | 1 | 2026-09-05 23:51:38 | 2026-09-05 23:51:38 |
| DM7RM-13 | 1 | 2026-09-05 23:59:10 | 2026-09-05 23:59:10 |
| Receiver | Date | Latitude | Longitude | Direction | Speed | Altitude | Climb | Temperature | Humidity | Pressure | Voltage | Killtimer | Uptime | BKT | XDATA |
|---|---|---|---|---|---|---|---|---|---|---|---|---|---|---|---|
| OE5MMP-10 | 2026-09-06 01:03:29 | 48.69026 | 13.55601 | 116° | 13km/h | 647m | -11.9m/s | 14.8°C | 60.2% | 954.6hPa | 2.7V | 03:03:00 | 02:58:36 | 00:00:00 | |
| OE5MMP-10 | 2026-09-06 01:03:27 | 48.69030 | 13.55593 | 128° | 11km/h | 669m | -11.7m/s | 15.1°C | 58.0% | 952.1hPa | 2.7V | 00:00:00 | 02:58:34 | 00:00:00 | |
| OE5MMP-10 | 2026-09-06 01:03:25 | 48.69033 | 13.55585 | 113° | 15km/h | 693m | -11.1m/s | 15.0°C | 57.4% | 949.6hPa | 2.7V | 00:00:00 | 02:58:32 | 00:00:00 | |
| OE5MMP-10 | 2026-09-06 01:03:23 | 48.69036 | 13.55576 | 109° | 13km/h | 714m | -11.9m/s | 14.9°C | 57.1% | 947.1hPa | 2.7V | 00:00:00 | 02:58:30 | 00:00:00 | |
| OE5MMP-10 | 2026-09-06 01:03:21 | 48.69039 | 13.55567 | 127° | 11km/h | 739m | -13.2m/s | 14.8°C | 56.6% | 944.6hPa | 2.7V | 03:04:00 | 02:58:28 | 00:00:00 | |
| OE5MMP-10 | 2026-09-06 01:03:19 | 48.69042 | 13.55560 | 117° | 13km/h | 762m | -10.7m/s | 14.6°C | 56.3% | 941.8hPa | 2.7V | 00:00:00 | 02:58:26 | 00:00:00 | |
| OE5MMP-10 | 2026-09-06 01:03:17 | 48.69046 | 13.55552 | 131° | 11km/h | 784m | -11.9m/s | 14.5°C | 56.1% | 939.4hPa | 2.7V | 00:00:00 | 02:58:24 | 00:00:00 | |
| OE5MMP-10 | 2026-09-06 01:03:15 | 48.69050 | 13.55544 | 124° | 13km/h | 806m | -12.0m/s | 14.3°C | 56.5% | 936.8hPa | 2.6V | 00:00:00 | 02:58:22 | 00:00:00 | |
| OE5MMP-10 | 2026-09-06 01:03:13 | 48.69053 | 13.55536 | 118° | 15km/h | 829m | -11.3m/s | 14.2°C | 56.0% | 934.1hPa | 2.6V | 03:04:00 | 02:58:20 | 00:00:00 | |
| OE5MMP-10 | 2026-09-06 01:03:11 | 48.69058 | 13.55527 | 123° | 16km/h | 849m | -10.9m/s | 13.9°C | 58.1% | 932.1hPa | 2.6V | 00:00:00 | 02:58:18 | 00:00:00 | |
| OE5MMP-10 | 2026-09-06 01:03:09 | 48.69063 | 13.55516 | 133° | 16km/h | 871m | -12.1m/s | 13.8°C | 57.8% | 929.6hPa | 2.6V | 00:00:00 | 02:58:16 | 00:00:00 | |
| OE5MMP-10 | 2026-09-06 01:03:06 | 48.69070 | 13.55502 | 117° | 18km/h | 906m | -11.7m/s | 13.6°C | 56.7% | 925.9hPa | 2.6V | 00:00:00 | 02:58:13 | 00:00:00 | |
| OE5MMP-10 | 2026-09-06 01:03:04 | 48.69075 | 13.55490 | 132° | 20km/h | 929m | -11.3m/s | 13.4°C | 56.0% | 923.5hPa | 2.6V | 03:04:00 | 02:58:11 | 00:00:00 | |
| OE5MMP-10 | 2026-09-06 01:03:02 | 48.69082 | 13.55480 | 130° | 16km/h | 951m | -12.6m/s | 13.3°C | 55.5% | 921.0hPa | 2.7V | 00:00:00 | 02:58:09 | 00:00:00 | |
| OE5MMP-10 | 2026-09-06 01:03:00 | 48.69087 | 13.55470 | 125° | 22km/h | 976m | -12.5m/s | 13.1°C | 54.4% | 918.6hPa | 2.7V | 00:00:00 | 02:58:07 | 00:00:00 | |
| OE5MMP-10 | 2026-09-06 01:02:58 | 48.69094 | 13.55457 | 133° | 22km/h | 1000m | -12.3m/s | 13.0°C | 54.2% | 916.1hPa | 2.7V | 00:00:00 | 02:58:05 | 00:00:00 | |
| OE5MMP-10 | 2026-09-06 01:02:54 | 48.69110 | 13.55434 | 137° | 20km/h | 1045m | -12.3m/s | 12.7°C | 52.9% | 911.2hPa | 2.6V | 03:04:00 | 02:58:01 | 00:00:00 | |
| OE5DXL-15 | 2026-09-06 01:02:53 | 48.69113 | 13.55429 | 134° | 33km/h | 1057m | -12.6m/s | 12.6°C | 52.8% | 909.8hPa | 2.6V | 03:04:00 | 00:00:00 | 00:00:00 | |
| OE5MMP-10 | 2026-09-06 01:02:49 | 48.69128 | 13.55403 | 139° | 26km/h | 1104m | -12.2m/s | 12.3°C | 53.5% | 904.9hPa | 2.6V | 00:00:00 | 02:57:56 | 00:00:00 | |
| OE5MMP-10 | 2026-09-06 01:02:44 | 48.69151 | 13.55368 | 135° | 31km/h | 1163m | -13.3m/s | 12.1°C | 54.0% | 898.5hPa | 2.6V | 00:00:00 | 02:57:51 | 00:00:00 | |
| OE5MMP-10 | 2026-09-06 01:02:39 | 48.69179 | 13.55325 | 135° | 35km/h | 1226m | -11.5m/s | 11.7°C | 55.1% | 891.8hPa | 2.7V | 00:00:00 | 02:57:46 | 00:00:00 | |
| OE5MMP-10 | 2026-09-06 01:02:34 | 48.69210 | 13.55274 | 131° | 37km/h | 1281m | -12.0m/s | 11.3°C | 62.7% | 885.7hPa | 2.7V | 03:04:00 | 02:57:41 | 00:00:00 | |
| OE5DXL-15 | 2026-09-06 01:02:31 | 48.69226 | 13.55241 | 121° | 40km/h | 1317m | -12.4m/s | 11.1°C | 64.2% | 882.0hPa | 2.7V | 00:00:00 | 00:00:00 | 00:00:00 | |
| OE5MMP-10 | 2026-09-06 01:02:29 | 48.69236 | 13.55215 | 121° | 38km/h | 1341m | -11.5m/s | 10.9°C | 65.1% | 879.7hPa | 2.6V | 00:00:00 | 02:57:36 | 00:00:00 | |
| OE5DXL-15 | 2026-09-06 01:02:25 | 48.69257 | 13.55164 | 119° | 37km/h | 1382m | -11.6m/s | 10.6°C | 65.3% | 874.7hPa | 2.6V | 00:00:00 | 00:00:00 | 00:00:00 | |
| OE5MMP-10 | 2026-09-06 01:02:24 | 48.69262 | 13.55152 | 119° | 38km/h | 1393m | -12.1m/s | 10.5°C | 65.4% | 873.5hPa | 2.6V | 00:00:00 | 02:57:31 | 00:00:00 | |
| OE5MMP-10 | 2026-09-06 01:02:19 | 48.69284 | 13.55087 | 116° | 40km/h | 1448m | -11.7m/s | 10.0°C | 67.0% | 867.8hPa | 2.6V | 00:00:00 | 02:57:26 | 00:00:00 | |
| OE5DRO-10 | 2026-09-06 01:02:17 | 48.69292 | 13.55060 | 115° | 40km/h | 1469m | -11.3m/s | 9.8°C | 67.6% | 865.5hPa | 2.6V | 00:00:00 | 00:00:00 | 00:00:00 | |
| OE5DRO-10 | 2026-09-06 01:02:14 | 48.69306 | 13.55019 | 116° | 38km/h | 1503m | -12.8m/s | 9.5°C | 68.8% | 862.1hPa | 2.6V | 03:05:00 | 00:00:00 | 00:00:00 | |
| OE5MMP-10 | 2026-09-06 01:02:14 | 48.69306 | 13.55019 | 116° | 40km/h | 1503m | -12.8m/s | 9.5°C | 68.8% | 862.1hPa | 2.6V | 03:05:00 | 02:57:21 | 00:00:00 | |
| OE5DXL-15 | 2026-09-06 01:02:11 | 48.69319 | 13.54979 | 117° | 42km/h | 1537m | -11.6m/s | 9.1°C | 70.1% | 858.3hPa | 2.6V | 00:00:00 | 00:00:00 | 00:00:00 | |
| OE5DRO-10 | 2026-09-06 01:02:11 | 48.69319 | 13.54979 | 117° | 42km/h | 1537m | -11.6m/s | 9.1°C | 70.1% | 858.3hPa | 2.6V | 00:00:00 | 00:00:00 | 00:00:00 | |
| OE5DRO-10 | 2026-09-06 01:02:09 | 48.69328 | 13.54951 | 119° | 40km/h | 1559m | -12.1m/s | 9.0°C | 70.7% | 855.9hPa | 2.6V | 00:00:00 | 00:00:00 | 00:00:00 | |
| OE5MMP-10 | 2026-09-06 01:02:09 | 48.69328 | 13.54951 | 119° | 40km/h | 1559m | -12.1m/s | 9.0°C | 70.7% | 855.9hPa | 2.6V | 00:00:00 | 02:57:16 | 00:00:00 | |
| OE3JTB-15 | 2026-09-06 01:02:07 | 48.69337 | 13.54923 | 114° | 42km/h | 1583m | -11.5m/s | 8.8°C | 70.3% | 853.3hPa | 2.6V | 00:00:00 | 00:00:00 | 00:00:00 | |
| OE5DRO-10 | 2026-09-06 01:02:04 | 48.69351 | 13.54881 | 114° | 44km/h | 1618m | -12.1m/s | 8.6°C | 70.4% | 849.8hPa | 2.6V | 00:00:00 | 00:00:00 | 00:00:00 | |
| OE3JTB-15 | 2026-09-06 01:02:04 | 48.69351 | 13.54881 | 114° | 44km/h | 1618m | -12.1m/s | 8.6°C | 70.4% | 849.8hPa | 2.6V | 03:05:00 | 02:57:11 | 00:00:00 | |
| OE5MMP-10 | 2026-09-06 01:02:04 | 48.69351 | 13.54881 | 114° | 42km/h | 1618m | -12.1m/s | 8.6°C | 70.4% | 849.8hPa | 2.6V | 00:00:00 | 02:57:11 | 00:00:00 | |
| OE3JTB-15 | 2026-09-06 01:02:02 | 48.69361 | 13.54851 | 120° | 42km/h | 1644m | -12.5m/s | 8.4°C | 70.9% | 847.4hPa | 2.6V | 00:00:00 | 00:00:00 | 00:00:00 | |
| OE3JTB-15 | 2026-09-06 01:02:00 | 48.69372 | 13.54823 | 118° | 40km/h | 1668m | -13.8m/s | 8.2°C | 71.1% | 844.8hPa | 2.7V | 00:00:00 | 00:00:00 | 00:00:00 | |
| OE5DXL-15 | 2026-09-06 01:01:59 | 48.69377 | 13.54808 | 115° | 46km/h | 1682m | -13.6m/s | 8.1°C | 71.3% | 843.6hPa | 2.7V | 03:05:00 | 00:00:00 | 00:00:00 | |
| OE5MMP-10 | 2026-09-06 01:01:59 | 48.69377 | 13.54808 | 115° | 44km/h | 1682m | -13.6m/s | 8.1°C | 71.3% | 843.6hPa | 2.7V | 00:00:00 | 02:57:06 | 00:00:00 | |
| OE3JTB-15 | 2026-09-06 01:01:58 | 48.69383 | 13.54792 | 117° | 46km/h | 1695m | -12.8m/s | 8.1°C | 71.3% | 842.3hPa | 2.6V | 00:00:00 | 02:57:05 | 00:00:00 | |
| OE5DRO-10 | 2026-09-06 01:01:57 | 48.69388 | 13.54777 | 114° | 44km/h | 1708m | -13.0m/s | 8.1°C | 71.1% | 840.9hPa | 2.6V | 03:05:00 | 00:00:00 | 00:00:00 | |
| OE3JTB-15 | 2026-09-06 01:01:56 | 48.69392 | 13.54762 | 112° | 44km/h | 1721m | -13.2m/s | 8.1°C | 71.3% | 839.8hPa | 2.6V | 03:05:00 | 00:00:00 | 00:00:00 | |
| OE3JTB-15 | 2026-09-06 01:01:54 | 48.69400 | 13.54730 | 111° | 46km/h | 1746m | -13.0m/s | 7.9°C | 72.2% | 837.4hPa | 2.6V | 00:00:00 | 00:00:00 | 00:00:00 | |
| OE5MMP-10 | 2026-09-06 01:01:54 | 48.69400 | 13.54730 | 111° | 46km/h | 1746m | -13.0m/s | 7.9°C | 72.2% | 837.4hPa | 2.6V | 03:05:00 | 02:57:01 | 00:00:00 | |
| OE3JTB-15 | 2026-09-06 01:01:52 | 48.69408 | 13.54697 | 105° | 44km/h | 1769m | -11.8m/s | 7.7°C | 73.1% | 834.6hPa | 2.6V | 00:00:00 | 02:56:59 | 00:00:00 | |
| OE5DRO-10 | 2026-09-06 01:01:50 | 48.69414 | 13.54665 | 105° | 46km/h | 1791m | -11.9m/s | 7.5°C | 73.9% | 832.6hPa | 2.6V | 00:00:00 | 00:00:00 | 00:00:00 | |
| OE5MMP-10 | 2026-09-06 01:01:49 | 48.69418 | 13.54648 | 103° | 46km/h | 1801m | -11.7m/s | 7.5°C | 73.9% | 831.5hPa | 2.6V | 00:00:00 | 02:56:56 | 00:00:00 | |
| OE5HKT-10 | 2026-09-06 01:01:48 | 48.69420 | 13.54631 | 102° | 46km/h | 1813m | -13.1m/s | 7.4°C | 74.0% | 830.3hPa | 2.6V | 00:00:00 | 00:00:00 | 00:00:00 | |
| OE3JTB-15 | 2026-09-06 01:01:46 | 48.69425 | 13.54596 | 99° | 47km/h | 1837m | -12.6m/s | 7.3°C | 74.6% | 827.9hPa | 2.6V | 00:00:00 | 00:00:00 | 00:00:00 | |
| OE3JTB-15 | 2026-09-06 01:01:44 | 48.69429 | 13.54561 | 100° | 44km/h | 1861m | -12.7m/s | 7.1°C | 75.4% | 825.7hPa | 2.6V | 03:05:00 | 00:00:00 | 00:00:00 | |
| OE5MMP-10 | 2026-09-06 01:01:44 | 48.69429 | 13.54561 | 100° | 46km/h | 1861m | -12.7m/s | 7.1°C | 75.4% | 825.7hPa | 2.6V | 00:00:00 | 02:56:51 | 00:00:00 | |
| OE5DRO-10 | 2026-09-06 01:01:43 | 48.69432 | 13.54544 | 98° | 47km/h | 1873m | -12.6m/s | 7.0°C | 75.6% | 824.5hPa | 2.6V | 00:00:00 | 00:00:00 | 00:00:00 | |
| OE3JTB-15 | 2026-09-06 01:01:42 | 48.69434 | 13.54526 | 99° | 49km/h | 1885m | -12.4m/s | 7.0°C | 74.0% | 823.2hPa | 2.6V | 00:00:00 | 02:56:49 | 00:00:00 | |
| OE5HKT-10 | 2026-09-06 01:01:42 | 48.69434 | 13.54526 | 99° | 51km/h | 1885m | -12.4m/s | 7.0°C | 74.0% | 823.2hPa | 2.6V | 03:05:00 | 00:00:00 | 00:00:00 | |
| OE5MMP-10 | 2026-09-06 01:01:39 | 48.69441 | 13.54472 | 101° | 49km/h | 1919m | -11.9m/s | 6.9°C | 70.6% | 819.8hPa | 2.6V | 00:00:00 | 02:56:46 | 00:00:00 | |
| OE3JTB-15 | 2026-09-06 01:01:38 | 48.69444 | 13.54455 | 103° | 47km/h | 1930m | -12.8m/s | 6.8°C | 69.0% | 818.7hPa | 2.6V | 00:00:00 | 00:00:00 | 00:00:00 | |
| OE5DXL-15 | 2026-09-06 01:01:38 | 48.69444 | 13.54455 | 103° | 55km/h | 1930m | -12.8m/s | 6.8°C | 69.0% | 818.7hPa | 2.6V | 00:00:00 | 00:00:00 | 00:00:00 | |
| OE5DRO-10 | 2026-09-06 01:01:36 | 48.69449 | 13.54419 | 102° | 51km/h | 1953m | -12.6m/s | 6.6°C | 68.2% | 816.2hPa | 2.6V | 00:00:00 | 00:00:00 | 00:00:00 | |
| OE3JTB-15 | 2026-09-06 01:01:35 | 48.69453 | 13.54400 | 102° | 51km/h | 1966m | -13.0m/s | 6.5°C | 68.7% | 815.0hPa | 2.6V | 00:00:00 | 00:00:00 | 00:00:00 | |
| DO3MHA-11 | 2026-09-06 01:01:35 | 48.69453 | 13.54400 | 102° | 53km/h | 1966m | -13.0m/s | 6.5°C | 68.7% | 815.0hPa | 2.6V | 00:00:00 | 02:56:42 | 00:00:00 | |
| OE5MMP-10 | 2026-09-06 01:01:34 | 48.69456 | 13.54381 | 107° | 51km/h | 1978m | -12.4m/s | 6.4°C | 69.1% | 814.0hPa | 2.6V | 03:05:00 | 02:56:41 | 00:00:00 | |
| OE3JTB-15 | 2026-09-06 01:01:33 | 48.69460 | 13.54362 | 106° | 55km/h | 1990m | -12.4m/s | 6.2°C | 71.5% | 812.9hPa | 2.6V | 03:05:00 | 02:56:40 | 00:00:00 | |
| OE5MMP-10 | 2026-09-06 01:01:29 | 48.69473 | 13.54286 | 103° | 57km/h | 2038m | -12.8m/s | 5.8°C | 73.2% | 808.3hPa | 2.6V | 00:00:00 | 02:56:36 | 00:00:00 | |
| DO3MHA-11 | 2026-09-06 01:01:27 | 48.69479 | 13.54247 | 104° | 58km/h | 2063m | -12.7m/s | 5.6°C | 73.2% | 806.0hPa | 2.6V | 03:05:00 | 02:56:34 | 00:00:00 | |
| OE3JTB-15 | 2026-09-06 01:01:24 | 48.69491 | 13.54184 | 107° | 57km/h | 2098m | -11.8m/s | 5.5°C | 69.6% | 802.6hPa | 2.6V | 00:00:00 | 00:00:00 | 00:00:00 | |
| DO3MHA-11 | 2026-09-06 01:01:22 | 48.69500 | 13.54141 | 109° | 58km/h | 2120m | -11.6m/s | 5.3°C | 70.8% | 800.4hPa | 2.6V | 00:00:00 | 02:56:29 | 00:00:00 | |
| OE5MMP-10 | 2026-09-06 01:01:19 | 48.69514 | 13.54077 | 110° | 55km/h | 2154m | -11.2m/s | 5.0°C | 72.4% | 797.2hPa | 2.6V | 00:00:00 | 02:56:26 | 00:00:00 | |
| OE5DXL-15 | 2026-09-06 01:01:18 | 48.69519 | 13.54056 | 110° | 57km/h | 2165m | -11.3m/s | 4.9°C | 73.4% | 795.8hPa | 2.6V | 00:00:00 | 00:00:00 | 00:00:00 | |
| DO3MHA-11 | 2026-09-06 01:01:17 | 48.69524 | 13.54035 | 108° | 86km/h | 2175m | -11.0m/s | 4.8°C | 73.9% | 794.8hPa | 2.6V | 00:00:00 | 02:56:24 | 00:00:00 | |
| OE5DRO-10 | 2026-09-06 01:01:15 | 48.69533 | 13.53994 | 108° | 55km/h | 2196m | -11.3m/s | 4.5°C | 74.9% | 792.7hPa | 2.6V | 00:00:00 | 00:00:00 | 00:00:00 | |
| OE3JTB-15 | 2026-09-06 01:01:14 | 48.69537 | 13.53973 | 109° | 57km/h | 2208m | -11.9m/s | 4.5°C | 75.2% | 791.6hPa | 2.5V | 00:00:00 | 00:00:00 | 00:00:00 | |
| OE5DRO-10 | 2026-09-06 01:01:08 | 48.69564 | 13.53851 | 107° | 58km/h | 2277m | -13.0m/s | 4.1°C | 65.5% | 784.7hPa | 2.5V | 00:00:00 | 00:00:00 | 00:00:00 | |
| OE3JTB-15 | 2026-09-06 01:01:05 | 48.69579 | 13.53787 | 110° | 62km/h | 2313m | -13.1m/s | 4.5°C | 46.9% | 781.5hPa | 2.5V | 00:00:00 | 02:56:12 | 00:00:00 | |
| OE5HKT-10 | 2026-09-06 01:01:01 | 48.69598 | 13.53700 | 110° | 58km/h | 2364m | -12.4m/s | 4.6°C | 37.1% | 776.7hPa | 2.5V | 00:00:00 | 00:00:00 | 00:00:00 | |
| OE5MMP-10 | 2026-09-06 01:00:59 | 48.69609 | 13.53656 | 111° | 60km/h | 2387m | -12.7m/s | 4.6°C | 35.1% | 774.4hPa | 2.6V | 03:06:00 | 02:56:06 | 00:00:00 | |
| OE5DXL-15 | 2026-09-06 01:00:58 | 48.69614 | 13.53636 | 112° | 64km/h | 2400m | -13.0m/s | 4.6°C | 32.4% | 773.3hPa | 2.6V | 00:00:00 | 00:00:00 | 00:00:00 | |
| OE5WHR-10 | 2026-09-06 01:00:55 | 48.69631 | 13.53573 | 112° | 62km/h | 2438m | -13.2m/s | 4.9°C | 21.3% | 769.6hPa | 2.5V | 00:00:00 | 00:00:00 | 00:00:00 | |
| OE5DRO-10 | 2026-09-06 01:00:54 | 48.69637 | 13.53551 | 111° | 64km/h | 2451m | -12.5m/s | 5.0°C | 20.8% | 768.4hPa | 2.5V | 00:00:00 | 00:00:00 | 00:00:00 | |
| OE5WHR-10 | 2026-09-06 01:00:49 | 48.69669 | 13.53441 | 111° | 68km/h | 2512m | -13.1m/s | 4.8°C | 27.0% | 762.6hPa | 2.5V | 00:00:00 | 02:55:56 | 00:00:00 | |
| OE3JTB-15 | 2026-09-06 01:00:48 | 48.69674 | 13.53417 | 109° | 68km/h | 2524m | -12.7m/s | 4.8°C | 28.5% | 761.5hPa | 2.5V | 03:06:00 | 00:00:00 | 00:00:00 | |
| OE5DRO-10 | 2026-09-06 01:00:47 | 48.69680 | 13.53392 | 111° | 68km/h | 2536m | -12.5m/s | 4.8°C | 27.9% | 760.2hPa | 2.5V | 00:00:00 | 00:00:00 | 00:00:00 | |
| OE5MMP-10 | 2026-09-06 01:00:39 | 48.69725 | 13.53197 | 110° | 68km/h | 2636m | -12.6m/s | 4.5°C | 28.9% | 751.2hPa | 2.5V | 00:00:00 | 02:55:46 | 00:00:00 | |
| OE5DXL-15 | 2026-09-06 01:00:38 | 48.69730 | 13.53172 | 108° | 68km/h | 2647m | -12.5m/s | 4.5°C | 27.0% | 749.9hPa | 2.5V | 03:06:00 | 00:00:00 | 00:00:00 | |
| OE5HKT-10 | 2026-09-06 01:00:31 | 48.69762 | 13.52997 | 106° | 66km/h | 2736m | -13.4m/s | 4.5°C | 16.8% | 741.9hPa | 2.5V | 03:06:00 | 02:55:38 | 00:00:00 | |
| OE5MMP-10 | 2026-09-06 01:00:29 | 48.69771 | 13.52949 | 104° | 66km/h | 2762m | -13.9m/s | 4.3°C | 16.7% | 739.6hPa | 2.5V | 00:00:00 | 02:55:36 | 00:00:00 | |
| OE3JTB-15 | 2026-09-06 01:00:27 | 48.69780 | 13.52901 | 106° | 68km/h | 2789m | -12.8m/s | 4.1°C | 16.8% | 737.2hPa | 2.6V | 00:00:00 | 00:00:00 | 00:00:00 | |
| OE5WHR-10 | 2026-09-06 01:00:22 | 48.69803 | 13.52777 | 105° | 68km/h | 2850m | -13.5m/s | 3.9°C | 25.4% | 731.6hPa | 2.6V | 00:00:00 | 00:00:00 | 00:00:00 | |
| OE5MMP-10 | 2026-09-06 01:00:19 | 48.69815 | 13.52706 | 103° | 68km/h | 2887m | -13.7m/s | 3.7°C | 30.2% | 728.2hPa | 2.6V | 03:07:00 | 02:55:26 | 00:00:00 | |
| OE5DRO-10 | 2026-09-06 01:00:15 | 48.69831 | 13.52607 | 105° | 68km/h | 2937m | -12.1m/s | 3.3°C | 30.5% | 723.8hPa | 2.6V | 03:07:00 | 00:00:00 | 00:00:00 | |
| OE5HKT-10 | 2026-09-06 01:00:14 | 48.69835 | 13.52582 | 104° | 68km/h | 2949m | -12.9m/s | 3.3°C | 28.1% | 722.7hPa | 2.6V | 00:00:00 | 00:00:00 | 00:00:00 | |
| OE5MMP-10 | 2026-09-06 01:00:09 | 48.69859 | 13.52455 | 107° | 68km/h | 3008m | -12.0m/s | 3.0°C | 27.6% | 717.4hPa | 2.5V | 00:00:00 | 02:55:16 | 00:00:00 | |
| OE5DXL-15 | 2026-09-06 01:00:08 | 48.69864 | 13.52430 | 108° | 69km/h | 3020m | -11.6m/s | 2.9°C | 27.6% | 716.2hPa | 2.5V | 00:00:00 | 00:00:00 | 00:00:00 | |
| OE5WHR-10 | 2026-09-06 01:00:05 | 48.69879 | 13.52356 | 106° | 69km/h | 3054m | -12.6m/s | 2.7°C | 27.4% | 713.0hPa | 2.5V | 00:00:00 | 02:55:12 | 00:00:00 | |
| OE5MMP-10 | 2026-09-06 00:59:59 | 48.69907 | 13.52207 | 105° | 71km/h | 3127m | -13.6m/s | 2.3°C | 26.3% | 706.7hPa | 2.5V | 00:00:00 | 02:55:06 | 00:00:00 | |
| OE5HKT-10 | 2026-09-06 00:59:57 | 48.69916 | 13.52156 | 105° | 71km/h | 3152m | -12.7m/s | 2.2°C | 26.3% | 704.5hPa | 2.5V | 00:00:00 | 00:00:00 | 00:00:00 | |
| OE3JTB-15 | 2026-09-06 00:59:55 | 48.69925 | 13.52104 | 105° | 73km/h | 3177m | -12.4m/s | 2.0°C | 27.0% | 702.4hPa | 2.5V | 00:00:00 | 02:55:02 | 00:00:00 | |
| OE5MMP-10 | 2026-09-06 00:59:49 | 48.69956 | 13.51946 | 107° | 71km/h | 3249m | -13.0m/s | 1.5°C | 26.1% | 696.2hPa | 2.5V | 00:00:00 | 02:54:56 | 00:00:00 | |
| OE5WHR-10 | 2026-09-06 00:59:48 | 48.69961 | 13.51919 | 108° | 73km/h | 3262m | -13.1m/s | 1.5°C | 25.3% | 695.0hPa | 2.5V | 00:00:00 | 00:00:00 | 00:00:00 | |
| OE5DRO-10 | 2026-09-06 00:59:43 | 48.69988 | 13.51788 | 107° | 75km/h | 3324m | -13.3m/s | 1.1°C | 25.2% | 689.7hPa | 2.5V | 00:00:00 | 00:00:00 | 00:00:00 | |
| OE5HKT-10 | 2026-09-06 00:59:40 | 48.70006 | 13.51709 | 108° | 75km/h | 3362m | -13.9m/s | 0.9°C | 26.3% | 686.6hPa | 2.5V | 00:00:00 | 02:54:47 | 00:00:00 | |
| OE5MMP-10 | 2026-09-06 00:59:39 | 48.70012 | 13.51683 | 109° | 77km/h | 3376m | -13.7m/s | 0.8°C | 25.4% | 685.6hPa | 2.5V | 03:07:00 | 02:54:46 | 00:00:00 | |
| OE5DXL-15 | 2026-09-06 00:59:38 | 48.70018 | 13.51657 | 108° | 77km/h | 3389m | -13.7m/s | 0.8°C | 25.4% | 684.5hPa | 2.5V | 00:00:00 | 00:00:00 | 00:00:00 | |
| OE5WHR-10 | 2026-09-06 00:59:31 | 48.70062 | 13.51465 | 110° | 77km/h | 3477m | -12.6m/s | 0.3°C | 24.7% | 677.1hPa | 2.6V | 03:07:00 | 00:00:00 | 00:00:00 | |
| OE5MMP-10 | 2026-09-06 00:59:29 | 48.70076 | 13.51409 | 111° | 77km/h | 3502m | -12.6m/s | 0.1°C | 23.3% | 675.0hPa | 2.6V | 00:00:00 | 02:54:36 | 00:00:00 | |
| OE5DRO-10 | 2026-09-06 00:59:27 | 48.70091 | 13.51353 | 113° | 77km/h | 3526m | -13.2m/s | 0.0°C | 22.8% | 673.0hPa | 2.5V | 00:00:00 | 00:00:00 | 00:00:00 | |
| OE3JTB-15 | 2026-09-06 00:59:24 | 48.70114 | 13.51272 | 111° | 77km/h | 3563m | -14.3m/s | -0.2°C | 23.0% | 669.8hPa | 2.6V | 00:00:00 | 00:00:00 | 00:00:00 | |
| OE5HKT-10 | 2026-09-06 00:59:23 | 48.70121 | 13.51246 | 113° | 78km/h | 3577m | -14.0m/s | -0.3°C | 22.9% | 668.8hPa | 2.6V | 03:08:00 | 00:00:00 | 00:00:00 | |
| OE5MMP-10 | 2026-09-06 00:59:19 | 48.70153 | 13.51141 | 114° | 78km/h | 3631m | -13.1m/s | -0.7°C | 22.7% | 664.4hPa | 2.6V | 00:00:00 | 02:54:26 | 00:00:00 | |
| OE5WHR-10 | 2026-09-06 00:59:14 | 48.70193 | 13.51006 | 115° | 78km/h | 3695m | -12.8m/s | -0.8°C | 24.0% | 659.2hPa | 2.6V | 00:00:00 | 02:54:21 | 00:00:00 | |
| OE5DRO-10 | 2026-09-06 00:59:11 | 48.70220 | 13.50927 | 118° | 77km/h | 3732m | -12.2m/s | -0.9°C | 19.6% | 656.1hPa | 2.6V | 03:08:00 | 00:00:00 | 00:00:00 | |
| OE5MMP-10 | 2026-09-06 00:59:09 | 48.70238 | 13.50875 | 116° | 77km/h | 3756m | -12.5m/s | -0.7°C | 12.9% | 654.0hPa | 2.6V | 00:00:00 | 02:54:16 | 00:00:00 | |
| OE5DXL-15 | 2026-09-06 00:59:08 | 48.70247 | 13.50849 | 117° | 78km/h | 3769m | -12.2m/s | -0.7°C | 11.1% | 653.0hPa | 2.6V | 00:00:00 | 00:00:00 | 00:00:00 | |
| OE5HKT-10 | 2026-09-06 00:59:06 | 48.70265 | 13.50797 | 117° | 77km/h | 3792m | -12.2m/s | -0.7°C | 10.7% | 651.0hPa | 2.6V | 00:00:00 | 00:00:00 | 00:00:00 | |
| OE5MMP-10 | 2026-09-06 00:58:59 | 48.70328 | 13.50617 | 116° | 77km/h | 3879m | -13.5m/s | -0.3°C | 3.7% | 643.9hPa | 2.6V | 03:08:00 | 02:54:06 | 00:00:00 | |
| OE5WHR-10 | 2026-09-06 00:58:57 | 48.70345 | 13.50566 | 118° | 78km/h | 3904m | -13.2m/s | -0.4°C | 5.6% | 641.9hPa | 2.5V | 00:00:00 | 00:00:00 | 00:00:00 | |
| OE5DRO-10 | 2026-09-06 00:58:55 | 48.70363 | 13.50514 | 118° | 78km/h | 3930m | -12.9m/s | -0.6°C | 5.7% | 639.9hPa | 2.6V | 00:00:00 | 00:00:00 | 00:00:00 | |
| OE5HKT-10 | 2026-09-06 00:58:49 | 48.70419 | 13.50361 | 120° | 78km/h | 4005m | -12.1m/s | -1.0°C | 10.6% | 634.0hPa | 2.6V | 00:00:00 | 02:53:56 | 00:00:00 | |
| OE5WHR-10 | 2026-09-06 00:58:40 | 48.70515 | 13.50136 | 124° | 77km/h | 4115m | -12.0m/s | -1.1°C | 5.9% | 625.1hPa | 2.6V | 00:00:00 | 00:00:00 | 00:00:00 | |
| OE5MMP-10 | 2026-09-06 00:58:39 | 48.70526 | 13.50111 | 123° | 78km/h | 4126m | -12.3m/s | -1.1°C | 5.7% | 623.9hPa | 2.6V | 00:00:00 | 02:53:46 | 00:00:00 | |
| OE5DXL-15 | 2026-09-06 00:58:38 | 48.70538 | 13.50086 | 123° | 78km/h | 4138m | -12.7m/s | -1.1°C | 5.1% | 623.0hPa | 2.6V | 03:08:00 | 00:00:00 | 00:00:00 | |
| OE5HKT-10 | 2026-09-06 00:58:32 | 48.70605 | 13.49937 | 123° | 77km/h | 4212m | -13.2m/s | -1.3°C | 6.8% | 617.2hPa | 2.6V | 00:00:00 | 00:00:00 | 00:00:00 | |
| OE5MMP-10 | 2026-09-06 00:58:29 | 48.70638 | 13.49864 | 125° | 77km/h | 4252m | -13.4m/s | -1.5°C | 9.0% | 614.3hPa | 2.5V | 00:00:00 | 02:53:36 | 00:00:00 | |
| OE5WHR-10 | 2026-09-06 00:58:23 | 48.70706 | 13.49723 | 128° | 78km/h | 4326m | -11.8m/s | -2.0°C | 11.3% | 608.7hPa | 2.5V | 03:09:00 | 02:53:30 | 00:00:00 | |
| PG1ADW-2 | 2026-09-06 00:58:20 | 48.70742 | 13.49652 | 126° | 78km/h | 4361m | -12.3m/s | -2.3°C | 11.8% | 605.9hPa | 2.5V | 00:00:00 | 02:53:27 | 00:00:00 | |
| OE5MMP-10 | 2026-09-06 00:58:19 | 48.70754 | 13.49627 | 126° | 78km/h | 4372m | -12.5m/s | -2.4°C | 12.0% | 605.0hPa | 2.5V | 03:09:00 | 02:53:26 | 00:00:00 | |
| OE5HKT-10 | 2026-09-06 00:58:15 | 48.70802 | 13.49530 | 127° | 77km/h | 4418m | -13.9m/s | -2.7°C | 10.2% | 601.4hPa | 2.5V | 03:09:00 | 00:00:00 | 00:00:00 | |
| OE5MMP-10 | 2026-09-06 00:58:09 | 48.70875 | 13.49389 | 128° | 77km/h | 4490m | -13.0m/s | -3.1°C | 10.6% | 595.7hPa | 2.5V | 00:00:00 | 02:53:16 | 00:00:00 | |
| OE5DXL-15 | 2026-09-06 00:58:08 | 48.70887 | 13.49365 | 129° | 77km/h | 4502m | -13.9m/s | -3.2°C | 10.7% | 595.0hPa | 2.5V | 00:00:00 | 00:00:00 | 00:00:00 | |
| OE5DRO-10 | 2026-09-06 00:58:07 | 48.70899 | 13.49342 | 129° | 77km/h | 4515m | -12.9m/s | -3.3°C | 10.7% | 594.1hPa | 2.6V | 03:09:00 | 00:00:00 | 00:00:00 | |
| OE5WHR-10 | 2026-09-06 00:58:06 | 48.70912 | 13.49320 | 131° | 77km/h | 4527m | -12.6m/s | -3.3°C | 10.9% | 593.1hPa | 2.6V | 00:00:00 | 00:00:00 | 00:00:00 | |
| OE3JTB-15 | 2026-09-06 00:58:02 | 48.70962 | 13.49230 | 129° | 82km/h | 4573m | -11.8m/s | -3.5°C | 10.0% | 589.6hPa | 2.6V | 03:09:00 | 00:00:00 | 00:00:00 | |
| PG1ADW-2 | 2026-09-06 00:58:00 | 48.70987 | 13.49184 | 128° | 77km/h | 4596m | -12.4m/s | -3.6°C | 9.8% | 587.8hPa | 2.6V | 00:00:00 | 00:00:00 | 00:00:00 | |
| OE5MMP-10 | 2026-09-06 00:57:59 | 48.70999 | 13.49160 | 128° | 75km/h | 4607m | -12.5m/s | -3.7°C | 9.8% | 586.9hPa | 2.6V | 00:00:00 | 02:53:06 | 00:00:00 | |
| OE5HKT-10 | 2026-09-06 00:57:58 | 48.71012 | 13.49137 | 128° | 77km/h | 4618m | -13.3m/s | -3.7°C | 9.5% | 586.0hPa | 2.5V | 00:00:00 | 02:53:05 | 00:00:00 | |
| OE5DRO-10 | 2026-09-06 00:57:51 | 48.71096 | 13.48979 | 130° | 77km/h | 4706m | -13.2m/s | -4.2°C | 11.8% | 579.9hPa | 2.5V | 00:00:00 | 00:00:00 | 00:00:00 | |
| OE5MMP-10 | 2026-09-06 00:57:49 | 48.71120 | 13.48933 | 130° | 77km/h | 4731m | -12.4m/s | -4.4°C | 12.7% | 578.1hPa | 2.6V | 00:00:00 | 02:52:56 | 00:00:00 | |
| OE5HKT-10 | 2026-09-06 00:57:41 | 48.71217 | 13.48745 | 124° | 78km/h | 4827m | -12.7m/s | -5.1°C | 12.6% | 571.2hPa | 2.6V | 00:00:00 | 00:00:00 | 00:00:00 | |
| PG1ADW-2 | 2026-09-06 00:57:40 | 48.71228 | 13.48721 | 125° | 80km/h | 4839m | -12.7m/s | -5.2°C | 13.0% | 570.3hPa | 2.6V | 03:09:00 | 00:00:00 | 00:00:00 | |
| OE5MMP-10 | 2026-09-06 00:57:39 | 48.71239 | 13.48696 | 126° | 78km/h | 4851m | -13.1m/s | -5.3°C | 13.5% | 569.6hPa | 2.5V | 03:09:00 | 02:52:46 | 00:00:00 | |
| OE5DXL-15 | 2026-09-06 00:57:38 | 48.71250 | 13.48673 | 126° | 82km/h | 4863m | -12.6m/s | -5.4°C | 13.7% | 568.7hPa | 2.5V | 00:00:00 | 00:00:00 | 00:00:00 | |
| OE5DRO-10 | 2026-09-06 00:57:35 | 48.71284 | 13.48603 | 126° | 80km/h | 4898m | -12.8m/s | -5.7°C | 12.8% | 566.1hPa | 2.5V | 00:00:00 | 00:00:00 | 00:00:00 | |
| OE5WHR-10 | 2026-09-06 00:57:32 | 48.71319 | 13.48530 | 126° | 82km/h | 4934m | -12.0m/s | -5.9°C | 11.1% | 563.4hPa | 2.5V | 00:00:00 | 02:52:39 | 00:00:00 | |
| OE5MMP-10 | 2026-09-06 00:57:29 | 48.71355 | 13.48454 | 125° | 82km/h | 4969m | -11.7m/s | -6.2°C | 11.5% | 560.9hPa | 2.5V | 00:00:00 | 02:52:36 | 00:00:00 | |
| OE5HKT-10 | 2026-09-06 00:57:24 | 48.71415 | 13.48324 | 125° | 84km/h | 5025m | -12.7m/s | -6.5°C | 11.6% | 556.8hPa | 2.6V | 00:00:00 | 00:00:00 | 00:00:00 | |
| OE5MMP-10 | 2026-09-06 00:57:19 | 48.71475 | 13.48196 | 126° | 86km/h | 5085m | -12.6m/s | -6.6°C | 10.3% | 552.5hPa | 2.6V | 00:00:00 | 02:52:26 | 00:00:00 | |
| OE5WHR-10 | 2026-09-06 00:57:15 | 48.71524 | 13.48090 | 124° | 88km/h | 5131m | -12.1m/s | -6.7°C | 9.8% | 549.2hPa | 2.6V | 03:10:00 | 00:00:00 | 00:00:00 | |
| OE5DXL-15 | 2026-09-06 00:57:09 | 48.71613 | 13.47900 | 126° | 89km/h | 5216m | -12.4m/s | -7.0°C | 6.3% | 543.4hPa | 2.5V | 00:00:00 | 00:00:00 | 00:00:00 | |
| OE5HKT-10 | 2026-09-06 00:57:07 | 48.71626 | 13.47872 | 125° | 89km/h | 5228m | -12.4m/s | -7.1°C | 6.4% | 542.6hPa | 2.5V | 03:10:00 | 02:52:14 | 00:00:00 | |
| OE5DRO-10 | 2026-09-06 00:57:03 | 48.71677 | 13.47762 | 126° | 89km/h | 5279m | -13.7m/s | -7.4°C | 6.4% | 539.3hPa | 2.5V | 03:10:00 | 00:00:00 | 00:00:00 | |
| PG1ADW-2 | 2026-09-06 00:57:00 | 48.71715 | 13.47680 | 127° | 91km/h | 5318m | -11.4m/s | -7.5°C | 6.3% | 536.7hPa | 2.5V | 00:00:00 | 02:52:07 | 00:00:00 | |
| OE5MMP-10 | 2026-09-06 00:56:59 | 48.71728 | 13.47653 | 126° | 91km/h | 5329m | -11.4m/s | -7.6°C | 6.2% | 535.9hPa | 2.5V | 03:10:00 | 02:52:06 | 00:00:00 | |
| OE5WHR-10 | 2026-09-06 00:56:58 | 48.71742 | 13.47625 | 127° | 91km/h | 5340m | -11.9m/s | -7.7°C | 6.2% | 535.1hPa | 2.6V | 00:00:00 | 00:00:00 | 00:00:00 | |
| OE5HKT-10 | 2026-09-06 00:56:50 | 48.71849 | 13.47397 | 123° | 91km/h | 5432m | -12.7m/s | -8.0°C | 5.6% | 528.4hPa | 2.6V | 00:00:00 | 00:00:00 | 00:00:00 | |
| OE5MMP-10 | 2026-09-06 00:56:49 | 48.71862 | 13.47367 | 123° | 91km/h | 5444m | -13.9m/s | -8.1°C | 5.6% | 527.7hPa | 2.6V | 00:00:00 | 02:51:56 | 00:00:00 | |
| OE5DRO-10 | 2026-09-06 00:56:47 | 48.71887 | 13.47308 | 123° | 91km/h | 5469m | -12.4m/s | -8.1°C | 5.2% | 526.0hPa | 2.6V | 00:00:00 | 00:00:00 | 00:00:00 | |
| OE5WHR-10 | 2026-09-06 00:56:41 | 48.71966 | 13.47136 | 125° | 91km/h | 5539m | -13.4m/s | -8.6°C | 5.6% | 521.2hPa | 2.6V | 00:00:00 | 02:51:48 | 00:00:00 | |
| PG1ADW-2 | 2026-09-06 00:56:40 | 48.71979 | 13.47108 | 125° | 91km/h | 5551m | -13.3m/s | -8.7°C | 5.5% | 520.3hPa | 2.6V | 00:00:00 | 00:00:00 | 00:00:00 | |
| OE5MMP-10 | 2026-09-06 00:56:39 | 48.71992 | 13.47080 | 124° | 91km/h | 5564m | -13.0m/s | -8.7°C | 5.4% | 519.6hPa | 2.6V | 00:00:00 | 02:51:46 | 00:00:00 | |
| OE5DXL-15 | 2026-09-06 00:56:38 | 48.72005 | 13.47051 | 125° | 95km/h | 5577m | -13.1m/s | -8.8°C | 5.2% | 518.8hPa | 2.6V | 03:10:00 | 00:00:00 | 00:00:00 | |
| OE5MMP-10 | 2026-09-06 00:56:29 | 48.72125 | 13.46794 | 123° | 93km/h | 5687m | -12.9m/s | -9.4°C | 8.3% | 511.6hPa | 2.6V | 00:00:00 | 02:51:36 | 00:00:00 | |
| OE5DRO-10 | 2026-09-06 00:56:28 | 48.72137 | 13.46765 | 122° | 95km/h | 5699m | -13.3m/s | -9.4°C | 8.4% | 510.7hPa | 2.6V | 00:00:00 | 00:00:00 | 00:00:00 | |
| OE5WHR-10 | 2026-09-06 00:56:20 | 48.72240 | 13.46525 | 122° | 95km/h | 5801m | -12.1m/s | -10.2°C | 11.8% | 504.3hPa | 2.6V | 00:00:00 | 00:00:00 | 00:00:00 | |
| OE5MMP-10 | 2026-09-06 00:56:19 | 48.72253 | 13.46493 | 123° | 97km/h | 5814m | -12.3m/s | -10.3°C | 11.9% | 503.5hPa | 2.6V | 03:11:00 | 02:51:26 | 00:00:00 | |
| OE3JTB-15 | 2026-09-06 00:56:18 | 48.72266 | 13.46463 | 123° | 51km/h | 5826m | -13.4m/s | -10.4°C | 11.8% | 502.7hPa | 2.6V | 00:00:00 | 00:00:00 | 00:00:00 | |
| OE5REO-15 | 2026-09-06 00:56:12 | 48.72335 | 13.46310 | 127° | 97km/h | 5886m | -11.8m/s | -10.9°C | 12.6% | 498.8hPa | 2.6V | 00:00:00 | 00:00:00 | 00:00:00 | |
| OE5MMP-10 | 2026-09-06 00:56:09 | 48.72393 | 13.46190 | 125° | 95km/h | 5932m | -12.3m/s | -11.3°C | 17.2% | 495.5hPa | 2.6V | 00:00:00 | 02:51:16 | 00:00:00 | |
| OE5DXL-15 | 2026-09-06 00:56:08 | 48.72408 | 13.46160 | 125° | 93km/h | 5944m | -13.0m/s | -11.4°C | 17.3% | 494.8hPa | 2.6V | 00:00:00 | 00:00:00 | 00:00:00 | |
| PG1ADW-2 | 2026-09-06 00:56:00 | 48.72516 | 13.45920 | 125° | 93km/h | 6041m | -13.7m/s | -12.0°C | 12.5% | 488.5hPa | 2.6V | 00:00:00 | 00:00:00 | 00:00:00 | |
| OE5MMP-10 | 2026-09-06 00:55:59 | 48.72529 | 13.45891 | 126° | 93km/h | 6054m | -12.7m/s | -12.1°C | 14.2% | 487.7hPa | 2.6V | 00:00:00 | 02:51:06 | 00:00:00 | |
| OE5REO-15 | 2026-09-06 00:55:57 | 48.72543 | 13.45862 | 128° | 93km/h | 6067m | -11.6m/s | -12.1°C | 19.2% | 487.0hPa | 2.6V | 00:00:00 | 00:00:00 | 00:00:00 | |
| OE5DRO-10 | 2026-09-06 00:55:50 | 48.72658 | 13.45632 | 132° | 97km/h | 6163m | -12.5m/s | -12.7°C | 38.7% | 480.8hPa | 2.6V | 03:11:00 | 00:00:00 | 00:00:00 | |
| OE5MMP-10 | 2026-09-06 00:55:49 | 48.72673 | 13.45605 | 132° | 93km/h | 6175m | -12.5m/s | -12.7°C | 38.8% | 480.0hPa | 2.6V | 00:00:00 | 02:50:56 | 00:00:00 | |
| OE5REO-15 | 2026-09-06 00:55:42 | 48.72769 | 13.45449 | 135° | 93km/h | 6247m | -13.5m/s | -12.7°C | 40.3% | 475.5hPa | 2.6V | 03:12:00 | 00:00:00 | 00:00:00 | |
| PG1ADW-2 | 2026-09-06 00:55:40 | 48.72821 | 13.45369 | 136° | 100km/h | 6283m | -13.0m/s | -12.5°C | 43.7% | 473.1hPa | 2.6V | 00:00:00 | 02:50:47 | 00:00:00 | |
| OE5MMP-10 | 2026-09-06 00:55:39 | 48.72839 | 13.45343 | 137° | 100km/h | 6295m | -12.9m/s | -12.4°C | 43.4% | 472.3hPa | 2.6V | 03:11:00 | 02:50:46 | 00:00:00 | |
| OE5DXL-15 | 2026-09-06 00:55:38 | 48.72858 | 13.45317 | 139° | 100km/h | 6308m | -13.6m/s | -12.4°C | 42.7% | 471.5hPa | 2.6V | 00:00:00 | 00:00:00 | 00:00:00 | |
| OE5DRO-10 | 2026-09-06 00:55:31 | 48.72994 | 13.45145 | 139° | 100km/h | 6394m | -12.6m/s | -12.3°C | 41.1% | 466.2hPa | 2.6V | 00:00:00 | 00:00:00 | 00:00:00 | |
| OE5MMP-10 | 2026-09-06 00:55:29 | 48.73032 | 13.45093 | 138° | 100km/h | 6419m | -13.2m/s | -12.4°C | 41.4% | 464.7hPa | 2.6V | 00:00:00 | 02:50:36 | 00:00:00 | |
| OE5REO-15 | 2026-09-06 00:55:26 | 48.73071 | 13.45043 | 141° | 99km/h | 6446m | -13.7m/s | -12.4°C | 37.9% | 463.2hPa | 2.5V | 03:12:00 | 00:00:00 | 00:00:00 | |
| PG1ADW-2 | 2026-09-06 00:55:20 | 48.73210 | 13.44873 | 144° | 100km/h | 6536m | -12.7m/s | -12.9°C | 38.4% | 457.8hPa | 2.5V | 00:00:00 | 00:00:00 | 00:00:00 | |
| OE5MMP-10 | 2026-09-06 00:55:19 | 48.73231 | 13.44850 | 143° | 102km/h | 6548m | -12.9m/s | -13.0°C | 38.3% | 457.0hPa | 2.5V | 00:00:00 | 02:50:26 | 00:00:00 | |
| OE5WHR-10 | 2026-09-06 00:55:17 | 48.73272 | 13.44802 | 141° | 100km/h | 6574m | -13.4m/s | -13.3°C | 38.5% | 455.5hPa | 2.5V | 00:00:00 | 00:00:00 | 00:00:00 | |
| OE5DRO-10 | 2026-09-06 00:55:12 | 48.73373 | 13.44686 | 142° | 102km/h | 6639m | -13.6m/s | -13.8°C | 39.2% | 451.7hPa | 2.5V | 00:00:00 | 00:00:00 | 00:00:00 | |
| OE5REO-15 | 2026-09-06 00:55:10 | 48.73394 | 13.44662 | 142° | 104km/h | 6652m | -13.1m/s | -13.9°C | 37.1% | 451.0hPa | 2.5V | 03:12:00 | 00:00:00 | 00:00:00 | |
| OE5MMP-10 | 2026-09-06 00:55:09 | 48.73435 | 13.44613 | 142° | 100km/h | 6677m | -13.7m/s | -14.1°C | 38.7% | 449.4hPa | 2.5V | 00:00:00 | 02:50:16 | 00:00:00 | |
| OE5DXL-15 | 2026-09-06 00:55:08 | 48.73455 | 13.44589 | 144° | 104km/h | 6691m | -13.3m/s | -14.2°C | 38.8% | 448.7hPa | 2.5V | 00:00:00 | 00:00:00 | 00:00:00 | |
| PG1ADW-2 | 2026-09-06 00:55:00 | 48.73615 | 13.44397 | 141° | 104km/h | 6794m | -14.0m/s | -15.0°C | 40.1% | 442.7hPa | 2.6V | 03:12:00 | 00:00:00 | 00:00:00 | |
| OE5MMP-10 | 2026-09-06 00:54:59 | 48.73634 | 13.44373 | 142° | 104km/h | 6809m | -13.5m/s | -15.1°C | 40.0% | 441.9hPa | 2.6V | 03:12:00 | 02:50:06 | 00:00:00 | |
| OE5WHR-10 | 2026-09-06 00:54:56 | 48.73695 | 13.44297 | 141° | 106km/h | 6847m | -13.0m/s | -15.3°C | 39.9% | 439.7hPa | 2.5V | 00:00:00 | 00:00:00 | 00:00:00 | |
| OE5REO-15 | 2026-09-06 00:54:54 | 48.73716 | 13.44272 | 143° | 104km/h | 6860m | -12.3m/s | -15.5°C | 37.1% | 438.9hPa | 2.5V | 03:12:00 | 00:00:00 | 00:00:00 | |
| OE5DRO-10 | 2026-09-06 00:54:53 | 48.73757 | 13.44224 | 143° | 106km/h | 6885m | -12.9m/s | -15.5°C | 38.2% | 437.3hPa | 2.5V | 00:00:00 | 00:00:00 | 00:00:00 | |
| OE5MMP-10 | 2026-09-06 00:54:49 | 48.73837 | 13.44124 | 137° | 106km/h | 6938m | -13.4m/s | -15.7°C | 34.4% | 434.4hPa | 2.5V | 00:00:00 | 02:49:56 | 00:00:00 | |
| PG1ADW-2 | 2026-09-06 00:54:40 | 48.74015 | 13.43877 | 138° | 108km/h | 7049m | -12.4m/s | -16.3°C | 32.7% | 427.7hPa | 2.5V | 00:00:00 | 00:00:00 | 00:00:00 | |
| OE5MMP-10 | 2026-09-06 00:54:39 | 48.74036 | 13.43849 | 137° | 106km/h | 7060m | -12.5m/s | -16.4°C | 32.7% | 427.0hPa | 2.6V | 00:00:00 | 02:49:46 | 00:00:00 | |
| OE5DXL-15 | 2026-09-06 00:54:38 | 48.74055 | 13.43820 | 136° | 110km/h | 7072m | -12.7m/s | -16.5°C | 32.5% | 426.4hPa | 2.6V | 03:12:00 | 00:00:00 | 00:00:00 | |
| OE5WHR-10 | 2026-09-06 00:54:35 | 48.74114 | 13.43734 | 136° | 108km/h | 7107m | -12.5m/s | -16.8°C | 31.7% | 424.2hPa | 2.6V | 03:12:00 | 02:49:42 | 00:00:00 | |
| OE5DRO-10 | 2026-09-06 00:54:34 | 48.74133 | 13.43705 | 135° | 108km/h | 7120m | -12.3m/s | -16.9°C | 31.4% | 423.5hPa | 2.6V | 03:12:00 | 00:00:00 | 00:00:00 | |
| OE5MMP-10 | 2026-09-06 00:54:29 | 48.74229 | 13.43564 | 136° | 108km/h | 7182m | -12.7m/s | -17.3°C | 30.2% | 420.0hPa | 2.6V | 00:00:00 | 02:49:36 | 00:00:00 | |
| OE5REO-15 | 2026-09-06 00:54:22 | 48.74346 | 13.43388 | 135° | 108km/h | 7255m | -13.4m/s | -17.8°C | 27.0% | 416.1hPa | 2.5V | 03:13:00 | 00:00:00 | 00:00:00 | |
| PG1ADW-2 | 2026-09-06 00:54:20 | 48.74405 | 13.43299 | 135° | 113km/h | 7293m | -14.0m/s | -18.1°C | 29.2% | 414.0hPa | 2.5V | 00:00:00 | 02:49:27 | 00:00:00 | |
| OE5MMP-10 | 2026-09-06 00:54:19 | 48.74425 | 13.43269 | 133° | 111km/h | 7307m | -14.0m/s | -18.2°C | 28.7% | 413.2hPa | 2.5V | 03:13:00 | 02:49:26 | 00:00:00 | |
| OE5DRO-10 | 2026-09-06 00:54:15 | 48.74501 | 13.43143 | 134° | 115km/h | 7360m | -13.1m/s | -18.4°C | 26.1% | 410.4hPa | 2.5V | 00:00:00 | 00:00:00 | 00:00:00 | |
| OE5WHR-10 | 2026-09-06 00:54:14 | 48.74520 | 13.43112 | 134° | 115km/h | 7373m | -12.3m/s | -18.5°C | 25.9% | 409.7hPa | 2.5V | 00:00:00 | 00:00:00 | 00:00:00 | |
| OE5MMP-10 | 2026-09-06 00:54:09 | 48.74616 | 13.42951 | 133° | 115km/h | 7430m | -13.2m/s | -19.0°C | 26.2% | 406.4hPa | 2.5V | 00:00:00 | 02:49:16 | 00:00:00 | |
| OE5DXL-15 | 2026-09-06 00:54:08 | 48.74636 | 13.42920 | 133° | 119km/h | 7443m | -12.8m/s | -19.1°C | 26.7% | 405.7hPa | 2.5V | 00:00:00 | 00:00:00 | 00:00:00 | |
| OE5REO-15 | 2026-09-06 00:54:07 | 48.74635 | 13.42920 | 134° | 113km/h | 7443m | -12.8m/s | -19.1°C | 24.9% | 405.7hPa | 2.5V | 03:13:00 | 00:00:00 | 00:00:00 | |
| PG1ADW-2 | 2026-09-06 00:54:00 | 48.74793 | 13.42653 | 132° | 119km/h | 7542m | -13.4m/s | -19.7°C | 26.9% | 400.4hPa | 2.5V | 00:00:00 | 00:00:00 | 00:00:00 | |
| OE5MMP-10 | 2026-09-06 00:53:59 | 48.74813 | 13.42620 | 134° | 119km/h | 7555m | -13.4m/s | -19.8°C | 26.7% | 399.7hPa | 2.5V | 00:00:00 | 02:49:06 | 00:00:00 | |
| OE5DRO-10 | 2026-09-06 00:53:56 | 48.74875 | 13.42522 | 133° | 120km/h | 7594m | -14.2m/s | -20.1°C | 27.1% | 397.7hPa | 2.5V | 00:00:00 | 00:00:00 | 00:00:00 | |
| OE5REO-15 | 2026-09-06 00:53:51 | 48.74957 | 13.42388 | 135° | 119km/h | 7648m | -13.3m/s | -20.5°C | 25.4% | 394.9hPa | 2.5V | 03:14:00 | 00:00:00 | 00:00:00 | |
| OE5MMP-10 | 2026-09-06 00:53:49 | 48.75019 | 13.42288 | 134° | 120km/h | 7686m | -12.9m/s | -20.8°C | 27.5% | 392.8hPa | 2.5V | 00:00:00 | 02:48:56 | 00:00:00 | |
| PG1ADW-2 | 2026-09-06 00:53:40 | 48.75210 | 13.41984 | 135° | 120km/h | 7796m | -12.9m/s | -21.8°C | 28.4% | 386.7hPa | 2.5V | 03:13:00 | 00:00:00 | 00:00:00 | |
| OE5MMP-10 | 2026-09-06 00:53:39 | 48.75231 | 13.41951 | 133° | 120km/h | 7808m | -14.4m/s | -22.0°C | 28.5% | 386.0hPa | 2.5V | 03:13:00 | 02:48:46 | 00:00:00 | |
| OE5DXL-15 | 2026-09-06 00:53:38 | 48.75251 | 13.41918 | 132° | 120km/h | 7822m | -14.1m/s | -22.1°C | 28.7% | 385.4hPa | 2.5V | 00:00:00 | 00:00:00 | 00:00:00 | |
| OE5DRO-10 | 2026-09-06 00:53:37 | 48.75271 | 13.41884 | 132° | 120km/h | 7835m | -14.4m/s | -22.2°C | 28.7% | 384.7hPa | 2.6V | 00:00:00 | 00:00:00 | 00:00:00 | |
| OE5REO-15 | 2026-09-06 00:53:36 | 48.75271 | 13.41884 | 132° | 117km/h | 7835m | -14.5m/s | -22.2°C | 26.5% | 384.8hPa | 2.6V | 03:14:00 | 00:00:00 | 00:00:00 | |
| OE5WHR-10 | 2026-09-06 00:53:32 | 48.75373 | 13.41715 | 132° | 120km/h | 7903m | -15.1m/s | -22.8°C | 29.8% | 381.3hPa | 2.6V | 00:00:00 | 02:48:39 | 00:00:00 | |
| OE5MMP-10 | 2026-09-06 00:53:29 | 48.75434 | 13.41610 | 133° | 120km/h | 7944m | -14.5m/s | -23.2°C | 30.4% | 379.3hPa | 2.6V | 00:00:00 | 02:48:36 | 00:00:00 | |
| PG1ADW-2 | 2026-09-06 00:53:20 | 48.75618 | 13.41300 | 131° | 120km/h | 8059m | -12.6m/s | -24.2°C | 30.5% | 373.2hPa | 2.5V | 00:00:00 | 00:00:00 | 00:00:00 | |
| OE5MMP-10 | 2026-09-06 00:53:19 | 48.75639 | 13.41264 | 130° | 120km/h | 8071m | -13.5m/s | -24.3°C | 30.5% | 372.5hPa | 2.5V | 00:00:00 | 02:48:26 | 00:00:00 | |
| OE5DRO-10 | 2026-09-06 00:53:18 | 48.75659 | 13.41227 | 130° | 119km/h | 8084m | -13.7m/s | -24.4°C | 30.2% | 371.9hPa | 2.5V | 03:14:00 | 00:00:00 | 00:00:00 | |
| OE5WHR-10 | 2026-09-06 00:53:11 | 48.75797 | 13.40984 | 130° | 120km/h | 8170m | -13.2m/s | -25.0°C | 28.0% | 367.4hPa | 2.5V | 03:14:00 | 00:00:00 | 00:00:00 | |
| OE5MMP-10 | 2026-09-06 00:53:09 | 48.75838 | 13.40910 | 130° | 119km/h | 8197m | -14.6m/s | -25.1°C | 27.1% | 366.1hPa | 2.5V | 00:00:00 | 02:48:16 | 00:00:00 | |
| OE5DXL-15 | 2026-09-06 00:53:08 | 48.75858 | 13.40874 | 130° | 119km/h | 8210m | -13.6m/s | -25.2°C | 27.1% | 365.5hPa | 2.5V | 00:00:00 | 02:48:15 | 00:00:00 | |
| DL6DJ-15 | 2026-09-06 00:53:05 | 48.75918 | 13.40768 | 131° | 117km/h | 8248m | -13.5m/s | -25.6°C | 24.0% | 363.7hPa | 2.5V | 00:00:00 | 00:00:00 | 00:00:00 | |
| OE5REO-15 | 2026-09-06 00:53:04 | 48.75918 | 13.40768 | 133° | 119km/h | 8248m | -13.5m/s | -25.6°C | 24.0% | 363.7hPa | 2.5V | 03:15:00 | 00:00:00 | 00:00:00 | |
| PG1ADW-2 | 2026-09-06 00:53:00 | 48.76018 | 13.40602 | 132° | 119km/h | 8311m | -14.3m/s | -26.1°C | 23.6% | 360.4hPa | 2.5V | 00:00:00 | 02:48:07 | 00:00:00 | |
| OE5MMP-10 | 2026-09-06 00:52:59 | 48.76038 | 13.40568 | 130° | 119km/h | 8325m | -14.1m/s | -26.2°C | 23.3% | 359.8hPa | 2.5V | 03:14:00 | 02:48:06 | 00:00:00 | |
| OE5DRO-10 | 2026-09-06 00:52:58 | 48.76057 | 13.40533 | 129° | 119km/h | 8338m | -14.0m/s | -26.3°C | 23.4% | 359.1hPa | 2.5V | 00:00:00 | 00:00:00 | 00:00:00 | |
| OE5WHR-10 | 2026-09-06 00:52:50 | 48.76217 | 13.40256 | 132° | 119km/h | 8437m | -13.5m/s | -27.1°C | 25.2% | 354.1hPa | 2.5V | 00:00:00 | 00:00:00 | 00:00:00 | |
| OE5MMP-10 | 2026-09-06 00:52:49 | 48.76237 | 13.40222 | 132° | 117km/h | 8450m | -13.9m/s | -27.2°C | 25.2% | 353.5hPa | 2.5V | 00:00:00 | 02:47:56 | 00:00:00 | |
| PG1ADW-2 | 2026-09-06 00:52:40 | 48.76415 | 13.39918 | 130° | 120km/h | 8570m | -13.6m/s | -28.3°C | 28.0% | 347.8hPa | 2.5V | 00:00:00 | 00:00:00 | 00:00:00 | |
| OE5MMP-10 | 2026-09-06 00:52:39 | 48.76435 | 13.39882 | 130° | 120km/h | 8583m | -13.6m/s | -28.4°C | 28.3% | 347.2hPa | 2.6V | 00:00:00 | 02:47:46 | 00:00:00 | |
| OE5DXL-15 | 2026-09-06 00:52:38 | 48.76455 | 13.39846 | 130° | 120km/h | 8596m | -13.7m/s | -28.5°C | 28.6% | 346.6hPa | 2.6V | 03:14:00 | 00:00:00 | 00:00:00 | |
| OE5DRO-10 | 2026-09-06 00:52:37 | 48.76475 | 13.39810 | 131° | 119km/h | 8609m | -13.6m/s | -28.6°C | 28.7% | 345.9hPa | 2.6V | 00:00:00 | 00:00:00 | 00:00:00 | |
| DL6DJ-15 | 2026-09-06 00:52:34 | 48.76535 | 13.39704 | 131° | 120km/h | 8649m | -14.2m/s | -29.0°C | 26.6% | 344.1hPa | 2.6V | 00:00:00 | 00:00:00 | 00:00:00 | |
| OE5REO-15 | 2026-09-06 00:52:33 | 48.76535 | 13.39704 | 132° | 120km/h | 8650m | -14.2m/s | -29.0°C | 26.6% | 344.2hPa | 2.6V | 03:15:00 | 00:00:00 | 00:00:00 | |
| OE5MMP-10 | 2026-09-06 00:52:29 | 48.76638 | 13.39532 | 135° | 119km/h | 8713m | -12.0m/s | -29.6°C | 30.7% | 341.1hPa | 2.6V | 00:00:00 | 02:47:36 | 00:00:00 | |
| DO8TBO-1 | 2026-09-06 00:52:26 | 48.76701 | 13.39434 | 136° | 119km/h | 8750m | -12.0m/s | -29.9°C | 31.4% | 339.2hPa | 2.6V | 00:00:00 | 02:47:33 | 00:00:00 | |
| PG1ADW-2 | 2026-09-06 00:52:20 | 48.76823 | 13.39240 | 133° | 119km/h | 8823m | -13.2m/s | -30.6°C | 31.9% | 335.7hPa | 2.6V | 03:15:00 | 00:00:00 | 00:00:00 | |
| OE5MMP-10 | 2026-09-06 00:52:19 | 48.76843 | 13.39206 | 132° | 122km/h | 8836m | -14.1m/s | -30.7°C | 31.9% | 335.1hPa | 2.6V | 03:15:00 | 02:47:26 | 00:00:00 | |
| OE5DRO-10 | 2026-09-06 00:52:18 | 48.76863 | 13.39172 | 132° | 119km/h | 8849m | -14.4m/s | -30.8°C | 0% | 334.5hPa | 2.6V | 00:00:00 | 00:00:00 | 00:00:00 | |
| OE5REO-15 | 2026-09-06 00:52:17 | 48.76863 | 13.39172 | 133° | 120km/h | 8849m | -14.5m/s | -30.9°C | 0% | 334.5hPa | 2.6V | 03:15:00 | 00:00:00 | 00:00:00 | |
| OE5MMP-10 | 2026-09-06 00:52:09 | 48.77045 | 13.38857 | 131° | 115km/h | 8962m | -13.5m/s | -31.6°C | 28.7% | 329.1hPa | 2.6V | 00:00:00 | 02:47:16 | 00:00:00 | |
| OE5WHR-10 | 2026-09-06 00:52:08 | 48.77064 | 13.38822 | 131° | 119km/h | 8975m | -12.9m/s | -31.7°C | 28.7% | 328.6hPa | 2.6V | 00:00:00 | 00:00:00 | 00:00:00 | |
| DL6DJ-15 | 2026-09-06 00:52:03 | 48.77160 | 13.38653 | 128° | 113km/h | 9035m | -13.7m/s | -32.3°C | 25.0% | 325.7hPa | 2.5V | 00:00:00 | 00:00:00 | 00:00:00 | |
| OE5REO-15 | 2026-09-06 00:52:01 | 48.77178 | 13.38619 | 130° | 113km/h | 9048m | -13.9m/s | -32.3°C | 24.7% | 325.1hPa | 2.5V | 03:15:00 | 00:00:00 | 00:00:00 | |
| PG1ADW-2 | 2026-09-06 00:52:00 | 48.77214 | 13.38552 | 130° | 119km/h | 9074m | -13.7m/s | -32.5°C | 27.4% | 323.9hPa | 2.5V | 00:00:00 | 00:00:00 | 00:00:00 | |
| OE5MMP-10 | 2026-09-06 00:51:59 | 48.77233 | 13.38518 | 130° | 119km/h | 9087m | -13.4m/s | -32.6°C | 27.3% | 323.3hPa | 2.5V | 00:00:00 | 02:47:06 | 00:00:00 | |
| DO8TBO-1 | 2026-09-06 00:51:52 | 48.77362 | 13.38268 | 128° | 119km/h | 9178m | -13.4m/s | -33.2°C | 25.0% | 319.3hPa | 2.6V | 03:15:00 | 02:46:59 | 00:00:00 | |
| OE5MMP-10 | 2026-09-06 00:51:49 | 48.77421 | 13.38158 | 130° | 117km/h | 9215m | -13.0m/s | -33.6°C | 26.5% | 317.5hPa | 2.6V | 00:00:00 | 02:46:56 | 00:00:00 | |
| OE5WHR-10 | 2026-09-06 00:51:47 | 48.77461 | 13.38086 | 131° | 117km/h | 9240m | -14.2m/s | -33.8°C | 27.5% | 316.4hPa | 2.6V | 03:15:00 | 00:00:00 | 00:00:00 | |
| OE5REO-15 | 2026-09-06 00:51:45 | 48.77481 | 13.38051 | 133° | 119km/h | 9253m | -13.7m/s | -34.0°C | 24.7% | 315.9hPa | 2.6V | 03:15:00 | 00:00:00 | 00:00:00 | |
| PG1ADW-2 | 2026-09-06 00:51:40 | 48.77594 | 13.37852 | 128° | 119km/h | 9333m | -14.4m/s | -34.6°C | 31.0% | 312.2hPa | 2.6V | 00:00:00 | 02:46:47 | 00:00:00 | |
| OE5MMP-10 | 2026-09-06 00:51:39 | 48.77612 | 13.37818 | 128° | 117km/h | 9347m | -14.5m/s | -34.8°C | 31.3% | 311.7hPa | 2.5V | 03:15:00 | 02:46:46 | 00:00:00 | |
| OE5DXL-15 | 2026-09-06 00:51:38 | 48.77629 | 13.37784 | 127° | 120km/h | 9361m | -13.5m/s | -34.9°C | 31.7% | 311.1hPa | 2.5V | 00:00:00 | 00:00:00 | 00:00:00 | |
| DL6DJ-15 | 2026-09-06 00:51:32 | 48.77738 | 13.37576 | 129° | 117km/h | 9444m | -13.4m/s | -35.7°C | 27.8% | 307.5hPa | 2.5V | 00:00:00 | 00:00:00 | 00:00:00 | |
| OE5REO-15 | 2026-09-06 00:51:31 | 48.77757 | 13.37542 | 131° | 119km/h | 9457m | -13.3m/s | -35.8°C | 27.4% | 306.9hPa | 2.5V | 03:15:00 | 00:00:00 | 00:00:00 | |
| OE5MMP-10 | 2026-09-06 00:51:29 | 48.77796 | 13.37471 | 130° | 120km/h | 9482m | -13.0m/s | -35.9°C | 31.2% | 305.7hPa | 2.5V | 00:00:00 | 02:46:36 | 00:00:00 | |
| OE5WHR-10 | 2026-09-06 00:51:26 | 48.77853 | 13.37364 | 127° | 120km/h | 9520m | -13.5m/s | -36.2°C | 28.9% | 303.9hPa | 2.6V | 00:00:00 | 02:46:33 | 00:00:00 | |
| DO8TBO-1 | 2026-09-06 00:51:22 | 48.77925 | 13.37214 | 124° | 57km/h | 9574m | -14.2m/s | -36.5°C | 28.0% | 301.7hPa | 2.6V | 00:00:00 | 02:46:29 | 00:00:00 | |
| OE5DRO-10 | 2026-09-06 00:51:21 | 48.77942 | 13.37176 | 125° | 122km/h | 9587m | -13.9m/s | -36.6°C | 28.0% | 301.1hPa | 2.6V | 00:00:00 | 00:00:00 | 00:00:00 | |
| OE5MMP-10 | 2026-09-06 00:51:19 | 48.77976 | 13.37100 | 124° | 120km/h | 9614m | -14.3m/s | -36.8°C | 27.9% | 299.9hPa | 2.5V | 00:00:00 | 02:46:26 | 00:00:00 | |
| OE5REO-15 | 2026-09-06 00:51:14 | 48.78044 | 13.36950 | 128° | 120km/h | 9669m | -13.7m/s | -37.2°C | 23.9% | 297.6hPa | 2.5V | 03:16:00 | 00:00:00 | 00:00:00 | |
| OE5HKT-10 | 2026-09-06 00:51:12 | 48.78097 | 13.36834 | 125° | 122km/h | 9710m | -14.3m/s | -37.5°C | 27.5% | 295.8hPa | 2.5V | 00:00:00 | 02:46:19 | 00:00:00 | |
| S52SK | 2026-09-06 00:51:11 | 48.78097 | 13.36834 | 126° | 122km/h | 9710m | -14.3m/s | -37.5°C | 23.9% | 295.9hPa | 2.5V | 00:00:00 | 00:00:00 | 00:00:00 | |
| OE5MMP-10 | 2026-09-06 00:51:09 | 48.78151 | 13.36717 | 125° | 122km/h | 9749m | -13.6m/s | -37.7°C | 27.1% | 294.1hPa | 2.5V | 00:00:00 | 02:46:16 | 00:00:00 | |
| OE5DXL-15 | 2026-09-06 00:51:08 | 48.78168 | 13.36677 | 124° | 122km/h | 9762m | -13.9m/s | -37.8°C | 26.9% | 293.5hPa | 2.5V | 00:00:00 | 00:00:00 | 00:00:00 | |
| S52SK | 2026-09-06 00:51:06 | 48.78186 | 13.36638 | 124° | 124km/h | 9774m | -14.7m/s | -37.9°C | 23.5% | 293.0hPa | 2.5V | 00:00:00 | 00:00:00 | 00:00:00 | |
| OE5WHR-10 | 2026-09-06 00:51:05 | 48.78220 | 13.36561 | 125° | 122km/h | 9801m | -14.1m/s | -38.1°C | 27.7% | 291.8hPa | 2.5V | 00:00:00 | 00:00:00 | 00:00:00 | |
| DL6DJ-15 | 2026-09-06 00:51:01 | 48.78290 | 13.36406 | 125° | 122km/h | 9857m | -15.2m/s | -38.7°C | 25.4% | 289.5hPa | 2.6V | 00:00:00 | 00:00:00 | 00:00:00 | |
| PG1ADW-2 | 2026-09-06 00:51:00 | 48.78308 | 13.36367 | 124° | 122km/h | 9872m | -15.1m/s | -38.8°C | 29.7% | 288.9hPa | 2.6V | 03:16:00 | 00:00:00 | 00:00:00 | |
| OE5MMP-10 | 2026-09-06 00:50:59 | 48.78325 | 13.36328 | 124° | 122km/h | 9886m | -15.4m/s | -38.9°C | 30.2% | 288.4hPa | 2.6V | 03:16:00 | 02:46:06 | 00:00:00 | |
| OE5HKT-10 | 2026-09-06 00:50:51 | 48.78464 | 13.36018 | 125° | 120km/h | 10000m | -14.0m/s | -40.0°C | 32.7% | 283.6hPa | 2.6V | 03:16:00 | 00:00:00 | 00:00:00 | |
| OE5MMP-10 | 2026-09-06 00:50:49 | 48.78499 | 13.35941 | 123° | 120km/h | 10026m | -14.4m/s | -40.2°C | 32.6% | 282.5hPa | 2.6V | 00:00:00 | 02:45:56 | 00:00:00 | |
| OE5WHR-10 | 2026-09-06 00:50:44 | 48.78584 | 13.35746 | 125° | 117km/h | 10095m | -14.8m/s | -40.9°C | 33.2% | 279.6hPa | 2.6V | 00:00:00 | 00:00:00 | 00:00:00 | |
| PETON7-10 | 2026-09-06 00:50:43 | 48.78602 | 13.35708 | 125° | 113km/h | 10109m | -15.4m/s | -41.0°C | 33.4% | 279.0hPa | 2.6V | 00:00:00 | 00:00:00 | 00:00:00 | |
| PG1ADW-2 | 2026-09-06 00:50:40 | 48.78653 | 13.35593 | 125° | 115km/h | 10152m | -14.5m/s | -41.4°C | 33.9% | 277.3hPa | 2.5V | 00:00:00 | 00:00:00 | 00:00:00 | |
| OE5DXL-15 | 2026-09-06 00:50:38 | 48.78687 | 13.35516 | 122° | 113km/h | 10181m | -16.1m/s | -41.7°C | 33.7% | 276.1hPa | 2.5V | 03:16:00 | 00:00:00 | 00:00:00 | |
| OE5HKT-10 | 2026-09-06 00:50:30 | 48.78814 | 13.35215 | 123° | 115km/h | 10302m | -15.3m/s | -42.6°C | 30.8% | 271.3hPa | 2.6V | 00:00:00 | 00:00:00 | 00:00:00 | |
| OE5MMP-10 | 2026-09-06 00:50:29 | 48.78829 | 13.35177 | 121° | 113km/h | 10317m | -15.7m/s | -42.7°C | 30.6% | 270.7hPa | 2.6V | 00:00:00 | 02:45:36 | 00:00:00 | |
| OE5REO-15 | 2026-09-06 00:50:28 | 48.78829 | 13.35177 | 121° | 117km/h | 10317m | -15.8m/s | -42.7°C | 26.0% | 270.8hPa | 2.6V | 03:17:00 | 00:00:00 | 00:00:00 | |
| OE5DRO-10 | 2026-09-06 00:50:24 | 48.78901 | 13.34991 | 121° | 113km/h | 10391m | -15.6m/s | -43.3°C | 29.4% | 267.7hPa | 2.6V | 00:00:00 | 00:00:00 | 00:00:00 | |
| PG1ADW-2 | 2026-09-06 00:50:20 | 48.78960 | 13.34843 | 122° | 115km/h | 10451m | -15.6m/s | -43.8°C | 29.4% | 265.3hPa | 2.6V | 00:00:00 | 02:45:27 | 00:00:00 | |
| OE5MMP-10 | 2026-09-06 00:50:19 | 48.78975 | 13.34808 | 123° | 113km/h | 10466m | -15.7m/s | -43.9°C | 29.4% | 264.8hPa | 2.6V | 03:17:00 | 02:45:26 | 00:00:00 | |
| PETON7-10 | 2026-09-06 00:50:18 | 48.78990 | 13.34771 | 123° | 117km/h | 10481m | -15.5m/s | -44.0°C | 29.2% | 264.1hPa | 2.6V | 03:17:00 | 00:00:00 | 00:00:00 | |
| OE5REO-15 | 2026-09-06 00:50:12 | 48.79068 | 13.34590 | 124° | 115km/h | 10556m | -15.9m/s | -44.7°C | 23.1% | 261.2hPa | 2.6V | 03:17:00 | 00:00:00 | 00:00:00 | |
| OE5MMP-10 | 2026-09-06 00:50:09 | 48.79132 | 13.34445 | 128° | 117km/h | 10616m | -15.9m/s | -45.0°C | 25.2% | 258.9hPa | 2.6V | 00:00:00 | 02:45:16 | 00:00:00 | |
| OE5DXL-15 | 2026-09-06 00:50:08 | 48.79149 | 13.34409 | 126° | 120km/h | 10631m | -15.8m/s | -45.0°C | 24.6% | 258.3hPa | 2.6V | 00:00:00 | 00:00:00 | 00:00:00 | |
| OE5DRO-10 | 2026-09-06 00:50:05 | 48.79201 | 13.34300 | 128° | 119km/h | 10677m | -15.9m/s | -45.2°C | 23.4% | 256.6hPa | 2.6V | 00:00:00 | 00:00:00 | 00:00:00 | |
| OE5WHR-10 | 2026-09-06 00:50:02 | 48.79255 | 13.34191 | 128° | 120km/h | 10723m | -14.4m/s | -45.4°C | 23.5% | 254.8hPa | 2.6V | 00:00:00 | 00:00:00 | 00:00:00 | |
| PETON7-10 | 2026-09-06 00:50:01 | 48.79273 | 13.34155 | 127° | 119km/h | 10737m | -14.9m/s | -45.6°C | 23.7% | 254.3hPa | 2.5V | 00:00:00 | 02:45:08 | 00:00:00 | |
| PG1ADW-2 | 2026-09-06 00:50:00 | 48.79290 | 13.34118 | 124° | 120km/h | 10751m | -15.3m/s | -45.7°C | 24.0% | 253.7hPa | 2.5V | 00:00:00 | 00:00:00 | 00:00:00 | |
| OE5MMP-10 | 2026-09-06 00:49:59 | 48.79307 | 13.34081 | 126° | 119km/h | 10766m | -15.4m/s | -45.8°C | 24.2% | 253.2hPa | 2.5V | 00:00:00 | 02:45:06 | 00:00:00 | |
| OE5HKT-10 | 2026-09-06 00:49:58 | 48.79325 | 13.34045 | 127° | 122km/h | 10782m | -14.8m/s | -46.0°C | 24.6% | 252.6hPa | 2.6V | 00:00:00 | 02:45:05 | 00:00:00 | |
| OE5REO-15 | 2026-09-06 00:49:56 | 48.79342 | 13.34007 | 125° | 119km/h | 10795m | -15.3m/s | -46.1°C | 20.4% | 252.1hPa | 2.6V | 03:17:00 | 00:00:00 | 00:00:00 | |
| OE5MMP-10 | 2026-09-06 00:49:49 | 48.79480 | 13.33709 | 125° | 122km/h | 10915m | -15.6m/s | -47.2°C | 27.8% | 247.5hPa | 2.6V | 00:00:00 | 02:44:56 | 00:00:00 | |
| PETON7-10 | 2026-09-06 00:49:46 | 48.79532 | 13.33592 | 123° | 126km/h | 10960m | -15.9m/s | -47.5°C | 29.1% | 245.9hPa | 2.6V | 00:00:00 | 00:00:00 | 00:00:00 | |
| OE5WHR-10 | 2026-09-06 00:49:41 | 48.79617 | 13.33395 | 123° | 126km/h | 11036m | -15.2m/s | -48.2°C | 31.6% | 243.2hPa | 2.6V | 00:00:00 | 00:00:00 | 00:00:00 | |
| PG1ADW-2 | 2026-09-06 00:49:40 | 48.79634 | 13.33356 | 124° | 126km/h | 11051m | -15.4m/s | -48.4°C | 32.0% | 242.5hPa | 2.6V | 03:17:00 | 00:00:00 | 00:00:00 | |
| OE5MMP-10 | 2026-09-06 00:49:39 | 48.79651 | 13.33317 | 125° | 126km/h | 11067m | -15.4m/s | -48.5°C | 32.4% | 242.1hPa | 2.5V | 03:17:00 | 02:44:46 | 00:00:00 | |
| OE5DXL-15 | 2026-09-06 00:49:38 | 48.79669 | 13.33278 | 124° | 128km/h | 11082m | -15.5m/s | -48.7°C | 32.8% | 241.5hPa | 2.5V | 00:00:00 | 00:00:00 | 00:00:00 | |
| OE5HKT-10 | 2026-09-06 00:49:33 | 48.79758 | 13.33079 | 126° | 131km/h | 11159m | -16.3m/s | -49.4°C | 35.4% | 238.6hPa | 2.5V | 00:00:00 | 00:00:00 | 00:00:00 | |
| OE5MMP-10 | 2026-09-06 00:49:29 | 48.79833 | 13.32920 | 128° | 128km/h | 11220m | -15.8m/s | -50.0°C | 37.1% | 236.4hPa | 2.6V | 00:00:00 | 02:44:36 | 00:00:00 | |
| DL6DJ-15 | 2026-09-06 00:49:28 | 48.79853 | 13.32880 | 125° | 128km/h | 11236m | -16.1m/s | -50.2°C | 31.0% | 235.8hPa | 2.5V | 00:00:00 | 00:00:00 | 00:00:00 | |
| OE5DRO-10 | 2026-09-06 00:49:27 | 48.79872 | 13.32841 | 128° | 128km/h | 11251m | -16.3m/s | -50.3°C | 37.7% | 235.2hPa | 2.5V | 03:17:00 | 00:00:00 | 00:00:00 | |
| OE5REO-15 | 2026-09-06 00:49:24 | 48.79911 | 13.32765 | 129° | 130km/h | 11282m | -16.3m/s | -50.6°C | 31.6% | 234.2hPa | 2.6V | 03:18:00 | 00:00:00 | 00:00:00 | |
| PETON7-10 | 2026-09-06 00:49:22 | 48.79970 | 13.32650 | 129° | 130km/h | 11329m | -15.6m/s | -51.0°C | 38.6% | 232.5hPa | 2.6V | 00:00:00 | 00:00:00 | 00:00:00 | |
| S52SK | 2026-09-06 00:49:21 | 48.79970 | 13.32650 | 130° | 126km/h | 11329m | -15.6m/s | -51.0°C | 31.9% | 232.6hPa | 2.6V | 00:00:00 | 00:00:00 | 00:00:00 | |
| OE5WHR-10 | 2026-09-06 00:49:20 | 48.80009 | 13.32573 | 127° | 130km/h | 11360m | -15.8m/s | -51.2°C | 38.7% | 231.3hPa | 2.6V | 00:00:00 | 02:44:27 | 00:00:00 | |
| OE5MMP-10 | 2026-09-06 00:49:19 | 48.80028 | 13.32535 | 128° | 130km/h | 11375m | -15.4m/s | -51.3°C | 38.7% | 230.9hPa | 2.6V | 00:00:00 | 02:44:26 | 00:00:00 | |
| S52SK | 2026-09-06 00:49:15 | 48.80088 | 13.32418 | 127° | 130km/h | 11421m | -14.9m/s | -51.8°C | 32.2% | 229.3hPa | 2.6V | 00:00:00 | 00:00:00 | 00:00:00 | |
| OE5MMP-10 | 2026-09-06 00:49:09 | 48.80234 | 13.32148 | 131° | 130km/h | 11523m | -15.2m/s | -52.4°C | 40.8% | 225.6hPa | 2.6V | 00:00:00 | 02:44:16 | 00:00:00 | |
| OE5DXL-15 | 2026-09-06 00:49:08 | 48.80255 | 13.32110 | 130° | 131km/h | 11537m | -15.5m/s | -52.5°C | 41.3% | 225.0hPa | 2.6V | 00:00:00 | 00:00:00 | 00:00:00 | |
| PETON7-10 | 2026-09-06 00:49:07 | 48.80276 | 13.32072 | 131° | 130km/h | 11552m | -15.5m/s | -52.7°C | 41.7% | 224.6hPa | 2.5V | 03:18:00 | 02:44:14 | 00:00:00 | |
| DL6DJ-15 | 2026-09-06 00:48:57 | 48.80496 | 13.31701 | 132° | 131km/h | 11703m | -15.3m/s | -53.8°C | 35.6% | 219.4hPa | 2.5V | 00:00:00 | 00:00:00 | 00:00:00 | |
| OE5REO-15 | 2026-09-06 00:48:54 | 48.80540 | 13.31628 | 134° | 128km/h | 11733m | -15.6m/s | -54.0°C | 35.9% | 218.4hPa | 2.5V | 03:19:00 | 00:00:00 | 00:00:00 | |
| PETON7-10 | 2026-09-06 00:48:52 | 48.80607 | 13.31519 | 131° | 133km/h | 11780m | -15.9m/s | -54.3°C | 44.3% | 216.8hPa | 2.5V | 00:00:00 | 00:00:00 | 00:00:00 | |
| OE5MMP-10 | 2026-09-06 00:48:49 | 48.80673 | 13.31407 | 133° | 133km/h | 11826m | -15.4m/s | -54.5°C | 44.2% | 215.3hPa | 2.5V | 00:00:00 | 02:43:56 | 00:00:00 | |
| PG1ADW-2 | 2026-09-06 00:48:40 | 48.80875 | 13.31060 | 132° | 130km/h | 11965m | -15.6m/s | -55.7°C | 47.4% | 210.6hPa | 2.5V | 00:00:00 | 00:00:00 | 00:00:00 | |
| OE5REO-15 | 2026-09-06 00:48:39 | 48.80897 | 13.31022 | 131° | 131km/h | 11979m | -16.0m/s | -55.9°C | 39.1% | 210.1hPa | 2.6V | 03:19:00 | 00:00:00 | 00:00:00 | |
| OE5WHR-10 | 2026-09-06 00:48:38 | 48.80918 | 13.30984 | 131° | 130km/h | 11995m | -15.7m/s | -56.0°C | 48.3% | 209.6hPa | 2.6V | 00:00:00 | 00:00:00 | 00:00:00 | |
| PETON7-10 | 2026-09-06 00:48:37 | 48.80939 | 13.30947 | 133° | 130km/h | 12011m | -16.0m/s | -56.1°C | 48.5% | 209.1hPa | 2.6V | 00:00:00 | 00:00:00 | 00:00:00 | |
| OE5MMP-10 | 2026-09-06 00:48:29 | 48.81105 | 13.30641 | 129° | 130km/h | 12133m | -16.1m/s | -57.3°C | 50.7% | 205.1hPa | 2.6V | 00:00:00 | 02:43:36 | 00:00:00 | |
| DL6DJ-15 | 2026-09-06 00:48:26 | 48.81166 | 13.30523 | 126° | 130km/h | 12179m | -15.5m/s | -57.8°C | 41.4% | 203.7hPa | 2.5V | 00:00:00 | 00:00:00 | 00:00:00 | |
| SONDE2-11 | 2026-09-06 00:48:23 | 48.81245 | 13.30363 | 124° | 130km/h | 12242m | -16.4m/s | -58.4°C | 41.8% | 201.7hPa | 2.5V | 00:00:00 | 00:00:00 | 00:00:00 | |
| PETON7-10 | 2026-09-06 00:48:22 | 48.81245 | 13.30363 | 125° | 133km/h | 12242m | -16.3m/s | -58.3°C | 51.8% | 201.7hPa | 2.5V | 00:00:00 | 02:43:29 | 00:00:00 | |
| PG1ADW-2 | 2026-09-06 00:48:20 | 48.81284 | 13.30282 | 127° | 133km/h | 12274m | -15.8m/s | -58.6°C | 52.0% | 200.6hPa | 2.5V | 03:19:00 | 00:00:00 | 00:00:00 | |
| OE5MMP-10 | 2026-09-06 00:48:19 | 48.81303 | 13.30242 | 127° | 133km/h | 12290m | -15.6m/s | -58.8°C | 52.2% | 200.1hPa | 2.5V | 03:19:00 | 02:43:26 | 00:00:00 | |
| OE5WHR-10 | 2026-09-06 00:48:17 | 48.81343 | 13.30159 | 125° | 135km/h | 12320m | -15.6m/s | -59.1°C | 52.3% | 199.1hPa | 2.5V | 00:00:00 | 02:43:24 | 00:00:00 | |
| OE3MUC-15 | 2026-09-06 00:48:15 | 48.81382 | 13.30078 | 126° | 131km/h | 12351m | -16.7m/s | -59.4°C | 52.2% | 198.1hPa | 2.5V | 00:00:00 | 00:00:00 | 00:00:00 | |
| OE5DRO-10 | 2026-09-06 00:48:14 | 48.81402 | 13.30037 | 126° | 135km/h | 12367m | -16.6m/s | -59.5°C | 52.2% | 197.6hPa | 2.5V | 00:00:00 | 00:00:00 | 00:00:00 | |
| OE3MUC-15 | 2026-09-06 00:48:11 | 48.81460 | 13.29914 | 127° | 137km/h | 12417m | -16.4m/s | -60.0°C | 51.7% | 196.2hPa | 2.5V | 00:00:00 | 00:00:00 | 00:00:00 | |
| EDDB2-12 | 2026-09-06 00:48:10 | 48.81481 | 13.29872 | 126° | 135km/h | 12432m | -16.8m/s | -60.2°C | 41.1% | 195.7hPa | 2.6V | 00:00:00 | 00:00:00 | 00:00:00 | |
| OE5MMP-10 | 2026-09-06 00:48:09 | 48.81501 | 13.29831 | 126° | 135km/h | 12449m | -16.8m/s | -60.3°C | 51.5% | 195.1hPa | 2.6V | 00:00:00 | 02:43:16 | 00:00:00 | |
| OE5REO-15 | 2026-09-06 00:48:08 | 48.81521 | 13.29788 | 126° | 135km/h | 12466m | -16.9m/s | -60.5°C | 40.7% | 194.7hPa | 2.6V | 03:19:00 | 00:00:00 | 00:00:00 | |
| PETON7-10 | 2026-09-06 00:48:07 | 48.81541 | 13.29747 | 129° | 135km/h | 12483m | -16.0m/s | -60.6°C | 51.0% | 194.1hPa | 2.6V | 03:19:00 | 00:00:00 | 00:00:00 | |
| OE3MUC-15 | 2026-09-06 00:48:04 | 48.81605 | 13.29623 | 128° | 135km/h | 12530m | -16.0m/s | -61.0°C | 50.4% | 192.6hPa | 2.5V | 03:19:00 | 00:00:00 | 00:00:00 | |
| DL6DJ-15 | 2026-09-06 00:47:55 | 48.81826 | 13.29228 | 130° | 135km/h | 12687m | -16.4m/s | -62.6°C | 37.7% | 187.8hPa | 2.5V | 00:00:00 | 00:00:00 | 00:00:00 | |
| DO3MHA-11 | 2026-09-06 00:47:54 | 48.81826 | 13.29228 | 131° | 133km/h | 12688m | -16.3m/s | -62.5°C | 48.6% | 187.7hPa | 2.5V | 03:19:00 | 02:43:01 | 00:00:00 | |
| OE5REO-15 | 2026-09-06 00:47:52 | 48.81871 | 13.29151 | 133° | 131km/h | 12720m | -17.2m/s | -62.8°C | 37.1% | 186.8hPa | 2.5V | 03:20:00 | 00:00:00 | 00:00:00 | |
| OE5MMP-10 | 2026-09-06 00:47:49 | 48.81941 | 13.29041 | 134° | 135km/h | 12770m | -16.9m/s | -63.1°C | 46.5% | 185.2hPa | 2.5V | 00:00:00 | 02:42:56 | 00:00:00 | |
| DO3MHA-11 | 2026-09-06 00:47:44 | 48.82058 | 13.28854 | 135° | 137km/h | 12851m | -17.0m/s | -63.6°C | 43.5% | 182.8hPa | 2.5V | 00:00:00 | 02:42:51 | 00:00:00 | |
| PG1ADW-2 | 2026-09-06 00:47:40 | 48.82154 | 13.28707 | 136° | 137km/h | 12918m | -17.7m/s | -64.0°C | 40.6% | 180.9hPa | 2.5V | 00:00:00 | 02:42:47 | 00:00:00 | |
| OE5MMP-10 | 2026-09-06 00:47:39 | 48.82178 | 13.28670 | 133° | 139km/h | 12935m | -17.6m/s | -64.1°C | 39.9% | 180.4hPa | 2.6V | 03:19:00 | 02:42:46 | 00:00:00 | |
| OE5DXL-15 | 2026-09-06 00:47:38 | 48.82201 | 13.28633 | 136° | 133km/h | 12952m | -16.7m/s | -64.2°C | 39.2% | 179.9hPa | 2.6V | 00:00:00 | 00:00:00 | 00:00:00 | |
| PETON7-10 | 2026-09-06 00:47:37 | 48.82226 | 13.28596 | 136° | 139km/h | 12970m | -16.9m/s | -64.2°C | 38.5% | 179.4hPa | 2.5V | 00:00:00 | 02:42:44 | 00:00:00 | |
| OE5DRO-10 | 2026-09-06 00:47:36 | 48.82251 | 13.28559 | 135° | 135km/h | 12986m | -17.1m/s | -64.3°C | 38.3% | 178.9hPa | 2.5V | 03:19:00 | 00:00:00 | 00:00:00 | |
| OE5WHR-10 | 2026-09-06 00:47:35 | 48.82275 | 13.28521 | 134° | 135km/h | 13003m | -16.6m/s | -64.4°C | 37.7% | 178.4hPa | 2.5V | 03:19:00 | 00:00:00 | 00:00:00 | |
| DO3MHA-11 | 2026-09-06 00:47:34 | 48.82300 | 13.28483 | 136° | 139km/h | 13020m | -16.5m/s | -64.2°C | 36.4% | 177.9hPa | 2.5V | 00:00:00 | 02:42:41 | 00:00:00 | |
| OE5MMP-10 | 2026-09-06 00:47:29 | 48.82425 | 13.28290 | 133° | 135km/h | 13103m | -16.9m/s | -64.3°C | 33.2% | 175.5hPa | 2.5V | 00:00:00 | 02:42:36 | 00:00:00 | |
| DL6DJ-15 | 2026-09-06 00:47:24 | 48.82562 | 13.28057 | 130° | 130km/h | 13205m | -17.4m/s | -64.7°C | 23.0% | 172.6hPa | 2.5V | 00:00:00 | 00:00:00 | 00:00:00 | |
| PETON7-10 | 2026-09-06 00:47:22 | 48.82584 | 13.28018 | 132° | 128km/h | 13222m | -17.2m/s | -64.8°C | 32.4% | 172.1hPa | 2.5V | 00:00:00 | 00:00:00 | 00:00:00 | |
| SONDE2-11 | 2026-09-06 00:47:21 | 48.82627 | 13.27939 | 129° | 130km/h | 13256m | -18.3m/s | -65.1°C | 22.6% | 171.2hPa | 2.5V | 00:00:00 | 00:00:00 | 00:00:00 | |
| PG1ADW-2 | 2026-09-06 00:47:20 | 48.82627 | 13.27939 | 130° | 126km/h | 13257m | -18.3m/s | -65.1°C | 32.3% | 171.2hPa | 2.5V | 00:00:00 | 00:00:00 | 00:00:00 | |
| OE5MMP-10 | 2026-09-06 00:47:19 | 48.82648 | 13.27901 | 130° | 128km/h | 13275m | -17.1m/s | -65.2°C | 32.2% | 170.7hPa | 2.5V | 00:00:00 | 02:42:26 | 00:00:00 | |
| S52SK | 2026-09-06 00:47:18 | 48.82648 | 13.27901 | 130° | 128km/h | 13275m | -17.1m/s | -65.3°C | 22.5% | 170.7hPa | 2.5V | 03:20:00 | 00:00:00 | 00:00:00 | |
| OE5DRO-10 | 2026-09-06 00:47:17 | 48.82689 | 13.27823 | 129° | 126km/h | 13310m | -17.3m/s | -65.5°C | 31.8% | 169.7hPa | 2.5V | 00:00:00 | 00:00:00 | 00:00:00 | |
| DO3MHA-11 | 2026-09-06 00:47:14 | 48.82747 | 13.27704 | 126° | 126km/h | 13361m | -17.5m/s | -65.9°C | 30.6% | 168.2hPa | 2.5V | 03:20:00 | 02:42:21 | 00:00:00 | |
| S52SK | 2026-09-06 00:47:13 | 48.82747 | 13.27704 | 126° | 126km/h | 13361m | -17.6m/s | -66.0°C | 20.9% | 168.3hPa | 2.5V | 03:20:00 | 00:00:00 | 00:00:00 | |
| OE5DXL-15 | 2026-09-06 00:47:09 | 48.82858 | 13.27465 | 125° | 126km/h | 13469m | -17.6m/s | -64.2°C | 23.7% | 165.4hPa | 2.5V | 00:00:00 | 00:00:00 | 00:00:00 | |
| PETON7-10 | 2026-09-06 00:47:07 | 48.82875 | 13.27425 | 124° | 124km/h | 13485m | -17.6m/s | -64.2°C | 23.1% | 164.8hPa | 2.5V | 03:20:00 | 00:00:00 | 00:00:00 | |
| DO3MHA-11 | 2026-09-06 00:47:04 | 48.82927 | 13.27304 | 121° | 124km/h | 13538m | -18.1m/s | -63.5°C | 20.8% | 163.5hPa | 2.5V | 00:00:00 | 02:42:11 | 00:00:00 | |
| DL6DJ-15 | 2026-09-06 00:46:53 | 48.83109 | 13.26800 | 120° | 130km/h | 13754m | -18.1m/s | -62.5°C | 9.6% | 157.9hPa | 2.5V | 00:00:00 | 00:00:00 | 00:00:00 | |
| PETON7-10 | 2026-09-06 00:46:52 | 48.83109 | 13.26800 | 121° | 128km/h | 13754m | -18.1m/s | -62.4°C | 15.5% | 157.8hPa | 2.5V | 00:00:00 | 02:41:59 | 00:00:00 | |
| OE5MMP-10 | 2026-09-06 00:46:49 | 48.83158 | 13.26673 | 122° | 128km/h | 13807m | -18.2m/s | -62.7°C | 15.0% | 156.5hPa | 2.5V | 00:00:00 | 02:41:56 | 00:00:00 | |
| OE5REO-15 | 2026-09-06 00:46:48 | 48.83158 | 13.26673 | 122° | 128km/h | 13807m | -18.2m/s | -62.7°C | 9.2% | 156.6hPa | 2.5V | 03:21:00 | 00:00:00 | 00:00:00 | |
| DO3MHA-11 | 2026-09-06 00:46:44 | 48.83244 | 13.26462 | 123° | 124km/h | 13898m | -18.1m/s | -63.2°C | 14.1% | 154.2hPa | 2.5V | 00:00:00 | 02:41:51 | 00:00:00 | |
| PG1ADW-2 | 2026-09-06 00:46:40 | 48.83315 | 13.26297 | 124° | 111km/h | 13970m | -18.2m/s | -63.6°C | 13.8% | 152.4hPa | 2.5V | 00:00:00 | 00:00:00 | 00:00:00 | |
| OE5MMP-10 | 2026-09-06 00:46:39 | 48.83332 | 13.26258 | 125° | 117km/h | 13988m | -18.5m/s | -63.6°C | 13.6% | 152.0hPa | 2.6V | 00:00:00 | 02:41:46 | 00:00:00 | |
| OE5DXL-15 | 2026-09-06 00:46:38 | 48.83351 | 13.26219 | 127° | 100km/h | 14006m | -17.9m/s | -63.6°C | 13.5% | 151.6hPa | 2.6V | 03:20:00 | 00:00:00 | 00:00:00 | |
| PETON7-10 | 2026-09-06 00:46:37 | 48.83369 | 13.26183 | 129° | 110km/h | 14024m | -18.4m/s | -63.4°C | 13.0% | 151.1hPa | 2.6V | 00:00:00 | 00:00:00 | 00:00:00 | |
| DO3MHA-11 | 2026-09-06 00:46:34 | 48.83426 | 13.26076 | 130° | 110km/h | 14078m | -17.8m/s | -63.0°C | 12.0% | 149.8hPa | 2.5V | 03:20:00 | 02:41:41 | 00:00:00 | |
| OE5REO-15 | 2026-09-06 00:46:33 | 48.83426 | 13.26076 | 131° | 115km/h | 14078m | -17.8m/s | -63.1°C | 6.5% | 149.8hPa | 2.5V | 03:21:00 | 00:00:00 | 00:00:00 | |
| OE5HKT-10 | 2026-09-06 00:46:32 | 48.83464 | 13.26009 | 130° | 99km/h | 14113m | -17.8m/s | -63.0°C | 11.4% | 148.9hPa | 2.5V | 03:20:00 | 02:41:39 | 00:00:00 | |
| OE5MMP-10 | 2026-09-06 00:46:29 | 48.83520 | 13.25914 | 133° | 100km/h | 14166m | -18.4m/s | -63.3°C | 11.0% | 147.7hPa | 2.5V | 00:00:00 | 02:41:36 | 00:00:00 | |
| DO3MHA-11 | 2026-09-06 00:46:24 | 48.83606 | 13.25764 | 131° | 93km/h | 14257m | -17.8m/s | -63.6°C | 10.6% | 145.5hPa | 2.6V | 00:00:00 | 02:41:31 | 00:00:00 | |
| DL6DJ-15 | 2026-09-06 00:46:22 | 48.83652 | 13.25678 | 128° | 91km/h | 14312m | -18.7m/s | -62.8°C | 4.4% | 144.3hPa | 2.5V | 00:00:00 | 00:00:00 | 00:00:00 | |
| PG1ADW-2 | 2026-09-06 00:46:20 | 48.83666 | 13.25649 | 127° | 89km/h | 14330m | -18.8m/s | -62.5°C | 8.9% | 143.8hPa | 2.5V | 00:00:00 | 02:41:27 | 00:00:00 | |
| OE5REO-15 | 2026-09-06 00:46:19 | 48.83680 | 13.25620 | 124° | 93km/h | 14348m | -19.1m/s | -62.6°C | 4.1% | 143.4hPa | 2.5V | 03:21:00 | 00:00:00 | 00:00:00 | |
| SONDE2-11 | 2026-09-06 00:46:18 | 48.83693 | 13.25590 | 122° | 89km/h | 14367m | -19.3m/s | -62.6°C | 4.1% | 143.0hPa | 2.5V | 00:00:00 | 00:00:00 | 00:00:00 | |
| DO3MHA-11 | 2026-09-06 00:46:14 | 48.83740 | 13.25474 | 121° | 89km/h | 14441m | -18.8m/s | -62.6°C | 8.5% | 141.3hPa | 2.5V | 00:00:00 | 02:41:21 | 00:00:00 | |
| OE5HKT-10 | 2026-09-06 00:46:11 | 48.83772 | 13.25385 | 117° | 93km/h | 14497m | -18.8m/s | -62.8°C | 8.7% | 139.9hPa | 2.5V | 00:00:00 | 00:00:00 | 00:00:00 | |
| OE5MMP-10 | 2026-09-06 00:46:09 | 48.83792 | 13.25325 | 116° | 91km/h | 14533m | -19.8m/s | -62.1°C | 8.0% | 139.1hPa | 2.5V | 00:00:00 | 02:41:16 | 00:00:00 | |
| EDDB2-12 | 2026-09-06 00:46:08 | 48.83823 | 13.25234 | 117° | 91km/h | 14591m | -19.2m/s | -62.0°C | 3.3% | 137.8hPa | 2.5V | 00:00:00 | 00:00:00 | 00:00:00 | |
| DO3MHA-11 | 2026-09-06 00:46:04 | 48.83843 | 13.25172 | 118° | 93km/h | 14628m | -19.4m/s | -62.2°C | 7.9% | 137.0hPa | 2.5V | 00:00:00 | 02:41:11 | 00:00:00 | |
| OE5REO-15 | 2026-09-06 00:46:02 | 48.83854 | 13.25140 | 117° | 95km/h | 14647m | -19.0m/s | -62.4°C | 3.4% | 136.6hPa | 2.5V | 03:21:00 | 00:00:00 | 00:00:00 | |
| DL6DJ-15 | 2026-09-06 00:45:51 | 48.83985 | 13.24709 | 115° | 102km/h | 14896m | -19.2m/s | -61.5°C | 2.9% | 131.3hPa | 2.5V | 00:00:00 | 00:00:00 | 00:00:00 | |
| SONDE2-11 | 2026-09-06 00:45:47 | 48.84020 | 13.24602 | 117° | 106km/h | 14953m | -19.4m/s | -61.4°C | 2.8% | 130.1hPa | 2.5V | 00:00:00 | 00:00:00 | 00:00:00 | |
| OE5DRO-10 | 2026-09-06 00:45:42 | 48.84081 | 13.24427 | 120° | 95km/h | 15047m | -19.8m/s | -61.4°C | 7.1% | 128.1hPa | 2.5V | 00:00:00 | 00:00:00 | 00:00:00 | |
| PG1ADW-2 | 2026-09-06 00:45:40 | 48.84107 | 13.24360 | 123° | 93km/h | 15086m | -19.0m/s | -61.3°C | 7.1% | 127.3hPa | 2.5V | 03:21:00 | 00:00:00 | 00:00:00 | |
| OE5MMP-10 | 2026-09-06 00:45:39 | 48.84121 | 13.24327 | 124° | 97km/h | 15105m | -19.4m/s | -61.1°C | 6.9% | 126.9hPa | 2.6V | 03:21:00 | 02:40:46 | 00:00:00 | |
| OE5DXL-15 | 2026-09-06 00:45:38 | 48.84135 | 13.24295 | 124° | 91km/h | 15124m | -19.1m/s | -61.0°C | 6.7% | 126.5hPa | 2.6V | 00:00:00 | 00:00:00 | 00:00:00 | |
| PETON7-10 | 2026-09-06 00:45:37 | 48.84149 | 13.24263 | 123° | 93km/h | 15144m | -19.8m/s | -60.8°C | 6.5% | 126.1hPa | 2.6V | 00:00:00 | 00:00:00 | 00:00:00 | |
| EDDB2-12 | 2026-09-06 00:45:35 | 48.84177 | 13.24200 | 122° | 97km/h | 15183m | -20.0m/s | -61.0°C | 2.5% | 125.4hPa | 2.6V | 00:00:00 | 00:00:00 | 00:00:00 | |
| OE5REO-15 | 2026-09-06 00:45:31 | 48.84216 | 13.24109 | 123° | 95km/h | 15242m | -20.6m/s | -61.0°C | 2.5% | 124.1hPa | 2.6V | 03:21:00 | 00:00:00 | 00:00:00 | |
| OE5WHR-10 | 2026-09-06 00:45:29 | 48.84253 | 13.24018 | 121° | 89km/h | 15303m | -19.7m/s | -60.4°C | 6.4% | 122.9hPa | 2.6V | 00:00:00 | 00:00:00 | 00:00:00 | |
| DO3MHA-11 | 2026-09-06 00:45:24 | 48.84308 | 13.23867 | 116° | 88km/h | 15402m | -19.5m/s | -60.8°C | 6.8% | 121.0hPa | 2.6V | 03:22:00 | 02:40:31 | 00:00:00 | |
| OE5DRO-10 | 2026-09-06 00:45:23 | 48.84318 | 13.23837 | 116° | 89km/h | 15421m | -19.8m/s | -60.8°C | 6.8% | 120.6hPa | 2.5V | 00:00:00 | 00:00:00 | 00:00:00 | |
| PETON7-10 | 2026-09-06 00:45:22 | 48.84327 | 13.23807 | 117° | 89km/h | 15441m | -19.7m/s | -60.7°C | 6.8% | 120.2hPa | 2.5V | 00:00:00 | 02:40:29 | 00:00:00 | |
| PG1ADW-2 | 2026-09-06 00:45:20 | 48.84346 | 13.23747 | 116° | 88km/h | 15480m | -19.8m/s | -60.9°C | 6.9% | 119.5hPa | 2.5V | 00:00:00 | 00:00:00 | 00:00:00 | |
| OE5MMP-10 | 2026-09-06 00:45:19 | 48.84356 | 13.23716 | 116° | 89km/h | 15501m | -20.2m/s | -61.0°C | 6.9% | 119.1hPa | 2.5V | 00:00:00 | 02:40:26 | 00:00:00 | |
| SONDE2-11 | 2026-09-06 00:45:17 | 48.84385 | 13.23624 | 113° | 88km/h | 15560m | -20.7m/s | -61.2°C | 2.5% | 118.0hPa | 2.5V | 00:00:00 | 00:00:00 | 00:00:00 | |
| OE5REO-15 | 2026-09-06 00:45:16 | 48.84385 | 13.23624 | 115° | 89km/h | 15560m | -20.7m/s | -61.2°C | 2.5% | 118.0hPa | 2.5V | 03:22:00 | 00:00:00 | 00:00:00 | |
| DO3MHA-11 | 2026-09-06 00:45:14 | 48.84405 | 13.23564 | 118° | 89km/h | 15600m | -20.5m/s | -61.1°C | 7.0% | 117.2hPa | 2.5V | 00:00:00 | 02:40:21 | 00:00:00 | |
| EDDB2-11 | 2026-09-06 00:45:12 | 48.84436 | 13.23471 | 120° | 89km/h | 15659m | -20.7m/s | -60.3°C | 2.3% | 116.1hPa | 2.5V | 00:00:00 | 00:00:00 | 00:00:00 | |
| OE5MMP-10 | 2026-09-06 00:45:09 | 48.84459 | 13.23411 | 120° | 86km/h | 15701m | -19.9m/s | -59.8°C | 6.4% | 115.3hPa | 2.5V | 00:00:00 | 02:40:16 | 00:00:00 | |
| OE5WHR-10 | 2026-09-06 00:45:08 | 48.84471 | 13.23381 | 123° | 82km/h | 15721m | -20.4m/s | -59.6°C | 6.4% | 115.0hPa | 2.5V | 00:00:00 | 02:40:15 | 00:00:00 | |
| PETON7-10 | 2026-09-06 00:45:07 | 48.84483 | 13.23352 | 122° | 84km/h | 15740m | -20.3m/s | -59.3°C | 6.3% | 114.6hPa | 2.5V | 03:22:00 | 00:00:00 | 00:00:00 | |
| DO3MHA-11 | 2026-09-06 00:45:04 | 48.84518 | 13.23269 | 123° | 84km/h | 15801m | -21.1m/s | -58.7°C | 5.9% | 113.5hPa | 2.5V | 00:00:00 | 02:40:11 | 00:00:00 | |
| DL6DJ-15 | 2026-09-06 00:44:48 | 48.84692 | 13.22848 | 122° | 71km/h | 16134m | -20.8m/s | -58.1°C | 2.0% | 107.7hPa | 2.5V | 00:00:00 | 00:00:00 | 00:00:00 | |
| OE5WHR-10 | 2026-09-06 00:44:47 | 48.84702 | 13.22825 | 125° | 68km/h | 16154m | -20.9m/s | -57.8°C | 5.7% | 107.3hPa | 2.5V | 03:22:00 | 00:00:00 | 00:00:00 | |
| OE5DRO-10 | 2026-09-06 00:44:45 | 48.84723 | 13.22780 | 122° | 68km/h | 16196m | -20.7m/s | -57.3°C | 5.4% | 106.6hPa | 2.5V | 00:00:00 | 00:00:00 | 00:00:00 | |
| OE5REO-15 | 2026-09-06 00:44:44 | 48.84723 | 13.22780 | 122° | 69km/h | 16196m | -20.7m/s | -57.4°C | 1.9% | 106.7hPa | 2.5V | 03:22:00 | 00:00:00 | 00:00:00 | |
| EDDB2-11 | 2026-09-06 00:44:41 | 48.84775 | 13.22677 | 128° | 68km/h | 16299m | -22.0m/s | -57.0°C | 1.8% | 104.9hPa | 2.5V | 00:00:00 | 00:00:00 | 00:00:00 | |
| PG1ADW-2 | 2026-09-06 00:44:40 | 48.84775 | 13.22677 | 129° | 66km/h | 16299m | -21.9m/s | -57.0°C | 5.3% | 104.9hPa | 2.5V | 00:00:00 | 00:00:00 | 00:00:00 | |
| OE5MMP-10 | 2026-09-06 00:44:39 | 48.84785 | 13.22656 | 128° | 69km/h | 16321m | -21.8m/s | -56.8°C | 5.2% | 104.5hPa | 2.6V | 00:00:00 | 02:39:46 | 00:00:00 | |
| SP3BTT-10 | 2026-09-06 00:44:38 | 48.84796 | 13.22636 | 130° | 53km/h | 16343m | -21.7m/s | -56.8°C | 5.2% | 104.2hPa | 2.6V | 00:00:00 | 00:00:00 | 00:00:00 | |
| PETON7-10 | 2026-09-06 00:44:37 | 48.84807 | 13.22616 | 128° | 66km/h | 16364m | -21.9m/s | -56.8°C | 5.3% | 103.8hPa | 2.5V | 00:00:00 | 02:39:44 | 00:00:00 | |
| EDDB2-12 | 2026-09-06 00:44:33 | 48.84857 | 13.22505 | 122° | 66km/h | 16470m | -21.0m/s | -56.7°C | 1.7% | 102.2hPa | 2.5V | 00:00:00 | 00:00:00 | 00:00:00 | |
| OE5MMP-10 | 2026-09-06 00:44:29 | 48.84884 | 13.22440 | 120° | 62km/h | 16534m | -21.6m/s | -56.2°C | 5.0% | 101.1hPa | 2.5V | 00:00:00 | 02:39:36 | 00:00:00 | |
| OE5REO-15 | 2026-09-06 00:44:28 | 48.84884 | 13.22440 | 120° | 62km/h | 16534m | -21.6m/s | -56.3°C | 1.7% | 101.1hPa | 2.6V | 03:23:00 | 00:00:00 | 00:00:00 | |
| OE5WHR-10 | 2026-09-06 00:44:26 | 48.84909 | 13.22381 | 126° | 64km/h | 16598m | -21.4m/s | -56.1°C | 4.9% | 100.1hPa | 2.6V | 00:00:00 | 00:00:00 | 00:00:00 | |
| PETON7-10 | 2026-09-06 00:44:22 | 48.84949 | 13.22307 | 132° | 64km/h | 16684m | -22.3m/s | -56.3°C | 5.0% | 98.8hPa | 2.6V | 00:00:00 | 00:00:00 | 00:00:00 | |
| OE5MMP-10 | 2026-09-06 00:44:19 | 48.84985 | 13.22253 | 136° | 64km/h | 16750m | -21.7m/s | -56.2°C | 4.9% | 97.7hPa | 2.6V | 03:23:00 | 02:39:26 | 00:00:00 | |
| DO3MHA-11 | 2026-09-06 00:44:18 | 48.84997 | 13.22235 | 133° | 68km/h | 16771m | -21.7m/s | -56.2°C | 4.8% | 97.4hPa | 2.6V | 00:00:00 | 02:39:25 | 00:00:00 | |
| DL6DJ-15 | 2026-09-06 00:44:17 | 48.85008 | 13.22216 | 133° | 62km/h | 16792m | -21.7m/s | -56.2°C | 1.6% | 97.1hPa | 2.6V | 00:00:00 | 00:00:00 | 00:00:00 | |
| SONDE2-11 | 2026-09-06 00:44:14 | 48.85043 | 13.22162 | 132° | 62km/h | 16857m | -22.3m/s | -56.3°C | 1.7% | 96.2hPa | 2.6V | 00:00:00 | 00:00:00 | 00:00:00 | |
| OE5REO-15 | 2026-09-06 00:44:13 | 48.85053 | 13.22145 | 133° | 64km/h | 16879m | -22.4m/s | -56.2°C | 1.6% | 95.8hPa | 2.6V | 03:23:00 | 00:00:00 | 00:00:00 | |
| EDDB2-11 | 2026-09-06 00:44:10 | 48.85091 | 13.22067 | 123° | 64km/h | 16969m | -22.5m/s | -55.9°C | 1.6% | 94.5hPa | 2.6V | 00:00:00 | 00:00:00 | 00:00:00 | |
| OE5MMP-10 | 2026-09-06 00:44:09 | 48.85090 | 13.22067 | 124° | 68km/h | 16969m | -22.4m/s | -55.8°C | 4.8% | 94.4hPa | 2.6V | 00:00:00 | 02:39:16 | 00:00:00 | |
| OE5DXL-15 | 2026-09-06 00:44:08 | 48.85099 | 13.22045 | 119° | 60km/h | 16991m | -22.6m/s | -55.9°C | 4.7% | 94.1hPa | 2.6V | 00:00:00 | 00:00:00 | 00:00:00 | |
| PETON7-10 | 2026-09-06 00:44:07 | 48.85107 | 13.22024 | 120° | 68km/h | 17014m | -22.6m/s | -56.1°C | 4.9% | 93.8hPa | 2.6V | 03:23:00 | 00:00:00 | 00:00:00 | |
| OE5WHR-10 | 2026-09-06 00:44:05 | 48.85124 | 13.21980 | 120° | 64km/h | 17058m | -22.5m/s | -56.5°C | 5.1% | 93.1hPa | 2.6V | 00:00:00 | 02:39:12 | 00:00:00 | |
| DO3MHA-11 | 2026-09-06 00:44:04 | 48.85132 | 13.21957 | 117° | 69km/h | 17081m | -22.7m/s | -56.6°C | 5.1% | 92.8hPa | 2.6V | 00:00:00 | 02:39:11 | 00:00:00 | |
| EDDB2-12 | 2026-09-06 00:44:02 | 48.85156 | 13.21887 | 118° | 69km/h | 17148m | -22.6m/s | -57.0°C | 1.7% | 91.9hPa | 2.5V | 00:00:00 | 00:00:00 | 00:00:00 | |
| DL6DJ-15 | 2026-09-06 00:43:46 | 48.85301 | 13.21597 | 129° | 53km/h | 17495m | -24.4m/s | -56.1°C | 1.6% | 87.0hPa | 2.5V | 00:00:00 | 00:00:00 | 00:00:00 | |
| OE5HKT-10 | 2026-09-06 00:43:44 | 48.85319 | 13.21567 | 132° | 40km/h | 17543m | -23.8m/s | -55.8°C | 4.8% | 86.3hPa | 2.5V | 03:23:00 | 00:00:00 | 00:00:00 | |
| SONDE2-11 | 2026-09-06 00:43:43 | 48.85327 | 13.21551 | 124° | 47km/h | 17567m | -24.4m/s | -55.8°C | 1.5% | 86.1hPa | 2.5V | 00:00:00 | 00:00:00 | 00:00:00 | |
| OE5REO-15 | 2026-09-06 00:43:41 | 48.85334 | 13.21537 | 128° | 46km/h | 17591m | -24.7m/s | -55.8°C | 1.5% | 85.7hPa | 2.5V | 03:24:00 | 00:00:00 | 00:00:00 | |
| PG1ADW-2 | 2026-09-06 00:43:40 | 48.85348 | 13.21508 | 119° | 37km/h | 17639m | -24.4m/s | -55.8°C | 4.8% | 85.0hPa | 2.5V | 00:00:00 | 02:38:47 | 00:00:00 | |
| EDDB2-11 | 2026-09-06 00:43:39 | 48.85359 | 13.21480 | 121° | 40km/h | 17688m | -24.0m/s | -55.9°C | 1.5% | 84.4hPa | 2.6V | 00:00:00 | 00:00:00 | 00:00:00 | |
| OE5DXL-15 | 2026-09-06 00:43:38 | 48.85364 | 13.21466 | 118° | 38km/h | 17712m | -23.6m/s | -56.0°C | 4.8% | 84.0hPa | 2.6V | 00:00:00 | 00:00:00 | 00:00:00 | |
| PETON7-10 | 2026-09-06 00:43:37 | 48.85364 | 13.21466 | 118° | 37km/h | 17712m | -23.6m/s | -56.0°C | 4.8% | 84.0hPa | 2.6V | 00:00:00 | 00:00:00 | 00:00:00 | |
| SP3BTT-10 | 2026-09-06 00:43:36 | 48.85369 | 13.21452 | 118° | 49km/h | 17735m | -24.3m/s | -56.2°C | 5.0% | 83.8hPa | 2.5V | 00:00:00 | 00:00:00 | 00:00:00 | |
| EDDB2-12 | 2026-09-06 00:43:31 | 48.85393 | 13.21375 | 105° | 35km/h | 17878m | -24.6m/s | -56.3°C | 1.6% | 81.9hPa | 2.5V | 00:00:00 | 00:00:00 | 00:00:00 | |
| OE5MMP-10 | 2026-09-06 00:43:29 | 48.85395 | 13.21363 | 109° | 35km/h | 17902m | -24.3m/s | -56.4°C | 5.1% | 81.5hPa | 2.5V | 00:00:00 | 02:38:36 | 00:00:00 | |
| OE5REO-15 | 2026-09-06 00:43:25 | 48.85401 | 13.21325 | 108° | 33km/h | 17976m | -25.7m/s | -56.5°C | 1.6% | 80.7hPa | 2.6V | 03:24:00 | 00:00:00 | 00:00:00 | |
| OE5HKT-10 | 2026-09-06 00:43:23 | 48.85406 | 13.21285 | 99° | 44km/h | 18051m | -24.3m/s | -56.7°C | 5.3% | 79.7hPa | 2.6V | 00:00:00 | 02:38:30 | 00:00:00 | |
| PETON7-10 | 2026-09-06 00:43:22 | 48.85408 | 13.21272 | 104° | 42km/h | 18076m | -24.3m/s | -56.7°C | 5.3% | 79.4hPa | 2.6V | 00:00:00 | 00:00:00 | 00:00:00 | |
| PG1ADW-2 | 2026-09-06 00:43:20 | 48.85410 | 13.21245 | 92° | 46km/h | 18123m | -25.0m/s | -55.5°C | 4.8% | 78.8hPa | 2.6V | 00:00:00 | 00:00:00 | 00:00:00 | |
| OE5MMP-10 | 2026-09-06 00:43:19 | 48.85410 | 13.21232 | 93° | 42km/h | 18147m | -24.7m/s | -55.2°C | 4.6% | 78.5hPa | 2.6V | 00:00:00 | 02:38:26 | 00:00:00 | |
| DL6DJ-15 | 2026-09-06 00:43:15 | 48.85411 | 13.21173 | 87° | 42km/h | 18245m | -25.9m/s | -55.3°C | 1.4% | 77.3hPa | 2.6V | 00:00:00 | 00:00:00 | 00:00:00 | |
| BAUMI2-15 | 2026-09-06 00:43:12 | 48.85408 | 13.21124 | 86° | 49km/h | 18321m | -25.4m/s | -54.7°C | 4.4% | 76.4hPa | 2.6V | 00:00:00 | 02:38:19 | 00:00:00 | |
| S52SK | 2026-09-06 00:43:11 | 48.85408 | 13.21124 | 87° | 46km/h | 18321m | -25.4m/s | -54.8°C | 1.4% | 76.5hPa | 2.6V | 00:00:00 | 00:00:00 | 00:00:00 | |
| OE5REO-15 | 2026-09-06 00:43:10 | 48.85406 | 13.21090 | 87° | 44km/h | 18372m | -25.6m/s | -54.9°C | 1.4% | 75.8hPa | 2.6V | 03:24:00 | 00:00:00 | 00:00:00 | |
| OE5DXL-15 | 2026-09-06 00:43:09 | 48.85404 | 13.21053 | 84° | 53km/h | 18423m | -25.4m/s | -55.0°C | 4.6% | 75.2hPa | 2.6V | 00:00:00 | 00:00:00 | 00:00:00 | |
| EDDB2-11 | 2026-09-06 00:43:08 | 48.85403 | 13.21035 | 85° | 47km/h | 18448m | -25.3m/s | -55.2°C | 1.4% | 75.0hPa | 2.5V | 00:00:00 | 00:00:00 | 00:00:00 | |
| PETON7-10 | 2026-09-06 00:43:07 | 48.85403 | 13.21035 | 86° | 53km/h | 18448m | -25.3m/s | -55.2°C | 4.6% | 74.9hPa | 2.5V | 03:24:00 | 02:38:14 | 00:00:00 | |
| S52SK | 2026-09-06 00:43:05 | 48.85403 | 13.21016 | 90° | 51km/h | 18473m | -25.2m/s | -55.5°C | 1.4% | 74.7hPa | 2.5V | 00:00:00 | 00:00:00 | 00:00:00 | |
| SONCRA | 2026-09-06 00:43:00 | 48.85432 | 13.20718 | 100° | 51km/h | 18852m | -25.8m/s | -55.2°C | 1.4% | 70.4hPa | 2.5V | 00:00:00 | 00:00:00 | 00:00:00 | |
| OE5MMP-10 | 2026-09-06 00:42:59 | 48.85410 | 13.20877 | 101° | 53km/h | 18646m | -26.2m/s | -55.6°C | 4.8% | 72.6hPa | 2.5V | 03:24:00 | 02:38:06 | 00:00:00 | |
| BAUMI2-15 | 2026-09-06 00:42:58 | 48.85413 | 13.20857 | 101° | 51km/h | 18673m | -25.3m/s | -55.7°C | 4.8% | 72.3hPa | 2.5V | 00:00:00 | 02:38:05 | 00:00:00 | |
| OE5REO-15 | 2026-09-06 00:42:54 | 48.85421 | 13.20798 | 100° | 53km/h | 18749m | -25.4m/s | -56.1°C | 1.5% | 71.5hPa | 2.5V | 03:25:00 | 00:00:00 | 00:00:00 | |
| BAUMI2-15 | 2026-09-06 00:42:53 | 48.85427 | 13.20758 | 104° | 55km/h | 18800m | -26.0m/s | -56.1°C | 5.1% | 70.8hPa | 2.5V | 03:24:00 | 02:38:00 | 00:00:00 | |
| SP3BTT-10 | 2026-09-06 00:42:51 | 48.85432 | 13.20718 | 101° | 33km/h | 18852m | -25.7m/s | -55.2°C | 4.7% | 70.3hPa | 2.5V | 00:00:00 | 00:00:00 | 00:00:00 | |
| OE5MMP-10 | 2026-09-06 00:42:49 | 48.85436 | 13.20677 | 97° | 53km/h | 18904m | -25.2m/s | -54.6°C | 4.4% | 69.8hPa | 2.5V | 00:00:00 | 02:37:56 | 00:00:00 | |
| BAUMI2-15 | 2026-09-06 00:42:48 | 48.85438 | 13.20656 | 99° | 55km/h | 18929m | -26.1m/s | -54.4°C | 4.4% | 69.5hPa | 2.5V | 00:00:00 | 02:37:55 | 00:00:00 | |
| DL6DJ-15 | 2026-09-06 00:42:44 | 48.85448 | 13.20572 | 103° | 53km/h | 19034m | -25.9m/s | -54.9°C | 1.3% | 68.5hPa | 2.5V | 00:00:00 | 00:00:00 | 00:00:00 | |
| BAUMI2-15 | 2026-09-06 00:42:43 | 48.85451 | 13.20552 | 102° | 49km/h | 19060m | -26.2m/s | -55.0°C | 4.5% | 68.1hPa | 2.5V | 00:00:00 | 02:37:50 | 00:00:00 | |
| OE5WHR-10 | 2026-09-06 00:42:41 | 48.85458 | 13.20514 | 110° | 38km/h | 19111m | -25.7m/s | -55.3°C | 4.6% | 67.5hPa | 2.5V | 00:00:00 | 00:00:00 | 00:00:00 | |
| PG1ADW-2 | 2026-09-06 00:42:40 | 48.85462 | 13.20496 | 110° | 38km/h | 19136m | -25.5m/s | -55.5°C | 4.6% | 67.2hPa | 2.5V | 00:00:00 | 00:00:00 | 00:00:00 | |
| OE5MMP-10 | 2026-09-06 00:42:39 | 48.85465 | 13.20478 | 106° | 37km/h | 19161m | -25.0m/s | -55.5°C | 4.6% | 67.0hPa | 2.6V | 00:00:00 | 02:37:46 | 00:00:00 | |
| OE5DXL-15 | 2026-09-06 00:42:38 | 48.85469 | 13.20462 | 113° | 38km/h | 19185m | -25.8m/s | -55.5°C | 4.6% | 66.8hPa | 2.6V | 03:24:00 | 00:00:00 | 00:00:00 | |
| EDDB2-11 | 2026-09-06 00:42:37 | 48.85477 | 13.20433 | 109° | 38km/h | 19237m | -26.4m/s | -55.7°C | 1.4% | 66.3hPa | 2.6V | 00:00:00 | 00:00:00 | 00:00:00 | |
| BAUMI2-15 | 2026-09-06 00:42:33 | 48.85488 | 13.20397 | 121° | 33km/h | 19314m | -25.3m/s | -55.4°C | 4.6% | 65.4hPa | 2.6V | 03:24:00 | 02:37:40 | 00:00:00 | |
| OE5DRO-10 | 2026-09-06 00:42:32 | 48.85492 | 13.20386 | 114° | 38km/h | 19339m | -25.4m/s | -55.2°C | 4.5% | 65.1hPa | 2.6V | 03:24:00 | 00:00:00 | 00:00:00 | |
| EDDB2-12 | 2026-09-06 00:42:29 | 48.85506 | 13.20340 | 116° | 31km/h | 19443m | -26.5m/s | -55.6°C | 1.4% | 64.2hPa | 2.6V | 00:00:00 | 00:00:00 | 00:00:00 | |
| BAUMI2-15 | 2026-09-06 00:42:28 | 48.85506 | 13.20340 | 117° | 35km/h | 19444m | -26.5m/s | -55.5°C | 4.6% | 64.1hPa | 2.6V | 00:00:00 | 02:37:35 | 00:00:00 | |
| BAUMI2-15 | 2026-09-06 00:42:23 | 48.85521 | 13.20275 | 108° | 40km/h | 19577m | -26.8m/s | -56.0°C | 4.7% | 62.8hPa | 2.6V | 00:00:00 | 02:37:30 | 00:00:00 | |
| PETON7-10 | 2026-09-06 00:42:22 | 48.85524 | 13.20260 | 113° | 42km/h | 19605m | -26.0m/s | -56.1°C | 4.8% | 62.5hPa | 2.6V | 00:00:00 | 02:37:29 | 00:00:00 | |
| OE5WHR-10 | 2026-09-06 00:42:20 | 48.85531 | 13.20231 | 112° | 42km/h | 19657m | -26.0m/s | -56.4°C | 4.9% | 62.0hPa | 2.6V | 00:00:00 | 00:00:00 | 00:00:00 | |
| OE5MMP-10 | 2026-09-06 00:42:19 | 48.85536 | 13.20218 | 119° | 42km/h | 19684m | -26.1m/s | -56.3°C | 4.9% | 61.8hPa | 2.6V | 03:25:00 | 02:37:26 | 00:00:00 | |
| BAUMI2-15 | 2026-09-06 00:42:18 | 48.85541 | 13.20203 | 118° | 44km/h | 19710m | -26.3m/s | -56.4°C | 5.0% | 61.5hPa | 2.6V | 00:00:00 | 02:37:25 | 00:00:00 | |
| BAUMI2-15 | 2026-09-06 00:42:13 | 48.85567 | 13.20131 | 127° | 42km/h | 19839m | -26.4m/s | -56.0°C | 4.9% | 60.2hPa | 2.6V | 03:25:00 | 02:37:20 | 00:00:00 | |
| SONDE2-11 | 2026-09-06 00:42:10 | 48.85587 | 13.20092 | 133° | 44km/h | 19917m | -26.0m/s | -56.1°C | 1.5% | 59.5hPa | 2.6V | 00:00:00 | 00:00:00 | 00:00:00 | |
| OE5MMP-10 | 2026-09-06 00:42:09 | 48.85594 | 13.20080 | 130° | 42km/h | 19944m | -26.9m/s | -56.1°C | 5.0% | 59.3hPa | 2.6V | 00:00:00 | 02:37:16 | 00:00:00 | |
| BAUMI2-15 | 2026-09-06 00:42:08 | 48.85601 | 13.20069 | 139° | 44km/h | 19970m | -27.1m/s | -56.1°C | 5.0% | 59.0hPa | 2.6V | 00:00:00 | 02:37:15 | 00:00:00 | |
| PETON7-10 | 2026-09-06 00:42:07 | 48.85610 | 13.20058 | 141° | 38km/h | 19998m | -26.8m/s | -56.0°C | 5.0% | 58.8hPa | 2.6V | 03:25:00 | 00:00:00 | 00:00:00 | |
| OE3JTB-15 | 2026-09-06 00:42:05 | 48.85627 | 13.20036 | 141° | 24km/h | 20051m | -26.5m/s | -56.1°C | 5.1% | 58.3hPa | 2.6V | 00:00:00 | 00:00:00 | 00:00:00 | |
| BAUMI2-15 | 2026-09-06 00:42:03 | 48.85643 | 13.20016 | 140° | 40km/h | 20104m | -26.6m/s | -56.4°C | 5.2% | 57.8hPa | 2.6V | 00:00:00 | 02:37:10 | 00:00:00 | |
| DL3JIN-12 | 2026-09-06 00:42:02 | 48.85643 | 13.20016 | 141° | 42km/h | 20104m | -26.7m/s | -56.4°C | 1.6% | 57.9hPa | 2.6V | 00:00:00 | 00:00:00 | 00:00:00 | |
| EDDB2-12 | 2026-09-06 00:41:58 | 48.85688 | 13.19957 | 131° | 35km/h | 20263m | -27.5m/s | -56.6°C | 1.6% | 56.5hPa | 2.6V | 00:00:00 | 00:00:00 | 00:00:00 | |
| OE5DRO-10 | 2026-09-06 00:41:54 | 48.85703 | 13.19928 | 122° | 22km/h | 20345m | -27.3m/s | -55.7°C | 5.1% | 55.7hPa | 2.6V | 00:00:00 | 00:00:00 | 00:00:00 | |
| BAUMI2-15 | 2026-09-06 00:41:53 | 48.85707 | 13.19919 | 125° | 29km/h | 20372m | -27.0m/s | -55.8°C | 5.2% | 55.4hPa | 2.6V | 03:25:00 | 02:37:00 | 00:00:00 | |
| OE5REO-15 | 2026-09-06 00:41:52 | 48.85711 | 13.19909 | 118° | 31km/h | 20399m | -27.3m/s | -55.9°C | 1.5% | 55.2hPa | 2.6V | 03:26:00 | 00:00:00 | 00:00:00 | |
| OE5MMP-10 | 2026-09-06 00:41:50 | 48.85722 | 13.19879 | 119° | 24km/h | 20481m | -27.9m/s | -54.8°C | 4.8% | 54.5hPa | 2.6V | 00:00:00 | 02:36:56 | 00:00:00 | |
| BAUMI2-15 | 2026-09-06 00:41:48 | 48.85726 | 13.19869 | 116° | 26km/h | 20509m | -27.9m/s | -54.5°C | 4.7% | 54.3hPa | 2.6V | 00:00:00 | 02:36:55 | 00:00:00 | |
| BAUMI2-15 | 2026-09-06 00:41:43 | 48.85747 | 13.19831 | 135° | 18km/h | 20645m | -28.3m/s | -53.6°C | 4.3% | 53.1hPa | 2.6V | 00:00:00 | 02:36:50 | 00:00:00 | |
| DL6DJ-15 | 2026-09-06 00:41:42 | 48.85751 | 13.19826 | 134° | 18km/h | 20673m | -27.4m/s | -53.4°C | 1.2% | 52.9hPa | 2.6V | 00:00:00 | 00:00:00 | 00:00:00 | |
| PG1ADW-2 | 2026-09-06 00:41:40 | 48.85758 | 13.19817 | 147° | 13km/h | 20728m | -27.8m/s | -53.3°C | 4.2% | 52.4hPa | 2.6V | 03:25:00 | 00:00:00 | 00:00:00 | |
| OE5MMP-10 | 2026-09-06 00:41:39 | 48.85761 | 13.19814 | 130° | 9km/h | 20756m | -27.9m/s | -53.5°C | 4.2% | 52.2hPa | 2.5V | 03:25:00 | 02:36:46 | 00:00:00 | |
| OE5WHR-10 | 2026-09-06 00:41:38 | 48.85763 | 13.19811 | 152° | 15km/h | 20783m | -28.3m/s | -53.7°C | 4.3% | 52.0hPa | 2.5V | 00:00:00 | 00:00:00 | 00:00:00 | |
| PETON7-10 | 2026-09-06 00:41:37 | 48.85766 | 13.19808 | 130° | 13km/h | 20811m | -28.0m/s | -53.7°C | 4.3% | 51.8hPa | 2.5V | 00:00:00 | 02:36:44 | 00:00:00 | |
| OE5REO-15 | 2026-09-06 00:41:36 | 48.85766 | 13.19808 | 131° | 11km/h | 20811m | -28.0m/s | -53.7°C | 1.2% | 51.8hPa | 2.5V | 03:26:00 | 00:00:00 | 00:00:00 | |
| OE5DRO-10 | 2026-09-06 00:41:35 | 48.85768 | 13.19803 | 130° | 16km/h | 20868m | -27.8m/s | -53.7°C | 4.3% | 51.3hPa | 2.5V | 00:00:00 | 00:00:00 | 00:00:00 | |
| OE3JTB-15 | 2026-09-06 00:41:34 | 48.85769 | 13.19800 | 108° | 24km/h | 20896m | -28.3m/s | -53.6°C | 4.3% | 51.1hPa | 2.5V | 03:25:00 | 02:36:41 | 00:00:00 | |
| BAUMI2-15 | 2026-09-06 00:41:33 | 48.85769 | 13.19797 | 66° | 9km/h | 20924m | -28.4m/s | -53.2°C | 4.1% | 50.9hPa | 2.5V | 03:25:00 | 02:36:40 | 00:00:00 | |
| OE5MMP-10 | 2026-09-06 00:41:29 | 48.85767 | 13.19784 | 79° | 18km/h | 21037m | -28.3m/s | -53.3°C | 4.1% | 50.0hPa | 2.5V | 00:00:00 | 02:36:36 | 00:00:00 | |
| BAUMI2-15 | 2026-09-06 00:41:28 | 48.85766 | 13.19779 | 68° | 16km/h | 21065m | -28.6m/s | -53.4°C | 4.1% | 49.8hPa | 2.5V | 00:00:00 | 02:36:35 | 00:00:00 | |
| EDDB2-12 | 2026-09-06 00:41:27 | 48.85763 | 13.19768 | 68° | 15km/h | 21122m | -27.6m/s | -53.8°C | 1.2% | 49.3hPa | 2.5V | 00:00:00 | 00:00:00 | 00:00:00 | |
| PETON7-10 | 2026-09-06 00:41:22 | 48.85756 | 13.19740 | 69° | 29km/h | 21234m | -28.1m/s | -53.8°C | 4.2% | 48.5hPa | 2.5V | 00:00:00 | 00:00:00 | 00:00:00 | |
| OE5REO-15 | 2026-09-06 00:41:21 | 48.85754 | 13.19732 | 68° | 22km/h | 21262m | -28.1m/s | -53.8°C | 1.2% | 48.3hPa | 2.5V | 03:26:00 | 00:00:00 | 00:00:00 | |
| PG1ADW-2 | 2026-09-06 00:41:20 | 48.85752 | 13.19723 | 75° | 27km/h | 21289m | -27.6m/s | -53.9°C | 4.3% | 48.1hPa | 2.5V | 00:00:00 | 00:00:00 | 00:00:00 | |
| OE5MMP-10 | 2026-09-06 00:41:19 | 48.85750 | 13.19714 | 71° | 29km/h | 21317m | -28.3m/s | -54.0°C | 4.3% | 47.8hPa | 2.5V | 00:00:00 | 02:36:26 | 00:00:00 | |
| OE5WHR-10 | 2026-09-06 00:41:17 | 48.85746 | 13.19694 | 77° | 26km/h | 21374m | -28.9m/s | -54.1°C | 4.4% | 47.4hPa | 2.5V | 00:00:00 | 00:00:00 | 00:00:00 | |
| OE5DRO-10 | 2026-09-06 00:41:16 | 48.85745 | 13.19683 | 82° | 26km/h | 21403m | -29.8m/s | -54.0°C | 4.4% | 47.2hPa | 2.5V | 03:26:00 | 00:00:00 | 00:00:00 | |
| DL3JIN-12 | 2026-09-06 00:41:13 | 48.85743 | 13.19660 | 83° | 31km/h | 21462m | -29.6m/s | -54.0°C | 1.2% | 46.8hPa | 2.6V | 03:27:00 | 00:00:00 | 00:00:00 | |
| S52SK | 2026-09-06 00:41:12 | 48.85743 | 13.19649 | 95° | 29km/h | 21491m | -30.0m/s | -54.1°C | 1.2% | 46.6hPa | 2.6V | 00:00:00 | 00:00:00 | 00:00:00 | |
| DL6DJ-15 | 2026-09-06 00:41:11 | 48.85744 | 13.19625 | 93° | 31km/h | 21550m | -30.0m/s | -54.5°C | 1.3% | 46.2hPa | 2.6V | 00:00:00 | 00:00:00 | 00:00:00 | |
| OE5MMP-10 | 2026-09-06 00:41:09 | 48.85747 | 13.19603 | 105° | 24km/h | 21609m | -29.7m/s | -54.7°C | 4.7% | 45.7hPa | 2.6V | 00:00:00 | 02:36:16 | 00:00:00 | |
| DK5PH-5 | 2026-09-06 00:41:08 | 48.85749 | 13.19592 | 103° | 18km/h | 21639m | -30.3m/s | -54.8°C | 4.8% | 45.5hPa | 2.6V | 00:00:00 | 02:36:15 | 00:00:00 | |
| PETON7-10 | 2026-09-06 00:41:07 | 48.85751 | 13.19582 | 113° | 22km/h | 21670m | -30.1m/s | -54.9°C | 4.8% | 45.3hPa | 2.6V | 03:26:00 | 00:00:00 | 00:00:00 | |
| OE5REO-15 | 2026-09-06 00:41:05 | 48.85753 | 13.19572 | 114° | 27km/h | 21699m | -30.0m/s | -55.0°C | 1.3% | 45.1hPa | 2.6V | 03:27:00 | 00:00:00 | 00:00:00 | |
| OE3JTB-15 | 2026-09-06 00:41:04 | 48.85757 | 13.19554 | 104° | 18km/h | 21758m | -28.9m/s | -55.1°C | 5.0% | 44.6hPa | 2.6V | 00:00:00 | 00:00:00 | 00:00:00 | |
| EDDB2-11 | 2026-09-06 00:41:03 | 48.85759 | 13.19546 | 98° | 24km/h | 21786m | -29.6m/s | -55.2°C | 1.4% | 44.5hPa | 2.5V | 00:00:00 | 00:00:00 | 00:00:00 | |
| S52SK | 2026-09-06 00:41:02 | 48.85759 | 13.19546 | 99° | 26km/h | 21786m | -29.6m/s | -55.2°C | 1.4% | 44.5hPa | 2.5V | 00:00:00 | 00:00:00 | 00:00:00 | |
| EDDB2-12 | 2026-09-06 00:40:56 | 48.85755 | 13.19481 | 78° | 24km/h | 22021m | -29.9m/s | -54.2°C | 1.3% | 43.0hPa | 2.5V | 00:00:00 | 00:00:00 | 00:00:00 | |
| SONCRA | 2026-09-06 00:40:55 | 48.85755 | 13.19481 | 78° | 24km/h | 22021m | -29.9m/s | -54.2°C | 1.3% | 43.0hPa | 2.5V | 00:00:00 | 00:00:00 | 00:00:00 | |
| PETON7-10 | 2026-09-06 00:40:52 | 48.85753 | 13.19457 | 93° | 15km/h | 22112m | -30.6m/s | -53.3°C | 4.5% | 42.3hPa | 2.5V | 00:00:00 | 02:35:59 | 00:00:00 | |
| OE5REO-15 | 2026-09-06 00:40:49 | 48.85756 | 13.19444 | 116° | 18km/h | 22173m | -31.1m/s | -53.3°C | 1.2% | 41.9hPa | 2.5V | 03:27:00 | 00:00:00 | 00:00:00 | |
| DL3JIN-12 | 2026-09-06 00:40:43 | 48.85773 | 13.19417 | 141° | 16km/h | 22367m | -31.9m/s | -52.2°C | 1.1% | 40.7hPa | 2.5V | 03:27:00 | 00:00:00 | 00:00:00 | |
| PG1ADW-2 | 2026-09-06 00:40:40 | 48.85786 | 13.19406 | 160° | 16km/h | 22489m | -29.4m/s | -51.4°C | 3.7% | 39.8hPa | 2.5V | 00:00:00 | 00:00:00 | 00:00:00 | |
| DK5PH-5 | 2026-09-06 00:40:38 | 48.85790 | 13.19403 | 162° | 11km/h | 22548m | -30.0m/s | -51.6°C | 3.8% | 39.5hPa | 2.5V | 00:00:00 | 02:35:45 | 00:00:00 | |
| PETON7-10 | 2026-09-06 00:40:37 | 48.85792 | 13.19401 | 131° | 16km/h | 22578m | -30.5m/s | -51.8°C | 3.8% | 39.3hPa | 2.5V | 00:00:00 | 00:00:00 | 00:00:00 | |
| OE5HKT-10 | 2026-09-06 00:40:35 | 48.85795 | 13.19398 | 135° | 20km/h | 22639m | -31.2m/s | -52.1°C | 3.9% | 39.0hPa | 2.6V | 00:00:00 | 00:00:00 | 00:00:00 | |
| OE5REO-15 | 2026-09-06 00:40:33 | 48.85796 | 13.19396 | 130° | 5km/h | 22670m | -30.9m/s | -52.3°C | 1.1% | 38.8hPa | 2.6V | 03:27:00 | 00:00:00 | 00:00:00 | |
| EDDB2-11 | 2026-09-06 00:40:32 | 48.85799 | 13.19393 | 120° | 9km/h | 22732m | -30.3m/s | -52.5°C | 1.1% | 38.5hPa | 2.6V | 00:00:00 | 00:00:00 | 00:00:00 | |
| OE5MMP-10 | 2026-09-06 00:40:29 | 48.85804 | 13.19382 | 131° | 26km/h | 22825m | -31.2m/s | -52.8°C | 4.2% | 37.9hPa | 2.6V | 00:00:00 | 02:35:36 | 00:00:00 | |
| EDDB2-12 | 2026-09-06 00:40:25 | 48.85824 | 13.19347 | 138° | 29km/h | 22985m | -33.0m/s | -52.6°C | 1.1% | 37.0hPa | 2.6V | 00:00:00 | 00:00:00 | 00:00:00 | |
| SONCRA | 2026-09-06 00:40:24 | 48.85829 | 13.19339 | 134° | 29km/h | 23018m | -33.0m/s | -52.6°C | 1.1% | 36.8hPa | 2.6V | 00:00:00 | 00:00:00 | 00:00:00 | |
| PETON7-10 | 2026-09-06 00:40:22 | 48.85834 | 13.19331 | 137° | 18km/h | 23051m | -33.0m/s | -52.5°C | 4.0% | 36.6hPa | 2.6V | 00:00:00 | 00:00:00 | 00:00:00 | |
| SP3BTT-10 | 2026-09-06 00:40:20 | 48.85845 | 13.19317 | 145° | 20km/h | 23117m | -31.9m/s | -52.7°C | 4.2% | 36.2hPa | 2.6V | 03:27:00 | 00:00:00 | 00:00:00 | |
| OE5REO-15 | 2026-09-06 00:40:19 | 48.85851 | 13.19312 | 150° | 26km/h | 23148m | -31.5m/s | -52.9°C | 1.1% | 36.1hPa | 2.5V | 03:27:00 | 00:00:00 | 00:00:00 | |
| OE5WHR-10 | 2026-09-06 00:40:14 | 48.85870 | 13.19297 | 150° | 16km/h | 23301m | -31.5m/s | -52.8°C | 4.2% | 35.2hPa | 2.5V | 00:00:00 | 00:00:00 | 00:00:00 | |
| OE5DXL-15 | 2026-09-06 00:40:12 | 48.85875 | 13.19295 | 152° | 16km/h | 23366m | -32.9m/s | -53.0°C | 4.3% | 34.8hPa | 2.5V | 00:00:00 | 00:00:00 | 00:00:00 | |
| DO3MHA-11 | 2026-09-06 00:40:10 | 48.85880 | 13.19290 | 151° | 20km/h | 23431m | -32.4m/s | -53.2°C | 4.4% | 34.5hPa | 2.5V | 03:27:00 | 02:35:17 | 00:00:00 | |
| DL6DJ-15 | 2026-09-06 00:40:09 | 48.85886 | 13.19286 | 155° | 18km/h | 23495m | -31.9m/s | -53.1°C | 1.2% | 34.2hPa | 2.5V | 00:00:00 | 00:00:00 | 00:00:00 | |
| PETON7-10 | 2026-09-06 00:40:07 | 48.85891 | 13.19283 | 156° | 18km/h | 23527m | -31.3m/s | -53.0°C | 4.4% | 34.0hPa | 2.5V | 03:27:00 | 02:35:14 | 00:00:00 | |
| SONDE2-11 | 2026-09-06 00:40:06 | 48.85901 | 13.19278 | 165° | 24km/h | 23588m | -30.6m/s | -52.3°C | 1.1% | 33.7hPa | 2.5V | 00:00:00 | 00:00:00 | 00:00:00 | |
| OE5REO-15 | 2026-09-06 00:40:03 | 48.85908 | 13.19275 | 167° | 26km/h | 23619m | -31.9m/s | -52.1°C | 1.1% | 33.5hPa | 2.5V | 03:27:00 | 00:00:00 | 00:00:00 | |
| EDDB2-11 | 2026-09-06 00:40:01 | 48.85926 | 13.19272 | 183° | 24km/h | 23712m | -30.9m/s | -52.2°C | 1.1% | 33.0hPa | 2.5V | 00:00:00 | 00:00:00 | 00:00:00 | |
| DO3MHA-11 | 2026-09-06 00:40:00 | 48.85932 | 13.19273 | 188° | 15km/h | 23742m | -31.1m/s | -52.1°C | 4.0% | 32.8hPa | 2.5V | 00:00:00 | 02:35:07 | 00:00:00 | |
| OE5MMP-10 | 2026-09-06 00:39:59 | 48.85937 | 13.19275 | 197° | 13km/h | 23773m | -30.9m/s | -52.1°C | 4.1% | 32.7hPa | 2.5V | 00:00:00 | 02:35:06 | 00:00:00 | |
| DL3JIN-12 | 2026-09-06 00:39:55 | 48.85949 | 13.19284 | 228° | 13km/h | 23866m | -31.9m/s | -52.1°C | 1.1% | 32.3hPa | 2.5V | 00:00:00 | 00:00:00 | 00:00:00 | |
| OE5WHR-10 | 2026-09-06 00:39:53 | 48.85955 | 13.19294 | 218° | 16km/h | 23962m | -31.5m/s | -52.2°C | 4.1% | 31.7hPa | 2.5V | 00:00:00 | 02:35:00 | 00:00:00 | |
| PETON7-10 | 2026-09-06 00:39:52 | 48.85957 | 13.19296 | 221° | 16km/h | 23992m | -31.6m/s | -52.3°C | 4.2% | 31.6hPa | 2.5V | 00:00:00 | 00:00:00 | 00:00:00 | |
| DO3MHA-11 | 2026-09-06 00:39:50 | 48.85962 | 13.19299 | 189° | 18km/h | 24055m | -31.1m/s | -52.6°C | 4.3% | 31.3hPa | 2.5V | 00:00:00 | 02:34:57 | 00:00:00 | |
| OE5MMP-10 | 2026-09-06 00:39:49 | 48.85964 | 13.19299 | 185° | 16km/h | 24086m | -31.4m/s | -52.6°C | 4.4% | 31.1hPa | 2.5V | 00:00:00 | 02:34:56 | 00:00:00 | |
| OE5REO-15 | 2026-09-06 00:39:48 | 48.85964 | 13.19300 | 185° | 11km/h | 24086m | -31.4m/s | -52.7°C | 1.2% | 31.2hPa | 2.5V | 03:27:00 | 00:00:00 | 00:00:00 | |
| OE5DRO-10 | 2026-09-06 00:39:41 | 48.85994 | 13.19314 | 244° | 16km/h | 24347m | -33.5m/s | -51.5°C | 3.9% | 29.9hPa | 2.5V | 00:00:00 | 00:00:00 | 00:00:00 | |
| PG1ADW-2 | 2026-09-06 00:39:40 | 48.85996 | 13.19320 | 245° | 18km/h | 24381m | -33.1m/s | -51.5°C | 4.0% | 29.7hPa | 2.5V | 00:00:00 | 02:34:47 | 00:00:00 | |
| OE5MMP-10 | 2026-09-06 00:39:39 | 48.85997 | 13.19327 | 268° | 18km/h | 24414m | -33.7m/s | -51.5°C | 3.9% | 29.6hPa | 2.6V | 03:27:00 | 02:34:46 | 00:00:00 | |
| DL6DJ-15 | 2026-09-06 00:39:38 | 48.85997 | 13.19344 | 284° | 18km/h | 24481m | -34.1m/s | -51.4°C | 1.1% | 29.3hPa | 2.6V | 00:00:00 | 00:00:00 | 00:00:00 | |
| PETON7-10 | 2026-09-06 00:39:37 | 48.85997 | 13.19344 | 285° | 16km/h | 24482m | -34.1m/s | -51.4°C | 3.9% | 29.3hPa | 2.6V | 00:00:00 | 00:00:00 | 00:00:00 | |
| DO3MHA-11 | 2026-09-06 00:39:36 | 48.85995 | 13.19351 | 297° | 16km/h | 24515m | -34.6m/s | -51.2°C | 3.9% | 29.2hPa | 2.6V | 00:00:00 | 02:34:43 | 00:00:00 | |
| SONDE2-11 | 2026-09-06 00:39:35 | 48.85989 | 13.19365 | 306° | 16km/h | 24585m | -35.1m/s | -51.2°C | 1.0% | 28.9hPa | 2.6V | 00:00:00 | 00:00:00 | 00:00:00 | |
| OE5WHR-10 | 2026-09-06 00:39:32 | 48.85982 | 13.19373 | 338° | 11km/h | 24654m | -34.8m/s | -51.1°C | 3.9% | 28.5hPa | 2.6V | 00:00:00 | 00:00:00 | 00:00:00 | |
| EDDB2-11 | 2026-09-06 00:39:30 | 48.85976 | 13.19374 | 23° | 13km/h | 24723m | -34.0m/s | -51.3°C | 1.0% | 28.3hPa | 2.5V | 00:00:00 | 00:00:00 | 00:00:00 | |
| OE5DXL-15 | 2026-09-06 00:39:28 | 48.85970 | 13.19368 | 53° | 13km/h | 24792m | -35.2m/s | -51.5°C | 4.0% | 27.9hPa | 2.5V | 03:27:00 | 00:00:00 | 00:00:00 | |
| DO3MHA-11 | 2026-09-06 00:39:26 | 48.85967 | 13.19357 | 78° | 13km/h | 24863m | -34.6m/s | -51.9°C | 4.2% | 27.6hPa | 2.5V | 03:28:00 | 02:34:33 | 00:00:00 | |
| BAUMI2-15 | 2026-09-06 00:39:23 | 48.85969 | 13.19340 | 106° | 13km/h | 24965m | -34.4m/s | -51.9°C | 4.3% | 27.2hPa | 2.6V | 00:00:00 | 02:34:30 | 00:00:00 | |
| PETON7-10 | 2026-09-06 00:39:22 | 48.85971 | 13.19334 | 118° | 9km/h | 24999m | -35.4m/s | -52.0°C | 4.3% | 27.1hPa | 2.5V | 00:00:00 | 02:34:29 | 00:00:00 | |
| PG1ADW-2 | 2026-09-06 00:39:20 | 48.85975 | 13.19326 | 121° | 20km/h | 25069m | -36.4m/s | -51.7°C | 4.2% | 26.8hPa | 2.5V | 00:00:00 | 00:00:00 | 00:00:00 | |
| OE5MMP-10 | 2026-09-06 00:39:19 | 48.85976 | 13.19323 | 147° | 9km/h | 25105m | -36.8m/s | -51.5°C | 4.1% | 26.6hPa | 2.5V | 00:00:00 | 02:34:26 | 00:00:00 | |
| OE5REO-15 | 2026-09-06 00:39:16 | 48.85981 | 13.19320 | 169° | 11km/h | 25177m | -35.0m/s | -51.4°C | 1.1% | 26.4hPa | 2.5V | 03:28:00 | 00:00:00 | 00:00:00 | |
| BAUMI2-15 | 2026-09-06 00:39:13 | 48.85984 | 13.19317 | 15° | 7km/h | 25318m | -36.1m/s | -50.5°C | 3.9% | 25.7hPa | 2.5V | 03:28:00 | 02:34:20 | 00:00:00 | |
| OE5WHR-10 | 2026-09-06 00:39:11 | 48.85981 | 13.19316 | 27° | 18km/h | 25389m | -36.1m/s | -50.4°C | 3.8% | 25.5hPa | 2.5V | 03:28:00 | 00:00:00 | 00:00:00 | |
| S52SK | 2026-09-06 00:39:10 | 48.85981 | 13.19316 | 27° | 7km/h | 25389m | -36.2m/s | -50.4°C | 1.0% | 25.5hPa | 2.5V | 00:00:00 | 00:00:00 | 00:00:00 | |
| BAUMI2-15 | 2026-09-06 00:39:08 | 48.85975 | 13.19314 | 27° | 18km/h | 25496m | -37.6m/s | -50.3°C | 3.8% | 25.1hPa | 2.5V | 00:00:00 | 02:34:15 | 00:00:00 | |
| DL6DJ-15 | 2026-09-06 00:39:07 | 48.85968 | 13.19309 | 29° | 16km/h | 25571m | -37.8m/s | -50.1°C | 1.0% | 24.9hPa | 2.6V | 00:00:00 | 00:00:00 | 00:00:00 | |
| SONDE2-11 | 2026-09-06 00:39:04 | 48.85955 | 13.19298 | 38° | 18km/h | 25682m | -36.8m/s | -50.0°C | 1.0% | 24.4hPa | 2.6V | 00:00:00 | 00:00:00 | 00:00:00 | |
| BAUMI2-15 | 2026-09-06 00:39:03 | 48.85955 | 13.19298 | 39° | 20km/h | 25682m | -36.7m/s | -49.9°C | 3.7% | 24.3hPa | 2.6V | 00:00:00 | 02:34:10 | 00:00:00 | |
| EDDB2-11 | 2026-09-06 00:38:59 | 48.85941 | 13.19276 | 50° | 20km/h | 25829m | -36.7m/s | -49.8°C | 0.9% | 23.8hPa | 2.6V | 00:00:00 | 00:00:00 | 00:00:00 | |
| SONCRA | 2026-09-06 00:38:51 | 48.85927 | 13.19221 | 80° | 18km/h | 26121m | -37.3m/s | -49.6°C | 0.9% | 22.8hPa | 2.6V | 00:00:00 | 00:00:00 | 00:00:00 | |
| OE5WHR-10 | 2026-09-06 00:38:50 | 48.85926 | 13.19213 | 88° | 18km/h | 26159m | -38.3m/s | -49.6°C | 3.7% | 22.6hPa | 2.6V | 00:00:00 | 02:33:57 | 00:00:00 | |
| SP3BTT-10 | 2026-09-06 00:38:49 | 48.85926 | 13.19205 | 91° | 18km/h | 26197m | -38.6m/s | -49.6°C | 3.7% | 22.5hPa | 2.6V | 00:00:00 | 00:00:00 | 00:00:00 | |
| BAUMI2-15 | 2026-09-06 00:38:48 | 48.85926 | 13.19197 | 99° | 22km/h | 26235m | -38.7m/s | -49.6°C | 3.7% | 22.4hPa | 2.6V | 00:00:00 | 02:33:55 | 00:00:00 | |
| DL3JIN-12 | 2026-09-06 00:38:46 | 48.85927 | 13.19190 | 109° | 22km/h | 26274m | -37.2m/s | -49.8°C | 1.0% | 22.3hPa | 2.6V | 03:28:00 | 00:00:00 | 00:00:00 | |
| OE5REO-15 | 2026-09-06 00:38:44 | 48.85930 | 13.19173 | 111° | 22km/h | 26347m | -37.4m/s | -50.0°C | 1.0% | 22.1hPa | 2.6V | 03:28:00 | 00:00:00 | 00:00:00 | |
| BAUMI2-15 | 2026-09-06 00:38:43 | 48.85936 | 13.19156 | 119° | 22km/h | 26421m | -36.4m/s | -49.8°C | 3.8% | 21.7hPa | 2.6V | 00:00:00 | 02:33:50 | 00:00:00 | |
| DO3MHA-11 | 2026-09-06 00:38:42 | 48.85939 | 13.19149 | 131° | 16km/h | 26457m | -36.3m/s | -49.8°C | 3.8% | 21.6hPa | 2.6V | 00:00:00 | 02:33:49 | 00:00:00 | |
| OE3JTB-15 | 2026-09-06 00:38:39 | 48.85950 | 13.19132 | 142° | 15km/h | 26567m | -37.5m/s | -49.9°C | 4.0% | 21.3hPa | 2.5V | 00:00:00 | 02:33:46 | 00:00:00 | |
| BAUMI2-15 | 2026-09-06 00:38:38 | 48.85953 | 13.19127 | 142° | 13km/h | 26605m | -37.3m/s | -49.8°C | 3.9% | 21.2hPa | 2.5V | 00:00:00 | 02:33:45 | 00:00:00 | |
| PETON7-10 | 2026-09-06 00:38:37 | 48.85956 | 13.19124 | 145° | 15km/h | 26643m | -39.1m/s | -49.6°C | 3.9% | 21.0hPa | 2.5V | 00:00:00 | 02:33:44 | 00:00:00 | |
| DL6DJ-15 | 2026-09-06 00:38:36 | 48.85961 | 13.19118 | 111° | 9km/h | 26721m | -40.3m/s | -49.3°C | 1.0% | 20.9hPa | 2.5V | 00:00:00 | 00:00:00 | 00:00:00 | |
| BAUMI2-15 | 2026-09-06 00:38:33 | 48.85962 | 13.19110 | 100° | 15km/h | 26803m | -42.0m/s | -49.2°C | 3.8% | 20.5hPa | 2.5V | 03:28:00 | 02:33:40 | 00:00:00 | |
| OE5REO-15 | 2026-09-06 00:38:30 | 48.85965 | 13.19095 | 108° | 16km/h | 26927m | -40.1m/s | -49.4°C | 1.0% | 20.2hPa | 2.5V | 03:29:00 | 00:00:00 | 00:00:00 | |
| OE5WHR-10 | 2026-09-06 00:38:29 | 48.85967 | 13.19089 | 115° | 11km/h | 26967m | -39.1m/s | -49.3°C | 3.9% | 20.0hPa | 2.5V | 00:00:00 | 00:00:00 | 00:00:00 | |
| BAUMI2-15 | 2026-09-06 00:38:28 | 48.85970 | 13.19084 | 133° | 18km/h | 27006m | -38.7m/s | -49.1°C | 3.9% | 19.9hPa | 2.5V | 00:00:00 | 02:33:35 | 00:00:00 | |
| DO3MHA-11 | 2026-09-06 00:38:26 | 48.85976 | 13.19074 | 143° | 15km/h | 27084m | -39.1m/s | -49.0°C | 3.9% | 19.7hPa | 2.5V | 03:29:00 | 02:33:33 | 00:00:00 | |
| BAUMI2-15 | 2026-09-06 00:38:23 | 48.85989 | 13.19066 | 176° | 16km/h | 27203m | -40.3m/s | -48.4°C | 3.7% | 19.3hPa | 2.5V | 00:00:00 | 02:33:30 | 00:00:00 | |
| PETON7-10 | 2026-09-06 00:38:22 | 48.85994 | 13.19067 | 188° | 9km/h | 27243m | -40.3m/s | -48.1°C | 3.6% | 19.2hPa | 2.6V | 00:00:00 | 00:00:00 | 00:00:00 | |
| OE5MMP-10 | 2026-09-06 00:38:21 | 48.85998 | 13.19068 | 197° | 9km/h | 27283m | -41.6m/s | -47.6°C | 3.5% | 19.1hPa | 2.5V | 00:00:00 | 02:33:28 | 00:00:00 | |
| SONCRA | 2026-09-06 00:38:20 | 48.86002 | 13.19070 | 213° | 15km/h | 27325m | -42.6m/s | -47.1°C | 0.8% | 19.0hPa | 2.5V | 00:00:00 | 00:00:00 | 00:00:00 | |
| SP3BTT-10 | 2026-09-06 00:38:19 | 48.86004 | 13.19074 | 220° | 11km/h | 27368m | -42.7m/s | -47.1°C | 3.3% | 18.8hPa | 2.5V | 00:00:00 | 00:00:00 | 00:00:00 | |
| OE3MUC-15 | 2026-09-06 00:38:18 | 48.86007 | 13.19077 | 226° | 7km/h | 27409m | -41.9m/s | -47.3°C | 3.4% | 18.7hPa | 2.5V | 03:29:00 | 00:00:00 | 00:00:00 | |
| DO3MHA-11 | 2026-09-06 00:38:16 | 48.86009 | 13.19082 | 304° | 9km/h | 27491m | -40.4m/s | -47.4°C | 3.4% | 18.5hPa | 2.5V | 00:00:00 | 02:33:23 | 00:00:00 | |
| OE5REO-15 | 2026-09-06 00:38:14 | 48.86007 | 13.19086 | 327° | 7km/h | 27570m | -39.6m/s | -47.1°C | 0.9% | 18.3hPa | 2.5V | 03:29:00 | 00:00:00 | 00:00:00 | |
| BAUMI2-15 | 2026-09-06 00:38:13 | 48.86006 | 13.19087 | 11° | 7km/h | 27610m | -39.1m/s | -46.9°C | 3.3% | 18.1hPa | 2.5V | 03:29:00 | 02:33:20 | 00:00:00 | |
| OE3MUC-15 | 2026-09-06 00:38:10 | 48.86001 | 13.19084 | 37° | 9km/h | 27729m | -40.3m/s | -46.3°C | 3.2% | 17.8hPa | 2.5V | 00:00:00 | 00:00:00 | 00:00:00 | |
| OE5HKT-10 | 2026-09-06 00:38:08 | 48.85998 | 13.19079 | 58° | 13km/h | 27813m | -45.5m/s | -46.1°C | 3.1% | 17.6hPa | 2.5V | 03:29:00 | 02:33:15 | 00:00:00 | |
| PETON7-10 | 2026-09-06 00:38:07 | 48.85997 | 13.19076 | 70° | 7km/h | 27858m | -45.7m/s | -46.0°C | 3.1% | 17.5hPa | 2.5V | 03:29:00 | 00:00:00 | 00:00:00 | |
| DL3JIN-12 | 2026-09-06 00:38:06 | 48.85997 | 13.19075 | 45° | 4km/h | 27904m | -46.2m/s | -46.2°C | 0.8% | 17.4hPa | 2.5V | 03:29:00 | 00:00:00 | 00:00:00 | |
| DL6DJ-15 | 2026-09-06 00:38:05 | 48.85996 | 13.19073 | 141° | 0km/h | 27994m | -44.7m/s | -46.5°C | 0.8% | 17.2hPa | 2.5V | 00:00:00 | 00:00:00 | 00:00:00 | |
| SONDE2-11 | 2026-09-06 00:38:02 | 48.85995 | 13.19071 | 54° | 2km/h | 28122m | -41.6m/s | -46.5°C | 0.8% | 16.8hPa | 2.5V | 00:00:00 | 00:00:00 | 00:00:00 | |
| EDDB2-11 | 2026-09-06 00:37:57 | 48.85993 | 13.19062 | 89° | 7km/h | 28285m | -42.5m/s | -46.2°C | 0.8% | 16.4hPa | 2.5V | 00:00:00 | 00:00:00 | 00:00:00 | |
| SONCRA | 2026-09-06 00:37:49 | 48.86002 | 13.19002 | 103° | 26km/h | 28627m | -41.8m/s | -46.3°C | 0.8% | 15.6hPa | 2.5V | 00:00:00 | 00:00:00 | 00:00:00 | |
| OE5MMP-10 | 2026-09-06 00:37:48 | 48.86004 | 13.18992 | 113° | 26km/h | 28669m | -42.1m/s | -46.3°C | 3.3% | 15.5hPa | 2.5V | 03:29:00 | 02:32:55 | 00:00:00 | |
| OE5HKT-10 | 2026-09-06 00:37:47 | 48.86007 | 13.18983 | 108° | 26km/h | 28711m | -42.5m/s | -46.3°C | 3.3% | 15.3hPa | 2.5V | 00:00:00 | 00:00:00 | 00:00:00 | |
| DL3JIN-12 | 2026-09-06 00:37:45 | 48.86009 | 13.18973 | 109° | 27km/h | 28753m | -41.3m/s | -46.3°C | 0.9% | 15.3hPa | 2.6V | 03:30:00 | 00:00:00 | 00:00:00 | |
| OE3MUC-15 | 2026-09-06 00:37:43 | 48.86017 | 13.18947 | 124° | 26km/h | 28871m | -39.1m/s | -46.1°C | 3.3% | 14.9hPa | 2.6V | 00:00:00 | 00:00:00 | 00:00:00 | |
| OE5REO-15 | 2026-09-06 00:37:41 | 48.86021 | 13.18938 | 119° | 24km/h | 28909m | -37.8m/s | -46.1°C | 0.8% | 14.9hPa | 2.6V | 03:30:00 | 00:00:00 | 00:00:00 | |
| OE5MMP-10 | 2026-09-06 00:37:38 | 48.86038 | 13.18911 | 144° | 27km/h | 29060m | -37.4m/s | -44.9°C | 3.1% | 14.5hPa | 2.6V | 00:00:00 | 02:32:45 | 00:00:00 | |
| PETON7-10 | 2026-09-06 00:37:37 | 48.86043 | 13.18904 | 135° | 22km/h | 29098m | -38.8m/s | -44.7°C | 3.0% | 14.5hPa | 2.6V | 00:00:00 | 00:00:00 | 00:00:00 | |
| BAUMI2-15 | 2026-09-06 00:37:33 | 48.86065 | 13.18873 | 132° | 27km/h | 29257m | -40.5m/s | -44.0°C | 2.8% | 14.1hPa | 2.5V | 00:00:00 | 02:32:40 | 00:00:00 | |
| OE5MMP-10 | 2026-09-06 00:37:28 | 48.86090 | 13.18841 | 145° | 11km/h | 29454m | -40.6m/s | -44.0°C | 2.8% | 13.7hPa | 2.5V | 00:00:00 | 02:32:35 | 00:00:00 | |
| OE5REO-15 | 2026-09-06 00:37:27 | 48.86094 | 13.18838 | 155° | 15km/h | 29494m | -41.7m/s | -44.0°C | 0.7% | 13.7hPa | 2.6V | 03:30:00 | 00:00:00 | 00:00:00 | |
| OE5WHR-10 | 2026-09-06 00:37:26 | 48.86098 | 13.18835 | 162° | 11km/h | 29535m | -40.6m/s | -43.9°C | 2.8% | 13.5hPa | 2.6V | 00:00:00 | 00:00:00 | 00:00:00 | |
| DL3JIN-12 | 2026-09-06 00:37:24 | 48.86101 | 13.18834 | 164° | 11km/h | 29577m | -40.8m/s | -43.9°C | 0.7% | 13.5hPa | 2.6V | 03:30:00 | 00:00:00 | 00:00:00 | |
| PETON7-10 | 2026-09-06 00:37:22 | 48.86108 | 13.18832 | 162° | 9km/h | 29700m | -43.0m/s | -44.0°C | 2.7% | 13.2hPa | 2.6V | 00:00:00 | 00:00:00 | 00:00:00 | |
| OE3MUC-15 | 2026-09-06 00:37:18 | 48.86111 | 13.18824 | 74° | 11km/h | 29875m | -45.0m/s | -44.5°C | 2.9% | 12.8hPa | 2.6V | 00:00:00 | 00:00:00 | 00:00:00 | |
| S52SK | 2026-09-06 00:37:16 | 48.86110 | 13.18817 | 85° | 11km/h | 29963m | -42.0m/s | -44.6°C | 0.7% | 12.7hPa | 2.5V | 00:00:00 | 00:00:00 | 00:00:00 | |
| OE3MUC-15 | 2026-09-06 00:37:14 | 48.86110 | 13.18808 | 90° | 13km/h | 30044m | -39.7m/s | -44.5°C | 2.9% | 12.5hPa | 2.5V | 00:00:00 | 00:00:00 | 00:00:00 | |
| OE5REO-15 | 2026-09-06 00:37:10 | 48.86112 | 13.18796 | 140° | 13km/h | 30165m | -40.7m/s | -44.3°C | 0.7% | 12.4hPa | 2.5V | 03:30:00 | 00:00:00 | 00:00:00 | |
| OE3MUC-15 | 2026-09-06 00:37:09 | 48.86117 | 13.18790 | 130° | 11km/h | 30247m | -40.3m/s | -44.2°C | 2.9% | 12.1hPa | 2.5V | 00:00:00 | 00:00:00 | 00:00:00 | |
| OE5MMP-10 | 2026-09-06 00:37:08 | 48.86119 | 13.18787 | 131° | 13km/h | 30287m | -40.9m/s | -44.1°C | 2.9% | 12.1hPa | 2.5V | 03:30:00 | 02:32:15 | 00:00:00 | |
| PETON7-10 | 2026-09-06 00:37:07 | 48.86120 | 13.18784 | 145° | 15km/h | 30328m | -40.7m/s | -44.1°C | 2.9% | 12.0hPa | 2.5V | 03:30:00 | 02:32:14 | 00:00:00 | |
| OE5HKT-10 | 2026-09-06 00:37:05 | 48.86125 | 13.18777 | 139° | 11km/h | 30410m | -41.1m/s | -44.1°C | 2.9% | 11.8hPa | 2.5V | 00:00:00 | 02:32:12 | 00:00:00 | |
| DL3JIN-12 | 2026-09-06 00:37:03 | 48.86129 | 13.18769 | 119° | 11km/h | 30492m | -41.4m/s | -44.1°C | 0.7% | 11.8hPa | 2.5V | 03:30:00 | 00:00:00 | 00:00:00 | |
| DL6DJ-15 | 2026-09-06 00:37:02 | 48.86130 | 13.18766 | 120° | 11km/h | 30533m | -42.1m/s | -44.1°C | 0.7% | 11.7hPa | 2.5V | 00:00:00 | 00:00:00 | 00:00:00 | |
| SONCRA | 2026-09-06 00:36:47 | 48.86174 | 13.18755 | 157° | 7km/h | 31123m | -43.3m/s | -43.8°C | 0.7% | 10.7hPa | 2.5V | 00:00:00 | 00:00:00 | 00:00:00 | |
| OE3MUC-15 | 2026-09-06 00:36:46 | 48.86176 | 13.18754 | 161° | 11km/h | 31165m | -41.2m/s | -43.7°C | 2.8% | 10.6hPa | 2.5V | 03:30:00 | 00:00:00 | 00:00:00 | |
| OE5HKT-10 | 2026-09-06 00:36:44 | 48.86182 | 13.18753 | 165° | 18km/h | 31246m | -39.7m/s | -43.6°C | 2.8% | 10.4hPa | 2.5V | 03:30:00 | 00:00:00 | 00:00:00 | |
| OE3MUC-15 | 2026-09-06 00:36:42 | 48.86189 | 13.18750 | 156° | 15km/h | 31328m | -42.9m/s | -43.6°C | 2.8% | 10.3hPa | 2.5V | 00:00:00 | 00:00:00 | 00:00:00 | |
| OE5REO-15 | 2026-09-06 00:36:39 | 48.86195 | 13.18744 | 128° | 16km/h | 31413m | -43.5m/s | -43.6°C | 0.7% | 10.2hPa | 2.5V | 03:31:00 | 00:00:00 | 00:00:00 | |
| OE5MMP-10 | 2026-09-06 00:36:38 | 48.86199 | 13.18734 | 117° | 20km/h | 31498m | -40.5m/s | -43.6°C | 2.8% | 10.0hPa | 2.5V | 00:00:00 | 02:31:45 | 00:00:00 | |
| DO3MHA-11 | 2026-09-06 00:36:37 | 48.86201 | 13.18728 | 111° | 16km/h | 31538m | -40.2m/s | -43.6°C | 2.8% | 10.0hPa | 2.5V | 00:00:00 | 02:31:44 | 00:00:00 | |
| SP3BTT-10 | 2026-09-06 00:36:35 | 48.86205 | 13.18715 | 110° | 18km/h | 31614m | -36.1m/s | -43.8°C | 2.9% | 9.9hPa | 2.5V | 03:30:00 | 00:00:00 | 00:00:00 | |
| OE3MUC-15 | 2026-09-06 00:36:34 | 48.86207 | 13.18709 | 128° | 18km/h | 31651m | -38.0m/s | -43.8°C | 2.9% | 9.8hPa | 2.5V | 00:00:00 | 00:00:00 | 00:00:00 | |
| DL6DJ-15 | 2026-09-06 00:36:31 | 48.86219 | 13.18700 | 173° | 18km/h | 31771m | -39.4m/s | -43.6°C | 0.7% | 9.7hPa | 2.5V | 00:00:00 | 00:00:00 | 00:00:00 | |
| OE3MUC-15 | 2026-09-06 00:36:30 | 48.86225 | 13.18700 | 183° | 26km/h | 31809m | -37.0m/s | -43.5°C | 2.8% | 9.5hPa | 2.5V | 03:30:00 | 00:00:00 | 00:00:00 | |
| OE5WHR-10 | 2026-09-06 00:36:28 | 48.86238 | 13.18701 | 180° | 20km/h | 31879m | -33.0m/s | -43.4°C | 2.8% | 9.4hPa | 2.5V | 00:00:00 | 02:31:35 | 00:00:00 | |
| OE3MUC-15 | 2026-09-06 00:36:26 | 48.86252 | 13.18701 | 178° | 20km/h | 31941m | -29.6m/s | -43.1°C | 2.7% | 9.3hPa | 2.5V | 00:00:00 | 00:00:00 | 00:00:00 | |
| OE5REO-15 | 2026-09-06 00:36:24 | 48.86258 | 13.18700 | 173° | 22km/h | 31970m | -27.9m/s | -43.0°C | 0.7% | 9.3hPa | 2.6V | 03:31:00 | 00:00:00 | 00:00:00 | |
| OE5HKT-10 | 2026-09-06 00:36:23 | 48.86267 | 13.18695 | 125° | 18km/h | 32024m | -27.3m/s | -42.8°C | 2.7% | 9.2hPa | 2.6V | 00:00:00 | 00:00:00 | 00:00:00 | |
| DO3MHA-11 | 2026-09-06 00:36:22 | 48.86268 | 13.18690 | 101° | 15km/h | 32052m | -27.2m/s | -42.8°C | 2.7% | 9.2hPa | 2.6V | 00:00:00 | 02:31:29 | 00:00:00 | |
| DL3JIN-12 | 2026-09-06 00:36:21 | 48.86268 | 13.18690 | 102° | 18km/h | 32052m | -27.2m/s | -42.8°C | 0.7% | 9.2hPa | 2.6V | 03:31:00 | 00:00:00 | 00:00:00 | |
| OE5MMP-10 | 2026-09-06 00:36:18 | 48.86265 | 13.18664 | 77° | 24km/h | 32161m | -28.4m/s | -42.9°C | 2.7% | 9.0hPa | 2.6V | 00:00:00 | 02:31:25 | 00:00:00 | |
| EDDB2-12 | 2026-09-06 00:36:16 | 48.86267 | 13.18659 | 188° | 7km/h | 32211m | -23.0m/s | -43.1°C | 0.7% | 9.0hPa | 2.6V | 00:00:00 | 00:00:00 | 00:00:00 | |
| OE3MUC-15 | 2026-09-06 00:36:14 | 48.86276 | 13.18667 | 216° | 44km/h | 32252m | -18.6m/s | -43.1°C | 2.7% | 8.9hPa | 2.6V | 03:31:00 | 00:00:00 | 00:00:00 | |
| OE3MUC-15 | 2026-09-06 00:36:10 | 48.86309 | 13.18705 | 211° | 7km/h | 32328m | -26.0m/s | -42.7°C | 2.6% | 8.8hPa | 2.6V | 00:00:00 | 00:00:00 | 00:00:00 | |
| OE5MMP-10 | 2026-09-06 00:36:08 | 48.86311 | 13.18706 | 74° | 13km/h | 32382m | -22.7m/s | -42.7°C | 2.6% | 8.7hPa | 2.6V | 00:00:00 | 02:31:15 | 00:00:00 | |
| OE5WHR-10 | 2026-09-06 00:36:07 | 48.86311 | 13.18704 | 71° | 15km/h | 32400m | -13.6m/s | -42.7°C | 2.7% | 8.7hPa | 2.6V | 03:31:00 | 00:00:00 | 00:00:00 | |
| OE3MUC-15 | 2026-09-06 00:36:06 | 48.86311 | 13.18702 | 71° | 9km/h | 32408m | -4.1m/s | -42.7°C | 2.7% | 8.6hPa | 2.6V | 00:00:00 | 00:00:00 | 00:00:00 | |
| DO3MHA-11 | 2026-09-06 00:36:05 | 48.86310 | 13.18700 | 67° | 18km/h | 32408m | 5.4m/s | -42.8°C | 2.6% | 8.6hPa | 2.6V | 03:31:00 | 02:31:12 | 00:00:00 | |
| DL6DJ-15 | 2026-09-06 00:36:00 | 48.86294 | 13.18706 | 300° | 16km/h | 32384m | 4.8m/s | -43.0°C | 0.7% | 8.7hPa | 2.6V | 00:00:00 | 00:00:00 | 00:00:00 | |
| SONDE2-11 | 2026-09-06 00:35:58 | 48.86297 | 13.18727 | 221° | 22km/h | 32369m | 4.2m/s | -43.0°C | 0.6% | 8.8hPa | 2.6V | 00:00:00 | 00:00:00 | 00:00:00 | |
| OE3MUC-15 | 2026-09-06 00:35:54 | 48.86311 | 13.18730 | 145° | 22km/h | 32355m | 6.1m/s | -43.1°C | 2.6% | 8.7hPa | 2.6V | 00:00:00 | 00:00:00 | 00:00:00 | |
| OE5REO-15 | 2026-09-06 00:35:53 | 48.86315 | 13.18723 | 118° | 22km/h | 32349m | 5.5m/s | -43.2°C | 0.6% | 8.8hPa | 2.6V | 03:32:00 | 00:00:00 | 00:00:00 | |
| PETON7-10 | 2026-09-06 00:35:52 | 48.86317 | 13.18715 | 100° | 13km/h | 32344m | 4.5m/s | -43.1°C | 2.7% | 8.7hPa | 2.6V | 00:00:00 | 00:00:00 | 00:00:00 | |
| OE3MUC-15 | 2026-09-06 00:35:50 | 48.86316 | 13.18699 | 75° | 11km/h | 32335m | 4.5m/s | -43.2°C | 2.7% | 8.7hPa | 2.6V | 00:00:00 | 00:00:00 | 00:00:00 | |
| OE5MMP-10 | 2026-09-06 00:35:48 | 48.86313 | 13.18693 | 340° | 9km/h | 32325m | 5.1m/s | -43.2°C | 2.7% | 8.8hPa | 2.5V | 03:31:00 | 02:30:55 | 00:00:00 | |
| OE3MUC-15 | 2026-09-06 00:35:46 | 48.86312 | 13.18700 | 277° | 15km/h | 32315m | 4.7m/s | -43.3°C | 2.7% | 8.8hPa | 2.5V | 00:00:00 | 02:30:53 | 00:00:00 | |
| SONCRA | 2026-09-06 00:35:45 | 48.86311 | 13.18712 | 276° | 13km/h | 32306m | 4.6m/s | -43.4°C | 0.7% | 8.8hPa | 2.5V | 00:00:00 | 00:00:00 | 00:00:00 | |
| DO3MHA-11 | 2026-09-06 00:35:42 | 48.86310 | 13.18719 | 325° | 7km/h | 32296m | 5.4m/s | -43.4°C | 2.8% | 8.8hPa | 2.5V | 00:00:00 | 02:30:49 | 00:00:00 | |
| OE5HKT-10 | 2026-09-06 00:35:41 | 48.86309 | 13.18718 | 65° | 13km/h | 32291m | 5.0m/s | -43.5°C | 2.8% | 8.8hPa | 2.5V | 00:00:00 | 00:00:00 | 00:00:00 | |
| DL3JIN-12 | 2026-09-06 00:35:40 | 48.86309 | 13.18718 | 65° | 5km/h | 32291m | 5.1m/s | -43.5°C | 0.7% | 8.9hPa | 2.5V | 03:32:00 | 00:00:00 | 00:00:00 | |
| OE5MMP-10 | 2026-09-06 00:35:38 | 48.86309 | 13.18708 | 111° | 9km/h | 32277m | 4.8m/s | -43.5°C | 2.8% | 8.8hPa | 2.5V | 00:00:00 | 02:30:45 | 00:00:00 | |
| PETON7-10 | 2026-09-06 00:35:37 | 48.86310 | 13.18706 | 143° | 13km/h | 32272m | 5.3m/s | -43.5°C | 2.8% | 8.8hPa | 2.5V | 00:00:00 | 02:30:44 | 00:00:00 | |
| DK5PH-5 | 2026-09-06 00:35:34 | 48.86316 | 13.18708 | 216° | 18km/h | 32257m | 4.0m/s | -43.4°C | 2.8% | 8.8hPa | 2.5V | 00:00:00 | 02:30:41 | 00:00:00 | |
| DO3MHA-11 | 2026-09-06 00:35:32 | 48.86320 | 13.18711 | 193° | 15km/h | 32248m | 5.0m/s | -43.4°C | 2.8% | 8.9hPa | 2.5V | 00:00:00 | 02:30:39 | 00:00:00 | |
| DL6DJ-15 | 2026-09-06 00:35:29 | 48.86324 | 13.18704 | 124° | 15km/h | 32233m | 4.4m/s | -43.4°C | 0.7% | 8.9hPa | 2.5V | 00:00:00 | 00:00:00 | 00:00:00 | |
| OE5MMP-10 | 2026-09-06 00:35:28 | 48.86327 | 13.18699 | 136° | 15km/h | 32228m | 4.2m/s | -43.3°C | 2.8% | 8.9hPa | 2.5V | 00:00:00 | 02:30:35 | 00:00:00 | |
| OE5DXL-15 | 2026-09-06 00:35:26 | 48.86336 | 13.18692 | 168° | 18km/h | 32219m | 5.0m/s | -43.3°C | 2.7% | 8.9hPa | 2.6V | 00:00:00 | 00:00:00 | 00:00:00 | |
| DO3MHA-11 | 2026-09-06 00:35:22 | 48.86353 | 13.18701 | 237° | 16km/h | 32200m | 4.6m/s | -43.3°C | 2.8% | 9.0hPa | 2.5V | 03:32:00 | 02:30:29 | 00:00:00 | |
| OE5WHR-10 | 2026-09-06 00:35:21 | 48.86354 | 13.18705 | 253° | 18km/h | 32195m | 4.3m/s | -43.2°C | 2.7% | 8.9hPa | 2.5V | 00:00:00 | 02:30:28 | 00:00:00 | |
| S52SK | 2026-09-06 00:35:20 | 48.86355 | 13.18707 | 0° | 0km/h | 32191m | 4.5m/s | -43.3°C | 0.7% | 9.0hPa | 2.5V | 03:32:00 | 00:00:00 | 00:00:00 | |
| DL3JIN-12 | 2026-09-06 00:35:19 | 48.86355 | 13.18707 | 0° | 0km/h | 32191m | 4.5m/s | -43.3°C | 0.7% | 9.0hPa | 2.5V | 03:32:00 | 00:00:00 | 00:00:00 | |
| OE5MMP-10 | 2026-09-06 00:35:18 | 48.86356 | 13.18701 | 109° | 24km/h | 32181m | 5.5m/s | -43.2°C | 2.7% | 9.0hPa | 2.5V | 00:00:00 | 02:30:25 | 00:00:00 | |
| OE3MUC-15 | 2026-09-06 00:35:17 | 48.86358 | 13.18694 | 120° | 31km/h | 32175m | 5.7m/s | -43.2°C | 2.7% | 9.0hPa | 2.5V | 00:00:00 | 00:00:00 | 00:00:00 | |
| S52SK | 2026-09-06 00:35:15 | 48.86368 | 13.18677 | 143° | 33km/h | 32165m | 4.4m/s | -43.3°C | 0.7% | 9.0hPa | 2.5V | 00:00:00 | 00:00:00 | 00:00:00 | |
| OE3MUC-15 | 2026-09-06 00:35:13 | 48.86382 | 13.18667 | 174° | 24km/h | 32156m | 4.4m/s | -43.2°C | 2.7% | 9.0hPa | 2.5V | 00:00:00 | 00:00:00 | 00:00:00 | |
| BAUMI2-15 | 2026-09-06 00:35:10 | 48.86397 | 13.18677 | 248° | 11km/h | 32141m | 5.0m/s | -43.2°C | 2.7% | 9.0hPa | 2.5V | 00:00:00 | 02:30:17 | 00:00:00 | |
| OE3MUC-15 | 2026-09-06 00:35:09 | 48.86398 | 13.18682 | 274° | 11km/h | 32136m | 4.2m/s | -43.2°C | 2.7% | 9.0hPa | 2.5V | 03:32:00 | 00:00:00 | 00:00:00 | |
| OE5MMP-10 | 2026-09-06 00:35:08 | 48.86397 | 13.18686 | 307° | 27km/h | 32132m | 4.2m/s | -43.3°C | 2.7% | 9.0hPa | 2.5V | 03:32:00 | 02:30:15 | 00:00:00 | |
| PETON7-10 | 2026-09-06 00:35:07 | 48.86396 | 13.18686 | 47° | 24km/h | 32127m | 4.6m/s | -43.2°C | 2.7% | 9.0hPa | 2.5V | 03:32:00 | 00:00:00 | 00:00:00 | |
| OE5REO-15 | 2026-09-06 00:35:06 | 48.86395 | 13.18683 | 97° | 15km/h | 32123m | 5.2m/s | -43.3°C | 0.7% | 9.1hPa | 2.5V | 03:32:00 | 00:00:00 | 00:00:00 | |
| DL1JEZ-13 | 2026-09-06 00:35:05 | 48.86397 | 13.18675 | 115° | 26km/h | 32117m | 5.7m/s | 0°C | 0% | 0hPa | 2.5V | 00:00:00 | 00:00:00 | 00:00:00 | |
| DO3MHA-11 | 2026-09-06 00:35:03 | 48.86408 | 13.18655 | 140° | 16km/h | 32106m | 5.0m/s | -43.3°C | 2.8% | 9.1hPa | 2.5V | 00:00:00 | 02:30:10 | 00:00:00 | |
| DL6DJ-15 | 2026-09-06 00:34:58 | 48.86451 | 13.18643 | 210° | 22km/h | 32083m | 5.5m/s | -43.4°C | 0.7% | 9.1hPa | 2.5V | 00:00:00 | 00:00:00 | 00:00:00 | |
| SONDE2-11 | 2026-09-06 00:34:55 | 48.86454 | 13.18650 | 73° | 7km/h | 32061m | 4.5m/s | -43.4°C | 0.6% | 9.2hPa | 2.5V | 00:00:00 | 00:00:00 | 00:00:00 | |
| OE5DXL-15 | 2026-09-06 00:34:53 | 48.86454 | 13.18646 | 106° | 22km/h | 32057m | 4.2m/s | -43.3°C | 2.7% | 9.1hPa | 2.5V | 03:32:00 | 00:00:00 | 00:00:00 | |
| PETON7-10 | 2026-09-06 00:34:52 | 48.86456 | 13.18640 | 127° | 24km/h | 32052m | 5.0m/s | -43.3°C | 2.7% | 9.1hPa | 2.5V | 00:00:00 | 02:29:59 | 00:00:00 | |
| DO3MHA-11 | 2026-09-06 00:34:51 | 48.86461 | 13.18632 | 142° | 26km/h | 32047m | 5.9m/s | -43.4°C | 2.7% | 9.1hPa | 2.5V | 00:00:00 | 02:29:58 | 00:00:00 | |
| OE5REO-15 | 2026-09-06 00:34:50 | 48.86461 | 13.18632 | 142° | 31km/h | 32047m | 6.0m/s | -43.4°C | 0.7% | 9.2hPa | 2.5V | 03:32:00 | 00:00:00 | 00:00:00 | |
| OE5MMP-10 | 2026-09-06 00:34:48 | 48.86489 | 13.18616 | 171° | 22km/h | 32029m | 5.1m/s | -43.6°C | 2.7% | 9.2hPa | 2.5V | 00:00:00 | 02:29:55 | 00:00:00 | |
| OE3MUC-15 | 2026-09-06 00:34:46 | 48.86510 | 13.18612 | 178° | 26km/h | 32020m | 4.4m/s | -43.7°C | 2.8% | 9.2hPa | 2.5V | 00:00:00 | 00:00:00 | 00:00:00 | |
| EDDB2-12 | 2026-09-06 00:34:43 | 48.86531 | 13.18604 | 123° | 5km/h | 31993m | 4.7m/s | -43.8°C | 0.7% | 9.3hPa | 2.5V | 00:00:00 | 00:00:00 | 00:00:00 | |
| DO3MHA-11 | 2026-09-06 00:34:41 | 48.86531 | 13.18604 | 124° | 26km/h | 31993m | 4.7m/s | -43.8°C | 2.8% | 9.2hPa | 2.5V | 00:00:00 | 02:29:48 | 00:00:00 | |
| OE5WHR-10 | 2026-09-06 00:34:39 | 48.86534 | 13.18602 | 188° | 16km/h | 31984m | 5.0m/s | -43.8°C | 2.8% | 9.2hPa | 2.6V | 03:32:00 | 00:00:00 | 00:00:00 | |
| OE5HKT-10 | 2026-09-06 00:34:38 | 48.86537 | 13.18604 | 200° | 24km/h | 31978m | 5.4m/s | -43.8°C | 2.8% | 9.2hPa | 2.6V | 00:00:00 | 00:00:00 | 00:00:00 | |
| OE3MUC-15 | 2026-09-06 00:34:37 | 48.86542 | 13.18607 | 204° | 24km/h | 31973m | 5.4m/s | -43.9°C | 2.8% | 9.2hPa | 2.6V | 03:32:00 | 00:00:00 | 00:00:00 | |
| OE5REO-15 | 2026-09-06 00:34:35 | 48.86548 | 13.18610 | 203° | 27km/h | 31968m | 5.1m/s | -44.0°C | 0.7% | 9.3hPa | 2.6V | 03:32:00 | 00:00:00 | 00:00:00 | |
| OE3MUC-15 | 2026-09-06 00:34:31 | 48.86580 | 13.18609 | 143° | 29km/h | 31940m | 5.6m/s | -44.0°C | 2.8% | 9.3hPa | 2.6V | 00:00:00 | 00:00:00 | 00:00:00 | |
| OE5MMP-10 | 2026-09-06 00:34:28 | 48.86597 | 13.18582 | 129° | 18km/h | 31922m | 5.3m/s | -44.1°C | 2.8% | 9.3hPa | 2.5V | 03:32:00 | 02:29:35 | 00:00:00 | |
| DL6DJ-15 | 2026-09-06 00:34:27 | 48.86602 | 13.18572 | 126° | 31km/h | 31917m | 4.3m/s | -44.1°C | 0.7% | 9.4hPa | 2.5V | 00:00:00 | 00:00:00 | 00:00:00 | |
| OE3MUC-15 | 2026-09-06 00:34:26 | 48.86606 | 13.18563 | 124° | 13km/h | 31913m | 4.1m/s | -44.1°C | 2.8% | 9.3hPa | 2.5V | 00:00:00 | 00:00:00 | 00:00:00 | |
| OE5DXL-15 | 2026-09-06 00:34:23 | 48.86610 | 13.18549 | 111° | 20km/h | 31896m | 6.4m/s | -44.1°C | 2.8% | 9.4hPa | 2.5V | 00:00:00 | 00:00:00 | 00:00:00 | |
| PETON7-10 | 2026-09-06 00:34:22 | 48.86611 | 13.18550 | 241° | 24km/h | 31890m | 5.0m/s | -44.1°C | 2.8% | 9.4hPa | 2.5V | 00:00:00 | 00:00:00 | 00:00:00 | |
| OE5REO-15 | 2026-09-06 00:34:20 | 48.86616 | 13.18555 | 204° | 18km/h | 31881m | 5.0m/s | -44.2°C | 0.7% | 9.4hPa | 2.5V | 03:33:00 | 00:00:00 | 00:00:00 | |
| OE5MMP-10 | 2026-09-06 00:34:18 | 48.86629 | 13.18557 | 176° | 27km/h | 31869m | 5.9m/s | -44.2°C | 2.8% | 9.4hPa | 2.5V | 00:00:00 | 02:29:25 | 00:00:00 | |
| OE5HKT-10 | 2026-09-06 00:34:17 | 48.86638 | 13.18554 | 162° | 24km/h | 31864m | 4.7m/s | -44.3°C | 2.8% | 9.4hPa | 2.5V | 00:00:00 | 00:00:00 | 00:00:00 | |
| EDDB2-12 | 2026-09-06 00:34:12 | 48.86665 | 13.18499 | 67° | 15km/h | 31832m | 5.6m/s | -44.3°C | 0.7% | 9.5hPa | 2.5V | 00:00:00 | 00:00:00 | 00:00:00 | |
| SONCRA | 2026-09-06 00:34:11 | 48.86665 | 13.18499 | 67° | 15km/h | 31832m | 5.6m/s | -44.3°C | 0.7% | 9.5hPa | 2.5V | 00:00:00 | 00:00:00 | 00:00:00 | |
| OE5MMP-10 | 2026-09-06 00:34:08 | 48.86664 | 13.18497 | 222° | 24km/h | 31815m | 5.7m/s | -44.3°C | 2.9% | 9.5hPa | 2.5V | 00:00:00 | 02:29:15 | 00:00:00 | |
| PETON7-10 | 2026-09-06 00:34:07 | 48.86667 | 13.18499 | 206° | 22km/h | 31809m | 5.4m/s | -44.3°C | 2.8% | 9.5hPa | 2.5V | 03:33:00 | 02:29:14 | 00:00:00 | |
| OE5REO-15 | 2026-09-06 00:34:03 | 48.86685 | 13.18500 | 162° | 27km/h | 31794m | 5.8m/s | -44.3°C | 0.7% | 9.5hPa | 2.5V | 03:33:00 | 00:00:00 | 00:00:00 | |
| DL6DJ-15 | 2026-09-06 00:33:56 | 48.86709 | 13.18447 | 180° | 11km/h | 31748m | 5.8m/s | -44.5°C | 0.7% | 9.6hPa | 2.5V | 00:00:00 | 00:00:00 | 00:00:00 | |
| SONDE2-11 | 2026-09-06 00:33:53 | 48.86728 | 13.18446 | 157° | 22km/h | 31727m | 5.4m/s | -44.5°C | 0.8% | 9.6hPa | 2.5V | 00:00:00 | 00:00:00 | 00:00:00 | |
| DO3MHA-11 | 2026-09-06 00:33:52 | 48.86728 | 13.18446 | 158° | 18km/h | 31728m | 5.4m/s | -44.5°C | 3.0% | 9.6hPa | 2.5V | 00:00:00 | 02:28:59 | 00:00:00 | |
| OE5MMP-10 | 2026-09-06 00:33:48 | 48.86740 | 13.18418 | 96° | 16km/h | 31705m | 5.5m/s | -44.4°C | 2.9% | 9.6hPa | 2.5V | 03:33:00 | 02:28:55 | 00:00:00 | |
| OE3MUC-15 | 2026-09-06 00:33:44 | 48.86743 | 13.18403 | 180° | 11km/h | 31683m | 5.6m/s | -44.3°C | 2.9% | 9.7hPa | 2.5V | 00:00:00 | 00:00:00 | 00:00:00 | |
| DO3MHA-11 | 2026-09-06 00:33:42 | 48.86752 | 13.18403 | 175° | 18km/h | 31672m | 5.7m/s | -44.3°C | 2.9% | 9.7hPa | 2.5V | 03:33:00 | 02:28:49 | 00:00:00 | |
| EDDB2-12 | 2026-09-06 00:33:41 | 48.86763 | 13.18398 | 148° | 22km/h | 31661m | 5.3m/s | -44.4°C | 0.7% | 9.8hPa | 2.5V | 00:00:00 | 00:00:00 | 00:00:00 | |
| BAUMI2-15 | 2026-09-06 00:33:39 | 48.86767 | 13.18393 | 132° | 18km/h | 31656m | 5.4m/s | -44.3°C | 2.9% | 9.7hPa | 2.5V | 00:00:00 | 02:28:46 | 00:00:00 | |
| OE5MMP-10 | 2026-09-06 00:33:38 | 48.86770 | 13.18386 | 111° | 16km/h | 31650m | 5.8m/s | -44.3°C | 2.9% | 9.7hPa | 2.5V | 00:00:00 | 02:28:45 | 00:00:00 | |
| PETON7-10 | 2026-09-06 00:33:37 | 48.86771 | 13.18379 | 87° | 15km/h | 31644m | 6.1m/s | -44.3°C | 2.9% | 9.7hPa | 2.5V | 00:00:00 | 00:00:00 | 00:00:00 | |
| OE5HKT-10 | 2026-09-06 00:33:35 | 48.86768 | 13.18368 | 52° | 16km/h | 31632m | 5.4m/s | -44.2°C | 2.9% | 9.7hPa | 2.5V | 00:00:00 | 00:00:00 | 00:00:00 | |
| OE5WHR-10 | 2026-09-06 00:33:34 | 48.86766 | 13.18365 | 49° | 13km/h | 31627m | 5.2m/s | -44.1°C | 2.8% | 9.8hPa | 2.5V | 00:00:00 | 00:00:00 | 00:00:00 | |
| OE5REO-15 | 2026-09-06 00:33:33 | 48.86766 | 13.18365 | 49° | 11km/h | 31627m | 5.2m/s | -44.2°C | 0.7% | 9.8hPa | 2.5V | 03:34:00 | 00:00:00 | 00:00:00 | |
| S52SK | 2026-09-06 00:33:32 | 48.86765 | 13.18359 | 127° | 9km/h | 31616m | 5.7m/s | -44.1°C | 0.7% | 9.8hPa | 2.5V | 00:00:00 | 00:00:00 | 00:00:00 | |
| BAUMI2-15 | 2026-09-06 00:33:29 | 48.86775 | 13.18344 | 129° | 22km/h | 31598m | 5.5m/s | -43.9°C | 2.8% | 9.8hPa | 2.5V | 00:00:00 | 02:28:36 | 00:00:00 | |
| OE5MMP-10 | 2026-09-06 00:33:28 | 48.86778 | 13.18336 | 122° | 13km/h | 31593m | 5.2m/s | -43.9°C | 2.8% | 9.8hPa | 2.5V | 00:00:00 | 02:28:35 | 00:00:00 | |
| S52SK | 2026-09-06 00:33:26 | 48.86783 | 13.18320 | 102° | 18km/h | 31583m | 5.2m/s | -43.9°C | 0.7% | 9.9hPa | 2.6V | 00:00:00 | 00:00:00 | 00:00:00 | |
| DL6DJ-15 | 2026-09-06 00:33:25 | 48.86783 | 13.18314 | 86° | 11km/h | 31577m | 5.7m/s | -43.9°C | 0.7% | 9.9hPa | 2.6V | 00:00:00 | 00:00:00 | 00:00:00 | |
| OE5DXL-15 | 2026-09-06 00:33:23 | 48.86782 | 13.18312 | 258° | 16km/h | 31559m | 5.5m/s | -43.9°C | 2.8% | 9.8hPa | 2.6V | 00:00:00 | 00:00:00 | 00:00:00 | |
| DO3MHA-11 | 2026-09-06 00:33:22 | 48.86782 | 13.18312 | 258° | 18km/h | 31559m | 5.5m/s | -43.9°C | 2.8% | 9.8hPa | 2.5V | 00:00:00 | 02:28:29 | 00:00:00 | |
| OE3MUC-15 | 2026-09-06 00:33:21 | 48.86783 | 13.18314 | 219° | 15km/h | 31554m | 4.9m/s | -43.9°C | 2.9% | 9.9hPa | 2.5V | 00:00:00 | 00:00:00 | 00:00:00 | |
| S52SK | 2026-09-06 00:33:20 | 48.86783 | 13.18314 | 219° | 9km/h | 31554m | 4.9m/s | -44.0°C | 0.7% | 9.9hPa | 2.5V | 00:00:00 | 00:00:00 | 00:00:00 | |
| OE5MMP-10 | 2026-09-06 00:33:18 | 48.86792 | 13.18309 | 134° | 18km/h | 31538m | 6.0m/s | -44.0°C | 2.8% | 9.9hPa | 2.5V | 00:00:00 | 02:28:25 | 00:00:00 | |
| DL3JIN-12 | 2026-09-06 00:33:17 | 48.86792 | 13.18309 | 134° | 22km/h | 31538m | 6.0m/s | -44.1°C | 0.7% | 9.9hPa | 2.5V | 03:34:00 | 00:00:00 | 00:00:00 | |
| OE5HKT-10 | 2026-09-06 00:33:14 | 48.86800 | 13.18272 | 87° | 16km/h | 31515m | 5.0m/s | -44.0°C | 2.9% | 9.9hPa | 2.5V | 00:00:00 | 00:00:00 | 00:00:00 | |
| DO3MHA-11 | 2026-09-06 00:33:12 | 48.86799 | 13.18263 | 74° | 15km/h | 31504m | 5.6m/s | -44.1°C | 2.9% | 9.9hPa | 2.5V | 00:00:00 | 02:28:19 | 00:00:00 | |
| EDDB2-12 | 2026-09-06 00:33:10 | 48.86805 | 13.18271 | 216° | 20km/h | 31485m | 6.2m/s | -44.1°C | 0.7% | 10.0hPa | 2.5V | 00:00:00 | 00:00:00 | 00:00:00 | |
| OE5MMP-10 | 2026-09-06 00:33:08 | 48.86809 | 13.18275 | 205° | 20km/h | 31479m | 5.5m/s | -44.0°C | 2.8% | 10.0hPa | 2.5V | 03:34:00 | 02:28:15 | 00:00:00 | |
| PETON7-10 | 2026-09-06 00:33:07 | 48.86815 | 13.18278 | 190° | 18km/h | 31474m | 4.8m/s | -44.0°C | 2.9% | 10.0hPa | 2.5V | 03:34:00 | 00:00:00 | 00:00:00 | |
| OE3MUC-15 | 2026-09-06 00:33:03 | 48.86827 | 13.18264 | 91° | 20km/h | 31450m | 6.8m/s | -43.9°C | 2.9% | 10.0hPa | 2.5V | 00:00:00 | 00:00:00 | 00:00:00 | |
| OE5REO-15 | 2026-09-06 00:33:02 | 48.86827 | 13.18264 | 91° | 18km/h | 31450m | 6.8m/s | -44.0°C | 0.7% | 10.1hPa | 2.5V | 03:34:00 | 00:00:00 | 00:00:00 | |
| DL6DJ-15 | 2026-09-06 00:32:54 | 48.86843 | 13.18222 | 190° | 15km/h | 31397m | 5.4m/s | -43.9°C | 0.7% | 10.1hPa | 2.5V | 00:00:00 | 00:00:00 | 00:00:00 | |
| SONDE2-11 | 2026-09-06 00:32:51 | 48.86847 | 13.18225 | 29° | 2km/h | 31373m | 5.0m/s | -44.0°C | 0.7% | 10.2hPa | 2.5V | 00:00:00 | 00:00:00 | 00:00:00 | |
| OE5WHR-10 | 2026-09-06 00:32:49 | 48.86847 | 13.18223 | 82° | 15km/h | 31368m | 5.5m/s | -43.9°C | 2.8% | 10.1hPa | 2.5V | 00:00:00 | 00:00:00 | 00:00:00 | |
| DK5PH-5 | 2026-09-06 00:32:44 | 48.86862 | 13.18204 | 150° | 13km/h | 31337m | 5.5m/s | -43.8°C | 2.8% | 10.2hPa | 2.5V | 00:00:00 | 02:27:51 | 00:00:00 | |
| DO3MHA-11 | 2026-09-06 00:32:43 | 48.86866 | 13.18201 | 154° | 15km/h | 31331m | 6.3m/s | -43.8°C | 2.8% | 10.2hPa | 2.6V | 00:00:00 | 02:27:50 | 00:00:00 | |
| OE3MUC-15 | 2026-09-06 00:32:39 | 48.86877 | 13.18202 | 216° | 16km/h | 31308m | 5.8m/s | -43.9°C | 2.9% | 10.2hPa | 2.6V | 00:00:00 | 00:00:00 | 00:00:00 | |
| OE5MMP-10 | 2026-09-06 00:32:38 | 48.86880 | 13.18205 | 212° | 11km/h | 31301m | 6.6m/s | -43.9°C | 2.8% | 10.3hPa | 2.6V | 00:00:00 | 02:27:45 | 00:00:00 | |
| PETON7-10 | 2026-09-06 00:32:37 | 48.86883 | 13.18208 | 204° | 13km/h | 31295m | 6.3m/s | -43.8°C | 2.8% | 10.3hPa | 2.6V | 00:00:00 | 02:27:44 | 00:00:00 | |
| OE3MUC-15 | 2026-09-06 00:32:35 | 48.86892 | 13.18211 | 184° | 11km/h | 31284m | 5.0m/s | -43.8°C | 2.8% | 10.3hPa | 2.6V | 03:34:00 | 00:00:00 | 00:00:00 | |
| DO3MHA-11 | 2026-09-06 00:32:33 | 48.86897 | 13.18209 | 144° | 13km/h | 31272m | 6.8m/s | -43.7°C | 2.8% | 10.3hPa | 2.6V | 00:00:00 | 02:27:40 | 00:00:00 | |
| OE5HKT-10 | 2026-09-06 00:32:32 | 48.86898 | 13.18207 | 93° | 11km/h | 31265m | 7.0m/s | -43.7°C | 2.8% | 10.3hPa | 2.6V | 03:34:00 | 00:00:00 | 00:00:00 | |
| OE3MUC-15 | 2026-09-06 00:32:31 | 48.86898 | 13.18204 | 67° | 9km/h | 31259m | 6.3m/s | -43.7°C | 2.8% | 10.3hPa | 2.6V | 00:00:00 | 00:00:00 | 00:00:00 | |
| OE5MMP-10 | 2026-09-06 00:32:28 | 48.86897 | 13.18195 | 127° | 11km/h | 31243m | 5.8m/s | -43.7°C | 2.8% | 10.3hPa | 2.5V | 03:34:00 | 02:27:35 | 00:00:00 | |
| OE3MUC-15 | 2026-09-06 00:32:27 | 48.86899 | 13.18192 | 154° | 18km/h | 31236m | 7.0m/s | -43.7°C | 2.8% | 10.3hPa | 2.5V | 00:00:00 | 00:00:00 | 00:00:00 | |
| DO3MHA-11 | 2026-09-06 00:32:23 | 48.86918 | 13.18189 | 191° | 9km/h | 31214m | 6.1m/s | -43.8°C | 2.8% | 10.4hPa | 2.5V | 00:00:00 | 02:27:30 | 00:00:00 | |
| PETON7-10 | 2026-09-06 00:32:22 | 48.86920 | 13.18190 | 210° | 9km/h | 31208m | 6.4m/s | -43.8°C | 2.9% | 10.4hPa | 2.5V | 00:00:00 | 00:00:00 | 00:00:00 | |
| OE3MUC-15 | 2026-09-06 00:32:19 | 48.86919 | 13.18193 | 355° | 5km/h | 31190m | 4.9m/s | -43.8°C | 2.8% | 10.4hPa | 2.6V | 03:35:00 | 00:00:00 | 00:00:00 | |
| OE5MMP-10 | 2026-09-06 00:32:18 | 48.86918 | 13.18193 | 11° | 11km/h | 31185m | 5.4m/s | -43.7°C | 2.8% | 10.4hPa | 2.5V | 00:00:00 | 02:27:25 | 00:00:00 | |
| OE5REO-15 | 2026-09-06 00:32:16 | 48.86919 | 13.18193 | 189° | 4km/h | 31180m | 5.8m/s | -43.8°C | 0.7% | 10.5hPa | 2.5V | 03:35:00 | 00:00:00 | 00:00:00 | |
| EDDB2-11 | 2026-09-06 00:32:15 | 48.86923 | 13.18195 | 198° | 15km/h | 31167m | 6.2m/s | -43.8°C | 0.7% | 10.5hPa | 2.5V | 00:00:00 | 00:00:00 | 00:00:00 | |
| OE3MUC-15 | 2026-09-06 00:32:14 | 48.86927 | 13.18197 | 205° | 13km/h | 31162m | 5.6m/s | -43.7°C | 2.8% | 10.4hPa | 2.5V | 00:00:00 | 00:00:00 | 00:00:00 | |
| DO3MHA-11 | 2026-09-06 00:32:13 | 48.86931 | 13.18201 | 211° | 11km/h | 31156m | 5.2m/s | -43.7°C | 2.9% | 10.4hPa | 2.5V | 03:35:00 | 02:27:20 | 00:00:00 | |
| OE5HKT-10 | 2026-09-06 00:32:11 | 48.86937 | 13.18208 | 237° | 9km/h | 31144m | 6.6m/s | -43.7°C | 2.8% | 10.5hPa | 2.5V | 00:00:00 | 00:00:00 | 00:00:00 | |
| OE3MUC-15 | 2026-09-06 00:32:09 | 48.86938 | 13.18214 | 288° | 4km/h | 31133m | 4.9m/s | -43.7°C | 2.9% | 10.5hPa | 2.5V | 00:00:00 | 00:00:00 | 00:00:00 | |
| OE5MMP-10 | 2026-09-06 00:32:08 | 48.86937 | 13.18216 | 285° | 7km/h | 31128m | 5.0m/s | -43.8°C | 2.8% | 10.5hPa | 2.5V | 00:00:00 | 02:27:15 | 00:00:00 | |
| PETON7-10 | 2026-09-06 00:32:07 | 48.86937 | 13.18217 | 225° | 9km/h | 31123m | 6.0m/s | -43.8°C | 2.8% | 10.5hPa | 2.5V | 03:35:00 | 00:00:00 | 00:00:00 | |
| OE3MUC-15 | 2026-09-06 00:32:05 | 48.86941 | 13.18218 | 183° | 15km/h | 31110m | 6.1m/s | -43.8°C | 2.8% | 10.5hPa | 2.5V | 00:00:00 | 02:27:12 | 00:00:00 | |
| DO3MHA-11 | 2026-09-06 00:32:03 | 48.86949 | 13.18218 | 179° | 7km/h | 31099m | 5.0m/s | -43.8°C | 2.8% | 10.6hPa | 2.5V | 00:00:00 | 02:27:10 | 00:00:00 | |
| OE3MUC-15 | 2026-09-06 00:32:01 | 48.86955 | 13.18218 | 174° | 4km/h | 31088m | 6.6m/s | -43.8°C | 2.8% | 10.6hPa | 2.5V | 03:35:00 | 00:00:00 | 00:00:00 | |
| PG1ADW-2 | 2026-09-06 00:31:58 | 48.86955 | 13.18218 | 310° | 11km/h | 31070m | 5.0m/s | -43.8°C | 2.8% | 10.6hPa | 2.5V | 00:00:00 | 00:00:00 | 00:00:00 | |
| OE3MUC-15 | 2026-09-06 00:31:57 | 48.86955 | 13.18218 | 234° | 9km/h | 31065m | 5.7m/s | -43.8°C | 2.8% | 10.6hPa | 2.5V | 00:00:00 | 00:00:00 | 00:00:00 | |
| OE5WHR-10 | 2026-09-06 00:31:54 | 48.86961 | 13.18222 | 192° | 11km/h | 31046m | 5.4m/s | -43.9°C | 2.8% | 10.7hPa | 2.5V | 00:00:00 | 02:27:01 | 00:00:00 | |
| DO3MHA-11 | 2026-09-06 00:31:53 | 48.86965 | 13.18223 | 190° | 11km/h | 31041m | 5.6m/s | -43.8°C | 2.8% | 10.7hPa | 2.5V | 00:00:00 | 02:27:00 | 00:00:00 | |
| PETON7-10 | 2026-09-06 00:31:52 | 48.86968 | 13.18223 | 186° | 13km/h | 31034m | 6.4m/s | -43.8°C | 2.8% | 10.7hPa | 2.6V | 00:00:00 | 02:26:59 | 00:00:00 | |
| OE5HKT-10 | 2026-09-06 00:31:50 | 48.86973 | 13.18223 | 178° | 18km/h | 31023m | 4.6m/s | -43.8°C | 2.8% | 10.7hPa | 2.6V | 00:00:00 | 02:26:57 | 00:00:00 | |
| OE5MMP-10 | 2026-09-06 00:31:48 | 48.86980 | 13.18224 | 188° | 13km/h | 31013m | 6.1m/s | -43.8°C | 2.8% | 10.7hPa | 2.6V | 03:35:00 | 02:26:55 | 00:00:00 | |
| OE3MUC-15 | 2026-09-06 00:31:47 | 48.86984 | 13.18225 | 194° | 18km/h | 31007m | 6.4m/s | -43.8°C | 2.8% | 10.7hPa | 2.6V | 00:00:00 | 00:00:00 | 00:00:00 | |
| OE5REO-15 | 2026-09-06 00:31:45 | 48.86989 | 13.18227 | 201° | 20km/h | 31001m | 5.7m/s | -43.9°C | 0.7% | 10.8hPa | 2.6V | 03:36:00 | 00:00:00 | 00:00:00 | |
| DO3MHA-11 | 2026-09-06 00:31:43 | 48.87000 | 13.18237 | 224° | 24km/h | 30984m | 6.5m/s | -43.9°C | 2.8% | 10.8hPa | 2.6V | 00:00:00 | 02:26:50 | 00:00:00 | |
| OE5MMP-10 | 2026-09-06 00:31:38 | 48.87011 | 13.18241 | 169° | 22km/h | 30958m | 6.7m/s | -43.9°C | 2.8% | 10.8hPa | 2.6V | 00:00:00 | 02:26:45 | 00:00:00 | |
| DK5PH-5 | 2026-09-06 00:31:37 | 48.87017 | 13.18239 | 171° | 16km/h | 30951m | 6.9m/s | -43.9°C | 2.9% | 10.8hPa | 2.6V | 00:00:00 | 02:26:44 | 00:00:00 | |
| DL3JIN-12 | 2026-09-06 00:31:34 | 48.87042 | 13.18236 | 183° | 31km/h | 30935m | 5.3m/s | -43.9°C | 0.8% | 10.9hPa | 2.6V | 03:36:00 | 00:00:00 | 00:00:00 | |
| OE5WHR-10 | 2026-09-06 00:31:33 | 48.87049 | 13.18237 | 189° | 16km/h | 30929m | 6.0m/s | -43.9°C | 2.9% | 10.8hPa | 2.6V | 03:35:00 | 00:00:00 | 00:00:00 | |
| S52SK | 2026-09-06 00:31:32 | 48.87049 | 13.18237 | 190° | 26km/h | 30929m | 6.0m/s | -43.9°C | 0.7% | 10.9hPa | 2.5V | 00:00:00 | 00:00:00 | 00:00:00 | |
| OE5REO-15 | 2026-09-06 00:31:30 | 48.87058 | 13.18242 | 218° | 13km/h | 30918m | 5.3m/s | -43.9°C | 0.7% | 10.9hPa | 2.5V | 03:36:00 | 00:00:00 | 00:00:00 | |
| OE5HKT-10 | 2026-09-06 00:31:29 | 48.87062 | 13.18248 | 226° | 13km/h | 30907m | 5.3m/s | -43.8°C | 2.9% | 10.9hPa | 2.5V | 00:00:00 | 00:00:00 | 00:00:00 | |
| OE5MMP-10 | 2026-09-06 00:31:28 | 48.87064 | 13.18250 | 204° | 15km/h | 30902m | 5.8m/s | -43.8°C | 2.9% | 10.9hPa | 2.6V | 00:00:00 | 02:26:35 | 00:00:00 | |
| DO3MHA-11 | 2026-09-06 00:31:23 | 48.87082 | 13.18236 | 128° | 13km/h | 30875m | 6.2m/s | -43.8°C | 2.8% | 10.9hPa | 2.5V | 00:00:00 | 02:26:30 | 00:00:00 | |
| PETON7-10 | 2026-09-06 00:31:22 | 48.87084 | 13.18230 | 120° | 13km/h | 30869m | 6.1m/s | -43.8°C | 2.8% | 10.9hPa | 2.6V | 00:00:00 | 00:00:00 | 00:00:00 | |
| DL6DJ-15 | 2026-09-06 00:31:21 | 48.87088 | 13.18220 | 132° | 9km/h | 30858m | 4.9m/s | -43.8°C | 0.7% | 11.0hPa | 2.6V | 00:00:00 | 00:00:00 | 00:00:00 | |
| BAUMI2-15 | 2026-09-06 00:31:20 | 48.87088 | 13.18220 | 133° | 13km/h | 30858m | 4.8m/s | -43.8°C | 2.8% | 11.0hPa | 2.6V | 00:00:00 | 02:26:27 | 00:00:00 | |
| OE3MUC-15 | 2026-09-06 00:31:19 | 48.87090 | 13.18218 | 162° | 15km/h | 30852m | 5.8m/s | 0°C | 0% | 0hPa | 2.6V | 00:00:00 | 00:00:00 | 00:00:00 | |
| OE5MMP-10 | 2026-09-06 00:31:18 | 48.87093 | 13.18218 | 188° | 11km/h | 30846m | 6.6m/s | -43.8°C | 2.8% | 11.0hPa | 2.6V | 00:00:00 | 02:26:25 | 00:00:00 | |
| OE3MUC-15 | 2026-09-06 00:31:15 | 48.87104 | 13.18225 | 214° | 11km/h | 30831m | 4.0m/s | 0°C | 0% | 0hPa | 2.6V | 00:00:00 | 00:00:00 | 00:00:00 | |
| OE5REO-15 | 2026-09-06 00:31:14 | 48.87104 | 13.18225 | 214° | 15km/h | 30831m | 4.1m/s | -43.8°C | 0.7% | 11.0hPa | 2.6V | 03:36:00 | 00:00:00 | 00:00:00 | |
| EDDB2-11 | 2026-09-06 00:31:13 | 48.87107 | 13.18229 | 260° | 0km/h | 30820m | 6.3m/s | -43.8°C | 0.7% | 11.1hPa | 2.6V | 00:00:00 | 00:00:00 | 00:00:00 | |
| DL3JIN-12 | 2026-09-06 00:31:12 | 48.87107 | 13.18229 | 0° | 0km/h | 30820m | 6.3m/s | -43.8°C | 0.7% | 11.1hPa | 2.6V | 03:36:00 | 00:00:00 | 00:00:00 | |
| OE3MUC-15 | 2026-09-06 00:31:11 | 48.87105 | 13.18226 | 51° | 11km/h | 30809m | 5.0m/s | 0°C | 0% | 0hPa | 2.6V | 00:00:00 | 00:00:00 | 00:00:00 | |
| DO3MHA-11 | 2026-09-06 00:31:10 | 48.87103 | 13.18223 | 65° | 11km/h | 30803m | 4.8m/s | -43.7°C | 2.8% | 11.0hPa | 2.6V | 00:00:00 | 02:26:17 | 00:00:00 | |
| OE5MMP-10 | 2026-09-06 00:31:08 | 48.87103 | 13.18215 | 119° | 13km/h | 30793m | 5.4m/s | -43.7°C | 2.8% | 11.1hPa | 2.6V | 03:36:00 | 02:26:15 | 00:00:00 | |
| PETON7-10 | 2026-09-06 00:31:07 | 48.87105 | 13.18212 | 147° | 13km/h | 30788m | 5.1m/s | -43.8°C | 2.8% | 11.1hPa | 2.6V | 03:36:00 | 02:26:14 | 00:00:00 | |
| DK5PH-5 | 2026-09-06 00:31:06 | 48.87108 | 13.18210 | 163° | 15km/h | 30783m | 5.0m/s | -43.7°C | 2.8% | 11.1hPa | 2.6V | 03:36:00 | 02:26:13 | 00:00:00 | |
| BAUMI2-15 | 2026-09-06 00:31:05 | 48.87111 | 13.18209 | 173° | 9km/h | 30778m | 5.0m/s | -43.7°C | 2.8% | 11.1hPa | 2.5V | 00:00:00 | 02:26:12 | 00:00:00 | |
| OE3MUC-15 | 2026-09-06 00:31:03 | 48.87116 | 13.18208 | 148° | 16km/h | 30767m | 5.4m/s | 0°C | 0% | 0hPa | 2.5V | 03:36:00 | 00:00:00 | 00:00:00 | |
| DL6DJ-15 | 2026-09-06 00:30:50 | 48.87115 | 13.18159 | 75° | 15km/h | 30697m | 4.9m/s | -44.1°C | 0.7% | 11.3hPa | 2.5V | 00:00:00 | 00:00:00 | 00:00:00 | |
| DO3MHA-11 | 2026-09-06 00:30:48 | 48.87115 | 13.18153 | 105° | 15km/h | 30692m | 6.0m/s | -44.1°C | 2.9% | 11.2hPa | 2.5V | 03:36:00 | 02:25:55 | 00:00:00 | |
| OE5HKT-10 | 2026-09-06 00:30:47 | 48.87117 | 13.18145 | 124° | 20km/h | 30685m | 6.1m/s | -44.1°C | 2.9% | 11.2hPa | 2.6V | 00:00:00 | 02:25:54 | 00:00:00 | |
| BAUMI2-15 | 2026-09-06 00:30:45 | 48.87128 | 13.18130 | 147° | 16km/h | 30675m | 4.6m/s | -44.1°C | 2.9% | 11.3hPa | 2.6V | 00:00:00 | 02:25:52 | 00:00:00 | |
| OE5REO-15 | 2026-09-06 00:30:44 | 48.87128 | 13.18130 | 147° | 31km/h | 30675m | 4.7m/s | -44.1°C | 0.7% | 11.3hPa | 2.5V | 03:37:00 | 00:00:00 | 00:00:00 | |
| OE3MUC-15 | 2026-09-06 00:30:42 | 48.87142 | 13.18119 | 154° | 16km/h | 30661m | 4.9m/s | 0°C | 0% | 0hPa | 2.5V | 00:00:00 | 00:00:00 | 00:00:00 | |
| BAUMI2-15 | 2026-09-06 00:30:40 | 48.87142 | 13.18115 | 41° | 15km/h | 30650m | 5.8m/s | -44.1°C | 2.9% | 11.3hPa | 2.5V | 00:00:00 | 02:25:47 | 00:00:00 | |
| OE5MMP-10 | 2026-09-06 00:30:38 | 48.87137 | 13.18107 | 58° | 22km/h | 30639m | 4.5m/s | -44.1°C | 2.9% | 11.3hPa | 2.5V | 00:00:00 | 02:25:45 | 00:00:00 | |
| PETON7-10 | 2026-09-06 00:30:37 | 48.87135 | 13.18101 | 81° | 20km/h | 30635m | 4.4m/s | -44.1°C | 2.9% | 11.3hPa | 2.5V | 00:00:00 | 00:00:00 | 00:00:00 | |
| DK5PH-5 | 2026-09-06 00:30:36 | 48.87136 | 13.18095 | 110° | 18km/h | 30630m | 5.0m/s | -44.1°C | 2.9% | 11.3hPa | 2.5V | 00:00:00 | 02:25:43 | 00:00:00 | |
| DO3MHA-11 | 2026-09-06 00:30:35 | 48.87138 | 13.18089 | 138° | 22km/h | 30624m | 6.1m/s | -44.1°C | 2.9% | 11.4hPa | 2.5V | 00:00:00 | 02:25:42 | 00:00:00 | |
| SONCRA | 2026-09-06 00:30:34 | 48.87143 | 13.18085 | 157° | 22km/h | 30618m | 6.5m/s | -44.1°C | -1.0% | -1.0hPa | 2.5V | 00:00:00 | 00:00:00 | 00:00:00 | |
| DL3JIN-12 | 2026-09-06 00:30:30 | 48.87168 | 13.18076 | 157° | 22km/h | 30598m | 5.0m/s | -44.1°C | 0.8% | 11.5hPa | 2.5V | 03:37:00 | 00:00:00 | 00:00:00 | |
| OE5REO-15 | 2026-09-06 00:30:29 | 48.87168 | 13.18076 | 157° | 22km/h | 30598m | 5.0m/s | -44.1°C | 0.7% | 11.5hPa | 2.5V | 03:37:00 | 00:00:00 | 00:00:00 | |
| OE5MMP-10 | 2026-09-06 00:30:28 | 48.87175 | 13.18066 | 111° | 16km/h | 30587m | 5.3m/s | -44.1°C | 2.9% | 11.4hPa | 2.5V | 03:36:00 | 02:25:35 | 00:00:00 | |
| OE5HKT-10 | 2026-09-06 00:30:26 | 48.87177 | 13.18050 | 94° | 16km/h | 30577m | 5.0m/s | -44.1°C | 2.9% | 11.4hPa | 2.5V | 00:00:00 | 00:00:00 | 00:00:00 | |
| BAUMI2-15 | 2026-09-06 00:30:25 | 48.87177 | 13.18042 | 98° | 16km/h | 30571m | 5.6m/s | -44.1°C | 2.9% | 11.4hPa | 2.6V | 00:00:00 | 02:25:32 | 00:00:00 | |
| OE5DXL-15 | 2026-09-06 00:30:23 | 48.87180 | 13.18029 | 123° | 15km/h | 30560m | 5.1m/s | -44.1°C | 2.9% | 11.5hPa | 2.6V | 03:37:00 | 00:00:00 | 00:00:00 | |
| PETON7-10 | 2026-09-06 00:30:22 | 48.87182 | 13.18024 | 136° | 16km/h | 30555m | 4.6m/s | -44.1°C | 2.9% | 11.5hPa | 2.5V | 00:00:00 | 02:25:29 | 00:00:00 | |
| BAUMI2-15 | 2026-09-06 00:30:20 | 48.87188 | 13.18018 | 146° | 9km/h | 30546m | 5.4m/s | -44.1°C | 2.9% | 11.5hPa | 2.5V | 00:00:00 | 02:25:27 | 00:00:00 | |
| DL6DJ-15 | 2026-09-06 00:30:19 | 48.87192 | 13.18013 | 127° | 7km/h | 30534m | 6.0m/s | -44.1°C | 0.7% | 11.6hPa | 2.5V | 00:00:00 | 00:00:00 | 00:00:00 | |
| OE5MMP-10 | 2026-09-06 00:30:18 | 48.87192 | 13.18013 | 128° | 16km/h | 30534m | 5.9m/s | -44.1°C | 2.9% | 11.5hPa | 2.5V | 00:00:00 | 02:25:25 | 00:00:00 | |
| BAUMI2-15 | 2026-09-06 00:30:17 | 48.87196 | 13.18006 | 148° | 20km/h | 30518m | 5.0m/s | -44.1°C | 2.9% | 11.5hPa | 2.5V | 00:00:00 | 02:25:22 | 00:00:00 | |
| DO3MHA-11 | 2026-09-06 00:30:16 | 48.87196 | 13.18006 | 148° | 20km/h | 30518m | 5.0m/s | -44.1°C | 2.9% | 11.5hPa | 2.5V | 00:00:00 | 02:25:22 | 00:00:00 | |
| OE5REO-15 | 2026-09-06 00:30:14 | 48.87196 | 13.18006 | 149° | 11km/h | 30518m | 5.0m/s | -44.2°C | 0.7% | 11.6hPa | 2.5V | 03:37:00 | 00:00:00 | 00:00:00 | |
| EDDB2-11 | 2026-09-06 00:30:12 | 48.87213 | 13.17993 | 143° | 24km/h | 30496m | 4.1m/s | -44.3°C | 0.7% | 11.6hPa | 2.5V | 00:00:00 | 00:00:00 | 00:00:00 | |
| OE5MMP-10 | 2026-09-06 00:30:08 | 48.87221 | 13.17972 | 94° | 11km/h | 30479m | 5.7m/s | -44.2°C | 2.9% | 11.6hPa | 2.5V | 00:00:00 | 02:25:15 | 00:00:00 | |
| PETON7-10 | 2026-09-06 00:30:07 | 48.87221 | 13.17964 | 82° | 16km/h | 30474m | 4.9m/s | -44.2°C | 2.9% | 11.6hPa | 2.5V | 03:37:00 | 00:00:00 | 00:00:00 | |
| DK5PH-5 | 2026-09-06 00:30:06 | 48.87220 | 13.17957 | 79° | 18km/h | 30469m | 4.9m/s | -44.2°C | 2.9% | 11.6hPa | 2.5V | 00:00:00 | 02:25:13 | 00:00:00 | |
| DO3MHA-11 | 2026-09-06 00:30:05 | 48.87220 | 13.17952 | 84° | 22km/h | 30463m | 6.3m/s | -44.2°C | 2.9% | 11.6hPa | 2.5V | 03:37:00 | 02:25:12 | 00:00:00 | |
| SONCRA | 2026-09-06 00:30:03 | 48.87222 | 13.17946 | 173° | 5km/h | 30446m | 5.2m/s | 0°C | -1.0% | -1.0hPa | 2.5V | 00:00:00 | 00:00:00 | 00:00:00 | |
| OE5REO-15 | 2026-09-06 00:29:59 | 48.87228 | 13.17941 | 124° | 13km/h | 30429m | 5.7m/s | -44.3°C | 0.7% | 11.8hPa | 2.5V | 03:38:00 | 00:00:00 | 00:00:00 | |
| OE5MMP-10 | 2026-09-06 00:29:58 | 48.87230 | 13.17936 | 118° | 20km/h | 30423m | 5.3m/s | -44.2°C | 2.9% | 11.7hPa | 2.5V | 00:00:00 | 02:25:05 | 00:00:00 | |
| BAUMI2-15 | 2026-09-06 00:29:57 | 48.87232 | 13.17930 | 120° | 24km/h | 30418m | 5.5m/s | -44.2°C | 2.9% | 11.7hPa | 2.6V | 00:00:00 | 02:25:04 | 00:00:00 | |
| OE5DXL-15 | 2026-09-06 00:29:53 | 48.87247 | 13.17901 | 127° | 18km/h | 30395m | 4.4m/s | -44.2°C | 2.9% | 11.8hPa | 2.6V | 00:00:00 | 00:00:00 | 00:00:00 | |
| PETON7-10 | 2026-09-06 00:29:52 | 48.87250 | 13.17893 | 117° | 18km/h | 30390m | 5.2m/s | -44.2°C | 2.9% | 11.7hPa | 2.6V | 00:00:00 | 00:00:00 | 00:00:00 | |
| DO3MHA-11 | 2026-09-06 00:29:51 | 48.87251 | 13.17887 | 102° | 18km/h | 30384m | 6.6m/s | -44.2°C | 2.9% | 11.8hPa | 2.6V | 00:00:00 | 02:24:58 | 00:00:00 | |
| OE5WHR-10 | 2026-09-06 00:29:50 | 48.87252 | 13.17880 | 85° | 18km/h | 30378m | 6.0m/s | -44.2°C | 2.9% | 11.8hPa | 2.6V | 00:00:00 | 00:00:00 | 00:00:00 | |
| OE5MMP-10 | 2026-09-06 00:29:48 | 48.87251 | 13.17871 | 87° | 18km/h | 30368m | 4.5m/s | -44.2°C | 2.9% | 11.8hPa | 2.6V | 03:37:00 | 02:24:55 | 00:00:00 | |
| BAUMI2-15 | 2026-09-06 00:29:47 | 48.87251 | 13.17869 | 138° | 15km/h | 30362m | 6.1m/s | -44.2°C | 2.9% | 11.8hPa | 2.6V | 03:37:00 | 02:24:54 | 00:00:00 | |
| DL1JEZ-13 | 2026-09-06 00:29:44 | 48.87261 | 13.17869 | 178° | 20km/h | 30344m | 5.0m/s | 0°C | 0% | 0hPa | 2.6V | 00:00:00 | 00:00:00 | 00:00:00 | |
| OE5REO-15 | 2026-09-06 00:29:43 | 48.87261 | 13.17869 | 178° | 20km/h | 30344m | 5.0m/s | -44.2°C | 0.7% | 11.9hPa | 2.6V | 03:38:00 | 00:00:00 | 00:00:00 | |
| BAUMI2-15 | 2026-09-06 00:29:42 | 48.87271 | 13.17864 | 148° | 24km/h | 30334m | 6.1m/s | -44.1°C | 2.8% | 11.9hPa | 2.6V | 00:00:00 | 02:24:49 | 00:00:00 | |
| DO3MHA-11 | 2026-09-06 00:29:41 | 48.87275 | 13.17858 | 127° | 22km/h | 30328m | 6.2m/s | -44.1°C | 2.8% | 11.9hPa | 2.6V | 00:00:00 | 02:24:48 | 00:00:00 | |
| EDDB2-11 | 2026-09-06 00:29:40 | 48.87278 | 13.17851 | 108° | 24km/h | 30322m | 5.4m/s | -44.2°C | 0.7% | 11.9hPa | 2.6V | 00:00:00 | 00:00:00 | 00:00:00 | |
| OE5MMP-10 | 2026-09-06 00:29:38 | 48.87280 | 13.17833 | 98° | 18km/h | 30312m | 4.8m/s | -44.2°C | 2.8% | 11.9hPa | 2.6V | 00:00:00 | 02:24:45 | 00:00:00 | |
| PETON7-10 | 2026-09-06 00:29:37 | 48.87281 | 13.17825 | 104° | 18km/h | 30307m | 5.6m/s | -44.2°C | 2.8% | 11.9hPa | 2.6V | 00:00:00 | 02:24:44 | 00:00:00 | |
| DK5PH-5 | 2026-09-06 00:29:35 | 48.87285 | 13.17813 | 136° | 18km/h | 30295m | 5.4m/s | -44.2°C | 2.9% | 11.9hPa | 2.6V | 00:00:00 | 02:24:42 | 00:00:00 | |
| BAUMI2-15 | 2026-09-06 00:29:32 | 48.87295 | 13.17801 | 135° | 18km/h | 30279m | 6.2m/s | -44.2°C | 2.9% | 12.0hPa | 2.6V | 00:00:00 | 02:24:39 | 00:00:00 | |
| DO3MHA-11 | 2026-09-06 00:29:31 | 48.87298 | 13.17796 | 119° | 20km/h | 30273m | 6.3m/s | -44.2°C | 2.9% | 12.0hPa | 2.6V | 00:00:00 | 02:24:38 | 00:00:00 | |
| OE5MMP-10 | 2026-09-06 00:29:28 | 48.87301 | 13.17776 | 97° | 18km/h | 30255m | 5.5m/s | -44.2°C | 2.9% | 12.0hPa | 2.6V | 00:00:00 | 02:24:35 | 00:00:00 | |
| BAUMI2-15 | 2026-09-06 00:29:27 | 48.87301 | 13.17769 | 100° | 18km/h | 30249m | 6.7m/s | -44.2°C | 2.8% | 12.0hPa | 2.6V | 03:37:00 | 02:24:34 | 00:00:00 | |
| OE5WHR-10 | 2026-09-06 00:29:25 | 48.87303 | 13.17756 | 100° | 15km/h | 30237m | 5.2m/s | -44.3°C | 2.9% | 12.0hPa | 2.5V | 00:00:00 | 02:24:32 | 00:00:00 | |
| OE5HKT-10 | 2026-09-06 00:29:23 | 48.87303 | 13.17743 | 85° | 15km/h | 30226m | 6.6m/s | -44.3°C | 2.9% | 12.1hPa | 2.5V | 00:00:00 | 00:00:00 | 00:00:00 | |
| PETON7-10 | 2026-09-06 00:29:22 | 48.87303 | 13.17735 | 79° | 16km/h | 30219m | 6.2m/s | -44.3°C | 2.8% | 12.1hPa | 2.6V | 00:00:00 | 00:00:00 | 00:00:00 | |
| DO3MHA-11 | 2026-09-06 00:29:20 | 48.87300 | 13.17719 | 78° | 18km/h | 30208m | 4.7m/s | -44.3°C | 2.9% | 12.1hPa | 2.5V | 03:38:00 | 02:24:27 | 00:00:00 | |
| OE3MUC-15 | 2026-09-06 00:29:19 | 48.87300 | 13.17713 | 86° | 15km/h | 30203m | 5.8m/s | 0°C | 0% | 0hPa | 2.5V | 00:00:00 | 00:00:00 | 00:00:00 | |
| OE5MMP-10 | 2026-09-06 00:29:18 | 48.87300 | 13.17708 | 103° | 15km/h | 30197m | 6.8m/s | -44.3°C | 2.9% | 12.1hPa | 2.5V | 00:00:00 | 02:24:25 | 00:00:00 | |
| DL6DJ-15 | 2026-09-06 00:29:17 | 48.87303 | 13.17702 | 139° | 9km/h | 30184m | 5.3m/s | -44.4°C | 0.7% | 12.2hPa | 2.5V | 00:00:00 | 00:00:00 | 00:00:00 | |
| SONDE2-11 | 2026-09-06 00:29:14 | 48.87307 | 13.17681 | 84° | 20km/h | 30161m | 5.5m/s | -44.4°C | 0.7% | 12.2hPa | 2.5V | 00:00:00 | 00:00:00 | 00:00:00 | |
| OE5REO-15 | 2026-09-06 00:29:11 | 48.87306 | 13.17681 | 86° | 22km/h | 30161m | 5.5m/s | -44.4°C | 0.7% | 12.2hPa | 2.5V | 03:38:00 | 00:00:00 | 00:00:00 | |
| EDDB2-11 | 2026-09-06 00:29:09 | 48.87305 | 13.17658 | 84° | 16km/h | 30144m | 6.5m/s | -44.5°C | 0.7% | 12.3hPa | 2.5V | 00:00:00 | 00:00:00 | 00:00:00 | |
| OE5MMP-10 | 2026-09-06 00:29:08 | 48.87304 | 13.17652 | 92° | 13km/h | 30138m | 5.9m/s | -44.4°C | 2.8% | 12.2hPa | 2.5V | 03:38:00 | 02:24:15 | 00:00:00 | |
| PETON7-10 | 2026-09-06 00:29:07 | 48.87305 | 13.17648 | 102° | 13km/h | 30133m | 5.3m/s | -44.4°C | 2.9% | 12.2hPa | 2.5V | 03:38:00 | 00:00:00 | 00:00:00 | |
| DL3JIN-12 | 2026-09-06 00:29:06 | 48.87305 | 13.17648 | 103° | 9km/h | 30133m | 5.3m/s | -44.5°C | 0.8% | 12.3hPa | 2.5V | 03:38:00 | 00:00:00 | 00:00:00 | |
| DO3MHA-11 | 2026-09-06 00:29:05 | 48.87306 | 13.17641 | 104° | 20km/h | 30122m | 6.4m/s | -44.4°C | 2.9% | 12.2hPa | 2.5V | 00:00:00 | 02:24:12 | 00:00:00 | |
| OE3MUC-15 | 2026-09-06 00:29:03 | 48.87307 | 13.17632 | 96° | 13km/h | 30109m | 5.7m/s | 0°C | 0% | 0hPa | 2.5V | 00:00:00 | 00:00:00 | 00:00:00 | |
| EDDB2-12 | 2026-09-06 00:29:01 | 48.87312 | 13.17613 | 137° | 13km/h | 30086m | 6.7m/s | -44.5°C | 0.8% | 12.4hPa | 2.5V | 00:00:00 | 00:00:00 | 00:00:00 | |
| DL6DJ-15 | 2026-09-06 00:28:46 | 48.87326 | 13.17561 | 125° | 15km/h | 30003m | 6.3m/s | -44.7°C | 0.8% | 12.5hPa | 2.5V | 00:00:00 | 00:00:00 | 00:00:00 | |
| DL3JIN-12 | 2026-09-06 00:28:45 | 48.87323 | 13.17565 | 144° | 16km/h | 30010m | 6.4m/s | -44.7°C | 0.8% | 12.5hPa | 2.5V | 03:38:00 | 00:00:00 | 00:00:00 | |
| OE3MUC-15 | 2026-09-06 00:28:43 | 48.87330 | 13.17548 | 111° | 18km/h | 29992m | 5.2m/s | 0°C | 0% | 0hPa | 2.5V | 03:38:00 | 00:00:00 | 00:00:00 | |
| OE5HKT-10 | 2026-09-06 00:28:41 | 48.87334 | 13.17536 | 127° | 15km/h | 29980m | 6.7m/s | -44.8°C | 3.0% | 12.5hPa | 2.5V | 00:00:00 | 02:23:48 | 00:00:00 | |
| OE5WHR-10 | 2026-09-06 00:28:40 | 48.87337 | 13.17531 | 137° | 15km/h | 29974m | 6.2m/s | -44.8°C | 3.0% | 12.5hPa | 2.5V | 03:38:00 | 00:00:00 | 00:00:00 | |
| OE3MUC-15 | 2026-09-06 00:28:39 | 48.87340 | 13.17527 | 143° | 15km/h | 29968m | 5.3m/s | 0°C | 0% | 0hPa | 2.5V | 00:00:00 | 00:00:00 | 00:00:00 | |
| PG1ADW-2 | 2026-09-06 00:28:38 | 48.87343 | 13.17523 | 139° | 15km/h | 29963m | 5.0m/s | -44.8°C | 3.0% | 12.5hPa | 2.5V | 00:00:00 | 00:00:00 | 00:00:00 | |
| PETON7-10 | 2026-09-06 00:28:37 | 48.87346 | 13.17519 | 127° | 15km/h | 29957m | 5.8m/s | -44.7°C | 3.0% | 12.5hPa | 2.5V | 00:00:00 | 00:00:00 | 00:00:00 | |
| OE3MUC-15 | 2026-09-06 00:28:35 | 48.87348 | 13.17509 | 88° | 9km/h | 29945m | 5.7m/s | 0°C | 0% | 0hPa | 2.5V | 00:00:00 | 00:00:00 | 00:00:00 | |
| OE3MUC-15 | 2026-09-06 00:28:31 | 48.87347 | 13.17498 | 164° | 11km/h | 29923m | 6.5m/s | 0°C | 0% | 0hPa | 2.5V | 00:00:00 | 00:00:00 | 00:00:00 | |
| EDDB2-12 | 2026-09-06 00:28:30 | 48.87349 | 13.17497 | 175° | 9km/h | 29916m | 6.1m/s | -44.7°C | 0.8% | 12.7hPa | 2.5V | 00:00:00 | 00:00:00 | 00:00:00 | |
| OE5MMP-10 | 2026-09-06 00:28:28 | 48.87355 | 13.17494 | 151° | 16km/h | 29905m | 5.1m/s | -44.7°C | 3.0% | 12.7hPa | 2.5V | 03:38:00 | 02:23:35 | 00:00:00 | |
| OE3MUC-15 | 2026-09-06 00:28:27 | 48.87359 | 13.17490 | 135° | 24km/h | 29900m | 6.6m/s | 0°C | 0% | 0hPa | 2.5V | 03:38:00 | 00:00:00 | 00:00:00 | |
| DL3JIN-12 | 2026-09-06 00:28:26 | 48.87362 | 13.17483 | 122° | 24km/h | 29893m | 6.7m/s | -44.8°C | 0.8% | 12.7hPa | 2.5V | 03:39:00 | 00:00:00 | 00:00:00 | |
| OE5REO-15 | 2026-09-06 00:28:25 | 48.87365 | 13.17475 | 112° | 26km/h | 29887m | 5.5m/s | -44.8°C | 0.8% | 12.7hPa | 2.5V | 03:39:00 | 00:00:00 | 00:00:00 | |
| OE3MUC-15 | 2026-09-06 00:28:23 | 48.87369 | 13.17457 | 111° | 13km/h | 29877m | 5.3m/s | 0°C | 0% | 0hPa | 2.5V | 00:00:00 | 00:00:00 | 00:00:00 | |
| PETON7-10 | 2026-09-06 00:28:22 | 48.87371 | 13.17451 | 119° | 9km/h | 29871m | 6.3m/s | -44.9°C | 3.0% | 12.7hPa | 2.5V | 00:00:00 | 00:00:00 | 00:00:00 | |
| OE5HKT-10 | 2026-09-06 00:28:20 | 48.87375 | 13.17446 | 186° | 9km/h | 29858m | 6.1m/s | -44.9°C | 3.1% | 12.7hPa | 2.5V | 03:39:00 | 00:00:00 | 00:00:00 | |
| OE3MUC-15 | 2026-09-06 00:28:19 | 48.87377 | 13.17447 | 222° | 5km/h | 29852m | 5.8m/s | 0°C | 0% | 0hPa | 2.6V | 00:00:00 | 00:00:00 | 00:00:00 | |
| OE5MMP-10 | 2026-09-06 00:28:18 | 48.87378 | 13.17450 | 241° | 7km/h | 29846m | 6.3m/s | -44.9°C | 3.1% | 12.7hPa | 2.6V | 00:00:00 | 02:23:25 | 00:00:00 | |
| OE5WHR-10 | 2026-09-06 00:28:16 | 48.87378 | 13.17454 | 282° | 11km/h | 29833m | 5.8m/s | -44.9°C | 3.0% | 12.8hPa | 2.6V | 00:00:00 | 02:23:23 | 00:00:00 | |
| OE3MUC-15 | 2026-09-06 00:28:15 | 48.87378 | 13.17455 | 284° | 49km/h | 29828m | 5.0m/s | 0°C | 0% | 0hPa | 2.6V | 00:00:00 | 00:00:00 | 00:00:00 | |
| DL6DJ-15 | 2026-09-06 00:28:14 | 48.87378 | 13.17456 | 240° | 2km/h | 29823m | 5.2m/s | -44.9°C | 0.8% | 12.9hPa | 2.6V | 00:00:00 | 00:00:00 | 00:00:00 | |
| OE5REO-15 | 2026-09-06 00:28:10 | 48.87387 | 13.17463 | 202° | 15km/h | 29799m | 5.0m/s | -44.8°C | 0.8% | 12.9hPa | 2.6V | 03:39:00 | 00:00:00 | 00:00:00 | |
| S52SK | 2026-09-06 00:28:09 | 48.87387 | 13.17463 | 202° | 15km/h | 29799m | 5.0m/s | -44.8°C | 0.8% | 12.9hPa | 2.6V | 00:00:00 | 00:00:00 | 00:00:00 | |
| OE5MMP-10 | 2026-09-06 00:28:08 | 48.87392 | 13.17465 | 173° | 9km/h | 29787m | 6.5m/s | -44.6°C | 3.0% | 12.9hPa | 2.6V | 00:00:00 | 02:23:15 | 00:00:00 | |
| PETON7-10 | 2026-09-06 00:28:07 | 48.87394 | 13.17464 | 138° | 13km/h | 29781m | 6.5m/s | -44.6°C | 3.0% | 12.9hPa | 2.6V | 03:39:00 | 02:23:14 | 00:00:00 | |
| DL3JIN-12 | 2026-09-06 00:28:04 | 48.87396 | 13.17459 | 118° | 7km/h | 29770m | 5.1m/s | -44.6°C | 0.8% | 13.0hPa | 2.6V | 03:39:00 | 00:00:00 | 00:00:00 | |
| S52SK | 2026-09-06 00:28:03 | 48.87397 | 13.17458 | 147° | 5km/h | 29764m | 6.1m/s | -44.6°C | 0.8% | 13.0hPa | 2.6V | 00:00:00 | 00:00:00 | 00:00:00 | |
| OE5HKT-10 | 2026-09-06 00:27:59 | 48.87410 | 13.17460 | 166° | 18km/h | 29735m | 6.3m/s | -44.3°C | 2.9% | 13.0hPa | 2.6V | 00:00:00 | 00:00:00 | 00:00:00 | |
| OE5MMP-10 | 2026-09-06 00:27:58 | 48.87414 | 13.17457 | 143° | 16km/h | 29729m | 6.7m/s | -44.3°C | 2.9% | 13.0hPa | 2.6V | 00:00:00 | 02:23:05 | 00:00:00 | |
| OE5WHR-10 | 2026-09-06 00:27:55 | 48.87422 | 13.17442 | 132° | 22km/h | 29710m | 5.5m/s | -44.2°C | 2.9% | 13.0hPa | 2.5V | 00:00:00 | 00:00:00 | 00:00:00 | |
| OE5REO-15 | 2026-09-06 00:27:54 | 48.87422 | 13.17442 | 133° | 18km/h | 29710m | 5.6m/s | -44.3°C | 0.7% | 13.1hPa | 2.5V | 03:39:00 | 00:00:00 | 00:00:00 | |
| OE5DXL-15 | 2026-09-06 00:27:53 | 48.87429 | 13.17434 | 160° | 24km/h | 29698m | 6.6m/s | -44.2°C | 2.9% | 13.1hPa | 2.5V | 00:00:00 | 00:00:00 | 00:00:00 | |
| PETON7-10 | 2026-09-06 00:27:52 | 48.87433 | 13.17432 | 172° | 20km/h | 29692m | 5.5m/s | -44.2°C | 2.9% | 13.1hPa | 2.5V | 00:00:00 | 00:00:00 | 00:00:00 | |
| OE5MMP-10 | 2026-09-06 00:27:48 | 48.87449 | 13.17426 | 140° | 22km/h | 29668m | 6.2m/s | -44.3°C | 2.9% | 13.1hPa | 2.5V | 03:39:00 | 02:22:55 | 00:00:00 | |
| DL3JIN-12 | 2026-09-06 00:27:44 | 48.87458 | 13.17411 | 142° | 20km/h | 29651m | 5.7m/s | -44.4°C | 0.8% | 13.2hPa | 2.5V | 03:39:00 | 00:00:00 | 00:00:00 | |
| DL6DJ-15 | 2026-09-06 00:27:43 | 48.87468 | 13.17403 | 156° | 22km/h | 29638m | 5.7m/s | -44.3°C | 0.7% | 13.2hPa | 2.5V | 00:00:00 | 00:00:00 | 00:00:00 | |
| SONDE2-11 | 2026-09-06 00:27:41 | 48.87483 | 13.17389 | 137° | 24km/h | 29621m | 6.6m/s | -44.3°C | 0.7% | 13.2hPa | 2.5V | 00:00:00 | 00:00:00 | 00:00:00 | |
| OE5REO-15 | 2026-09-06 00:27:39 | 48.87488 | 13.17382 | 129° | 27km/h | 29615m | 6.4m/s | -44.3°C | 0.7% | 13.3hPa | 2.5V | 03:40:00 | 00:00:00 | 00:00:00 | |
| OE5MMP-10 | 2026-09-06 00:27:38 | 48.87492 | 13.17373 | 123° | 31km/h | 29609m | 5.6m/s | -44.3°C | 2.9% | 13.2hPa | 2.5V | 00:00:00 | 02:22:45 | 00:00:00 | |
| PETON7-10 | 2026-09-06 00:27:37 | 48.87496 | 13.17364 | 125° | 29km/h | 29603m | 5.2m/s | -44.3°C | 2.9% | 13.2hPa | 2.5V | 00:00:00 | 00:00:00 | 00:00:00 | |
| EDDB2-11 | 2026-09-06 00:27:36 | 48.87500 | 13.17355 | 129° | 29km/h | 29597m | 6.4m/s | -44.4°C | 0.7% | 13.3hPa | 2.5V | 00:00:00 | 00:00:00 | 00:00:00 | |
| OE5WHR-10 | 2026-09-06 00:27:34 | 48.87512 | 13.17339 | 144° | 29km/h | 29585m | 5.6m/s | -44.4°C | 2.9% | 13.3hPa | 2.5V | 00:00:00 | 00:00:00 | 00:00:00 | |
| DO3MHA-11 | 2026-09-06 00:27:33 | 48.87518 | 13.17332 | 145° | 31km/h | 29580m | 5.1m/s | -44.4°C | 2.9% | 13.3hPa | 2.5V | 00:00:00 | 02:22:40 | 00:00:00 | |
| OE5MMP-10 | 2026-09-06 00:27:28 | 48.87545 | 13.17291 | 133° | 27km/h | 29551m | 5.9m/s | -44.5°C | 2.9% | 13.4hPa | 2.5V | 00:00:00 | 02:22:35 | 00:00:00 | |
| DL3JIN-12 | 2026-09-06 00:27:24 | 48.87559 | 13.17272 | 140° | 24km/h | 29533m | 5.0m/s | -44.6°C | 0.8% | 13.5hPa | 2.6V | 03:40:00 | 00:00:00 | 00:00:00 | |
| DO3MHA-11 | 2026-09-06 00:27:23 | 48.87567 | 13.17258 | 127° | 22km/h | 29522m | 6.7m/s | -44.5°C | 2.9% | 13.4hPa | 2.6V | 00:00:00 | 02:22:30 | 00:00:00 | |
| PETON7-10 | 2026-09-06 00:27:22 | 48.87571 | 13.17249 | 123° | 29km/h | 29515m | 5.8m/s | -44.5°C | 2.9% | 13.4hPa | 2.6V | 00:00:00 | 02:22:29 | 00:00:00 | |
| BAUMI2-15 | 2026-09-06 00:27:18 | 48.87601 | 13.17211 | 162° | 29km/h | 29486m | 5.4m/s | -44.5°C | 2.9% | 13.5hPa | 2.6V | 00:00:00 | 02:22:24 | 00:00:00 | |
| OE5HKT-10 | 2026-09-06 00:27:17 | 48.87601 | 13.17211 | 162° | 29km/h | 29486m | 5.4m/s | -44.5°C | 2.9% | 13.5hPa | 2.6V | 00:00:00 | 00:00:00 | 00:00:00 | |
| OE5WHR-10 | 2026-09-06 00:27:13 | 48.87627 | 13.17191 | 136° | 31km/h | 29463m | 5.9m/s | -44.5°C | 2.9% | 13.5hPa | 2.5V | 03:40:00 | 02:22:20 | 00:00:00 | |
| BAUMI2-15 | 2026-09-06 00:27:12 | 48.87631 | 13.17184 | 130° | 29km/h | 29457m | 5.6m/s | -44.5°C | 2.9% | 13.6hPa | 2.5V | 00:00:00 | 02:22:19 | 00:00:00 | |
| SONDE2-11 | 2026-09-06 00:27:09 | 48.87646 | 13.17160 | 138° | 27km/h | 29439m | 5.8m/s | -44.7°C | 0.8% | 13.6hPa | 2.5V | 00:00:00 | 00:00:00 | 00:00:00 | |
| OE5MMP-10 | 2026-09-06 00:27:08 | 48.87651 | 13.17153 | 143° | 31km/h | 29434m | 4.8m/s | -44.7°C | 3.0% | 13.6hPa | 2.5V | 03:40:00 | 02:22:15 | 00:00:00 | |
| PETON7-10 | 2026-09-06 00:27:07 | 48.87658 | 13.17145 | 143° | 31km/h | 29429m | 4.7m/s | -44.6°C | 3.0% | 13.6hPa | 2.5V | 03:40:00 | 00:00:00 | 00:00:00 | |
| OE5REO-15 | 2026-09-06 00:27:06 | 48.87658 | 13.17145 | 143° | 31km/h | 29429m | 4.7m/s | -44.7°C | 0.8% | 13.7hPa | 2.6V | 03:40:00 | 00:00:00 | 00:00:00 | |
| EDDB2-11 | 2026-09-06 00:27:05 | 48.87670 | 13.17129 | 134° | 31km/h | 29417m | 6.3m/s | -44.7°C | 0.7% | 13.7hPa | 2.6V | 00:00:00 | 00:00:00 | 00:00:00 | |
| DL3JIN-12 | 2026-09-06 00:27:04 | 48.87670 | 13.17129 | 135° | 33km/h | 29417m | 6.3m/s | -44.7°C | 0.8% | 13.7hPa | 2.6V | 03:40:00 | 00:00:00 | 00:00:00 | |
| BAUMI2-15 | 2026-09-06 00:27:02 | 48.87687 | 13.17105 | 147° | 29km/h | 29402m | 5.5m/s | -44.7°C | 2.9% | 13.7hPa | 2.6V | 00:00:00 | 02:22:09 | 00:00:00 | |
| OE5MMP-10 | 2026-09-06 00:26:58 | 48.87715 | 13.17093 | 167° | 31km/h | 29378m | 5.0m/s | -44.6°C | 2.9% | 13.7hPa | 2.6V | 00:00:00 | 02:22:05 | 00:00:00 | |
| BAUMI2-15 | 2026-09-06 00:26:57 | 48.87723 | 13.17089 | 159° | 33km/h | 29373m | 6.1m/s | -44.5°C | 3.0% | 13.7hPa | 2.6V | 00:00:00 | 02:22:04 | 00:00:00 | |
| OE5HKT-10 | 2026-09-06 00:26:56 | 48.87730 | 13.17084 | 148° | 33km/h | 29367m | 6.1m/s | -44.5°C | 2.9% | 13.7hPa | 2.6V | 03:40:00 | 00:00:00 | 00:00:00 | |
| OE5DXL-15 | 2026-09-06 00:26:53 | 48.87748 | 13.17056 | 130° | 31km/h | 29351m | 5.4m/s | -44.5°C | 2.9% | 13.8hPa | 2.6V | 00:00:00 | 00:00:00 | 00:00:00 | |
| OE5WHR-10 | 2026-09-06 00:26:52 | 48.87754 | 13.17047 | 133° | 31km/h | 29345m | 6.1m/s | -44.4°C | 3.0% | 13.8hPa | 2.6V | 00:00:00 | 00:00:00 | 00:00:00 | |
| OE5REO-15 | 2026-09-06 00:26:51 | 48.87754 | 13.17047 | 134° | 31km/h | 29345m | 6.1m/s | -44.5°C | 0.8% | 13.8hPa | 2.5V | 03:40:00 | 00:00:00 | 00:00:00 | |
| OE5MMP-10 | 2026-09-06 00:26:48 | 48.87775 | 13.17019 | 141° | 31km/h | 29323m | 5.8m/s | -44.5°C | 2.9% | 13.8hPa | 2.5V | 00:00:00 | 02:21:55 | 00:00:00 | |
| BAUMI2-15 | 2026-09-06 00:26:47 | 48.87781 | 13.17011 | 138° | 33km/h | 29317m | 6.4m/s | -44.5°C | 2.9% | 13.8hPa | 2.5V | 03:40:00 | 02:21:54 | 00:00:00 | |
| OE5DRO-10 | 2026-09-06 00:26:44 | 48.87801 | 13.16986 | 144° | 33km/h | 29300m | 5.4m/s | -44.5°C | 2.9% | 13.9hPa | 2.5V | 00:00:00 | 00:00:00 | 00:00:00 | |
| DL3JIN-12 | 2026-09-06 00:26:43 | 48.87801 | 13.16986 | 145° | 33km/h | 29300m | 5.5m/s | -44.6°C | 0.8% | 13.9hPa | 2.5V | 03:41:00 | 00:00:00 | 00:00:00 | |
| BAUMI2-15 | 2026-09-06 00:26:42 | 48.87814 | 13.16973 | 152° | 31km/h | 29288m | 5.5m/s | -44.5°C | 2.9% | 13.9hPa | 2.5V | 00:00:00 | 02:21:49 | 00:00:00 | |
| DL6DJ-15 | 2026-09-06 00:26:41 | 48.87820 | 13.16968 | 149° | 29km/h | 29283m | 4.7m/s | -44.6°C | 0.8% | 14.0hPa | 2.5V | 00:00:00 | 00:00:00 | 00:00:00 | |
| OE5MMP-10 | 2026-09-06 00:26:38 | 48.87838 | 13.16944 | 127° | 31km/h | 29266m | 5.7m/s | -44.5°C | 2.9% | 14.0hPa | 2.5V | 00:00:00 | 02:21:45 | 00:00:00 | |
| PETON7-10 | 2026-09-06 00:26:37 | 48.87843 | 13.16932 | 122° | 33km/h | 29260m | 5.0m/s | -44.6°C | 2.9% | 14.0hPa | 2.5V | 00:00:00 | 02:21:44 | 00:00:00 | |
| OE5HKT-10 | 2026-09-06 00:26:35 | 48.87852 | 13.16910 | 122° | 33km/h | 29250m | 5.9m/s | -44.6°C | 2.9% | 14.0hPa | 2.5V | 00:00:00 | 02:21:42 | 00:00:00 | |
| EDDB2-11 | 2026-09-06 00:26:34 | 48.87856 | 13.16901 | 125° | 26km/h | 29244m | 6.3m/s | -44.7°C | 0.7% | 14.0hPa | 2.5V | 00:00:00 | 00:00:00 | 00:00:00 | |
| BAUMI2-15 | 2026-09-06 00:26:32 | 48.87864 | 13.16886 | 136° | 33km/h | 29233m | 4.9m/s | -44.8°C | 2.9% | 14.0hPa | 2.5V | 00:00:00 | 02:21:39 | 00:00:00 | |
| OE5WHR-10 | 2026-09-06 00:26:31 | 48.87869 | 13.16878 | 138° | 33km/h | 29228m | 5.8m/s | -44.9°C | 2.9% | 14.0hPa | 2.5V | 00:00:00 | 00:00:00 | 00:00:00 | |
| OE5MMP-10 | 2026-09-06 00:26:28 | 48.87889 | 13.16852 | 143° | 37km/h | 29212m | 4.4m/s | -45.1°C | 3.0% | 14.0hPa | 2.5V | 03:40:00 | 02:21:35 | 00:00:00 | |
| BAUMI2-15 | 2026-09-06 00:26:27 | 48.87897 | 13.16843 | 146° | 35km/h | 29207m | 5.0m/s | -45.2°C | 3.0% | 14.1hPa | 2.5V | 03:40:00 | 02:21:34 | 00:00:00 | |
| EDDB2-12 | 2026-09-06 00:26:26 | 48.87905 | 13.16835 | 149° | 37km/h | 29201m | 6.2m/s | -45.3°C | 0.8% | 14.1hPa | 2.5V | 00:00:00 | 00:00:00 | 00:00:00 | |
| OE5DXL-15 | 2026-09-06 00:26:23 | 48.87927 | 13.16816 | 142° | 27km/h | 29186m | 4.3m/s | -45.3°C | 3.0% | 14.1hPa | 2.5V | 03:41:00 | 00:00:00 | 00:00:00 | |
| PETON7-10 | 2026-09-06 00:26:22 | 48.87933 | 13.16807 | 132° | 31km/h | 29181m | 5.4m/s | -45.3°C | 3.0% | 14.1hPa | 2.5V | 00:00:00 | 00:00:00 | 00:00:00 | |
| OE5REO-15 | 2026-09-06 00:26:19 | 48.87942 | 13.16784 | 116° | 40km/h | 29169m | 5.7m/s | -45.4°C | 0.8% | 14.2hPa | 2.6V | 03:41:00 | 00:00:00 | 00:00:00 | |
| OE5MMP-10 | 2026-09-06 00:26:18 | 48.87951 | 13.16756 | 114° | 27km/h | 29159m | 4.6m/s | -45.3°C | 3.0% | 14.2hPa | 2.6V | 00:00:00 | 02:21:25 | 00:00:00 | |
| BAUMI2-15 | 2026-09-06 00:26:17 | 48.87954 | 13.16743 | 117° | 26km/h | 29154m | 6.0m/s | -45.3°C | 3.0% | 14.2hPa | 2.6V | 00:00:00 | 02:21:24 | 00:00:00 | |
| OE5HKT-10 | 2026-09-06 00:26:14 | 48.87965 | 13.16720 | 139° | 26km/h | 29138m | 4.4m/s | -45.3°C | 2.9% | 14.2hPa | 2.6V | 00:00:00 | 00:00:00 | 00:00:00 | |
| BAUMI2-15 | 2026-09-06 00:26:12 | 48.87974 | 13.16709 | 137° | 29km/h | 29127m | 6.1m/s | -45.3°C | 2.9% | 14.2hPa | 2.6V | 00:00:00 | 02:21:19 | 00:00:00 | |
| OE5WHR-10 | 2026-09-06 00:26:10 | 48.87983 | 13.16693 | 128° | 27km/h | 29115m | 5.6m/s | -45.4°C | 2.9% | 14.3hPa | 2.5V | 00:00:00 | 02:21:17 | 00:00:00 | |
| SONDE2-11 | 2026-09-06 00:26:08 | 48.87997 | 13.16663 | 128° | 29km/h | 29100m | 5.1m/s | -45.6°C | 0.8% | 14.4hPa | 2.5V | 00:00:00 | 00:00:00 | 00:00:00 | |
| PETON7-10 | 2026-09-06 00:26:07 | 48.87997 | 13.16663 | 129° | 26km/h | 29100m | 5.0m/s | -45.5°C | 2.9% | 14.3hPa | 2.5V | 03:41:00 | 00:00:00 | 00:00:00 | |
| OE5REO-15 | 2026-09-06 00:26:04 | 48.88011 | 13.16642 | 142° | 20km/h | 29083m | 5.0m/s | -45.9°C | 0.8% | 14.4hPa | 2.5V | 03:41:00 | 00:00:00 | 00:00:00 | |
| EDDB2-11 | 2026-09-06 00:26:03 | 48.88015 | 13.16637 | 136° | 18km/h | 29079m | 4.3m/s | -45.9°C | 0.8% | 14.4hPa | 2.5V | 00:00:00 | 00:00:00 | 00:00:00 | |
| DL3JIN-12 | 2026-09-06 00:26:02 | 48.88015 | 13.16637 | 137° | 18km/h | 29079m | 4.3m/s | -45.9°C | 0.8% | 14.4hPa | 2.5V | 03:41:00 | 00:00:00 | 00:00:00 | |
| EDDB2-12 | 2026-09-06 00:25:55 | 48.88034 | 13.16564 | 111° | 24km/h | 29035m | 4.3m/s | -46.4°C | 0.8% | 14.5hPa | 2.5V | 00:00:00 | 00:00:00 | 00:00:00 | |
| OE5HKT-10 | 2026-09-06 00:25:53 | 48.88038 | 13.16547 | 115° | 22km/h | 29025m | 6.0m/s | -46.4°C | 3.1% | 14.5hPa | 2.5V | 00:00:00 | 00:00:00 | 00:00:00 | |
| PETON7-10 | 2026-09-06 00:25:52 | 48.88041 | 13.16537 | 115° | 22km/h | 29019m | 6.0m/s | -46.5°C | 3.1% | 14.5hPa | 2.5V | 00:00:00 | 02:20:59 | 00:00:00 | |
| OE5DXL-15 | 2026-09-06 00:25:50 | 48.88047 | 13.16516 | 115° | 24km/h | 29009m | 4.5m/s | -46.6°C | 3.1% | 14.5hPa | 2.5V | 00:00:00 | 00:00:00 | 00:00:00 | |
| OE5WHR-10 | 2026-09-06 00:25:49 | 48.88050 | 13.16507 | 114° | 20km/h | 29004m | 5.1m/s | -46.6°C | 3.1% | 14.5hPa | 2.5V | 03:41:00 | 00:00:00 | 00:00:00 | |
| OE5MMP-10 | 2026-09-06 00:25:48 | 48.88052 | 13.16500 | 114° | 18km/h | 28999m | 6.5m/s | -46.6°C | 3.2% | 14.5hPa | 2.5V | 03:41:00 | 02:20:55 | 00:00:00 | |
| BAUMI2-15 | 2026-09-06 00:25:47 | 48.88053 | 13.16495 | 113° | 13km/h | 28992m | 5.9m/s | -46.6°C | 3.2% | 14.5hPa | 2.5V | 03:41:00 | 02:20:54 | 00:00:00 | |
| OE5DRO-10 | 2026-09-06 00:25:44 | 48.88057 | 13.16485 | 119° | 20km/h | 28977m | 5.4m/s | -46.7°C | 3.2% | 14.6hPa | 2.5V | 00:00:00 | 00:00:00 | 00:00:00 | |
| DL6DJ-15 | 2026-09-06 00:25:39 | 48.88071 | 13.16444 | 118° | 24km/h | 28948m | 6.0m/s | -46.9°C | 0.8% | 14.7hPa | 2.5V | 00:00:00 | 00:00:00 | 00:00:00 | |
| OE5MMP-10 | 2026-09-06 00:25:38 | 48.88074 | 13.16436 | 123° | 22km/h | 28943m | 5.0m/s | -46.8°C | 3.2% | 14.7hPa | 2.5V | 00:00:00 | 02:20:45 | 00:00:00 | |
| PETON7-10 | 2026-09-06 00:25:37 | 48.88077 | 13.16429 | 127° | 26km/h | 28938m | 4.9m/s | -46.8°C | 3.2% | 14.7hPa | 2.5V | 00:00:00 | 00:00:00 | 00:00:00 | |
| SONDE2-11 | 2026-09-06 00:25:36 | 48.88081 | 13.16423 | 131° | 20km/h | 28933m | 5.5m/s | -46.9°C | 0.8% | 14.7hPa | 2.6V | 00:00:00 | 00:00:00 | 00:00:00 | |
| BAUMI2-15 | 2026-09-06 00:25:32 | 48.88098 | 13.16399 | 143° | 20km/h | 28911m | 4.6m/s | -46.9°C | 3.3% | 14.7hPa | 2.6V | 00:00:00 | 02:20:39 | 00:00:00 | |
| OE5WHR-10 | 2026-09-06 00:25:31 | 48.88112 | 13.16376 | 113° | 27km/h | 28890m | 4.0m/s | -46.9°C | 3.2% | 14.8hPa | 2.6V | 00:00:00 | 00:00:00 | 00:00:00 | |
| OE5MMP-10 | 2026-09-06 00:25:30 | 48.88112 | 13.16376 | 113° | 31km/h | 28890m | 4.0m/s | -46.9°C | 3.2% | 14.8hPa | 2.6V | 00:00:00 | 02:20:35 | 00:00:00 | |
| BAUMI2-15 | 2026-09-06 00:25:28 | 48.88114 | 13.16367 | 109° | 37km/h | 28885m | 5.3m/s | -46.9°C | 3.2% | 14.8hPa | 2.6V | 03:41:00 | 02:20:34 | 00:00:00 | |
| EDDB2-12 | 2026-09-06 00:25:24 | 48.88121 | 13.16327 | 103° | 40km/h | 28867m | 4.8m/s | -47.1°C | 0.9% | 14.9hPa | 2.5V | 00:00:00 | 00:00:00 | 00:00:00 | |
| OE5DXL-15 | 2026-09-06 00:25:20 | 48.88129 | 13.16277 | 109° | 24km/h | 28846m | 4.6m/s | -47.2°C | 3.3% | 14.8hPa | 2.5V | 00:00:00 | 00:00:00 | 00:00:00 | |
| OE5MMP-10 | 2026-09-06 00:25:18 | 48.88134 | 13.16263 | 126° | 29km/h | 28837m | 5.4m/s | -47.2°C | 3.3% | 14.9hPa | 2.5V | 00:00:00 | 02:20:25 | 00:00:00 | |
| OE5REO-15 | 2026-09-06 00:25:16 | 48.88137 | 13.16256 | 129° | 26km/h | 28831m | 6.2m/s | -47.3°C | 0.9% | 15.0hPa | 2.5V | 03:42:00 | 00:00:00 | 00:00:00 | |
| SP3BTT-10 | 2026-09-06 00:25:13 | 48.88155 | 13.16216 | 115° | 13km/h | 28810m | 6.0m/s | -47.2°C | 3.3% | 15.0hPa | 2.5V | 00:00:00 | 00:00:00 | 00:00:00 | |
| OE5HKT-10 | 2026-09-06 00:25:11 | 48.88158 | 13.16195 | 95° | 24km/h | 28798m | 5.4m/s | -47.2°C | 3.3% | 15.0hPa | 2.5V | 00:00:00 | 00:00:00 | 00:00:00 | |
| OE5MMP-10 | 2026-09-06 00:25:08 | 48.88158 | 13.16163 | 94° | 20km/h | 28782m | 6.1m/s | -47.2°C | 3.3% | 15.0hPa | 2.5V | 03:42:00 | 02:20:15 | 00:00:00 | |
| PETON7-10 | 2026-09-06 00:25:07 | 48.88160 | 13.16153 | 102° | 24km/h | 28776m | 5.4m/s | -47.2°C | 3.3% | 15.0hPa | 2.5V | 03:42:00 | 02:20:14 | 00:00:00 | |
| SONDE2-11 | 2026-09-06 00:25:05 | 48.88164 | 13.16135 | 119° | 22km/h | 28766m | 5.3m/s | -47.3°C | 0.9% | 15.1hPa | 2.5V | 00:00:00 | 00:00:00 | 00:00:00 | |
| OE5WHR-10 | 2026-09-06 00:25:04 | 48.88167 | 13.16128 | 129° | 22km/h | 28760m | 6.5m/s | -47.2°C | 3.3% | 15.1hPa | 2.5V | 00:00:00 | 02:20:11 | 00:00:00 | |
| EDDB2-11 | 2026-09-06 00:25:01 | 48.88176 | 13.16110 | 117° | 18km/h | 28740m | 5.8m/s | -47.2°C | 0.9% | 15.2hPa | 2.5V | 00:00:00 | 00:00:00 | 00:00:00 | |
| EDDB2-12 | 2026-09-06 00:24:53 | 48.88178 | 13.16030 | 74° | 18km/h | 28695m | 4.9m/s | -47.1°C | 0.9% | 15.3hPa | 2.5V | 00:00:00 | 00:00:00 | 00:00:00 | |
| PETON7-10 | 2026-09-06 00:24:52 | 48.88178 | 13.16030 | 75° | 20km/h | 28695m | 4.8m/s | -47.1°C | 3.3% | 15.2hPa | 2.5V | 00:00:00 | 00:00:00 | 00:00:00 | |
| OE5HKT-10 | 2026-09-06 00:24:50 | 48.88177 | 13.16016 | 90° | 18km/h | 28684m | 5.8m/s | -47.0°C | 3.2% | 15.2hPa | 2.5V | 00:00:00 | 00:00:00 | 00:00:00 | |
| OE5MMP-10 | 2026-09-06 00:24:48 | 48.88177 | 13.15999 | 90° | 20km/h | 28674m | 4.8m/s | -47.0°C | 3.3% | 15.3hPa | 2.5V | 00:00:00 | 02:19:55 | 00:00:00 | |
| OE5REO-15 | 2026-09-06 00:24:45 | 48.88175 | 13.15982 | 73° | 22km/h | 28663m | 6.4m/s | -47.2°C | 0.9% | 15.3hPa | 2.5V | 03:43:00 | 00:00:00 | 00:00:00 | |
| S52SK | 2026-09-06 00:24:44 | 48.88173 | 13.15974 | 63° | 20km/h | 28657m | 6.0m/s | -47.3°C | 0.9% | 15.3hPa | 2.5V | 00:00:00 | 00:00:00 | 00:00:00 | |
| OE5WHR-10 | 2026-09-06 00:24:43 | 48.88168 | 13.15960 | 62° | 15km/h | 28646m | 5.5m/s | -47.2°C | 3.3% | 15.3hPa | 2.5V | 00:00:00 | 00:00:00 | 00:00:00 | |
| DL3JIN-12 | 2026-09-06 00:24:39 | 48.88163 | 13.15938 | 77° | 18km/h | 28629m | 4.6m/s | -47.3°C | 0.9% | 15.4hPa | 2.5V | 03:43:00 | 00:00:00 | 00:00:00 | |
| OE5MMP-10 | 2026-09-06 00:24:38 | 48.88160 | 13.15927 | 60° | 13km/h | 28619m | 6.5m/s | -47.2°C | 3.4% | 15.4hPa | 2.5V | 00:00:00 | 02:19:45 | 00:00:00 | |
| PETON7-10 | 2026-09-06 00:24:37 | 48.88158 | 13.15924 | 46° | 13km/h | 28612m | 5.8m/s | -47.2°C | 3.4% | 15.4hPa | 2.5V | 00:00:00 | 00:00:00 | 00:00:00 | |
| SONDE2-11 | 2026-09-06 00:24:34 | 48.88153 | 13.15912 | 70° | 13km/h | 28596m | 6.5m/s | -47.1°C | 0.9% | 15.5hPa | 2.5V | 00:00:00 | 00:00:00 | 00:00:00 | |
| EDDB2-11 | 2026-09-06 00:24:30 | 48.88150 | 13.15886 | 52° | 11km/h | 28569m | 6.1m/s | -47.0°C | 0.9% | 15.6hPa | 2.5V | 00:00:00 | 00:00:00 | 00:00:00 | |
| OE5HKT-10 | 2026-09-06 00:24:29 | 48.88150 | 13.15886 | 53° | 9km/h | 28569m | 6.1m/s | -47.0°C | 3.4% | 15.5hPa | 2.5V | 00:00:00 | 02:19:36 | 00:00:00 | |
| OE5MMP-10 | 2026-09-06 00:24:28 | 48.88148 | 13.15883 | 35° | 11km/h | 28563m | 5.7m/s | -46.9°C | 3.3% | 15.5hPa | 2.5V | 03:42:00 | 02:19:35 | 00:00:00 | |
| OE5WHR-10 | 2026-09-06 00:24:22 | 48.88134 | 13.15864 | 49° | 11km/h | 28530m | 6.2m/s | -46.8°C | 3.3% | 15.6hPa | 2.5V | 03:43:00 | 00:00:00 | 00:00:00 | |
| OE5DXL-15 | 2026-09-06 00:24:19 | 48.88131 | 13.15859 | 100° | 11km/h | 28513m | 5.4m/s | -46.7°C | 3.3% | 15.7hPa | 2.5V | 03:43:00 | 00:00:00 | 00:00:00 | |
| OE5MMP-10 | 2026-09-06 00:24:18 | 48.88132 | 13.15858 | 134° | 9km/h | 28507m | 6.7m/s | -46.6°C | 3.2% | 15.7hPa | 2.6V | 00:00:00 | 02:19:25 | 00:00:00 | |
| OE5REO-15 | 2026-09-06 00:24:15 | 48.88134 | 13.15854 | 128° | 7km/h | 28496m | 4.6m/s | -46.7°C | 0.8% | 15.7hPa | 2.6V | 03:44:00 | 00:00:00 | 00:00:00 | |
| SP3BTT-10 | 2026-09-06 00:24:13 | 48.88133 | 13.15849 | 19° | 9km/h | 28479m | 5.5m/s | -46.7°C | 3.3% | 15.7hPa | 2.6V | 03:43:00 | 00:00:00 | 00:00:00 | |
| OE5HKT-10 | 2026-09-06 00:24:08 | 48.88124 | 13.15832 | 87° | 11km/h | 28452m | 5.3m/s | -46.6°C | 3.2% | 15.8hPa | 2.6V | 03:43:00 | 00:00:00 | 00:00:00 | |
| PETON7-10 | 2026-09-06 00:24:07 | 48.88124 | 13.15824 | 90° | 11km/h | 28447m | 4.4m/s | -46.6°C | 3.2% | 15.8hPa | 2.5V | 03:43:00 | 00:00:00 | 00:00:00 | |
| DL6DJ-15 | 2026-09-06 00:24:06 | 48.88123 | 13.15810 | 79° | 15km/h | 28437m | 6.1m/s | -46.6°C | 0.8% | 15.9hPa | 2.6V | 00:00:00 | 00:00:00 | 00:00:00 | |
| SONDE2-11 | 2026-09-06 00:24:03 | 48.88121 | 13.15802 | 48° | 5km/h | 28426m | 5.0m/s | -46.6°C | 0.9% | 15.9hPa | 2.6V | 00:00:00 | 00:00:00 | 00:00:00 | |
| EDDB2-11 | 2026-09-06 00:23:59 | 48.88128 | 13.15809 | 200° | 13km/h | 28398m | 4.6m/s | -46.7°C | 0.8% | 16.0hPa | 2.6V | 00:00:00 | 00:00:00 | 00:00:00 | |
| EDDB2-12 | 2026-09-06 00:23:51 | 48.88119 | 13.15792 | 42° | 5km/h | 28354m | 5.4m/s | -46.7°C | 0.9% | 16.1hPa | 2.6V | 00:00:00 | 00:00:00 | 00:00:00 | |
| SONCRA | 2026-09-06 00:23:50 | 48.88119 | 13.15792 | 42° | 5km/h | 28354m | 5.4m/s | 0°C | -1.0% | -1.0hPa | 2.6V | 00:00:00 | 00:00:00 | 00:00:00 | |
| OE5DXL-15 | 2026-09-06 00:23:49 | 48.88118 | 13.15790 | 23° | 7km/h | 28349m | 5.0m/s | -46.7°C | 3.2% | 16.1hPa | 2.6V | 00:00:00 | 00:00:00 | 00:00:00 | |
| OE5HKT-10 | 2026-09-06 00:23:47 | 48.88118 | 13.15793 | 282° | 9km/h | 28338m | 6.3m/s | -46.7°C | 3.2% | 16.1hPa | 2.6V | 00:00:00 | 00:00:00 | 00:00:00 | |
| OE5MMP-10 | 2026-09-06 00:23:46 | 48.88117 | 13.15795 | 297° | 7km/h | 28332m | 6.1m/s | -46.7°C | 3.2% | 16.1hPa | 2.6V | 03:43:00 | 02:18:53 | 00:00:00 | |
| OE5REO-15 | 2026-09-06 00:23:43 | 48.88114 | 13.15801 | 310° | 9km/h | 28321m | 4.7m/s | -46.8°C | 0.9% | 16.2hPa | 2.6V | 03:44:00 | 00:00:00 | 00:00:00 | |
| OE5WHR-10 | 2026-09-06 00:23:38 | 48.88117 | 13.15806 | 120° | 9km/h | 28289m | 5.1m/s | -46.9°C | 3.2% | 16.2hPa | 2.6V | 00:00:00 | 00:00:00 | 00:00:00 | |
| PETON7-10 | 2026-09-06 00:23:37 | 48.88117 | 13.15804 | 76° | 9km/h | 28283m | 6.5m/s | -46.9°C | 3.3% | 16.2hPa | 2.5V | 00:00:00 | 02:18:44 | 00:00:00 | |
| OE5MMP-10 | 2026-09-06 00:23:36 | 48.88116 | 13.15801 | 40° | 9km/h | 28277m | 5.8m/s | -46.9°C | 3.2% | 16.2hPa | 2.5V | 00:00:00 | 02:18:43 | 00:00:00 | |
| DL6DJ-15 | 2026-09-06 00:23:35 | 48.88113 | 13.15800 | 357° | 4km/h | 28267m | 4.7m/s | -47.0°C | 0.8% | 16.3hPa | 2.5V | 00:00:00 | 00:00:00 | 00:00:00 | |
| SONDE2-11 | 2026-09-06 00:23:32 | 48.88122 | 13.15812 | 210° | 15km/h | 28239m | 5.6m/s | -47.1°C | 0.9% | 16.4hPa | 2.5V | 00:00:00 | 00:00:00 | 00:00:00 | |
| OE5REO-15 | 2026-09-06 00:23:28 | 48.88124 | 13.15814 | 212° | 13km/h | 28233m | 5.9m/s | -47.1°C | 0.9% | 16.4hPa | 2.5V | 03:44:00 | 00:00:00 | 00:00:00 | |
| OE5HKT-10 | 2026-09-06 00:23:26 | 48.88128 | 13.15817 | 198° | 7km/h | 28222m | 5.1m/s | -47.1°C | 3.3% | 16.4hPa | 2.5V | 00:00:00 | 02:18:33 | 00:00:00 | |
| PETON7-10 | 2026-09-06 00:23:22 | 48.88136 | 13.15817 | 178° | 7km/h | 28199m | 5.0m/s | -47.1°C | 3.3% | 16.4hPa | 2.5V | 00:00:00 | 00:00:00 | 00:00:00 | |
| OE5DXL-15 | 2026-09-06 00:23:19 | 48.88140 | 13.15817 | 154° | 11km/h | 28182m | 5.9m/s | -47.1°C | 3.3% | 16.5hPa | 2.5V | 00:00:00 | 00:00:00 | 00:00:00 | |
| BAUMI2-15 | 2026-09-06 00:23:17 | 48.88142 | 13.15816 | 192° | 9km/h | 28172m | 4.9m/s | -47.1°C | 3.3% | 16.5hPa | 2.5V | 00:00:00 | 02:18:24 | 00:00:00 | |
| OE5WHR-10 | 2026-09-06 00:23:16 | 48.88143 | 13.15817 | 196° | 11km/h | 28166m | 6.0m/s | -47.1°C | 3.3% | 16.5hPa | 2.5V | 00:00:00 | 00:00:00 | 00:00:00 | |
| OE5MMP-10 | 2026-09-06 00:23:15 | 48.88146 | 13.15818 | 193° | 9km/h | 28160m | 6.1m/s | -47.1°C | 3.3% | 16.5hPa | 2.5V | 00:00:00 | 02:18:22 | 00:00:00 | |
| BAUMI2-15 | 2026-09-06 00:23:12 | 48.88154 | 13.15818 | 153° | 9km/h | 28145m | 5.9m/s | -47.1°C | 3.3% | 16.6hPa | 2.5V | 00:00:00 | 02:18:19 | 00:00:00 | |
| OE5REO-15 | 2026-09-06 00:23:11 | 48.88154 | 13.15818 | 154° | 9km/h | 28145m | 6.0m/s | -47.1°C | 0.9% | 16.6hPa | 2.5V | 03:44:00 | 00:00:00 | 00:00:00 | |
| PETON7-10 | 2026-09-06 00:23:07 | 48.88150 | 13.15803 | 60° | 11km/h | 28118m | 5.9m/s | -47.0°C | 3.3% | 16.6hPa | 2.5V | 03:44:00 | 00:00:00 | 00:00:00 | |
| OE5HKT-10 | 2026-09-06 00:23:05 | 48.88150 | 13.15799 | 128° | 13km/h | 28107m | 5.1m/s | -47.0°C | 3.3% | 16.7hPa | 2.5V | 00:00:00 | 00:00:00 | 00:00:00 | |
| DL6DJ-15 | 2026-09-06 00:23:04 | 48.88152 | 13.15795 | 116° | 7km/h | 28097m | 5.1m/s | -47.0°C | 0.9% | 16.7hPa | 2.5V | 00:00:00 | 00:00:00 | 00:00:00 | |
| SONDE2-11 | 2026-09-06 00:23:01 | 48.88150 | 13.15782 | 55° | 16km/h | 28079m | 5.7m/s | -47.0°C | 0.9% | 16.8hPa | 2.5V | 00:00:00 | 00:00:00 | 00:00:00 | |
| EDDB2-11 | 2026-09-06 00:22:57 | 48.88138 | 13.15770 | 358° | 9km/h | 28057m | 5.8m/s | -46.9°C | 0.9% | 16.8hPa | 2.5V | 00:00:00 | 00:00:00 | 00:00:00 | |
| SONCRA | 2026-09-06 00:22:48 | 48.88117 | 13.15747 | 68° | 13km/h | 28013m | 6.3m/s | 0°C | -1.0% | -1.0hPa | 2.5V | 00:00:00 | 00:00:00 | 00:00:00 | |
| BAUMI2-15 | 2026-09-06 00:22:47 | 48.88116 | 13.15742 | 74° | 9km/h | 28007m | 5.6m/s | -46.8°C | 3.3% | 16.9hPa | 2.5V | 03:44:00 | 02:17:54 | 00:00:00 | |
| OE5HKT-10 | 2026-09-06 00:22:44 | 48.88112 | 13.15736 | 19° | 7km/h | 27991m | 6.5m/s | -46.8°C | 3.3% | 16.9hPa | 2.5V | 03:44:00 | 00:00:00 | 00:00:00 | |
| BAUMI2-15 | 2026-09-06 00:22:42 | 48.88106 | 13.15734 | 7° | 7km/h | 27980m | 4.7m/s | -46.8°C | 3.3% | 17.0hPa | 2.5V | 00:00:00 | 02:17:49 | 00:00:00 | |
| OE5REO-15 | 2026-09-06 00:22:40 | 48.88102 | 13.15733 | 2° | 11km/h | 27975m | 5.0m/s | -46.8°C | 0.8% | 17.0hPa | 2.6V | 03:44:00 | 00:00:00 | 00:00:00 | |
| PETON7-10 | 2026-09-06 00:22:37 | 48.88098 | 13.15735 | 64° | 5km/h | 27954m | 4.5m/s | -46.8°C | 3.3% | 17.0hPa | 2.6V | 00:00:00 | 00:00:00 | 00:00:00 | |
| DL3JIN-12 | 2026-09-06 00:22:34 | 48.88097 | 13.15732 | 46° | 9km/h | 27943m | 5.7m/s | -46.9°C | 0.9% | 17.1hPa | 2.6V | 03:44:00 | 00:00:00 | 00:00:00 | |
| OE5MMP-10 | 2026-09-06 00:22:33 | 48.88092 | 13.15727 | 29° | 5km/h | 27932m | 4.8m/s | -46.8°C | 3.3% | 17.1hPa | 2.6V | 00:00:00 | 02:17:40 | 00:00:00 | |
| BAUMI2-15 | 2026-09-06 00:22:32 | 48.88090 | 13.15726 | 19° | 5km/h | 27927m | 5.3m/s | -46.9°C | 3.3% | 17.1hPa | 2.6V | 00:00:00 | 02:17:39 | 00:00:00 | |
| SONDE2-11 | 2026-09-06 00:22:30 | 48.88087 | 13.15726 | 301° | 2km/h | 27915m | 5.8m/s | -46.9°C | 0.9% | 17.2hPa | 2.6V | 00:00:00 | 00:00:00 | 00:00:00 | |
| BAUMI2-15 | 2026-09-06 00:22:27 | 48.88087 | 13.15730 | 314° | 5km/h | 27899m | 6.3m/s | -46.9°C | 3.3% | 17.2hPa | 2.6V | 03:44:00 | 02:17:34 | 00:00:00 | |
| EDDB2-11 | 2026-09-06 00:22:26 | 48.88085 | 13.15730 | 13° | 5km/h | 27888m | 4.8m/s | -47.0°C | 0.9% | 17.3hPa | 2.5V | 00:00:00 | 00:00:00 | 00:00:00 | |
| OE5REO-15 | 2026-09-06 00:22:24 | 48.88084 | 13.15730 | 14° | 7km/h | 27888m | 4.8m/s | -47.0°C | 0.9% | 17.3hPa | 2.5V | 03:45:00 | 00:00:00 | 00:00:00 | |
| OE5MMP-10 | 2026-09-06 00:22:23 | 48.88082 | 13.15728 | 25° | 7km/h | 27877m | 5.9m/s | -47.0°C | 3.3% | 17.2hPa | 2.5V | 03:45:00 | 02:17:30 | 00:00:00 | |
| PETON7-10 | 2026-09-06 00:22:22 | 48.88080 | 13.15727 | 26° | 7km/h | 27871m | 6.2m/s | -47.0°C | 3.3% | 17.3hPa | 2.6V | 00:00:00 | 00:00:00 | 00:00:00 | |
| OE5WHR-10 | 2026-09-06 00:22:20 | 48.88080 | 13.15727 | 334° | 13km/h | 27860m | 4.7m/s | -47.0°C | 3.3% | 17.3hPa | 2.6V | 00:00:00 | 00:00:00 | 00:00:00 | |
| OE5DXL-15 | 2026-09-06 00:22:19 | 48.88079 | 13.15728 | 340° | 7km/h | 27855m | 5.1m/s | -47.0°C | 3.3% | 17.3hPa | 2.5V | 03:45:00 | 00:00:00 | 00:00:00 | |
| BAUMI2-15 | 2026-09-06 00:22:17 | 48.88074 | 13.15730 | 345° | 13km/h | 27843m | 5.8m/s | -47.0°C | 3.3% | 17.3hPa | 2.5V | 00:00:00 | 02:17:24 | 00:00:00 | |
| OE5MMP-10 | 2026-09-06 00:22:13 | 48.88063 | 13.15738 | 298° | 7km/h | 27823m | 5.8m/s | -46.9°C | 3.3% | 17.4hPa | 2.5V | 00:00:00 | 02:17:20 | 00:00:00 | |
| BAUMI2-15 | 2026-09-06 00:22:12 | 48.88062 | 13.15740 | 264° | 4km/h | 27818m | 5.1m/s | -46.9°C | 3.3% | 17.4hPa | 2.5V | 00:00:00 | 02:17:19 | 00:00:00 | |
| OE5REO-15 | 2026-09-06 00:22:08 | 48.88062 | 13.15742 | 16° | 4km/h | 27801m | 5.8m/s | -46.9°C | 0.9% | 17.5hPa | 2.6V | 03:45:00 | 00:00:00 | 00:00:00 | |
| PETON7-10 | 2026-09-06 00:22:07 | 48.88059 | 13.15741 | 7° | 9km/h | 27791m | 4.3m/s | -46.9°C | 3.2% | 17.5hPa | 2.6V | 03:45:00 | 02:17:14 | 00:00:00 | |
| DL6DJ-15 | 2026-09-06 00:22:01 | 48.88052 | 13.15749 | 331° | 7km/h | 27760m | 6.3m/s | -46.8°C | 0.9% | 17.6hPa | 2.6V | 00:00:00 | 00:00:00 | 00:00:00 | |
| SONDE2-11 | 2026-09-06 00:21:59 | 48.88044 | 13.15753 | 333° | 11km/h | 27744m | 5.1m/s | -47.0°C | 0.9% | 17.7hPa | 2.6V | 00:00:00 | 00:00:00 | 00:00:00 | |
| EDDB2-11 | 2026-09-06 00:21:54 | 48.88038 | 13.15765 | 296° | 7km/h | 27722m | 6.2m/s | -47.0°C | 0.9% | 17.7hPa | 2.6V | 00:00:00 | 00:00:00 | 00:00:00 | |
| EDDB2-12 | 2026-09-06 00:21:47 | 48.88034 | 13.15789 | 285° | 9km/h | 27677m | 6.0m/s | -47.2°C | 0.9% | 17.8hPa | 2.6V | 00:00:00 | 00:00:00 | 00:00:00 | |
| OE5MMP-10 | 2026-09-06 00:21:46 | 48.88034 | 13.15789 | 286° | 11km/h | 27677m | 5.9m/s | -47.1°C | 3.2% | 17.8hPa | 2.6V | 00:00:00 | 02:16:53 | 00:00:00 | |
| BAUMI2-15 | 2026-09-06 00:21:42 | 48.88029 | 13.15801 | 287° | 16km/h | 27656m | 5.0m/s | -47.3°C | 3.2% | 17.8hPa | 2.6V | 00:00:00 | 02:16:49 | 00:00:00 | |
| OE5HKT-10 | 2026-09-06 00:21:41 | 48.88029 | 13.15806 | 273° | 15km/h | 27651m | 6.5m/s | -47.3°C | 3.2% | 17.8hPa | 2.5V | 00:00:00 | 00:00:00 | 00:00:00 | |
| BAUMI2-15 | 2026-09-06 00:21:37 | 48.88032 | 13.15832 | 253° | 13km/h | 27627m | 6.3m/s | -47.4°C | 3.2% | 17.9hPa | 2.5V | 00:00:00 | 02:16:44 | 00:00:00 | |
| OE5REO-15 | 2026-09-06 00:21:36 | 48.88032 | 13.15832 | 254° | 15km/h | 27627m | 6.3m/s | -47.5°C | 0.9% | 18.0hPa | 2.5V | 03:46:00 | 00:00:00 | 00:00:00 | |
| DL6DJ-15 | 2026-09-06 00:21:30 | 48.88043 | 13.15864 | 239° | 11km/h | 27589m | 6.1m/s | -48.0°C | 0.9% | 18.1hPa | 2.5V | 00:00:00 | 00:00:00 | 00:00:00 | |
| OE5MMP-10 | 2026-09-06 00:21:28 | 48.88045 | 13.15870 | 241° | 18km/h | 27576m | 4.9m/s | -48.0°C | 3.4% | 18.1hPa | 2.5V | 03:45:00 | 02:16:35 | 00:00:00 | |
| BAUMI2-15 | 2026-09-06 00:21:27 | 48.88047 | 13.15873 | 240° | 16km/h | 27572m | 4.4m/s | -48.1°C | 3.4% | 18.1hPa | 2.5V | 03:45:00 | 02:16:34 | 00:00:00 | |
| EDDB2-11 | 2026-09-06 00:21:23 | 48.88058 | 13.15895 | 227° | 22km/h | 27549m | 4.9m/s | -48.3°C | 0.9% | 18.2hPa | 2.6V | 00:00:00 | 00:00:00 | 00:00:00 | |
| PETON7-10 | 2026-09-06 00:21:22 | 48.88062 | 13.15901 | 221° | 22km/h | 27544m | 5.5m/s | -48.3°C | 3.5% | 18.2hPa | 2.6V | 00:00:00 | 02:16:29 | 00:00:00 | |
| OE5HKT-10 | 2026-09-06 00:21:20 | 48.88070 | 13.15908 | 197° | 22km/h | 27532m | 5.6m/s | -48.3°C | 3.5% | 18.2hPa | 2.6V | 03:46:00 | 02:16:27 | 00:00:00 | |
| OE5DXL-15 | 2026-09-06 00:21:19 | 48.88075 | 13.15910 | 185° | 22km/h | 27526m | 5.1m/s | -48.3°C | 3.5% | 18.2hPa | 2.6V | 00:00:00 | 00:00:00 | 00:00:00 | |
| OE5MMP-10 | 2026-09-06 00:21:18 | 48.88080 | 13.15910 | 183° | 22km/h | 27521m | 5.4m/s | -48.3°C | 3.5% | 18.2hPa | 2.6V | 00:00:00 | 02:16:25 | 00:00:00 | |
| EDDB2-12 | 2026-09-06 00:21:15 | 48.88098 | 13.15912 | 181° | 26km/h | 27505m | 4.7m/s | -48.3°C | 0.9% | 18.3hPa | 2.6V | 00:00:00 | 00:00:00 | 00:00:00 | |
| SP3BTT-10 | 2026-09-06 00:21:12 | 48.88115 | 13.15909 | 169° | 18km/h | 27488m | 5.3m/s | -48.2°C | 3.5% | 18.3hPa | 2.6V | 00:00:00 | 00:00:00 | 00:00:00 | |
| DL3JIN-12 | 2026-09-06 00:21:11 | 48.88115 | 13.15909 | 170° | 20km/h | 27488m | 5.4m/s | -48.3°C | 1.0% | 18.3hPa | 2.6V | 03:46:00 | 00:00:00 | 00:00:00 | |
| OE5WHR-10 | 2026-09-06 00:21:09 | 48.88129 | 13.15910 | 198° | 20km/h | 27471m | 6.2m/s | -48.1°C | 3.4% | 18.3hPa | 2.6V | 00:00:00 | 00:00:00 | 00:00:00 | |
| OE5MMP-10 | 2026-09-06 00:21:08 | 48.88134 | 13.15913 | 204° | 24km/h | 27466m | 4.7m/s | -48.1°C | 3.4% | 18.4hPa | 2.6V | 00:00:00 | 02:16:15 | 00:00:00 | |
| PETON7-10 | 2026-09-06 00:21:07 | 48.88139 | 13.15916 | 200° | 22km/h | 27461m | 4.3m/s | -48.1°C | 3.4% | 18.4hPa | 2.6V | 03:46:00 | 00:00:00 | 00:00:00 | |
| OE5REO-15 | 2026-09-06 00:21:04 | 48.88149 | 13.15918 | 177° | 20km/h | 27450m | 6.3m/s | -48.1°C | 0.9% | 18.5hPa | 2.5V | 03:46:00 | 00:00:00 | 00:00:00 | |
| DL6DJ-15 | 2026-09-06 00:20:59 | 48.88186 | 13.15902 | 158° | 24km/h | 27417m | 5.0m/s | -48.0°C | 0.9% | 18.5hPa | 2.5V | 00:00:00 | 00:00:00 | 00:00:00 | |
| SONDE2-11 | 2026-09-06 00:20:57 | 48.88200 | 13.15891 | 146° | 16km/h | 27400m | 4.8m/s | -48.0°C | 0.9% | 18.6hPa | 2.5V | 00:00:00 | 00:00:00 | 00:00:00 | |
| PETON7-10 | 2026-09-06 00:20:52 | 48.88217 | 13.15887 | 185° | 22km/h | 27378m | 4.6m/s | -48.2°C | 3.2% | 18.6hPa | 2.5V | 00:00:00 | 00:00:00 | 00:00:00 | |
| S52SK | 2026-09-06 00:20:51 | 48.88216 | 13.15887 | 185° | 20km/h | 27378m | 4.7m/s | -48.2°C | 0.9% | 18.7hPa | 2.5V | 00:00:00 | 00:00:00 | 00:00:00 | |
| DL3JIN-12 | 2026-09-06 00:20:50 | 48.88222 | 13.15887 | 178° | 20km/h | 27373m | 4.9m/s | -48.3°C | 0.9% | 18.7hPa | 2.5V | 03:47:00 | 00:00:00 | 00:00:00 | |
| OE5DXL-15 | 2026-09-06 00:20:49 | 48.88231 | 13.15882 | 148° | 18km/h | 27361m | 6.1m/s | -48.6°C | 3.3% | 18.6hPa | 2.5V | 00:00:00 | 00:00:00 | 00:00:00 | |
| DO3MHA-11 | 2026-09-06 00:20:48 | 48.88236 | 13.15877 | 138° | 22km/h | 27355m | 5.3m/s | -48.7°C | 3.4% | 18.7hPa | 2.5V | 03:46:00 | 02:15:55 | 00:00:00 | |
| SONCRA | 2026-09-06 00:20:44 | 48.88264 | 13.15836 | 126° | 20km/h | 27325m | 5.2m/s | -49.2°C | 0.9% | 18.8hPa | 2.5V | 00:00:00 | 00:00:00 | 00:00:00 | |
| OE5HKT-10 | 2026-09-06 00:20:38 | 48.88269 | 13.15814 | 108° | 16km/h | 27303m | 5.2m/s | -49.3°C | 3.6% | 18.8hPa | 2.5V | 00:00:00 | 00:00:00 | 00:00:00 | |
| PETON7-10 | 2026-09-06 00:20:37 | 48.88270 | 13.15810 | 129° | 16km/h | 27297m | 6.2m/s | -49.4°C | 3.6% | 18.8hPa | 2.5V | 00:00:00 | 02:15:44 | 00:00:00 | |
| OE5REO-15 | 2026-09-06 00:20:33 | 48.88278 | 13.15799 | 135° | 18km/h | 27281m | 5.8m/s | -49.5°C | 1.0% | 18.9hPa | 2.5V | 03:47:00 | 00:00:00 | 00:00:00 | |
| DL3JIN-12 | 2026-09-06 00:20:30 | 48.88286 | 13.15778 | 119° | 24km/h | 27265m | 4.5m/s | -49.7°C | 1.0% | 19.0hPa | 2.5V | 03:47:00 | 00:00:00 | 00:00:00 | |
| OE5MMP-10 | 2026-09-06 00:20:28 | 48.88296 | 13.15756 | 135° | 13km/h | 27249m | 5.4m/s | -49.8°C | 3.7% | 19.0hPa | 2.5V | 00:00:00 | 02:15:35 | 00:00:00 | |
| OE5WHR-10 | 2026-09-06 00:20:26 | 48.88302 | 13.15747 | 129° | 13km/h | 27238m | 5.0m/s | -49.9°C | 3.7% | 19.0hPa | 2.5V | 03:47:00 | 00:00:00 | 00:00:00 | |
| PETON7-10 | 2026-09-06 00:20:22 | 48.88302 | 13.15730 | 79° | 13km/h | 27217m | 4.0m/s | -50.0°C | 3.8% | 19.1hPa | 2.5V | 00:00:00 | 00:00:00 | 00:00:00 | |
| EDDB2-11 | 2026-09-06 00:20:21 | 48.88302 | 13.15727 | 94° | 9km/h | 27211m | 5.7m/s | -50.1°C | 1.0% | 19.1hPa | 2.5V | 00:00:00 | 00:00:00 | 00:00:00 | |
| OE5DXL-15 | 2026-09-06 00:20:19 | 48.88305 | 13.15721 | 144° | 15km/h | 27200m | 5.5m/s | -50.1°C | 3.8% | 19.1hPa | 2.5V | 03:47:00 | 00:00:00 | 00:00:00 | |
| OE5MMP-10 | 2026-09-06 00:20:18 | 48.88308 | 13.15717 | 146° | 15km/h | 27194m | 5.2m/s | -50.0°C | 3.8% | 19.1hPa | 2.5V | 00:00:00 | 02:15:25 | 00:00:00 | |
| OE5HKT-10 | 2026-09-06 00:20:17 | 48.88312 | 13.15713 | 142° | 15km/h | 27188m | 6.5m/s | -50.0°C | 3.7% | 19.1hPa | 2.5V | 00:00:00 | 02:15:24 | 00:00:00 | |
| SONCRA | 2026-09-06 00:20:13 | 48.88328 | 13.15692 | 150° | 16km/h | 27168m | 6.2m/s | -49.9°C | 1.0% | 19.3hPa | 2.5V | 00:00:00 | 00:00:00 | 00:00:00 | |
| DL3JIN-12 | 2026-09-06 00:20:09 | 48.88336 | 13.15688 | 175° | 4km/h | 27151m | 5.0m/s | -49.9°C | 1.0% | 19.3hPa | 2.5V | 03:47:00 | 00:00:00 | 00:00:00 | |
| OE5MMP-10 | 2026-09-06 00:20:08 | 48.88336 | 13.15686 | 63° | 15km/h | 27140m | 6.2m/s | -49.9°C | 3.7% | 19.3hPa | 2.5V | 03:47:00 | 02:15:15 | 00:00:00 | |
| PETON7-10 | 2026-09-06 00:20:07 | 48.88335 | 13.15684 | 67° | 15km/h | 27134m | 4.8m/s | -49.9°C | 3.7% | 19.3hPa | 2.6V | 03:47:00 | 00:00:00 | 00:00:00 | |
| OE5WHR-10 | 2026-09-06 00:20:05 | 48.88335 | 13.15678 | 119° | 16km/h | 27125m | 5.5m/s | -49.9°C | 3.7% | 19.4hPa | 2.6V | 00:00:00 | 00:00:00 | 00:00:00 | |
| DO3MHA-11 | 2026-09-06 00:20:04 | 48.88337 | 13.15676 | 160° | 13km/h | 27119m | 6.1m/s | -49.9°C | 3.7% | 19.4hPa | 2.6V | 00:00:00 | 02:15:11 | 00:00:00 | |
| OE5REO-15 | 2026-09-06 00:20:02 | 48.88340 | 13.15675 | 175° | 16km/h | 27113m | 5.5m/s | -50.0°C | 1.0% | 19.4hPa | 2.6V | 03:47:00 | 00:00:00 | 00:00:00 | |
| DL6DJ-15 | 2026-09-06 00:19:57 | 48.88371 | 13.15665 | 172° | 15km/h | 27082m | 5.4m/s | -49.9°C | 1.0% | 19.5hPa | 2.6V | 00:00:00 | 00:00:00 | 00:00:00 | |
| SONDE2-11 | 2026-09-06 00:19:55 | 48.88380 | 13.15669 | 217° | 11km/h | 27065m | 4.6m/s | -49.9°C | 1.0% | 19.6hPa | 2.6V | 00:00:00 | 00:00:00 | 00:00:00 | |
| PETON7-10 | 2026-09-06 00:19:52 | 48.88384 | 13.15672 | 179° | 16km/h | 27056m | 5.2m/s | -50.0°C | 3.7% | 19.6hPa | 2.6V | 00:00:00 | 02:14:59 | 00:00:00 | |
| DO3MHA-11 | 2026-09-06 00:19:50 | 48.88390 | 13.15667 | 137° | 16km/h | 27045m | 5.6m/s | -50.1°C | 3.7% | 19.6hPa | 2.6V | 00:00:00 | 02:14:57 | 00:00:00 | |
| OE5DXL-15 | 2026-09-06 00:19:49 | 48.88393 | 13.15662 | 136° | 18km/h | 27039m | 4.3m/s | -50.1°C | 3.8% | 19.6hPa | 2.6V | 00:00:00 | 00:00:00 | 00:00:00 | |
| OE5MMP-10 | 2026-09-06 00:19:48 | 48.88397 | 13.15657 | 143° | 18km/h | 27035m | 3.8m/s | -50.2°C | 3.8% | 19.6hPa | 2.5V | 00:00:00 | 02:14:55 | 00:00:00 | |
| OE5REO-15 | 2026-09-06 00:19:46 | 48.88401 | 13.15653 | 157° | 20km/h | 27031m | 5.3m/s | -50.3°C | 1.0% | 19.7hPa | 2.5V | 03:48:00 | 00:00:00 | 00:00:00 | |
| OE5WHR-10 | 2026-09-06 00:19:44 | 48.88414 | 13.15656 | 213° | 18km/h | 27014m | 5.4m/s | -50.2°C | 3.8% | 19.7hPa | 2.5V | 00:00:00 | 02:14:51 | 00:00:00 | |
| SP3BTT-10 | 2026-09-06 00:19:42 | 48.88422 | 13.15664 | 216° | 20km/h | 27002m | 6.0m/s | -50.2°C | 3.8% | 19.7hPa | 2.5V | 03:47:00 | 00:00:00 | 00:00:00 | |
| DO3MHA-11 | 2026-09-06 00:19:39 | 48.88432 | 13.15668 | 179° | 20km/h | 26987m | 5.2m/s | -50.2°C | 3.8% | 19.8hPa | 2.5V | 03:47:00 | 02:14:46 | 00:00:00 | |
| OE5MMP-10 | 2026-09-06 00:19:38 | 48.88437 | 13.15668 | 174° | 20km/h | 26982m | 5.9m/s | -50.2°C | 3.8% | 19.8hPa | 2.5V | 00:00:00 | 02:14:45 | 00:00:00 | |
| PETON7-10 | 2026-09-06 00:19:37 | 48.88442 | 13.15667 | 168° | 18km/h | 26976m | 5.1m/s | -50.2°C | 3.8% | 19.8hPa | 2.5V | 00:00:00 | 00:00:00 | 00:00:00 | |
| OE5HKT-10 | 2026-09-06 00:19:35 | 48.88451 | 13.15660 | 143° | 18km/h | 26967m | 4.6m/s | -50.2°C | 3.8% | 19.8hPa | 2.6V | 00:00:00 | 00:00:00 | 00:00:00 | |
| OE5REO-15 | 2026-09-06 00:19:30 | 48.88463 | 13.15634 | 126° | 18km/h | 26944m | 4.9m/s | -50.3°C | 1.0% | 19.9hPa | 2.6V | 03:48:00 | 00:00:00 | 00:00:00 | |
| DO3MHA-11 | 2026-09-06 00:19:29 | 48.88470 | 13.15626 | 164° | 18km/h | 26932m | 6.0m/s | -50.2°C | 3.8% | 19.9hPa | 2.6V | 00:00:00 | 02:14:36 | 00:00:00 | |
| OE5MMP-10 | 2026-09-06 00:19:28 | 48.88475 | 13.15625 | 179° | 18km/h | 26927m | 5.0m/s | -50.2°C | 3.9% | 19.9hPa | 2.6V | 03:47:00 | 02:14:35 | 00:00:00 | |
| DL6DJ-15 | 2026-09-06 00:19:26 | 48.88485 | 13.15626 | 181° | 18km/h | 26917m | 5.2m/s | -50.2°C | 1.0% | 20.0hPa | 2.6V | 00:00:00 | 00:00:00 | 00:00:00 | |
| OE5WHR-10 | 2026-09-06 00:19:23 | 48.88495 | 13.15619 | 130° | 18km/h | 26901m | 4.8m/s | -50.1°C | 3.8% | 20.0hPa | 2.6V | 00:00:00 | 00:00:00 | 00:00:00 | |
| PETON7-10 | 2026-09-06 00:19:22 | 48.88498 | 13.15613 | 127° | 16km/h | 26896m | 5.0m/s | -50.0°C | 3.7% | 20.0hPa | 2.5V | 00:00:00 | 00:00:00 | 00:00:00 | |
| DO3MHA-11 | 2026-09-06 00:19:19 | 48.88508 | 13.15596 | 138° | 16km/h | 26880m | 5.1m/s | -50.0°C | 3.7% | 20.1hPa | 2.5V | 00:00:00 | 02:14:26 | 00:00:00 | |
| OE5MMP-10 | 2026-09-06 00:19:18 | 48.88512 | 13.15591 | 136° | 16km/h | 26874m | 5.2m/s | -50.0°C | 3.7% | 20.1hPa | 2.6V | 00:00:00 | 02:14:25 | 00:00:00 | |
| BAUMI2-15 | 2026-09-06 00:19:17 | 48.88514 | 13.15586 | 130° | 13km/h | 26868m | 6.3m/s | -50.0°C | 3.7% | 20.1hPa | 2.6V | 00:00:00 | 02:14:24 | 00:00:00 | |
| S52SK | 2026-09-06 00:19:16 | 48.88515 | 13.15586 | 131° | 16km/h | 26868m | 6.3m/s | -50.0°C | 1.0% | 20.2hPa | 2.6V | 03:48:00 | 00:00:00 | 00:00:00 | |
| OE5REO-15 | 2026-09-06 00:19:15 | 48.88517 | 13.15582 | 125° | 13km/h | 26863m | 5.8m/s | -50.0°C | 1.0% | 20.2hPa | 2.6V | 03:48:00 | 00:00:00 | 00:00:00 | |
| OE5HKT-10 | 2026-09-06 00:19:14 | 48.88521 | 13.15576 | 152° | 20km/h | 26853m | 4.7m/s | -50.0°C | 3.7% | 20.2hPa | 2.6V | 00:00:00 | 02:14:21 | 00:00:00 | |
| BAUMI2-15 | 2026-09-06 00:19:12 | 48.88527 | 13.15574 | 181° | 18km/h | 26841m | 5.9m/s | -49.9°C | 3.7% | 20.2hPa | 2.6V | 00:00:00 | 02:14:19 | 00:00:00 | |
| DK5PH-5 | 2026-09-06 00:19:11 | 48.88532 | 13.15574 | 179° | 20km/h | 26836m | 4.7m/s | -50.0°C | 3.7% | 20.2hPa | 2.6V | 00:00:00 | 02:14:18 | 00:00:00 | |
| DO3MHA-11 | 2026-09-06 00:19:09 | 48.88541 | 13.15570 | 150° | 24km/h | 26826m | 5.9m/s | -50.0°C | 3.7% | 20.3hPa | 2.5V | 00:00:00 | 02:14:16 | 00:00:00 | |
| OE5MMP-10 | 2026-09-06 00:19:08 | 48.88544 | 13.15565 | 128° | 22km/h | 26820m | 6.4m/s | -50.0°C | 3.7% | 20.3hPa | 2.5V | 00:00:00 | 02:14:15 | 00:00:00 | |
| PETON7-10 | 2026-09-06 00:19:07 | 48.88547 | 13.15558 | 109° | 20km/h | 26814m | 5.3m/s | -50.0°C | 3.8% | 20.3hPa | 2.5V | 03:48:00 | 02:14:14 | 00:00:00 | |
| S52SK | 2026-09-06 00:19:06 | 48.88547 | 13.15558 | 110° | 24km/h | 26814m | 5.4m/s | -50.1°C | 1.0% | 20.3hPa | 2.5V | 00:00:00 | 00:00:00 | 00:00:00 | |
| DL6DJ-15 | 2026-09-06 00:18:55 | 48.88577 | 13.15476 | 143° | 16km/h | 26748m | 5.6m/s | -50.0°C | 1.0% | 20.5hPa | 2.5V | 00:00:00 | 00:00:00 | 00:00:00 | |
| PG1ADW-2 | 2026-09-06 00:18:54 | 48.88580 | 13.15472 | 133° | 18km/h | 26743m | 4.3m/s | -50.0°C | 3.7% | 20.5hPa | 2.5V | 00:00:00 | 00:00:00 | 00:00:00 | |
| OE5HKT-10 | 2026-09-06 00:18:53 | 48.88582 | 13.15466 | 117° | 20km/h | 26738m | 5.0m/s | -50.0°C | 3.7% | 20.5hPa | 2.5V | 00:00:00 | 00:00:00 | 00:00:00 | |
| PETON7-10 | 2026-09-06 00:18:52 | 48.88584 | 13.15459 | 103° | 18km/h | 26732m | 6.7m/s | -49.9°C | 3.7% | 20.6hPa | 2.5V | 00:00:00 | 00:00:00 | 00:00:00 | |
| DO3MHA-11 | 2026-09-06 00:18:49 | 48.88586 | 13.15432 | 99° | 20km/h | 26717m | 4.2m/s | -50.0°C | 3.7% | 20.6hPa | 2.6V | 00:00:00 | 02:13:56 | 00:00:00 | |
| OE5MMP-10 | 2026-09-06 00:18:48 | 48.88587 | 13.15424 | 113° | 18km/h | 26712m | 6.1m/s | -50.0°C | 3.7% | 20.6hPa | 2.5V | 03:48:00 | 02:13:55 | 00:00:00 | |
| BAUMI2-15 | 2026-09-06 00:18:47 | 48.88590 | 13.15418 | 135° | 22km/h | 26706m | 6.1m/s | -50.0°C | 3.7% | 20.6hPa | 2.5V | 03:48:00 | 02:13:54 | 00:00:00 | |
| OE5REO-15 | 2026-09-06 00:18:44 | 48.88599 | 13.15410 | 163° | 22km/h | 26694m | 5.2m/s | -50.1°C | 1.0% | 20.7hPa | 2.5V | 03:49:00 | 00:00:00 | 00:00:00 | |
| BAUMI2-15 | 2026-09-06 00:18:42 | 48.88614 | 13.15402 | 155° | 13km/h | 26678m | 5.0m/s | -50.1°C | 3.7% | 20.7hPa | 2.5V | 00:00:00 | 02:13:49 | 00:00:00 | |
| OE5WHR-10 | 2026-09-06 00:18:41 | 48.88618 | 13.15399 | 154° | 16km/h | 26672m | 5.2m/s | -50.1°C | 3.8% | 20.7hPa | 2.6V | 00:00:00 | 02:13:48 | 00:00:00 | |
| SONCRA | 2026-09-06 00:18:40 | 48.88623 | 13.15395 | 145° | 9km/h | 26661m | 5.3m/s | -50.3°C | 1.0% | 20.8hPa | 2.6V | 00:00:00 | 00:00:00 | 00:00:00 | |
| OE5DRO-10 | 2026-09-06 00:18:39 | 48.88623 | 13.15395 | 146° | 16km/h | 26661m | 5.3m/s | -50.2°C | 3.8% | 20.8hPa | 2.6V | 00:00:00 | 00:00:00 | 00:00:00 | |
| OE5MMP-10 | 2026-09-06 00:18:38 | 48.88625 | 13.15392 | 121° | 20km/h | 26656m | 4.0m/s | -50.2°C | 3.8% | 20.8hPa | 2.6V | 00:00:00 | 02:13:45 | 00:00:00 | |
| BAUMI2-15 | 2026-09-06 00:18:37 | 48.88626 | 13.15387 | 106° | 24km/h | 26651m | 5.3m/s | -50.2°C | 3.8% | 20.8hPa | 2.5V | 00:00:00 | 02:13:44 | 00:00:00 | |
| OE5HKT-10 | 2026-09-06 00:18:32 | 48.88634 | 13.15344 | 122° | 16km/h | 26623m | 6.0m/s | -50.2°C | 3.8% | 20.9hPa | 2.5V | 03:48:00 | 00:00:00 | 00:00:00 | |
| OE5REO-15 | 2026-09-06 00:18:29 | 48.88640 | 13.15334 | 147° | 16km/h | 26612m | 4.7m/s | -50.3°C | 1.0% | 21.0hPa | 2.5V | 03:49:00 | 00:00:00 | 00:00:00 | |
| OE5MMP-10 | 2026-09-06 00:18:28 | 48.88648 | 13.15327 | 147° | 16km/h | 26602m | 5.6m/s | -50.2°C | 3.8% | 21.0hPa | 2.5V | 00:00:00 | 02:13:35 | 00:00:00 | |
| BAUMI2-15 | 2026-09-06 00:18:27 | 48.88651 | 13.15323 | 138° | 16km/h | 26596m | 5.7m/s | -50.2°C | 3.8% | 21.0hPa | 2.5V | 03:48:00 | 02:13:34 | 00:00:00 | |
| DL6DJ-15 | 2026-09-06 00:18:24 | 48.88659 | 13.15307 | 119° | 15km/h | 26580m | 5.2m/s | -50.2°C | 1.0% | 21.1hPa | 2.6V | 00:00:00 | 00:00:00 | 00:00:00 | |
| PETON7-10 | 2026-09-06 00:18:22 | 48.88662 | 13.15298 | 113° | 18km/h | 26569m | 5.4m/s | -50.2°C | 3.8% | 21.1hPa | 2.6V | 00:00:00 | 02:13:29 | 00:00:00 | |
| DO3MHA-11 | 2026-09-06 00:18:21 | 48.88663 | 13.15293 | 107° | 16km/h | 26563m | 4.7m/s | -50.3°C | 3.9% | 21.1hPa | 2.6V | 00:00:00 | 02:13:28 | 00:00:00 | |
| OE5MMP-10 | 2026-09-06 00:18:18 | 48.88667 | 13.15273 | 107° | 18km/h | 26547m | 5.1m/s | -50.3°C | 3.9% | 21.1hPa | 2.6V | 00:00:00 | 02:13:25 | 00:00:00 | |
| BAUMI2-15 | 2026-09-06 00:18:17 | 48.88669 | 13.15265 | 111° | 18km/h | 26542m | 4.2m/s | -50.2°C | 3.8% | 21.2hPa | 2.6V | 00:00:00 | 02:13:24 | 00:00:00 | |
| OE5REO-15 | 2026-09-06 00:18:13 | 48.88676 | 13.15245 | 136° | 15km/h | 26526m | 5.9m/s | -50.2°C | 1.0% | 21.3hPa | 2.6V | 03:49:00 | 00:00:00 | 00:00:00 | |
| PG1ADW-2 | 2026-09-06 00:18:12 | 48.88681 | 13.15239 | 137° | 18km/h | 26516m | 4.3m/s | -50.1°C | 3.8% | 21.3hPa | 2.6V | 00:00:00 | 00:00:00 | 00:00:00 | |
| DO3MHA-11 | 2026-09-06 00:18:11 | 48.88683 | 13.15235 | 123° | 18km/h | 26511m | 5.1m/s | -50.1°C | 3.8% | 21.3hPa | 2.6V | 03:49:00 | 02:13:18 | 00:00:00 | |
| SONCRA | 2026-09-06 00:18:09 | 48.88688 | 13.15213 | 103° | 26km/h | 26494m | 4.4m/s | -50.1°C | 1.0% | 21.4hPa | 2.5V | 00:00:00 | 00:00:00 | 00:00:00 | |
| OE5MMP-10 | 2026-09-06 00:18:08 | 48.88688 | 13.15212 | 104° | 16km/h | 26494m | 4.4m/s | -50.1°C | 3.8% | 21.3hPa | 2.5V | 03:49:00 | 02:13:15 | 00:00:00 | |
| PETON7-10 | 2026-09-06 00:18:07 | 48.88689 | 13.15203 | 106° | 16km/h | 26490m | 4.4m/s | -50.0°C | 3.8% | 21.3hPa | 2.6V | 03:49:00 | 00:00:00 | 00:00:00 | |
| DL6DJ-15 | 2026-09-06 00:17:53 | 48.88719 | 13.15127 | 110° | 22km/h | 26414m | 6.6m/s | -49.9°C | 1.0% | 21.6hPa | 2.6V | 00:00:00 | 00:00:00 | 00:00:00 | |
| PETON7-10 | 2026-09-06 00:17:52 | 48.88721 | 13.15119 | 107° | 18km/h | 26408m | 5.5m/s | -49.9°C | 3.7% | 21.6hPa | 2.6V | 00:00:00 | 00:00:00 | 00:00:00 | |
| OE5HKT-10 | 2026-09-06 00:17:50 | 48.88724 | 13.15103 | 113° | 16km/h | 26398m | 5.5m/s | -49.9°C | 3.7% | 21.7hPa | 2.6V | 00:00:00 | 00:00:00 | 00:00:00 | |
| OE5MMP-10 | 2026-09-06 00:17:48 | 48.88728 | 13.15094 | 138° | 18km/h | 26386m | 4.8m/s | -49.9°C | 3.7% | 21.7hPa | 2.5V | 00:00:00 | 02:12:55 | 00:00:00 | |
| BAUMI2-15 | 2026-09-06 00:17:47 | 48.88730 | 13.15091 | 142° | 16km/h | 26381m | 4.5m/s | -49.9°C | 3.7% | 21.7hPa | 2.5V | 03:49:00 | 02:12:54 | 00:00:00 | |
| BAUMI2-15 | 2026-09-06 00:17:42 | 48.88742 | 13.15063 | 122° | 20km/h | 26355m | 5.2m/s | -50.1°C | 3.8% | 21.8hPa | 2.5V | 00:00:00 | 02:12:49 | 00:00:00 | |
| DK5PH-5 | 2026-09-06 00:17:41 | 48.88745 | 13.15056 | 128° | 18km/h | 26349m | 6.3m/s | -50.1°C | 3.8% | 21.8hPa | 2.5V | 00:00:00 | 02:12:48 | 00:00:00 | |
| OE5DRO-10 | 2026-09-06 00:17:39 | 48.88752 | 13.15044 | 130° | 16km/h | 26338m | 4.6m/s | -50.0°C | 3.8% | 21.9hPa | 2.5V | 00:00:00 | 00:00:00 | 00:00:00 | |
| SONCRA | 2026-09-06 00:17:38 | 48.88756 | 13.15033 | 101° | 16km/h | 26327m | 6.3m/s | -50.1°C | 1.0% | 21.9hPa | 2.5V | 00:00:00 | 00:00:00 | 00:00:00 | |
| PETON7-10 | 2026-09-06 00:17:37 | 48.88756 | 13.15032 | 102° | 18km/h | 26327m | 6.2m/s | -50.0°C | 3.8% | 21.9hPa | 2.5V | 00:00:00 | 02:12:44 | 00:00:00 | |
| BAUMI2-15 | 2026-09-06 00:17:32 | 48.88757 | 13.15001 | 113° | 16km/h | 26301m | 5.3m/s | -49.9°C | 3.8% | 22.0hPa | 2.5V | 00:00:00 | 02:12:39 | 00:00:00 | |
| PG1ADW-2 | 2026-09-06 00:17:30 | 48.88760 | 13.14990 | 111° | 20km/h | 26292m | 4.7m/s | -49.9°C | 3.7% | 22.0hPa | 2.5V | 00:00:00 | 00:00:00 | 00:00:00 | |
| OE5HKT-10 | 2026-09-06 00:17:29 | 48.88761 | 13.14984 | 102° | 20km/h | 26286m | 6.1m/s | -49.9°C | 3.8% | 22.0hPa | 2.5V | 00:00:00 | 00:00:00 | 00:00:00 | |
| OE5MMP-10 | 2026-09-06 00:17:28 | 48.88761 | 13.14977 | 92° | 16km/h | 26280m | 6.0m/s | -49.9°C | 3.8% | 22.0hPa | 2.5V | 03:49:00 | 02:12:35 | 00:00:00 | |
| BAUMI2-15 | 2026-09-06 00:17:27 | 48.88761 | 13.14969 | 87° | 20km/h | 26275m | 4.8m/s | -49.8°C | 3.7% | 22.1hPa | 2.5V | 03:49:00 | 02:12:34 | 00:00:00 | |
| SP3BTT-10 | 2026-09-06 00:17:26 | 48.88761 | 13.14960 | 87° | 18km/h | 26270m | 4.7m/s | -49.8°C | 3.7% | 22.1hPa | 2.5V | 00:00:00 | 00:00:00 | 00:00:00 | |
| PETON7-10 | 2026-09-06 00:17:22 | 48.88760 | 13.14934 | 80° | 20km/h | 26248m | 5.0m/s | -49.8°C | 3.7% | 22.1hPa | 2.5V | 00:00:00 | 00:00:00 | 00:00:00 | |
| OE5DRO-10 | 2026-09-06 00:17:20 | 48.88758 | 13.14925 | 65° | 20km/h | 26237m | 5.5m/s | -49.8°C | 3.7% | 22.2hPa | 2.6V | 00:00:00 | 00:00:00 | 00:00:00 | |
| OE5MMP-10 | 2026-09-06 00:17:18 | 48.88756 | 13.14913 | 82° | 22km/h | 26227m | 5.3m/s | -49.9°C | 3.7% | 22.2hPa | 2.5V | 00:00:00 | 02:12:25 | 00:00:00 | |
| OE5WHR-10 | 2026-09-06 00:17:17 | 48.88756 | 13.14907 | 95° | 22km/h | 26221m | 6.4m/s | -49.9°C | 3.7% | 22.2hPa | 2.5V | 00:00:00 | 00:00:00 | 00:00:00 | |
| EDDB2-11 | 2026-09-06 00:17:15 | 48.88757 | 13.14891 | 101° | 24km/h | 26210m | 4.7m/s | -50.0°C | 1.0% | 22.3hPa | 2.5V | 00:00:00 | 00:00:00 | 00:00:00 | |
| DK5PH-5 | 2026-09-06 00:17:11 | 48.88757 | 13.14850 | 81° | 20km/h | 26189m | 5.0m/s | -49.9°C | 3.7% | 22.4hPa | 2.5V | 00:00:00 | 02:12:18 | 00:00:00 | |
| PG1ADW-2 | 2026-09-06 00:17:10 | 48.88756 | 13.14842 | 80° | 18km/h | 26183m | 6.1m/s | -49.9°C | 3.7% | 22.4hPa | 2.5V | 00:00:00 | 02:12:17 | 00:00:00 | |
| OE5HKT-10 | 2026-09-06 00:17:08 | 48.88755 | 13.14829 | 78° | 18km/h | 26172m | 4.9m/s | -50.0°C | 3.8% | 22.4hPa | 2.6V | 03:50:00 | 02:12:15 | 00:00:00 | |
| PETON7-10 | 2026-09-06 00:17:07 | 48.88754 | 13.14823 | 74° | 20km/h | 26167m | 4.7m/s | -50.0°C | 3.8% | 22.4hPa | 2.6V | 03:50:00 | 00:00:00 | 00:00:00 | |
| DL3JIN-12 | 2026-09-06 00:17:05 | 48.88753 | 13.14818 | 70° | 16km/h | 26162m | 6.1m/s | -50.0°C | 1.1% | 22.5hPa | 2.6V | 03:50:00 | 00:00:00 | 00:00:00 | |
| DL6DJ-15 | 2026-09-06 00:16:51 | 48.88721 | 13.14712 | 31° | 15km/h | 26075m | 5.4m/s | -49.9°C | 1.0% | 22.8hPa | 2.6V | 00:00:00 | 00:00:00 | 00:00:00 | |
| PG1ADW-2 | 2026-09-06 00:16:50 | 48.88721 | 13.14712 | 32° | 20km/h | 26075m | 5.4m/s | -49.9°C | 3.8% | 22.7hPa | 2.6V | 00:00:00 | 00:00:00 | 00:00:00 | |
| OE5MMP-10 | 2026-09-06 00:16:48 | 48.88714 | 13.14703 | 56° | 20km/h | 26066m | 4.0m/s | -49.9°C | 3.8% | 22.7hPa | 2.6V | 03:50:00 | 02:11:55 | 00:00:00 | |
| OE5HKT-10 | 2026-09-06 00:16:47 | 48.88712 | 13.14696 | 69° | 20km/h | 26062m | 5.4m/s | -49.9°C | 3.7% | 22.8hPa | 2.6V | 00:00:00 | 00:00:00 | 00:00:00 | |
| EDDB2-11 | 2026-09-06 00:16:44 | 48.88711 | 13.14674 | 96° | 18km/h | 26044m | 4.6m/s | -49.8°C | 1.0% | 22.9hPa | 2.6V | 00:00:00 | 00:00:00 | 00:00:00 | |
| OE5DRO-10 | 2026-09-06 00:16:42 | 48.88710 | 13.14660 | 72° | 22km/h | 26034m | 5.7m/s | -49.7°C | 3.7% | 22.9hPa | 2.6V | 03:50:00 | 00:00:00 | 00:00:00 | |
| OE5REO-15 | 2026-09-06 00:16:40 | 48.88708 | 13.14652 | 54° | 22km/h | 26029m | 5.9m/s | -49.7°C | 1.0% | 23.0hPa | 2.6V | 03:50:00 | 00:00:00 | 00:00:00 | |
| DO3MHA-11 | 2026-09-06 00:16:38 | 48.88692 | 13.14637 | 21° | 20km/h | 26013m | 6.1m/s | -49.6°C | 3.7% | 23.0hPa | 2.6V | 00:00:00 | 02:11:45 | 00:00:00 | |
| PETON7-10 | 2026-09-06 00:16:37 | 48.88687 | 13.14634 | 15° | 22km/h | 26007m | 5.8m/s | -49.6°C | 3.6% | 23.0hPa | 2.6V | 00:00:00 | 00:00:00 | 00:00:00 | |
| OE5WHR-10 | 2026-09-06 00:16:35 | 48.88678 | 13.14631 | 15° | 22km/h | 25997m | 4.7m/s | -49.7°C | 3.7% | 23.0hPa | 2.5V | 00:00:00 | 02:11:42 | 00:00:00 | |
| PG1ADW-2 | 2026-09-06 00:16:30 | 48.88660 | 13.14609 | 74° | 20km/h | 25969m | 6.5m/s | -49.9°C | 3.7% | 23.1hPa | 2.5V | 03:50:00 | 00:00:00 | 00:00:00 | |
| DO3MHA-11 | 2026-09-06 00:16:28 | 48.88658 | 13.14595 | 77° | 26km/h | 25959m | 4.4m/s | -49.9°C | 3.7% | 23.2hPa | 2.5V | 03:50:00 | 02:11:35 | 00:00:00 | |
| OE5HKT-10 | 2026-09-06 00:16:26 | 48.88653 | 13.14581 | 48° | 22km/h | 25948m | 6.0m/s | -49.9°C | 3.7% | 23.2hPa | 2.5V | 00:00:00 | 00:00:00 | 00:00:00 | |
| DL3JIN-12 | 2026-09-06 00:16:24 | 48.88648 | 13.14575 | 34° | 27km/h | 25942m | 5.2m/s | -49.9°C | 1.0% | 23.3hPa | 2.5V | 03:51:00 | 00:00:00 | 00:00:00 | |
| OE5DRO-10 | 2026-09-06 00:16:23 | 48.88635 | 13.14566 | 17° | 22km/h | 25931m | 5.8m/s | -49.9°C | 3.7% | 23.2hPa | 2.5V | 00:00:00 | 00:00:00 | 00:00:00 | |
| PETON7-10 | 2026-09-06 00:16:22 | 48.88628 | 13.14563 | 12° | 20km/h | 25926m | 5.8m/s | -49.9°C | 3.7% | 23.3hPa | 2.5V | 00:00:00 | 00:00:00 | 00:00:00 | |
| DL6DJ-15 | 2026-09-06 00:16:20 | 48.88609 | 13.14558 | 14° | 24km/h | 25910m | 5.8m/s | -50.0°C | 1.0% | 23.4hPa | 2.5V | 00:00:00 | 00:00:00 | 00:00:00 | |
| DO3MHA-11 | 2026-09-06 00:16:18 | 48.88603 | 13.14555 | 24° | 18km/h | 25905m | 4.8m/s | -49.9°C | 3.7% | 23.3hPa | 2.5V | 00:00:00 | 02:11:25 | 00:00:00 | |
| OE5WHR-10 | 2026-09-06 00:16:14 | 48.88595 | 13.14538 | 98° | 18km/h | 25883m | 5.0m/s | -50.0°C | 3.7% | 23.4hPa | 2.5V | 03:51:00 | 00:00:00 | 00:00:00 | |
| EDDB2-11 | 2026-09-06 00:16:13 | 48.88596 | 13.14533 | 90° | 13km/h | 25879m | 3.9m/s | -50.1°C | 1.0% | 23.5hPa | 2.6V | 00:00:00 | 00:00:00 | 00:00:00 | |
| SP3BTT-10 | 2026-09-06 00:16:11 | 48.88592 | 13.14523 | 46° | 11km/h | 25869m | 5.6m/s | -50.1°C | 3.7% | 23.5hPa | 2.6V | 00:00:00 | 00:00:00 | 00:00:00 | |
| PG1ADW-2 | 2026-09-06 00:16:10 | 48.88588 | 13.14519 | 27° | 20km/h | 25864m | 5.2m/s | -50.2°C | 3.7% | 23.5hPa | 2.6V | 00:00:00 | 00:00:00 | 00:00:00 | |
| OE5REO-15 | 2026-09-06 00:16:09 | 48.88588 | 13.14519 | 28° | 24km/h | 25864m | 5.2m/s | -50.2°C | 1.0% | 23.5hPa | 2.5V | 03:51:00 | 00:00:00 | 00:00:00 | |
| OE5MMP-10 | 2026-09-06 00:16:08 | 48.88575 | 13.14513 | 7° | 18km/h | 25854m | 5.4m/s | -50.2°C | 3.7% | 23.5hPa | 2.5V | 03:51:00 | 02:11:15 | 00:00:00 | |
| PETON7-10 | 2026-09-06 00:16:07 | 48.88568 | 13.14512 | 359° | 18km/h | 25848m | 5.3m/s | -50.2°C | 3.7% | 23.6hPa | 2.5V | 03:51:00 | 02:11:14 | 00:00:00 | |
| OE5HKT-10 | 2026-09-06 00:16:05 | 48.88557 | 13.14514 | 352° | 18km/h | 25838m | 4.5m/s | -50.2°C | 3.7% | 23.6hPa | 2.5V | 00:00:00 | 02:11:12 | 00:00:00 | |
| OE5DRO-10 | 2026-09-06 00:16:04 | 48.88553 | 13.14514 | 8° | 18km/h | 25834m | 4.4m/s | -50.2°C | 3.7% | 23.6hPa | 2.5V | 00:00:00 | 00:00:00 | 00:00:00 | |
| DL6DJ-15 | 2026-09-06 00:15:49 | 48.88494 | 13.14474 | 346° | 18km/h | 25753m | 4.4m/s | -50.9°C | 1.1% | 24.0hPa | 2.5V | 00:00:00 | 00:00:00 | 00:00:00 | |
| OE5MMP-10 | 2026-09-06 00:15:48 | 48.88494 | 13.14474 | 347° | 16km/h | 25753m | 4.3m/s | -50.8°C | 3.9% | 23.9hPa | 2.5V | 00:00:00 | 02:10:55 | 00:00:00 | |
| DO3MHA-11 | 2026-09-06 00:15:47 | 48.88490 | 13.14475 | 355° | 18km/h | 25749m | 4.4m/s | -50.8°C | 3.9% | 23.9hPa | 2.5V | 03:51:00 | 02:10:54 | 00:00:00 | |
| OE5DRO-10 | 2026-09-06 00:15:45 | 48.88482 | 13.14472 | 33° | 18km/h | 25739m | 5.5m/s | -50.9°C | 3.9% | 24.0hPa | 2.6V | 00:00:00 | 00:00:00 | 00:00:00 | |
| OE5HKT-10 | 2026-09-06 00:15:44 | 48.88479 | 13.14468 | 47° | 16km/h | 25733m | 5.0m/s | -50.9°C | 3.9% | 24.0hPa | 2.6V | 03:51:00 | 00:00:00 | 00:00:00 | |
| DL3JIN-12 | 2026-09-06 00:15:43 | 48.88479 | 13.14468 | 47° | 18km/h | 25733m | 5.0m/s | -51.0°C | 1.1% | 24.0hPa | 2.6V | 03:52:00 | 00:00:00 | 00:00:00 | |
| EDDB2-11 | 2026-09-06 00:15:42 | 48.88473 | 13.14456 | 52° | 18km/h | 25723m | 5.6m/s | -51.0°C | 1.1% | 24.0hPa | 2.6V | 00:00:00 | 00:00:00 | 00:00:00 | |
| OE5MMP-10 | 2026-09-06 00:15:38 | 48.88458 | 13.14445 | 7° | 16km/h | 25703m | 5.3m/s | -50.9°C | 3.9% | 24.1hPa | 2.6V | 00:00:00 | 02:10:45 | 00:00:00 | |
| DO3MHA-11 | 2026-09-06 00:15:37 | 48.88452 | 13.14444 | 5° | 16km/h | 25697m | 6.0m/s | -50.9°C | 3.9% | 24.1hPa | 2.6V | 00:00:00 | 02:10:44 | 00:00:00 | |
| DF8AY | 2026-09-06 00:15:19 | 48.88381 | 13.14436 | 355° | 15km/h | 25609m | 4.1m/s | -51.2°C | 0.8% | 24.5hPa | 2.6V | 03:56:45 | 02:10:26 | 00:00:00 | |
| DF8AY | 2026-09-06 00:15:06 | 48.88363 | 13.14432 | 336° | 9km/h | 25542m | 6m/s | -51.2°C | 0.7% | 24.7hPa | 2.5V | 03:56:45 | 02:10:13 | 00:00:00 | |
| DO3MHA-11 | 2026-09-06 00:15:06 | 48.88362 | 13.14432 | 337° | 5km/h | 25542m | 5.9m/s | -51.2°C | 3.9% | 24.7hPa | 2.6V | 03:52:00 | 02:10:13 | 00:00:00 | |
| OE5REO-15 | 2026-09-06 00:15:05 | 48.88362 | 13.14432 | 337° | 9km/h | 25542m | 6.0m/s | -51.2°C | 1.1% | 24.7hPa | 2.6V | 03:52:00 | 00:00:00 | 00:00:00 | |
| DF8AY | 2026-09-06 00:14:53 | 48.88359 | 13.14446 | 10° | 4km/h | 25451m | 4.7m/s | -51.4°C | 0.7% | 25.1hPa | 2.6V | 03:56:45 | 02:09:55 | 00:00:00 | |
| DL6DJ-15 | 2026-09-06 00:14:46 | 48.88359 | 13.14447 | 232° | 5km/h | 25440m | 5.6m/s | -51.5°C | 1.1% | 25.1hPa | 2.5V | 00:00:00 | 00:00:00 | 00:00:00 | |
| DO3MHA-11 | 2026-09-06 00:14:44 | 48.88361 | 13.14452 | 255° | 9km/h | 25430m | 4.8m/s | -51.5°C | 4.0% | 25.1hPa | 2.5V | 00:00:00 | 02:09:51 | 00:00:00 | |
| OE5DRO-10 | 2026-09-06 00:14:43 | 48.88361 | 13.14456 | 277° | 7km/h | 25425m | 5.9m/s | -51.5°C | 4.0% | 25.2hPa | 2.5V | 00:00:00 | 00:00:00 | 00:00:00 | |
| DF8AY | 2026-09-06 00:14:29 | 48.88358 | 13.14484 | 265° | 5km/h | 25331m | 6m/s | -51.6°C | 0.7% | 25.6hPa | 2.5V | 03:56:45 | 02:09:32 | 00:00:00 | |
| DF8AY | 2026-09-06 00:14:19 | 48.88355 | 13.14478 | 98° | 11km/h | 25301m | 4.6m/s | -51.8°C | 0.6% | 25.7hPa | 2.5V | 03:56:45 | 02:09:26 | 00:00:00 | |
| DF8AY | 2026-09-06 00:14:03 | 48.88378 | 13.14414 | 109° | 22km/h | 25216m | 5.9m/s | -52.2°C | 0.8% | 26hPa | 2.5V | 03:56:45 | 02:09:10 | 00:00:00 | |
| DF8AY | 2026-09-06 00:13:53 | 48.88405 | 13.14348 | 98° | 18km/h | 25163m | 5m/s | -52.1°C | 0.7% | 26.2hPa | 2.5V | 03:56:45 | 02:09:00 | 00:00:00 | |
| DF8AY | 2026-09-06 00:13:37 | 48.88408 | 13.14236 | 92° | 18km/h | 25078m | 4.7m/s | -52.4°C | 0.7% | 26.6hPa | 2.6V | 03:56:45 | 02:08:44 | 00:00:00 | |
| DF8AY | 2026-09-06 00:13:25 | 48.88380 | 13.14159 | 59° | 22km/h | 25014m | 5.4m/s | -52.4°C | 0.8% | 26.8hPa | 2.5V | 03:56:45 | 02:08:32 | 00:00:00 | |
| DF8AY | 2026-09-06 00:13:09 | 48.88323 | 13.14080 | 39° | 20km/h | 24928m | 5.8m/s | -52.3°C | 0.9% | 27.2hPa | 2.5V | 03:56:45 | 02:08:16 | 00:00:00 | |
| DF8AY | 2026-09-06 00:12:56 | 48.88273 | 13.14056 | 15° | 18km/h | 24859m | 5.2m/s | -52°C | 0.8% | 27.5hPa | 2.6V | 03:56:45 | 02:08:03 | 00:00:00 | |
| DF8AY | 2026-09-06 00:12:45 | 48.88221 | 13.14064 | 349° | 16km/h | 24772m | 4.7m/s | -51.5°C | 0.7% | 27.9hPa | 2.5V | 03:56:45 | 02:07:47 | 00:00:00 | |
| DF8AY | 2026-09-06 00:12:33 | 48.88197 | 13.14069 | 335° | 18km/h | 24736m | 5.9m/s | -51.6°C | 0.8% | 28hPa | 2.5V | 03:56:45 | 02:07:40 | 00:00:00 | |
| DF8AY | 2026-09-06 00:12:21 | 48.88165 | 13.14116 | 303° | 13km/h | 24672m | 5.6m/s | -52°C | 0.7% | 28.3hPa | 2.6V | 03:56:45 | 02:07:28 | 00:00:00 | |
| DF8AY | 2026-09-06 00:12:11 | 48.88143 | 13.14163 | 304° | 5km/h | 24618m | 6m/s | -52.4°C | 0.8% | 28.5hPa | 2.6V | 03:56:45 | 02:07:18 | 00:00:00 | |
| DF8AY | 2026-09-06 00:11:59 | 48.88145 | 13.14215 | 255° | 18km/h | 24555m | 6m/s | -52.5°C | 0.8% | 28.8hPa | 2.5V | 03:56:45 | 02:07:06 | 00:00:00 | |
| DF8AY | 2026-09-06 00:11:49 | 48.88172 | 13.14231 | 230° | 15km/h | 24502m | 4.9m/s | -52.5°C | 0.9% | 29.1hPa | 2.5V | 03:56:45 | 02:06:56 | 00:00:00 | |
| DF8AY | 2026-09-06 00:11:37 | 48.88210 | 13.14270 | 172° | 18km/h | 24439m | 4.3m/s | -52.3°C | 0.9% | 29.4hPa | 2.6V | 03:56:45 | 02:06:44 | 00:00:00 | |
| DF8AY | 2026-09-06 00:11:26 | 48.88247 | 13.14305 | 186° | 15km/h | 24383m | 5.7m/s | -52.4°C | 0.8% | 29.6hPa | 2.6V | 03:56:45 | 02:06:33 | 00:00:00 | |
| DF8AY | 2026-09-06 00:11:16 | 48.88281 | 13.14325 | 188° | 11km/h | 24331m | 4.9m/s | -52.7°C | 0.8% | 29.9hPa | 2.6V | 03:56:45 | 02:06:23 | 00:00:00 | |
| DF8AY | 2026-09-06 00:11:06 | 48.88298 | 13.14305 | 281° | 4km/h | 24279m | 5.3m/s | -52.7°C | 0.9% | 30.1hPa | 2.6V | 03:56:45 | 02:06:13 | 00:00:00 | |
| DF8AY | 2026-09-06 00:10:55 | 48.88307 | 13.14321 | 195° | 13km/h | 24223m | 4.9m/s | -52.8°C | 0.9% | 30.4hPa | 2.5V | 03:56:45 | 02:06:02 | 00:00:00 | |
| SONCRA | 2026-09-06 00:10:54 | 48.88310 | 13.14323 | 197° | 13km/h | 24218m | 4.2m/s | -52.8°C | 1.2% | 30.4hPa | 2.6V | 00:00:00 | 00:00:00 | 00:00:00 | |
| DF8AY | 2026-09-06 00:10:42 | 48.88314 | 13.14357 | 274° | 16km/h | 24159m | 4.6m/s | -52.6°C | 0.8% | 30.7hPa | 2.6V | 03:56:45 | 02:05:49 | 00:00:00 | |
| DF8AY | 2026-09-06 00:10:32 | 48.88316 | 13.14402 | 237° | 7km/h | 24110m | 5.4m/s | -52.6°C | 0.8% | 30.9hPa | 2.6V | 03:58:27 | 02:05:39 | 00:00:00 | |
| DF8AY | 2026-09-06 00:10:22 | 48.88330 | 13.14439 | 216° | 13km/h | 24060m | 5.5m/s | -53°C | 1% | 31.1hPa | 2.6V | 03:58:27 | 02:05:29 | 00:00:00 | |
| DF8AY | 2026-09-06 00:10:12 | 48.88359 | 13.14457 | 220° | 18km/h | 24013m | 4.4m/s | -52.9°C | 0.9% | 31.3hPa | 2.6V | 03:58:27 | 02:05:19 | 00:00:00 | |
| DF8AY | 2026-09-06 00:10:02 | 48.88410 | 13.14474 | 182° | 26km/h | 23962m | 4.9m/s | -52.8°C | 0.9% | 31.6hPa | 2.6V | 03:58:27 | 02:05:08 | 00:00:00 | |
| DF8AY | 2026-09-06 00:09:51 | 48.88464 | 13.14471 | 168° | 22km/h | 23916m | 5.5m/s | -52.7°C | 0.9% | 31.8hPa | 2.6V | 03:58:27 | 02:04:58 | 00:00:00 | |
| DF8AY | 2026-09-06 00:09:39 | 48.88529 | 13.14459 | 167° | 26km/h | 23860m | 4.9m/s | -52.9°C | 0.9% | 32.1hPa | 2.5V | 03:58:27 | 02:04:46 | 00:00:00 | |
| DF8AY | 2026-09-06 00:09:29 | 48.88596 | 13.14396 | 142° | 24km/h | 23802m | 4.6m/s | -52.8°C | 0.9% | 32.4hPa | 2.6V | 03:58:27 | 02:04:34 | 00:00:00 | |
| DF8AY | 2026-09-06 00:09:18 | 48.88634 | 13.14321 | 126° | 24km/h | 23751m | 5.5m/s | -52.9°C | 0.9% | 32.7hPa | 2.6V | 03:58:27 | 02:04:24 | 00:00:00 | |
| DF8AY | 2026-09-06 00:09:07 | 48.88680 | 13.14277 | 140° | 24km/h | 23703m | 4.5m/s | -52.8°C | 0.9% | 32.9hPa | 2.6V | 03:58:27 | 02:04:14 | 00:00:00 | |
| DF8AY | 2026-09-06 00:08:56 | 48.88727 | 13.14225 | 148° | 4km/h | 23616m | 4.9m/s | -52.3°C | 0.8% | 33.3hPa | 2.5V | 03:59:18 | 02:03:57 | 00:00:00 | |
| SONCRA | 2026-09-06 00:08:50 | 48.88727 | 13.14224 | 142° | 4km/h | 23611m | 4.5m/s | -52.3°C | 1.1% | 33.4hPa | 2.6V | 00:00:00 | 00:00:00 | 00:00:00 | |
| DF8AY | 2026-09-06 00:08:41 | 48.88751 | 13.14218 | 189° | 11km/h | 23572m | 4.1m/s | -52.4°C | 0.8% | 33.6hPa | 2.6V | 03:59:18 | 02:03:48 | 00:00:00 | |
| DF8AY | 2026-09-06 00:08:29 | 48.88786 | 13.14239 | 187° | 13km/h | 23514m | 4.1m/s | -53.3°C | 1% | 33.9hPa | 2.5V | 03:59:18 | 02:03:36 | 00:00:00 | |
| DF8AY | 2026-09-06 00:08:18 | 48.88816 | 13.14230 | 166° | 7km/h | 23458m | 5.2m/s | -53.4°C | 0.9% | 34.2hPa | 2.5V | 03:59:18 | 02:03:25 | 00:00:00 | |
| DF8AY | 2026-09-06 00:08:06 | 48.88860 | 13.14193 | 145° | 22km/h | 23397m | 4.9m/s | -53°C | 1% | 34.5hPa | 2.6V | 04:00:09 | 02:03:13 | 00:00:00 | |
| DF8AY | 2026-09-06 00:07:55 | 48.88916 | 13.14143 | 148° | 27km/h | 23339m | 5.1m/s | -52.7°C | 0.9% | 34.8hPa | 2.5V | 04:00:09 | 02:03:02 | 00:00:00 | |
| DF8AY | 2026-09-06 00:07:45 | 48.88969 | 13.14076 | 139° | 31km/h | 23285m | 5.1m/s | -52.5°C | 0.9% | 35.1hPa | 2.5V | 04:00:09 | 02:02:52 | 00:00:00 | |
| DF8AY | 2026-09-06 00:07:34 | 48.89033 | 13.13979 | 122° | 29km/h | 23225m | 6.6m/s | -52.4°C | 0.8% | 35.4hPa | 2.5V | 04:00:09 | 02:02:41 | 00:00:00 | |
| DF8AY | 2026-09-06 00:07:23 | 48.89085 | 13.13858 | 119° | 40km/h | 23166m | 5.8m/s | -52.8°C | 0.9% | 35.8hPa | 2.5V | 04:00:09 | 02:02:30 | 00:00:00 | |
| DF8AY | 2026-09-06 00:07:13 | 48.89116 | 13.13726 | 107° | 33km/h | 23114m | 6m/s | -52.6°C | 0.9% | 36hPa | 2.6V | 04:01:51 | 02:02:20 | 00:00:00 | |
| DF8AY | 2026-09-06 00:07:01 | 48.89155 | 13.13586 | 111° | 24km/h | 23052m | 4.7m/s | -52.4°C | 0.8% | 36.4hPa | 2.6V | 04:01:51 | 02:02:08 | 00:00:00 | |
| DF8AY | 2026-09-06 00:06:50 | 48.89195 | 13.13477 | 126° | 31km/h | 22997m | 4.5m/s | -52.7°C | 0.8% | 36.7hPa | 2.5V | 04:01:51 | 02:01:57 | 00:00:00 | |
| EDDB2-12 | 2026-09-06 00:06:46 | 48.89215 | 13.13446 | 138° | 26km/h | 22976m | 4.0m/s | -52.6°C | 1.2% | 36.9hPa | 2.5V | 00:00:00 | 00:00:00 | 00:00:00 | |
| SONCRA | 2026-09-06 00:06:45 | 48.89219 | 13.13440 | 133° | 24km/h | 22972m | 5.4m/s | -52.6°C | 1.2% | 36.9hPa | 2.5V | 00:00:00 | 00:00:00 | 00:00:00 | |
| DF8AY | 2026-09-06 00:06:39 | 48.89235 | 13.13399 | 115° | 18km/h | 22942m | 4.2m/s | -52.5°C | 0.8% | 37hPa | 2.5V | 04:01:51 | 02:01:46 | 00:00:00 | |
| OE5HKT-10 | 2026-09-06 00:06:38 | 48.89237 | 13.13392 | 114° | 22km/h | 22938m | 5.5m/s | -52.5°C | 4.0% | 37.0hPa | 2.6V | 00:00:00 | 02:01:45 | 00:00:00 | |
| OE5MMP-10 | 2026-09-06 00:06:37 | 48.89239 | 13.13383 | 114° | 27km/h | 22932m | 5.4m/s | -52.5°C | 4.0% | 37.0hPa | 2.6V | 00:00:00 | 02:01:44 | 00:00:00 | |
| DO3MHA-11 | 2026-09-06 00:06:36 | 48.89242 | 13.13373 | 118° | 26km/h | 22927m | 4.7m/s | -52.6°C | 4.0% | 37.1hPa | 2.6V | 00:00:00 | 02:01:43 | 00:00:00 | |
| DF8AY | 2026-09-06 00:06:31 | 48.89291 | 13.13238 | 125° | 20km/h | 22838m | 3.8m/s | -53.4°C | 1% | 37.6hPa | 2.6V | 04:01:51 | 02:01:25 | 00:00:00 | |
| DF8AY | 2026-09-06 00:06:17 | 48.89293 | 13.13232 | 120° | 20km/h | 22834m | 4.2m/s | -53.4°C | 1% | 37.6hPa | 2.6V | 04:01:51 | 02:01:24 | 00:00:00 | |
| DF8AY | 2026-09-06 00:06:07 | 48.89301 | 13.13169 | 90° | 15km/h | 22781m | 5.4m/s | -53.2°C | 1% | 37.9hPa | 2.6V | 04:01:51 | 02:01:13 | 00:00:00 | |
| DF8AY | 2026-09-06 00:05:55 | 48.89329 | 13.13132 | 154° | 13km/h | 22728m | 3.9m/s | -53.2°C | 1% | 38.2hPa | 2.5V | 04:01:51 | 02:01:02 | 00:00:00 | |
| EDDB2-11 | 2026-09-06 00:05:52 | 48.89336 | 13.13120 | 111° | 16km/h | 22712m | 4.8m/s | -53.1°C | 1.2% | 38.4hPa | 2.6V | 00:00:00 | 00:00:00 | 00:00:00 | |
| DF8AY | 2026-09-06 00:05:43 | 48.89362 | 13.13075 | 145° | 22km/h | 22669m | 5.2m/s | -52.8°C | 1% | 38.6hPa | 2.6V | 04:01:51 | 02:00:50 | 00:00:00 | |
| DF8AY | 2026-09-06 00:05:32 | 48.89389 | 13.13022 | 154° | 22km/h | 22618m | 5.4m/s | -52.5°C | 0.8% | 38.9hPa | 2.6V | 04:02:42 | 02:00:39 | 00:00:00 | |
| DF8AY | 2026-09-06 00:05:21 | 48.89445 | 13.12973 | 136° | 13km/h | 22564m | 5.3m/s | -53°C | 0.8% | 39.2hPa | 2.6V | 04:02:42 | 02:00:28 | 00:00:00 | |
| DF8AY | 2026-09-06 00:05:12 | 48.89493 | 13.12923 | 147° | 22km/h | 22520m | 3.9m/s | -53.6°C | 0.9% | 39.5hPa | 2.6V | 04:02:42 | 02:00:18 | 00:00:00 | |
| DF8AY | 2026-09-06 00:04:59 | 48.89529 | 13.12820 | 121° | 20km/h | 22463m | 4.8m/s | -54°C | 1% | 39.9hPa | 2.5V | 04:02:42 | 02:00:06 | 00:00:00 | |
| DF8AY | 2026-09-06 00:04:48 | 48.89546 | 13.12745 | 86° | 20km/h | 22410m | 5.3m/s | -54°C | 1% | 40.2hPa | 2.6V | 04:02:42 | 01:59:55 | 00:00:00 | |
| DF8AY | 2026-09-06 00:04:39 | 48.89534 | 13.12670 | 85° | 18km/h | 22362m | 5.4m/s | -54.2°C | 1.1% | 40.5hPa | 2.6V | 04:03:33 | 01:59:45 | 00:00:00 | |
| DF8AY | 2026-09-06 00:04:28 | 48.89505 | 13.12605 | 45° | 26km/h | 22311m | 5.3m/s | -54.1°C | 1% | 40.8hPa | 2.7V | 04:03:33 | 01:59:34 | 00:00:00 | |
| DF8AY | 2026-09-06 00:04:16 | 48.89479 | 13.12527 | 36° | 22km/h | 22257m | 5.8m/s | -54.3°C | 1% | 41.2hPa | 2.6V | 04:03:33 | 01:59:23 | 00:00:00 | |
| DF8AY | 2026-09-06 00:04:06 | 48.89460 | 13.12473 | 67° | 15km/h | 22207m | 4.2m/s | -54.5°C | 1.1% | 41.5hPa | 2.5V | 04:03:33 | 01:59:12 | 00:00:00 | |
| DF8AY | 2026-09-06 00:03:54 | 48.89436 | 13.12391 | 113° | 16km/h | 22149m | 5.3m/s | -55°C | 1.1% | 41.9hPa | 2.6V | 04:03:33 | 01:59:00 | 00:00:00 | |
| SONDE2-11 | 2026-09-06 00:03:52 | 48.89438 | 13.12384 | 112° | 16km/h | 22144m | 4.5m/s | -55.0°C | 1.3% | 41.9hPa | 2.7V | 00:00:00 | 00:00:00 | 00:00:00 | |
| EDDB2-11 | 2026-09-06 00:03:48 | 48.89444 | 13.12349 | 92° | 27km/h | 22124m | 4.4m/s | -55.1°C | 1.3% | 42.0hPa | 2.7V | 00:00:00 | 00:00:00 | 00:00:00 | |
| DF8AY | 2026-09-06 00:03:43 | 48.89441 | 13.12292 | 99° | 22km/h | 22095m | 4.2m/s | -54.9°C | 1.1% | 0hPa | 2.7V | 04:04:24 | 01:58:49 | 00:00:00 | |
| DF8AY | 2026-09-06 00:03:31 | 48.89447 | 13.12222 | 84° | 15km/h | 22044m | 5m/s | -55.3°C | 1.2% | 0hPa | 2.6V | 04:04:24 | 01:58:38 | 00:00:00 | |
| DF8AY | 2026-09-06 00:03:21 | 48.89435 | 13.12175 | 127° | 13km/h | 21993m | 5.5m/s | -55.2°C | 1.1% | 0hPa | 2.5V | 04:04:24 | 01:58:27 | 00:00:00 | |
| OE5MMP-10 | 2026-09-06 00:03:19 | 48.89445 | 13.12155 | 135° | 13km/h | 21973m | 5.3m/s | -55.2°C | 4.7% | 43.0hPa | 2.6V | 00:00:00 | 01:58:23 | 00:00:00 | |
| DO3MHA-11 | 2026-09-06 00:03:17 | 48.89454 | 13.12138 | 115° | 20km/h | 21953m | 5.1m/s | -55.3°C | 4.8% | 43.1hPa | 2.6V | 00:00:00 | 01:58:19 | 00:00:00 | |
| OE5REO-15 | 2026-09-06 00:03:16 | 48.89455 | 13.12133 | 109° | 15km/h | 21948m | 4.4m/s | -55.4°C | 1.4% | 43.2hPa | 2.6V | 04:04:00 | 00:00:00 | 00:00:00 | |
| OE5MMP-10 | 2026-09-06 00:03:14 | 48.89459 | 13.12110 | 114° | 22km/h | 21924m | 5.6m/s | -55.4°C | 4.8% | 43.3hPa | 2.6V | 04:04:00 | 01:58:13 | 00:00:00 | |
| BAUMI2-15 | 2026-09-06 00:03:10 | 48.89473 | 13.12084 | 139° | 24km/h | 21903m | 4.4m/s | -55.4°C | 4.8% | 43.5hPa | 2.7V | 00:00:00 | 01:58:09 | 00:00:00 | |
| DF8AY | 2026-09-06 00:03:10 | 48.89456 | 13.12128 | 103° | 13km/h | 21943m | 5.9m/s | -55.4°C | 1.2% | 0hPa | 2.5V | 04:04:24 | 01:58:17 | 00:00:00 | |
| OE5DRO-10 | 2026-09-06 00:03:09 | 48.89477 | 13.12078 | 138° | 22km/h | 21899m | 3.6m/s | -55.4°C | 4.8% | 43.5hPa | 2.7V | 00:00:00 | 00:00:00 | 00:00:00 | |
| BAUMI2-15 | 2026-09-06 00:03:06 | 48.89492 | 13.12050 | 125° | 16km/h | 21880m | 4.8m/s | -55.5°C | 4.9% | 43.6hPa | 2.7V | 00:00:00 | 01:58:04 | 00:00:00 | |
| OE5WHR-10 | 2026-09-06 00:03:05 | 48.89495 | 13.12045 | 125° | 22km/h | 21875m | 5.5m/s | -55.5°C | 4.8% | 43.7hPa | 2.6V | 00:00:00 | 01:58:03 | 00:00:00 | |
| OE5MMP-10 | 2026-09-06 00:03:04 | 48.89495 | 13.12045 | 125° | 20km/h | 21875m | 5.5m/s | -55.5°C | 4.8% | 43.7hPa | 2.6V | 00:00:00 | 01:58:03 | 00:00:00 | |
| OE5REO-15 | 2026-09-06 00:03:03 | 48.89495 | 13.12045 | 126° | 16km/h | 21875m | 5.6m/s | -55.5°C | 1.4% | 43.7hPa | 2.6V | 04:05:00 | 00:00:00 | 00:00:00 | |
| DF8AY | 2026-09-06 00:02:59 | 48.89486 | 13.12064 | 128° | 24km/h | 21889m | 4.9m/s | 0°C | 0% | 0hPa | 2.6V | 18:12:15 | 01:58:06 | 00:00:00 | |
| SONDE2-11 | 2026-09-06 00:02:59 | 48.89514 | 13.12002 | 123° | 22km/h | 21839m | 5.7m/s | -55.3°C | 1.4% | 44.0hPa | 2.6V | 00:00:00 | 00:00:00 | 00:00:00 | |
| OE5HKT-10 | 2026-09-06 00:02:56 | 48.89520 | 13.11987 | 120° | 24km/h | 21830m | 4.3m/s | -55.3°C | 4.8% | 44.0hPa | 2.6V | 04:04:00 | 00:00:00 | 00:00:00 | |
| EDDB2-11 | 2026-09-06 00:02:55 | 48.89523 | 13.11978 | 116° | 26km/h | 21824m | 5.9m/s | -55.3°C | 1.4% | 44.1hPa | 2.6V | 00:00:00 | 00:00:00 | 00:00:00 | |
| OE5MMP-10 | 2026-09-06 00:02:54 | 48.89523 | 13.11978 | 117° | 24km/h | 21825m | 5.9m/s | -55.3°C | 4.7% | 44.0hPa | 2.6V | 00:00:00 | 01:57:53 | 00:00:00 | |
| PG1ADW-2 | 2026-09-06 00:02:52 | 48.89532 | 13.11940 | 109° | 24km/h | 21804m | 5.2m/s | -55.3°C | 4.9% | 44.2hPa | 2.6V | 00:00:00 | 00:00:00 | 00:00:00 | |
| OE5REO-15 | 2026-09-06 00:02:49 | 48.89536 | 13.11924 | 111° | 22km/h | 21794m | 4.9m/s | -55.4°C | 1.4% | 44.3hPa | 2.6V | 04:05:00 | 00:00:00 | 00:00:00 | |
| DF8AY | 2026-09-06 00:02:48 | 48.89548 | 13.11877 | 113° | 20km/h | 21764m | 3.7m/s | 0°C | 0% | 0hPa | 2.6V | 18:12:15 | 01:57:41 | 00:00:00 | |
| SONCRA | 2026-09-06 00:02:46 | 48.89542 | 13.11899 | 110° | 22km/h | 21779m | 4.7m/s | -55.3°C | 1.4% | 44.4hPa | 2.6V | 00:00:00 | 00:00:00 | 00:00:00 | |
| BAUMI2-15 | 2026-09-06 00:02:44 | 48.89542 | 13.11899 | 111° | 22km/h | 21779m | 4.6m/s | -55.3°C | 4.8% | 44.3hPa | 2.6V | 00:00:00 | 01:57:44 | 00:00:00 | |
| PETON7-10 | 2026-09-06 00:02:43 | 48.89542 | 13.11899 | 111° | 24km/h | 21779m | 4.6m/s | -55.3°C | 4.8% | 44.3hPa | 2.6V | 00:00:00 | 01:57:44 | 00:00:00 | |
| OE5MMP-10 | 2026-09-06 00:02:42 | 48.89544 | 13.11891 | 112° | 24km/h | 21774m | 5.8m/s | -55.3°C | 4.8% | 44.4hPa | 2.6V | 00:00:00 | 01:57:43 | 00:00:00 | |
| OE5WHR-10 | 2026-09-06 00:02:41 | 48.89546 | 13.11884 | 113° | 26km/h | 21769m | 4.5m/s | -55.3°C | 4.8% | 44.4hPa | 2.5V | 00:00:00 | 00:00:00 | 00:00:00 | |
| BAUMI2-15 | 2026-09-06 00:02:36 | 48.89552 | 13.11861 | 110° | 26km/h | 21755m | 5.4m/s | -55.2°C | 4.7% | 44.5hPa | 2.7V | 00:00:00 | 01:57:39 | 00:00:00 | |
| BAUMI2-15 | 2026-09-06 00:02:30 | 48.89561 | 13.11816 | 106° | 26km/h | 21730m | 4.3m/s | -55.2°C | 4.8% | 44.7hPa | 2.7V | 00:00:00 | 01:57:34 | 00:00:00 | |
| DF8AY | 2026-09-06 00:02:28 | 48.89561 | 13.11816 | 105° | 24km/h | 21730m | 4.4m/s | 0°C | 0% | 0hPa | 2.7V | 18:12:15 | 01:57:34 | 00:00:00 | |
| OE5MMP-10 | 2026-09-06 00:02:27 | 48.89563 | 13.11806 | 104° | 27km/h | 21725m | 6.0m/s | -55.2°C | 4.8% | 44.7hPa | 2.6V | 00:00:00 | 01:57:33 | 00:00:00 | |
| OE5REO-15 | 2026-09-06 00:02:26 | 48.89564 | 13.11796 | 103° | 27km/h | 21720m | 5.0m/s | -55.3°C | 1.4% | 44.8hPa | 2.6V | 04:05:00 | 00:00:00 | 00:00:00 | |
| DO3MHA-11 | 2026-09-06 00:02:25 | 48.89565 | 13.11786 | 100° | 31km/h | 21715m | 4.4m/s | -55.3°C | 4.8% | 44.8hPa | 2.6V | 00:00:00 | 01:57:31 | 00:00:00 | |
| OE5DRO-10 | 2026-09-06 00:02:24 | 48.89567 | 13.11775 | 98° | 29km/h | 21710m | 5.4m/s | -55.2°C | 4.8% | 44.8hPa | 2.6V | 00:00:00 | 00:00:00 | 00:00:00 | |
| PG1ADW-2 | 2026-09-06 00:02:23 | 48.89567 | 13.11766 | 95° | 29km/h | 21705m | 5.4m/s | -55.2°C | 4.8% | 44.9hPa | 2.7V | 04:05:00 | 00:00:00 | 00:00:00 | |
| DL6DJ-15 | 2026-09-06 00:02:22 | 48.89568 | 13.11746 | 92° | 26km/h | 21694m | 5.2m/s | -55.2°C | 1.4% | 45.0hPa | 2.7V | 00:00:00 | 00:00:00 | 00:00:00 | |
| SONDE2-11 | 2026-09-06 00:02:19 | 48.89569 | 13.11723 | 96° | 31km/h | 21684m | 3.8m/s | -55.2°C | 1.4% | 45.0hPa | 2.7V | 00:00:00 | 00:00:00 | 00:00:00 | |
| DF8AY | 2026-09-06 00:02:17 | 48.89570 | 13.11711 | 99° | 31km/h | 21680m | 4.1m/s | 0°C | 0% | 0hPa | 2.7V | 18:12:15 | 01:57:24 | 00:00:00 | |
| OE5MMP-10 | 2026-09-06 00:02:17 | 48.89571 | 13.11699 | 100° | 31km/h | 21676m | 5.2m/s | -55.1°C | 4.9% | 45.1hPa | 2.7V | 04:05:00 | 01:57:23 | 00:00:00 | |
| EDDB2-11 | 2026-09-06 00:02:16 | 48.89573 | 13.11678 | 97° | 27km/h | 21666m | 4.0m/s | -55.1°C | 1.4% | 45.2hPa | 2.7V | 00:00:00 | 00:00:00 | 00:00:00 | |
| OE5WHR-10 | 2026-09-06 00:02:15 | 48.89573 | 13.11678 | 98° | 29km/h | 21666m | 4.0m/s | -55.0°C | 4.8% | 45.1hPa | 2.7V | 04:05:00 | 00:00:00 | 00:00:00 | |
| BAUMI2-15 | 2026-09-06 00:02:13 | 48.89574 | 13.11654 | 92° | 33km/h | 21656m | 5.6m/s | -54.9°C | 4.8% | 45.2hPa | 2.7V | 00:00:00 | 01:57:19 | 00:00:00 | |
| DO3MHA-11 | 2026-09-06 00:02:12 | 48.89574 | 13.11641 | 90° | 27km/h | 21651m | 4.2m/s | -54.9°C | 4.8% | 45.2hPa | 2.7V | 00:00:00 | 01:57:18 | 00:00:00 | |
| OE5REO-15 | 2026-09-06 00:02:10 | 48.89574 | 13.11628 | 90° | 33km/h | 21646m | 5.2m/s | -54.9°C | 1.4% | 45.3hPa | 2.7V | 04:06:00 | 00:00:00 | 00:00:00 | |
| PETON7-10 | 2026-09-06 00:02:07 | 48.89573 | 13.11593 | 87° | 29km/h | 21631m | 5.0m/s | -54.7°C | 4.8% | 45.4hPa | 2.7V | 00:00:00 | 00:00:00 | 00:00:00 | |
| DF8AY | 2026-09-06 00:02:06 | 48.89573 | 13.11581 | 85° | 31km/h | 21626m | 5.7m/s | 0°C | 0% | 0hPa | 2.7V | 18:12:15 | 01:57:13 | 00:00:00 | |
| OE5HKT-10 | 2026-09-06 00:02:05 | 48.89572 | 13.11570 | 85° | 27km/h | 21621m | 4.6m/s | -54.6°C | 4.7% | 45.5hPa | 2.6V | 00:00:00 | 00:00:00 | 00:00:00 | |
| OE5DRO-10 | 2026-09-06 00:02:04 | 48.89572 | 13.11558 | 86° | 27km/h | 21616m | 4.6m/s | -54.6°C | 4.7% | 45.5hPa | 2.7V | 00:00:00 | 00:00:00 | 00:00:00 | |
| BAUMI2-15 | 2026-09-06 00:01:59 | 48.89564 | 13.11484 | 82° | 29km/h | 21581m | 4.7m/s | -54.3°C | 4.6% | 45.7hPa | 2.7V | 00:00:00 | 01:57:04 | 00:00:00 | |
| OE5MMP-10 | 2026-09-06 00:01:58 | 48.89564 | 13.11472 | 86° | 26km/h | 21576m | 5.6m/s | -54.3°C | 4.6% | 45.8hPa | 2.7V | 00:00:00 | 01:57:03 | 00:00:00 | |
| PETON7-10 | 2026-09-06 00:01:56 | 48.89563 | 13.11429 | 92° | 26km/h | 21557m | 4.2m/s | -54.2°C | 4.6% | 45.9hPa | 2.7V | 00:00:00 | 01:56:59 | 00:00:00 | |
| DL6DJ-15 | 2026-09-06 00:01:55 | 48.89564 | 13.11401 | 92° | 20km/h | 21541m | 4.8m/s | -54.2°C | 1.3% | 46.1hPa | 2.7V | 00:00:00 | 00:00:00 | 00:00:00 | |
| SONDE2-11 | 2026-09-06 00:01:54 | 48.89564 | 13.11383 | 85° | 24km/h | 21532m | 5.9m/s | -54.2°C | 1.4% | 46.1hPa | 2.7V | 00:00:00 | 00:00:00 | 00:00:00 | |
| BAUMI2-15 | 2026-09-06 00:01:51 | 48.89564 | 13.11383 | 86° | 27km/h | 21532m | 5.8m/s | -54.2°C | 4.6% | 46.1hPa | 2.7V | 00:00:00 | 01:56:54 | 00:00:00 | |
| OE5DRO-10 | 2026-09-06 00:01:49 | 48.89562 | 13.11362 | 85° | 20km/h | 21522m | 4.2m/s | -54.1°C | 4.6% | 46.2hPa | 2.7V | 04:05:00 | 00:00:00 | 00:00:00 | |
| OE5HKT-10 | 2026-09-06 00:01:48 | 48.89562 | 13.11351 | 87° | 24km/h | 21518m | 4.7m/s | -54.1°C | 4.5% | 46.2hPa | 2.7V | 00:00:00 | 00:00:00 | 00:00:00 | |
| BAUMI2-15 | 2026-09-06 00:01:46 | 48.89562 | 13.11330 | 96° | 26km/h | 21507m | 5.0m/s | -54.0°C | 4.5% | 46.3hPa | 2.7V | 00:00:00 | 01:56:49 | 00:00:00 | |
| OE5REO-15 | 2026-09-06 00:01:41 | 48.89564 | 13.11292 | 91° | 27km/h | 21487m | 4.5m/s | -54.0°C | 1.3% | 46.5hPa | 2.7V | 04:06:00 | 00:00:00 | 00:00:00 | |
| PETON7-10 | 2026-09-06 00:01:40 | 48.89564 | 13.11282 | 90° | 22km/h | 21483m | 3.9m/s | -54.0°C | 4.5% | 46.4hPa | 2.7V | 04:05:00 | 00:00:00 | 00:00:00 | |
| OE5MMP-10 | 2026-09-06 00:01:38 | 48.89564 | 13.11273 | 92° | 22km/h | 21479m | 4.9m/s | -54.0°C | 4.5% | 46.5hPa | 2.6V | 00:00:00 | 01:56:43 | 00:00:00 | |
| SONCRA | 2026-09-06 00:01:36 | 48.89564 | 13.11264 | 95° | 22km/h | 21473m | 5.8m/s | -54.2°C | 1.3% | 46.6hPa | 2.7V | 00:00:00 | 00:00:00 | 00:00:00 | |
| DO3MHA-11 | 2026-09-06 00:01:35 | 48.89566 | 13.11239 | 95° | 38km/h | 21459m | 5.7m/s | -54.2°C | 4.6% | 46.6hPa | 2.7V | 00:00:00 | 01:56:39 | 00:00:00 | |
| OE5WHR-10 | 2026-09-06 00:01:34 | 48.89566 | 13.11239 | 95° | 20km/h | 21459m | 5.7m/s | -54.2°C | 4.6% | 46.6hPa | 2.7V | 00:00:00 | 00:00:00 | 00:00:00 | |
| S52SK | 2026-09-06 00:01:30 | 48.89568 | 13.11202 | 99° | 20km/h | 21439m | 5.5m/s | -54.3°C | 1.3% | 46.8hPa | 2.7V | 00:00:00 | 00:00:00 | 00:00:00 | |
| BAUMI2-15 | 2026-09-06 00:01:29 | 48.89569 | 13.11194 | 102° | 20km/h | 21434m | 4.6m/s | -54.2°C | 4.6% | 46.8hPa | 2.7V | 04:05:00 | 01:56:34 | 00:00:00 | |
| OE5MMP-10 | 2026-09-06 00:01:28 | 48.89569 | 13.11187 | 101° | 18km/h | 21430m | 4.2m/s | -54.2°C | 4.6% | 46.8hPa | 2.7V | 04:06:00 | 01:56:33 | 00:00:00 | |
| OE5HKT-10 | 2026-09-06 00:01:26 | 48.89571 | 13.11164 | 92° | 18km/h | 21415m | 4.3m/s | -54.2°C | 4.6% | 46.9hPa | 2.7V | 00:00:00 | 01:56:30 | 00:00:00 | |
| OE5REO-15 | 2026-09-06 00:01:25 | 48.89571 | 13.11156 | 94° | 18km/h | 21410m | 5.6m/s | -54.2°C | 1.4% | 47.0hPa | 2.7V | 04:06:00 | 00:00:00 | 00:00:00 | |
| DL6DJ-15 | 2026-09-06 00:01:23 | 48.89570 | 13.11134 | 75° | 16km/h | 21390m | 5.4m/s | -54.1°C | 0% | 47.2hPa | 2.7V | 00:00:00 | 00:00:00 | 00:00:00 | |
| SONDE2-11 | 2026-09-06 00:01:22 | 48.89568 | 13.11120 | 76° | 18km/h | 21381m | 4.1m/s | -54.1°C | 1.4% | 47.2hPa | 2.7V | 00:00:00 | 00:00:00 | 00:00:00 | |
| OE5MMP-10 | 2026-09-06 00:01:18 | 48.89568 | 13.11120 | 77° | 20km/h | 21381m | 4.0m/s | -54.0°C | 4.6% | 47.2hPa | 2.7V | 00:00:00 | 01:56:23 | 00:00:00 | |
| OE5DXL-15 | 2026-09-06 00:01:16 | 48.89567 | 13.11093 | 91° | 18km/h | 21363m | 4.3m/s | -53.9°C | 4.5% | 47.3hPa | 2.7V | 00:00:00 | 00:00:00 | 00:00:00 | |
| PETON7-10 | 2026-09-06 00:01:10 | 48.89565 | 13.11051 | 95° | 20km/h | 21338m | 5.2m/s | -53.8°C | 4.5% | 47.5hPa | 2.7V | 00:00:00 | 01:56:14 | 00:00:00 | |
| OE5REO-15 | 2026-09-06 00:01:08 | 48.89566 | 13.11043 | 96° | 18km/h | 21333m | 4.3m/s | -53.8°C | 1.3% | 47.6hPa | 2.7V | 04:06:00 | 00:00:00 | 00:00:00 | |
| SONCRA | 2026-09-06 00:01:07 | 48.89565 | 13.11021 | 83° | 20km/h | 21317m | 4.6m/s | -53.9°C | 1.3% | 47.7hPa | 2.7V | 00:00:00 | 00:00:00 | 00:00:00 | |
| OE5MMP-10 | 2026-09-06 00:00:56 | 48.89564 | 13.10971 | 91° | 20km/h | 21283m | 4.1m/s | -53.8°C | 4.5% | 47.9hPa | 2.7V | 00:00:00 | 01:56:03 | 00:00:00 | |
| PETON7-10 | 2026-09-06 00:00:52 | 48.89568 | 13.10940 | 100° | 16km/h | 21264m | 5.1m/s | -53.7°C | 4.5% | 48.1hPa | 2.7V | 00:00:00 | 00:00:00 | 00:00:00 | |
| OE5REO-15 | 2026-09-06 00:00:51 | 48.89568 | 13.10931 | 94° | 24km/h | 21259m | 5.4m/s | -53.8°C | 1.3% | 48.2hPa | 2.7V | 04:06:00 | 00:00:00 | 00:00:00 | |
| OE5WHR-10 | 2026-09-06 00:00:50 | 48.89568 | 13.10923 | 88° | 16km/h | 21254m | 4.6m/s | -53.8°C | 4.5% | 48.1hPa | 2.7V | 00:00:00 | 01:55:57 | 00:00:00 | |
| DL6DJ-15 | 2026-09-06 00:00:48 | 48.89567 | 13.10902 | 77° | 13km/h | 21239m | 4.1m/s | -53.9°C | 1.3% | 48.3hPa | 2.7V | 00:00:00 | 00:00:00 | 00:00:00 | |
| SONDE2-11 | 2026-09-06 00:00:47 | 48.89565 | 13.10894 | 59° | 11km/h | 21231m | 5.1m/s | -53.9°C | 1.4% | 48.4hPa | 2.7V | 00:00:00 | 00:00:00 | 00:00:00 | |
| OE5HKT-10 | 2026-09-06 00:00:46 | 48.89560 | 13.10875 | 95° | 16km/h | 21212m | 5.5m/s | -53.7°C | 4.5% | 48.4hPa | 2.7V | 00:00:00 | 00:00:00 | 00:00:00 | |
| PETON7-10 | 2026-09-06 00:00:41 | 48.89565 | 13.10850 | 96° | 16km/h | 21194m | 5.1m/s | -53.5°C | 4.5% | 48.6hPa | 2.7V | 00:00:00 | 00:00:00 | 00:00:00 | |
| OE5MMP-10 | 2026-09-06 00:00:40 | 48.89565 | 13.10842 | 80° | 16km/h | 21189m | 4.2m/s | -53.5°C | 4.4% | 48.6hPa | 2.7V | 04:06:00 | 01:55:43 | 00:00:00 | |
| OE5REO-15 | 2026-09-06 00:00:37 | 48.89563 | 13.10835 | 65° | 18km/h | 21185m | 4.0m/s | -53.5°C | 1.3% | 48.7hPa | 2.6V | 04:06:00 | 00:00:00 | 00:00:00 | |
| SONCRA | 2026-09-06 00:00:36 | 48.89556 | 13.10822 | 37° | 11km/h | 21172m | 4.8m/s | -53.5°C | 1.3% | 48.8hPa | 2.6V | 00:00:00 | 00:00:00 | 00:00:00 | |
| OE5WHR-10 | 2026-09-06 00:00:29 | 48.89550 | 13.10812 | 61° | 15km/h | 21159m | 5.7m/s | -53.6°C | 4.4% | 48.8hPa | 2.6V | 04:06:00 | 00:00:00 | 00:00:00 | |
| OE5MMP-10 | 2026-09-06 00:00:26 | 48.89546 | 13.10792 | 86° | 16km/h | 21144m | 5.4m/s | -53.6°C | 4.4% | 48.9hPa | 2.7V | 00:00:00 | 01:55:33 | 00:00:00 | |
| PETON7-10 | 2026-09-06 00:00:23 | 48.89543 | 13.10764 | 69° | 13km/h | 21126m | 4.6m/s | -53.5°C | 4.4% | 49.1hPa | 2.7V | 04:07:00 | 01:55:29 | 00:00:00 | |
| PG1ADW-2 | 2026-09-06 00:00:22 | 48.89543 | 13.10764 | 69° | 11km/h | 21126m | 4.6m/s | -53.5°C | 4.4% | 49.1hPa | 2.7V | 00:00:00 | 00:00:00 | 00:00:00 | |
| OE5REO-15 | 2026-09-06 00:00:21 | 48.89538 | 13.10752 | 52° | 15km/h | 21118m | 5.0m/s | -53.5°C | 1.3% | 49.2hPa | 2.7V | 04:07:00 | 00:00:00 | 00:00:00 | |
| DL6DJ-15 | 2026-09-06 00:00:19 | 48.89529 | 13.10741 | 36° | 11km/h | 21099m | 4.3m/s | -53.5°C | 1.3% | 49.4hPa | 2.7V | 00:00:00 | 00:00:00 | 00:00:00 | |
| SONDE2-11 | 2026-09-06 00:00:18 | 48.89524 | 13.10733 | 50° | 15km/h | 21089m | 4.3m/s | -53.4°C | 1.3% | 49.4hPa | 2.7V | 00:00:00 | 00:00:00 | 00:00:00 | |
| OE5DRO-10 | 2026-09-06 00:00:14 | 48.89524 | 13.10733 | 51° | 9km/h | 21089m | 4.2m/s | -53.4°C | 4.3% | 49.4hPa | 2.7V | 00:00:00 | 00:00:00 | 00:00:00 | |
| OE5DXL-15 | 2026-09-06 00:00:12 | 48.89519 | 13.10723 | 58° | 9km/h | 21081m | 5.3m/s | -53.4°C | 4.3% | 49.4hPa | 2.7V | 04:07:00 | 00:00:00 | 00:00:00 | |
| EDDB2-11 | 2026-09-06 00:00:11 | 48.89517 | 13.10716 | 75° | 7km/h | 21071m | 4.0m/s | -53.4°C | 1.3% | 49.6hPa | 2.7V | 00:00:00 | 00:00:00 | 00:00:00 | |
| OE5WHR-10 | 2026-09-06 00:00:10 | 48.89517 | 13.10709 | 97° | 9km/h | 21062m | 5.6m/s | -53.4°C | 4.3% | 49.6hPa | 2.7V | 00:00:00 | 00:00:00 | 00:00:00 | |
| OE5MMP-10 | 2026-09-06 00:00:07 | 48.89518 | 13.10701 | 105° | 7km/h | 21053m | 4.2m/s | -53.4°C | 4.2% | 49.7hPa | 2.7V | 00:00:00 | 01:55:13 | 00:00:00 | |
| OE5REO-15 | 2026-09-06 00:00:03 | 48.89519 | 13.10696 | 105° | 4km/h | 21042m | 4.6m/s | -53.5°C | 1.3% | 49.8hPa | 2.6V | 04:07:00 | 00:00:00 | 00:00:00 | |
| OE5HKT-10 | 2026-09-05 23:59:59 | 48.89516 | 13.10683 | 65° | 11km/h | 21020m | 3.9m/s | -53.9°C | 4.4% | 49.9hPa | 2.6V | 00:00:00 | 00:00:00 | 00:00:00 | |
| OE5MMP-10 | 2026-09-05 23:59:56 | 48.89513 | 13.10675 | 82° | 9km/h | 21007m | 3.5m/s | -54.1°C | 4.4% | 50.0hPa | 2.7V | 00:00:00 | 01:55:03 | 00:00:00 | |
| SP3BTT-10 | 2026-09-05 23:59:54 | 48.89514 | 13.10669 | 115° | 11km/h | 20998m | 5.0m/s | -54.1°C | 4.5% | 50.1hPa | 2.7V | 00:00:00 | 00:00:00 | 00:00:00 | |
| PETON7-10 | 2026-09-05 23:59:52 | 48.89518 | 13.10660 | 135° | 11km/h | 20989m | 4.1m/s | -54.3°C | 4.5% | 50.1hPa | 2.7V | 00:00:00 | 00:00:00 | 00:00:00 | |
| S52SK | 2026-09-05 23:59:51 | 48.89518 | 13.10660 | 135° | 13km/h | 20989m | 4.2m/s | -54.3°C | 1.3% | 50.2hPa | 2.7V | 00:00:00 | 00:00:00 | 00:00:00 | |
| OE5WHR-10 | 2026-09-05 23:59:47 | 48.89527 | 13.10650 | 128° | 18km/h | 20966m | 4.5m/s | -54.6°C | 4.7% | 50.3hPa | 2.7V | 00:00:00 | 01:54:54 | 00:00:00 | |
| OE5MMP-10 | 2026-09-05 23:59:46 | 48.89529 | 13.10647 | 121° | 15km/h | 20962m | 3.9m/s | -54.6°C | 4.7% | 50.3hPa | 2.7V | 04:07:00 | 01:54:53 | 00:00:00 | |
| DL6DJ-15 | 2026-09-05 23:59:45 | 48.89530 | 13.10644 | 122° | 7km/h | 20958m | 3.7m/s | -54.7°C | 1.4% | 50.5hPa | 2.7V | 00:00:00 | 00:00:00 | 00:00:00 | |
| SONDE2-11 | 2026-09-05 23:59:43 | 48.89533 | 13.10640 | 144° | 5km/h | 20950m | 4.0m/s | -54.7°C | 1.4% | 50.5hPa | 2.7V | 00:00:00 | 00:00:00 | 00:00:00 | |
| PG1ADW-2 | 2026-09-05 23:59:42 | 48.89534 | 13.10638 | 144° | 20km/h | 20946m | 3.6m/s | -54.6°C | 4.7% | 50.5hPa | 2.7V | 00:00:00 | 00:00:00 | 00:00:00 | |
| EDDB2-11 | 2026-09-05 23:59:40 | 48.89542 | 13.10627 | 135° | 20km/h | 20932m | 4.2m/s | -54.6°C | 1.4% | 50.6hPa | 2.7V | 00:00:00 | 00:00:00 | 00:00:00 | |
| OE5HKT-10 | 2026-09-05 23:59:38 | 48.89547 | 13.10621 | 140° | 22km/h | 20928m | 4.0m/s | -54.5°C | 4.7% | 50.6hPa | 2.7V | 00:00:00 | 00:00:00 | 00:00:00 | |
| PETON7-10 | 2026-09-05 23:59:37 | 48.89551 | 13.10615 | 145° | 20km/h | 20924m | 4.9m/s | -54.5°C | 4.7% | 50.7hPa | 2.7V | 00:00:00 | 01:54:44 | 00:00:00 | |
| OE5MMP-10 | 2026-09-05 23:59:36 | 48.89557 | 13.10609 | 147° | 22km/h | 20919m | 3.9m/s | -54.5°C | 4.7% | 50.7hPa | 2.7V | 00:00:00 | 01:54:43 | 00:00:00 | |
| OE5REO-15 | 2026-09-05 23:59:33 | 48.89574 | 13.10590 | 139° | 26km/h | 20906m | 3.6m/s | -54.4°C | 1.4% | 50.9hPa | 2.7V | 04:08:00 | 00:00:00 | 00:00:00 | |
| SONCRA | 2026-09-05 23:59:32 | 48.89586 | 13.10574 | 141° | 16km/h | 20893m | 4.0m/s | -54.4°C | 1.4% | 51.0hPa | 2.7V | 00:00:00 | 00:00:00 | 00:00:00 | |
| OE5DRO-10 | 2026-09-05 23:59:27 | 48.89594 | 13.10560 | 117° | 20km/h | 20881m | 4.5m/s | -54.2°C | 4.6% | 51.0hPa | 2.7V | 00:00:00 | 00:00:00 | 00:00:00 | |
| OE5WHR-10 | 2026-09-05 23:59:26 | 48.89596 | 13.10554 | 115° | 20km/h | 20877m | 3.8m/s | -54.2°C | 4.6% | 51.1hPa | 2.7V | 00:00:00 | 00:00:00 | 00:00:00 | |
| PETON7-10 | 2026-09-05 23:59:22 | 48.89607 | 13.10533 | 137° | 20km/h | 20860m | 3.3m/s | -54.2°C | 4.6% | 51.2hPa | 2.7V | 00:00:00 | 00:00:00 | 00:00:00 | |
| NBG1-10 | 2026-09-05 23:59:21 | 48.89611 | 13.10527 | 135° | 20km/h | 20856m | 4.8m/s | -54.1°C | 4.6% | 51.2hPa | 2.7V | 00:00:00 | 01:54:28 | 00:00:00 | |
| OE5HKT-10 | 2026-09-05 23:59:18 | 48.89630 | 13.10497 | 138° | 20km/h | 20838m | 5.3m/s | -54.0°C | 4.6% | 51.3hPa | 2.7V | 04:08:00 | 01:54:24 | 00:00:00 | |
| OE5MMP-10 | 2026-09-05 23:59:16 | 48.89634 | 13.10491 | 142° | 18km/h | 20833m | 4.2m/s | -54.0°C | 4.6% | 51.4hPa | 2.7V | 00:00:00 | 01:54:23 | 00:00:00 | |
| DL6DJ-15 | 2026-09-05 23:59:15 | 48.89640 | 13.10484 | 133° | 13km/h | 20825m | 4.6m/s | -54.0°C | 1.4% | 51.5hPa | 2.7V | 00:00:00 | 00:00:00 | 00:00:00 | |
| OE5DXL-15 | 2026-09-05 23:59:12 | 48.89644 | 13.10474 | 123° | 20km/h | 20816m | 3.6m/s | -53.9°C | 4.5% | 51.5hPa | 2.7V | 00:00:00 | 00:00:00 | 00:00:00 | |
| BAUMI2-15 | 2026-09-05 23:59:11 | 48.89647 | 13.10469 | 129° | 20km/h | 20812m | 3.8m/s | -53.8°C | 4.5% | 51.6hPa | 2.7V | 00:00:00 | 01:54:18 | 00:00:00 | |
| DM7RM-13 | 2026-09-05 23:59:10 | 48.89647 | 13.10469 | 129° | 18km/h | 20812m | 3.9m/s | 0°C | 0% | 0hPa | 2.7V | 00:00:00 | 00:00:00 | 00:00:00 | |
| EDDB2-11 | 2026-09-05 23:59:09 | 48.89658 | 13.10454 | 143° | 22km/h | 20799m | 4.0m/s | -53.8°C | 1.3% | 51.7hPa | 2.7V | 00:00:00 | 00:00:00 | 00:00:00 | |
| OE5DRO-10 | 2026-09-05 23:59:08 | 48.89658 | 13.10453 | 144° | 18km/h | 20799m | 4.0m/s | -53.8°C | 4.5% | 51.7hPa | 2.7V | 04:08:00 | 00:00:00 | 00:00:00 | |
| PETON7-10 | 2026-09-05 23:59:07 | 48.89663 | 13.10448 | 138° | 20km/h | 20795m | 4.5m/s | -53.8°C | 4.5% | 51.7hPa | 2.7V | 04:08:00 | 00:00:00 | 00:00:00 | |
| OE5MMP-10 | 2026-09-05 23:59:06 | 48.89667 | 13.10442 | 131° | 22km/h | 20790m | 4.9m/s | -53.7°C | 4.5% | 51.7hPa | 2.7V | 00:00:00 | 01:54:13 | 00:00:00 | |
| OE5WHR-10 | 2026-09-05 23:59:05 | 48.89670 | 13.10434 | 125° | 20km/h | 20786m | 3.7m/s | -53.7°C | 4.5% | 51.8hPa | 2.7V | 00:00:00 | 00:00:00 | 00:00:00 | |
| PG1ADW-2 | 2026-09-05 23:59:02 | 48.89682 | 13.10411 | 132° | 20km/h | 20773m | 4.7m/s | -53.6°C | 4.4% | 51.9hPa | 2.7V | 04:08:00 | 00:00:00 | 00:00:00 | |
| OE5REO-15 | 2026-09-05 23:59:01 | 48.89682 | 13.10411 | 133° | 27km/h | 20773m | 4.8m/s | -53.7°C | 1.3% | 51.9hPa | 2.7V | 04:08:00 | 00:00:00 | 00:00:00 | |
| SONCRA | 2026-09-05 23:59:00 | 48.89694 | 13.10391 | 126° | 18km/h | 20761m | 5.0m/s | -53.6°C | 1.3% | 52.0hPa | 2.7V | 00:00:00 | 00:00:00 | 00:00:00 | |
| OE5HKT-10 | 2026-09-05 23:58:56 | 48.89699 | 13.10375 | 119° | 18km/h | 20747m | 4.3m/s | -53.7°C | 4.4% | 52.1hPa | 2.7V | 00:00:00 | 00:00:00 | 00:00:00 | |
| PETON7-10 | 2026-09-05 23:58:52 | 48.89708 | 13.10364 | 143° | 20km/h | 20729m | 5.2m/s | -53.8°C | 4.5% | 52.2hPa | 2.7V | 00:00:00 | 01:53:59 | 00:00:00 | |
| BAUMI2-15 | 2026-09-05 23:58:51 | 48.89710 | 13.10361 | 135° | 20km/h | 20724m | 4.3m/s | -53.9°C | 4.5% | 52.3hPa | 2.7V | 00:00:00 | 01:53:58 | 00:00:00 | |
| OE5DRO-10 | 2026-09-05 23:58:49 | 48.89716 | 13.10351 | 131° | 20km/h | 20716m | 4.8m/s | -54.0°C | 4.6% | 52.3hPa | 2.7V | 00:00:00 | 00:00:00 | 00:00:00 | |
| NBG1-10 | 2026-09-05 23:58:48 | 48.89720 | 13.10344 | 130° | 106km/h | 20711m | 5.1m/s | -54.0°C | 4.6% | 52.4hPa | 2.7V | 04:08:00 | 01:53:55 | 00:00:00 | |
| OE5MMP-10 | 2026-09-05 23:58:46 | 48.89728 | 13.10327 | 119° | 20km/h | 20702m | 3.8m/s | -54.0°C | 4.5% | 52.4hPa | 2.7V | 00:00:00 | 01:53:53 | 00:00:00 | |
| OE5WHR-10 | 2026-09-05 23:58:44 | 48.89732 | 13.10306 | 101° | 16km/h | 20693m | 4.9m/s | -53.9°C | 4.5% | 52.5hPa | 2.7V | 04:08:00 | 01:53:51 | 00:00:00 | |
| DL6DJ-15 | 2026-09-05 23:58:43 | 48.89733 | 13.10297 | 93° | 22km/h | 20688m | 3.9m/s | -54.0°C | 1.4% | 52.6hPa | 2.7V | 00:00:00 | 00:00:00 | 00:00:00 | |
| PG1ADW-2 | 2026-09-05 23:58:42 | 48.89734 | 13.10289 | 95° | 16km/h | 20684m | 4.3m/s | -53.9°C | 4.5% | 52.6hPa | 2.7V | 00:00:00 | 00:00:00 | 00:00:00 | |
| BAUMI2-15 | 2026-09-05 23:58:41 | 48.89734 | 13.10282 | 102° | 13km/h | 20679m | 5.4m/s | -53.9°C | 4.6% | 52.6hPa | 2.7V | 00:00:00 | 01:53:48 | 00:00:00 | |
| EDDB2-11 | 2026-09-05 23:58:38 | 48.89739 | 13.10263 | 105° | 11km/h | 20660m | 5.5m/s | -54.0°C | 1.4% | 52.9hPa | 2.7V | 00:00:00 | 00:00:00 | 00:00:00 | |
| PETON7-10 | 2026-09-05 23:58:37 | 48.89739 | 13.10263 | 106° | 16km/h | 20660m | 5.5m/s | -53.9°C | 4.5% | 52.8hPa | 2.7V | 00:00:00 | 00:00:00 | 00:00:00 | |
| BAUMI2-15 | 2026-09-05 23:58:36 | 48.89740 | 13.10258 | 102° | 20km/h | 20655m | 4.6m/s | -54.0°C | 4.6% | 52.8hPa | 2.6V | 04:08:00 | 01:53:43 | 00:00:00 | |
| OE5HKT-10 | 2026-09-05 23:58:35 | 48.89741 | 13.10252 | 101° | 16km/h | 20651m | 4.9m/s | -54.0°C | 4.6% | 52.9hPa | 2.6V | 00:00:00 | 00:00:00 | 00:00:00 | |
| DK5PH-5 | 2026-09-05 23:58:31 | 48.89743 | 13.10217 | 87° | 15km/h | 20632m | 5.1m/s | -53.9°C | 4.6% | 53.0hPa | 2.6V | 04:08:00 | 01:53:38 | 00:00:00 | |
| OE5DRO-10 | 2026-09-05 23:58:30 | 48.89743 | 13.10208 | 85° | 15km/h | 20627m | 3.6m/s | -53.9°C | 4.6% | 53.1hPa | 2.6V | 00:00:00 | 00:00:00 | 00:00:00 | |
| SONCRA | 2026-09-05 23:58:28 | 48.89743 | 13.10191 | 95° | 16km/h | 20618m | 5.3m/s | -53.8°C | 1.4% | 53.2hPa | 2.6V | 00:00:00 | 00:00:00 | 00:00:00 | |
| OE5MMP-10 | 2026-09-05 23:58:26 | 48.89743 | 13.10182 | 95° | 13km/h | 20609m | 4.3m/s | -53.7°C | 4.6% | 53.2hPa | 2.6V | 00:00:00 | 01:53:33 | 00:00:00 | |
| OE5WHR-10 | 2026-09-05 23:58:23 | 48.89742 | 13.10175 | 71° | 13km/h | 20596m | 4.3m/s | -53.6°C | 4.5% | 53.3hPa | 2.6V | 00:00:00 | 00:00:00 | 00:00:00 | |
| PG1ADW-2 | 2026-09-05 23:58:22 | 48.89742 | 13.10172 | 83° | 13km/h | 20591m | 5.0m/s | -53.5°C | 4.5% | 53.4hPa | 2.7V | 00:00:00 | 00:00:00 | 00:00:00 | |
| SP3BTT-10 | 2026-09-05 23:58:21 | 48.89741 | 13.10168 | 87° | 22km/h | 20586m | 4.1m/s | -53.5°C | 4.5% | 53.4hPa | 2.7V | 00:00:00 | 00:00:00 | 00:00:00 | |
| OE5MMP-10 | 2026-09-05 23:58:16 | 48.89735 | 13.10133 | 79° | 11km/h | 20564m | 4.2m/s | -53.3°C | 4.5% | 53.6hPa | 2.6V | 00:00:00 | 01:53:23 | 00:00:00 | |
| S52SK | 2026-09-05 23:58:15 | 48.89735 | 13.10133 | 79° | 18km/h | 20564m | 4.3m/s | -53.3°C | 1.3% | 53.6hPa | 2.6V | 00:00:00 | 00:00:00 | 00:00:00 | |
| OE5HKT-10 | 2026-09-05 23:58:14 | 48.89735 | 13.10121 | 108° | 11km/h | 20554m | 4.0m/s | -53.2°C | 4.4% | 53.6hPa | 2.6V | 00:00:00 | 01:53:21 | 00:00:00 | |
| OE5DXL-15 | 2026-09-05 23:58:12 | 48.89737 | 13.10114 | 119° | 13km/h | 20546m | 5.0m/s | -53.1°C | 4.4% | 53.7hPa | 2.6V | 00:00:00 | 00:00:00 | 00:00:00 | |
| OE5DRO-10 | 2026-09-05 23:58:11 | 48.89738 | 13.10112 | 106° | 11km/h | 20541m | 4.6m/s | -53.1°C | 4.4% | 53.8hPa | 2.6V | 00:00:00 | 00:00:00 | 00:00:00 | |
| SONDE2-11 | 2026-09-05 23:58:10 | 48.89738 | 13.10109 | 97° | 5km/h | 20537m | 4.2m/s | -53.1°C | 1.3% | 53.9hPa | 2.6V | 00:00:00 | 00:00:00 | 00:00:00 | |
| EDDB2-11 | 2026-09-05 23:58:07 | 48.89739 | 13.10093 | 79° | 13km/h | 20518m | 4.3m/s | -53.0°C | 1.3% | 54.0hPa | 2.6V | 00:00:00 | 00:00:00 | 00:00:00 | |
| BAUMI2-15 | 2026-09-05 23:58:06 | 48.89739 | 13.10093 | 80° | 15km/h | 20518m | 4.3m/s | -52.9°C | 4.3% | 53.9hPa | 2.6V | 00:00:00 | 01:53:13 | 00:00:00 | |
| S52SK | 2026-09-05 23:58:05 | 48.89739 | 13.10093 | 80° | 15km/h | 20518m | 4.3m/s | -53.0°C | 1.3% | 54.0hPa | 2.6V | 00:00:00 | 00:00:00 | 00:00:00 | |
| OE5WHR-10 | 2026-09-05 23:58:02 | 48.89733 | 13.10072 | 73° | 13km/h | 20499m | 4.8m/s | -52.8°C | 4.3% | 54.1hPa | 2.6V | 00:00:00 | 00:00:00 | 00:00:00 | |
| OE5REO-15 | 2026-09-05 23:58:01 | 48.89733 | 13.10072 | 74° | 15km/h | 20499m | 4.9m/s | -52.8°C | 1.3% | 54.2hPa | 2.6V | 04:09:00 | 00:00:00 | 00:00:00 | |
| SONCRA | 2026-09-05 23:57:58 | 48.89737 | 13.10054 | 135° | 5km/h | 20475m | 5.2m/s | -52.7°C | 1.3% | 54.4hPa | 2.6V | 00:00:00 | 00:00:00 | 00:00:00 | |
| OE5MMP-10 | 2026-09-05 23:57:56 | 48.89738 | 13.10052 | 128° | 15km/h | 20470m | 4.2m/s | -52.6°C | 4.3% | 54.4hPa | 2.6V | 00:00:00 | 01:53:03 | 00:00:00 | |
| OE5HKT-10 | 2026-09-05 23:57:53 | 48.89741 | 13.10041 | 109° | 16km/h | 20456m | 4.5m/s | -52.6°C | 4.2% | 54.5hPa | 2.6V | 00:00:00 | 00:00:00 | 00:00:00 | |
| PETON7-10 | 2026-09-05 23:57:52 | 48.89742 | 13.10035 | 104° | 15km/h | 20451m | 4.3m/s | -52.6°C | 4.2% | 54.6hPa | 2.7V | 04:09:00 | 00:00:00 | 00:00:00 | |
| BAUMI2-15 | 2026-09-05 23:57:51 | 48.89743 | 13.10029 | 98° | 16km/h | 20447m | 5.4m/s | -52.5°C | 4.1% | 54.6hPa | 2.6V | 00:00:00 | 01:52:58 | 00:00:00 | |
| OE5MMP-10 | 2026-09-05 23:57:46 | 48.89747 | 13.09999 | 116° | 15km/h | 20423m | 4.9m/s | -52.5°C | 4.2% | 54.8hPa | 2.6V | 00:00:00 | 01:52:53 | 00:00:00 | |
| OE5REO-15 | 2026-09-05 23:57:45 | 48.89747 | 13.09999 | 116° | 18km/h | 20423m | 5.0m/s | -52.6°C | 1.3% | 54.8hPa | 2.6V | 04:10:00 | 00:00:00 | 00:00:00 | |
| PG1ADW-2 | 2026-09-05 23:57:42 | 48.89751 | 13.09979 | 85° | 20km/h | 20404m | 4.1m/s | -52.5°C | 4.1% | 54.9hPa | 2.6V | 00:00:00 | 00:00:00 | 00:00:00 | |
| OE5WHR-10 | 2026-09-05 23:57:41 | 48.89751 | 13.09974 | 85° | 22km/h | 20399m | 4.3m/s | -52.5°C | 4.1% | 55.0hPa | 2.6V | 00:00:00 | 01:52:48 | 00:00:00 | |
| SONDE2-11 | 2026-09-05 23:57:39 | 48.89752 | 13.09964 | 104° | 15km/h | 20388m | 5.6m/s | -52.7°C | 1.3% | 55.1hPa | 2.6V | 00:00:00 | 00:00:00 | 00:00:00 | |
| PETON7-10 | 2026-09-05 23:57:37 | 48.89755 | 13.09951 | 122° | 22km/h | 20379m | 4.6m/s | -52.7°C | 4.1% | 55.1hPa | 2.6V | 00:00:00 | 00:00:00 | 00:00:00 | |
| EDDB2-11 | 2026-09-05 23:57:36 | 48.89761 | 13.09941 | 136° | 15km/h | 20368m | 5.7m/s | -52.8°C | 1.2% | 55.3hPa | 2.6V | 00:00:00 | 00:00:00 | 00:00:00 | |
| OE5DRO-10 | 2026-09-05 23:57:33 | 48.89767 | 13.09935 | 153° | 27km/h | 20359m | 4.0m/s | -52.7°C | 4.0% | 55.3hPa | 2.6V | 04:09:00 | 00:00:00 | 00:00:00 | |
| OE5HKT-10 | 2026-09-05 23:57:32 | 48.89771 | 13.09931 | 153° | 29km/h | 20354m | 5.7m/s | -52.8°C | 4.0% | 55.3hPa | 2.6V | 04:09:00 | 00:00:00 | 00:00:00 | |
| DK5PH-5 | 2026-09-05 23:57:31 | 48.89776 | 13.09927 | 149° | 31km/h | 20348m | 5.9m/s | -52.9°C | 4.0% | 55.4hPa | 2.6V | 00:00:00 | 01:52:38 | 00:00:00 | |
| DL3JIN-12 | 2026-09-05 23:57:30 | 48.89776 | 13.09927 | 150° | 24km/h | 20348m | 6.0m/s | 0°C | 0% | 0hPa | 2.6V | 00:00:00 | 00:00:00 | 00:00:00 | |
| OE5REO-15 | 2026-09-05 23:57:29 | 48.89781 | 13.09922 | 143° | 24km/h | 20343m | 5.1m/s | -52.9°C | 1.2% | 55.5hPa | 2.6V | 04:10:00 | 00:00:00 | 00:00:00 | |
| SONCRA | 2026-09-05 23:57:27 | 48.89795 | 13.09894 | 114° | 24km/h | 20323m | 4.3m/s | -53.3°C | 1.3% | 55.7hPa | 2.6V | 00:00:00 | 00:00:00 | 00:00:00 | |
| OE5MMP-10 | 2026-09-05 23:57:26 | 48.89795 | 13.09893 | 115° | 29km/h | 20323m | 4.2m/s | -53.2°C | 4.1% | 55.6hPa | 2.6V | 00:00:00 | 01:52:33 | 00:00:00 | |
| SP3BTT-10 | 2026-09-05 23:57:21 | 48.89813 | 13.09847 | 133° | 38km/h | 20298m | 5.5m/s | -54.0°C | 4.4% | 55.8hPa | 2.6V | 00:00:00 | 00:00:00 | 00:00:00 | |
| OE5WHR-10 | 2026-09-05 23:57:20 | 48.89818 | 13.09840 | 142° | 37km/h | 20293m | 4.5m/s | -54.2°C | 4.4% | 55.9hPa | 2.6V | 00:00:00 | 00:00:00 | 00:00:00 | |
| OE5MMP-10 | 2026-09-05 23:57:16 | 48.89843 | 13.09814 | 140° | 38km/h | 20274m | 4.8m/s | -54.6°C | 4.6% | 56.1hPa | 2.7V | 04:10:00 | 01:52:23 | 00:00:00 | |
| OE5DRO-10 | 2026-09-05 23:57:14 | 48.89856 | 13.09793 | 129° | 38km/h | 20264m | 5.3m/s | -54.7°C | 4.7% | 56.1hPa | 2.7V | 00:00:00 | 00:00:00 | 00:00:00 | |
| OE5DXL-15 | 2026-09-05 23:57:12 | 48.89867 | 13.09770 | 120° | 40km/h | 20255m | 4.1m/s | -54.7°C | 4.7% | 56.2hPa | 2.7V | 00:00:00 | 00:00:00 | 00:00:00 | |
| OE5HKT-10 | 2026-09-05 23:57:11 | 48.89871 | 13.09758 | 119° | 40km/h | 20250m | 5.0m/s | -54.7°C | 4.7% | 56.3hPa | 2.7V | 00:00:00 | 01:52:18 | 00:00:00 | |
| DL6DJ-15 | 2026-09-05 23:57:10 | 48.89876 | 13.09744 | 119° | 40km/h | 20245m | 5.5m/s | -54.8°C | 1.5% | 56.4hPa | 2.7V | 00:00:00 | 00:00:00 | 00:00:00 | |
| DL3JIN-12 | 2026-09-05 23:57:09 | 48.89876 | 13.09744 | 121° | 40km/h | 20245m | 5.5m/s | 0°C | 0% | 0hPa | 2.7V | 00:00:00 | 00:00:00 | 00:00:00 | |
| SONDE2-11 | 2026-09-05 23:57:08 | 48.89887 | 13.09717 | 123° | 42km/h | 20235m | 3.9m/s | -54.8°C | 1.4% | 56.4hPa | 2.7V | 00:00:00 | 00:00:00 | 00:00:00 | |
| PETON7-10 | 2026-09-05 23:57:07 | 48.89893 | 13.09704 | 126° | 38km/h | 20231m | 4.2m/s | -54.8°C | 4.7% | 56.4hPa | 2.7V | 00:00:00 | 00:00:00 | 00:00:00 | |
| OE5MMP-10 | 2026-09-05 23:57:06 | 48.89899 | 13.09692 | 128° | 37km/h | 20226m | 5.3m/s | -54.7°C | 4.7% | 56.5hPa | 2.7V | 00:00:00 | 01:52:13 | 00:00:00 | |
| EDDB2-11 | 2026-09-05 23:57:04 | 48.89910 | 13.09672 | 134° | 33km/h | 20216m | 4.5m/s | -54.7°C | 1.4% | 56.6hPa | 2.7V | 00:00:00 | 00:00:00 | 00:00:00 | |
| PG1ADW-2 | 2026-09-05 23:57:02 | 48.89923 | 13.09654 | 142° | 40km/h | 20206m | 5.8m/s | -54.6°C | 4.6% | 56.6hPa | 2.7V | 00:00:00 | 00:00:00 | 00:00:00 | |
| SONCRA | 2026-09-05 23:56:56 | 48.89979 | 13.09592 | 136° | 40km/h | 20172m | 5.5m/s | -54.5°C | 1.4% | 57.0hPa | 2.6V | 00:00:00 | 00:00:00 | 00:00:00 | |
| OE5DRO-10 | 2026-09-05 23:56:55 | 48.89979 | 13.09592 | 137° | 42km/h | 20172m | 5.5m/s | -54.4°C | 4.6% | 56.9hPa | 2.6V | 00:00:00 | 00:00:00 | 00:00:00 | |
| PETON7-10 | 2026-09-05 23:56:52 | 48.90001 | 13.09556 | 130° | 40km/h | 20158m | 5.2m/s | -54.4°C | 4.6% | 57.1hPa | 2.6V | 00:00:00 | 00:00:00 | 00:00:00 | |
| OE5HKT-10 | 2026-09-05 23:56:50 | 48.90014 | 13.09531 | 131° | 44km/h | 20148m | 3.5m/s | -54.3°C | 4.6% | 57.1hPa | 2.6V | 00:00:00 | 00:00:00 | 00:00:00 | |
| OE5MMP-10 | 2026-09-05 23:56:46 | 48.90043 | 13.09482 | 136° | 40km/h | 20130m | 3.9m/s | -54.3°C | 4.5% | 57.3hPa | 2.7V | 00:00:00 | 01:51:53 | 00:00:00 | |
| DL3JIN-12 | 2026-09-05 23:56:45 | 48.90043 | 13.09482 | 136° | 42km/h | 20130m | 3.9m/s | 0°C | 0% | 0hPa | 2.7V | 00:00:00 | 00:00:00 | 00:00:00 | |
| OE5REO-15 | 2026-09-05 23:56:43 | 48.90057 | 13.09462 | 139° | 35km/h | 20120m | 5.1m/s | -54.4°C | 1.4% | 57.4hPa | 2.7V | 04:11:00 | 00:00:00 | 00:00:00 | |
| PG1ADW-2 | 2026-09-05 23:56:42 | 48.90071 | 13.09445 | 142° | 46km/h | 20112m | 4.1m/s | -54.7°C | 4.6% | 57.5hPa | 2.7V | 00:00:00 | 01:51:49 | 00:00:00 | |
| DL6DJ-15 | 2026-09-05 23:56:39 | 48.90095 | 13.09417 | 142° | 46km/h | 20097m | 4.2m/s | -55.0°C | 1.5% | 57.7hPa | 2.7V | 00:00:00 | 00:00:00 | 00:00:00 | |
| OE5WHR-10 | 2026-09-05 23:56:38 | 48.90104 | 13.09406 | 142° | 46km/h | 20093m | 4.6m/s | -54.9°C | 4.8% | 57.7hPa | 2.7V | 00:00:00 | 01:51:45 | 00:00:00 | |
| PETON7-10 | 2026-09-05 23:56:37 | 48.90113 | 13.09395 | 141° | 46km/h | 20088m | 5.4m/s | -54.9°C | 4.8% | 57.7hPa | 2.7V | 04:10:00 | 01:51:44 | 00:00:00 | |
| OE5MMP-10 | 2026-09-05 23:56:36 | 48.90122 | 13.09383 | 140° | 46km/h | 20083m | 4.1m/s | -54.9°C | 4.7% | 57.7hPa | 2.7V | 00:00:00 | 01:51:43 | 00:00:00 | |
| EDDB2-11 | 2026-09-05 23:56:33 | 48.90150 | 13.09347 | 139° | 49km/h | 20069m | 5.0m/s | -54.9°C | 1.4% | 57.9hPa | 2.7V | 00:00:00 | 00:00:00 | 00:00:00 | |
| DK5PH-5 | 2026-09-05 23:56:31 | 48.90169 | 13.09322 | 140° | 44km/h | 20060m | 4.4m/s | -54.7°C | 4.6% | 57.9hPa | 2.7V | 00:00:00 | 01:51:38 | 00:00:00 | |
| OE5HKT-10 | 2026-09-05 23:56:29 | 48.90186 | 13.09300 | 140° | 44km/h | 20050m | 4.4m/s | -54.7°C | 4.6% | 58.0hPa | 2.7V | 00:00:00 | 00:00:00 | 00:00:00 | |
| OE5REO-15 | 2026-09-05 23:56:28 | 48.90187 | 13.09300 | 141° | 42km/h | 20050m | 4.4m/s | -54.7°C | 1.4% | 58.1hPa | 2.7V | 04:11:00 | 00:00:00 | 00:00:00 | |
| OE5MMP-10 | 2026-09-05 23:56:26 | 48.90211 | 13.09269 | 141° | 46km/h | 20036m | 4.7m/s | -54.7°C | 4.6% | 58.2hPa | 2.7V | 04:11:00 | 01:51:33 | 00:00:00 | |
| SONCRA | 2026-09-05 23:56:24 | 48.90229 | 13.09246 | 137° | 46km/h | 20027m | 4.8m/s | -54.7°C | 1.4% | 58.3hPa | 2.7V | 00:00:00 | 00:00:00 | 00:00:00 | |
| OE5WHR-10 | 2026-09-05 23:56:17 | 48.90283 | 13.09160 | 133° | 44km/h | 19994m | 4.2m/s | -54.7°C | 4.6% | 58.6hPa | 2.7V | 00:00:00 | 00:00:00 | 00:00:00 | |
| OE5MMP-10 | 2026-09-05 23:56:16 | 48.90290 | 13.09147 | 130° | 42km/h | 19989m | 6.0m/s | -54.8°C | 4.6% | 58.6hPa | 2.7V | 00:00:00 | 01:51:23 | 00:00:00 | |
| OE5REO-15 | 2026-09-05 23:56:13 | 48.90303 | 13.09122 | 126° | 40km/h | 19979m | 4.2m/s | -54.8°C | 1.4% | 58.7hPa | 2.7V | 04:11:00 | 00:00:00 | 00:00:00 | |
| OE5DXL-15 | 2026-09-05 23:56:12 | 48.90316 | 13.09096 | 128° | 46km/h | 19969m | 4.3m/s | -54.7°C | 4.6% | 58.8hPa | 2.7V | 00:00:00 | 00:00:00 | 00:00:00 | |
| S52SK | 2026-09-05 23:56:10 | 48.90322 | 13.09083 | 128° | 42km/h | 19965m | 4.0m/s | -54.7°C | 1.4% | 58.9hPa | 2.7V | 00:00:00 | 00:00:00 | 00:00:00 | |
| OE5HKT-10 | 2026-09-05 23:56:08 | 48.90340 | 13.09045 | 128° | 46km/h | 19951m | 4.3m/s | -54.7°C | 4.6% | 58.9hPa | 2.7V | 00:00:00 | 01:51:15 | 00:00:00 | |
| PETON7-10 | 2026-09-05 23:56:07 | 48.90347 | 13.09032 | 132° | 47km/h | 19946m | 5.3m/s | -54.7°C | 4.6% | 59.0hPa | 2.7V | 00:00:00 | 00:00:00 | 00:00:00 | |
| OE5MMP-10 | 2026-09-05 23:56:06 | 48.90355 | 13.09019 | 134° | 47km/h | 19942m | 4.7m/s | -54.6°C | 4.6% | 59.1hPa | 2.7V | 00:00:00 | 01:51:13 | 00:00:00 | |
| S52SK | 2026-09-05 23:56:05 | 48.90355 | 13.09019 | 135° | 47km/h | 19942m | 4.7m/s | -54.7°C | 1.4% | 59.1hPa | 2.7V | 00:00:00 | 00:00:00 | 00:00:00 | |
| SP3BTT-10 | 2026-09-05 23:56:04 | 48.90371 | 13.08993 | 133° | 49km/h | 19933m | 4.5m/s | -54.6°C | 4.5% | 59.1hPa | 2.7V | 00:00:00 | 00:00:00 | 00:00:00 | |
| PG1ADW-2 | 2026-09-05 23:56:02 | 48.90386 | 13.08966 | 128° | 46km/h | 19924m | 4.5m/s | -54.6°C | 4.6% | 59.2hPa | 2.7V | 00:00:00 | 00:00:00 | 00:00:00 | |
| DK5PH-5 | 2026-09-05 23:56:01 | 48.90393 | 13.08953 | 126° | 47km/h | 19919m | 4.0m/s | -54.7°C | 4.6% | 59.2hPa | 2.7V | 04:11:00 | 01:51:08 | 00:00:00 | |
| S52SK | 2026-09-05 23:55:59 | 48.90399 | 13.08939 | 126° | 46km/h | 19915m | 5.0m/s | -54.7°C | 1.4% | 59.3hPa | 2.7V | 00:00:00 | 00:00:00 | 00:00:00 | |
| OE5DRO-10 | 2026-09-05 23:55:58 | 48.90414 | 13.08908 | 127° | 47km/h | 19905m | 4.1m/s | -54.8°C | 4.6% | 59.4hPa | 2.7V | 04:11:00 | 00:00:00 | 00:00:00 | |
| OE5REO-15 | 2026-09-05 23:55:57 | 48.90414 | 13.08908 | 127° | 49km/h | 19905m | 4.2m/s | -54.8°C | 1.4% | 59.4hPa | 2.7V | 04:12:00 | 00:00:00 | 00:00:00 | |
| OE5WHR-10 | 2026-09-05 23:55:56 | 48.90428 | 13.08879 | 128° | 47km/h | 19896m | 5.3m/s | -54.9°C | 4.6% | 59.5hPa | 2.7V | 00:00:00 | 00:00:00 | 00:00:00 | |
| PETON7-10 | 2026-09-05 23:55:52 | 48.90460 | 13.08824 | 136° | 47km/h | 19876m | 4.1m/s | -55.1°C | 4.6% | 59.7hPa | 2.7V | 00:00:00 | 01:50:59 | 00:00:00 | |
| OE5HKT-10 | 2026-09-05 23:55:47 | 48.90499 | 13.08765 | 132° | 49km/h | 19854m | 4.7m/s | -55.3°C | 4.7% | 59.8hPa | 2.7V | 04:11:00 | 00:00:00 | 00:00:00 | |
| OE5MMP-10 | 2026-09-05 23:55:46 | 48.90506 | 13.08752 | 131° | 49km/h | 19849m | 5.0m/s | -55.3°C | 4.7% | 59.9hPa | 2.6V | 00:00:00 | 01:50:53 | 00:00:00 | |
| PG1ADW-2 | 2026-09-05 23:55:42 | 48.90536 | 13.08695 | 128° | 49km/h | 19829m | 4.3m/s | -55.4°C | 4.7% | 60.1hPa | 2.6V | 04:11:00 | 00:00:00 | 00:00:00 | |
| OE5REO-15 | 2026-09-05 23:55:41 | 48.90536 | 13.08695 | 128° | 47km/h | 19829m | 4.4m/s | -55.5°C | 1.4% | 60.1hPa | 2.6V | 04:12:00 | 00:00:00 | 00:00:00 | |
| OE5DRO-10 | 2026-09-05 23:55:39 | 48.90559 | 13.08648 | 124° | 49km/h | 19815m | 4.4m/s | -55.3°C | 4.7% | 60.2hPa | 2.6V | 00:00:00 | 00:00:00 | 00:00:00 | |
| PETON7-10 | 2026-09-05 23:55:37 | 48.90572 | 13.08615 | 121° | 49km/h | 19805m | 5.6m/s | -55.4°C | 4.7% | 60.3hPa | 2.7V | 00:00:00 | 00:00:00 | 00:00:00 | |
| OE5MMP-10 | 2026-09-05 23:55:36 | 48.90579 | 13.08599 | 120° | 49km/h | 19800m | 4.1m/s | -55.4°C | 4.7% | 60.4hPa | 2.7V | 04:11:00 | 01:50:43 | 00:00:00 | |
| OE5WHR-10 | 2026-09-05 23:55:35 | 48.90584 | 13.08583 | 119° | 49km/h | 19796m | 4.6m/s | -55.4°C | 4.7% | 60.4hPa | 2.7V | 00:00:00 | 01:50:42 | 00:00:00 | |
| EDDB2-11 | 2026-09-05 23:55:31 | 48.90609 | 13.08516 | 117° | 47km/h | 19778m | 5.3m/s | -55.6°C | 1.4% | 60.6hPa | 2.7V | 00:00:00 | 00:00:00 | 00:00:00 | |
| DK5PH-5 | 2026-09-05 23:55:30 | 48.90614 | 13.08499 | 118° | 47km/h | 19773m | 5.1m/s | -55.7°C | 4.8% | 60.6hPa | 2.7V | 00:00:00 | 01:50:37 | 00:00:00 | |
| OE5MMP-10 | 2026-09-05 23:55:26 | 48.90638 | 13.08431 | 119° | 49km/h | 19753m | 3.5m/s | -56.2°C | 5.1% | 60.8hPa | 2.7V | 00:00:00 | 01:50:33 | 00:00:00 | |
| OE5REO-15 | 2026-09-05 23:55:25 | 48.90638 | 13.08431 | 119° | 51km/h | 19753m | 3.5m/s | -56.2°C | 1.6% | 60.9hPa | 2.7V | 04:12:00 | 00:00:00 | 00:00:00 | |
| PETON7-10 | 2026-09-05 23:55:22 | 48.90662 | 13.08366 | 120° | 47km/h | 19735m | 5.0m/s | -56.2°C | 5.0% | 61.0hPa | 2.7V | 04:12:00 | 00:00:00 | 00:00:00 | |
| SP3BTT-10 | 2026-09-05 23:55:17 | 48.90692 | 13.08281 | 118° | 46km/h | 19711m | 4.5m/s | -56.1°C | 4.9% | 61.2hPa | 2.7V | 04:12:00 | 00:00:00 | 00:00:00 | |
| OE5MMP-10 | 2026-09-05 23:55:16 | 48.90698 | 13.08264 | 118° | 46km/h | 19706m | 5.5m/s | -56.1°C | 4.9% | 61.2hPa | 2.6V | 00:00:00 | 01:50:23 | 00:00:00 | |
| OE5WHR-10 | 2026-09-05 23:55:14 | 48.90710 | 13.08230 | 118° | 46km/h | 19696m | 4.0m/s | -56.1°C | 4.9% | 61.3hPa | 2.6V | 04:12:00 | 00:00:00 | 00:00:00 | |
| OE5DXL-15 | 2026-09-05 23:55:12 | 48.90721 | 13.08198 | 120° | 44km/h | 19687m | 5.2m/s | -56.1°C | 4.9% | 61.4hPa | 2.7V | 04:12:00 | 00:00:00 | 00:00:00 | |
| BAUMI2-15 | 2026-09-05 23:55:11 | 48.90727 | 13.08183 | 120° | 42km/h | 19682m | 3.9m/s | -56.2°C | 4.9% | 61.5hPa | 2.7V | 00:00:00 | 01:50:18 | 00:00:00 | |
| OE5REO-15 | 2026-09-05 23:55:10 | 48.90726 | 13.08183 | 120° | 42km/h | 19682m | 4.0m/s | -56.2°C | 1.5% | 61.5hPa | 2.7V | 04:12:00 | 00:00:00 | 00:00:00 | |
| PETON7-10 | 2026-09-05 23:55:07 | 48.90746 | 13.08125 | 115° | 46km/h | 19665m | 3.9m/s | -56.3°C | 5.0% | 61.7hPa | 2.7V | 00:00:00 | 01:50:14 | 00:00:00 | |
| OE5MMP-10 | 2026-09-05 23:55:06 | 48.90751 | 13.08110 | 114° | 46km/h | 19661m | 3.8m/s | -56.4°C | 5.1% | 61.7hPa | 2.7V | 00:00:00 | 01:50:13 | 00:00:00 | |
| OE5HKT-10 | 2026-09-05 23:55:05 | 48.90755 | 13.08095 | 114° | 46km/h | 19657m | 5.3m/s | -56.5°C | 5.0% | 61.7hPa | 2.7V | 00:00:00 | 01:50:12 | 00:00:00 | |
| SONDE2-11 | 2026-09-05 23:55:04 | 48.90759 | 13.08080 | 112° | 40km/h | 19652m | 4.3m/s | -56.6°C | 1.6% | 61.8hPa | 2.7V | 00:00:00 | 00:00:00 | 00:00:00 | |
| PG1ADW-2 | 2026-09-05 23:55:02 | 48.90767 | 13.08049 | 110° | 46km/h | 19644m | 4.5m/s | -56.5°C | 5.0% | 61.9hPa | 2.7V | 00:00:00 | 00:00:00 | 00:00:00 | |
| BAUMI2-15 | 2026-09-05 23:55:01 | 48.90771 | 13.08032 | 109° | 49km/h | 19639m | 5.0m/s | -56.6°C | 5.0% | 61.9hPa | 2.6V | 00:00:00 | 01:50:08 | 00:00:00 | |
| DK5PH-5 | 2026-09-05 23:55:00 | 48.90775 | 13.08014 | 111° | 42km/h | 19635m | 4.1m/s | -56.6°C | 5.1% | 61.9hPa | 2.6V | 00:00:00 | 01:50:07 | 00:00:00 | |
| OE5MMP-10 | 2026-09-05 23:54:56 | 48.90795 | 13.07945 | 116° | 42km/h | 19617m | 3.8m/s | -56.6°C | 5.1% | 62.1hPa | 2.7V | 00:00:00 | 01:50:03 | 00:00:00 | |
| OE5REO-15 | 2026-09-05 23:54:54 | 48.90800 | 13.07929 | 113° | 44km/h | 19613m | 4.7m/s | -56.6°C | 1.6% | 62.2hPa | 2.7V | 04:12:00 | 00:00:00 | 00:00:00 | |
| OE5WHR-10 | 2026-09-05 23:54:53 | 48.90806 | 13.07897 | 100° | 42km/h | 19603m | 4.2m/s | -56.5°C | 5.1% | 62.2hPa | 2.7V | 00:00:00 | 00:00:00 | 00:00:00 | |
| PETON7-10 | 2026-09-05 23:54:52 | 48.90807 | 13.07881 | 95° | 42km/h | 19599m | 4.9m/s | -56.5°C | 5.0% | 62.3hPa | 2.7V | 00:00:00 | 00:00:00 | 00:00:00 | |
| BAUMI2-15 | 2026-09-05 23:54:51 | 48.90808 | 13.07866 | 92° | 42km/h | 19594m | 4.8m/s | -56.5°C | 5.1% | 62.3hPa | 2.6V | 00:00:00 | 01:49:58 | 00:00:00 | |
| SP3BTT-10 | 2026-09-05 23:54:47 | 48.90808 | 13.07802 | 95° | 47km/h | 19578m | 4.5m/s | -56.4°C | 5.0% | 62.5hPa | 2.6V | 00:00:00 | 00:00:00 | 00:00:00 | |
| BAUMI2-15 | 2026-09-05 23:54:46 | 48.90810 | 13.07784 | 100° | 44km/h | 19573m | 3.5m/s | -56.4°C | 5.0% | 62.5hPa | 2.6V | 00:00:00 | 01:49:53 | 00:00:00 | |
| OE5HKT-10 | 2026-09-05 23:54:44 | 48.90816 | 13.07749 | 110° | 38km/h | 19565m | 5.1m/s | -56.4°C | 4.9% | 62.6hPa | 2.6V | 00:00:00 | 00:00:00 | 00:00:00 | |
| PG1ADW-2 | 2026-09-05 23:54:42 | 48.90825 | 13.07721 | 121° | 38km/h | 19556m | 4.1m/s | -56.5°C | 5.0% | 62.7hPa | 2.7V | 00:00:00 | 00:00:00 | 00:00:00 | |
| BAUMI2-15 | 2026-09-05 23:54:41 | 48.90830 | 13.07708 | 122° | 40km/h | 19551m | 4.4m/s | -56.6°C | 5.1% | 62.8hPa | 2.7V | 00:00:00 | 01:49:48 | 00:00:00 | |
| OE5REO-15 | 2026-09-05 23:54:38 | 48.90839 | 13.07682 | 115° | 40km/h | 19542m | 4.6m/s | -56.8°C | 1.6% | 62.9hPa | 2.7V | 04:12:00 | 00:00:00 | 00:00:00 | |
| PETON7-10 | 2026-09-05 23:54:37 | 48.90846 | 13.07653 | 107° | 37km/h | 19533m | 5.0m/s | -56.7°C | 5.1% | 63.0hPa | 2.7V | 00:00:00 | 00:00:00 | 00:00:00 | |
| OE5MMP-10 | 2026-09-05 23:54:36 | 48.90849 | 13.07638 | 104° | 37km/h | 19528m | 5.1m/s | -56.7°C | 5.1% | 63.0hPa | 2.7V | 00:00:00 | 01:49:43 | 00:00:00 | |
| DL6DJ-15 | 2026-09-05 23:54:35 | 48.90851 | 13.07624 | 101° | 37km/h | 19523m | 4.3m/s | -56.7°C | 1.6% | 63.1hPa | 2.7V | 00:00:00 | 00:00:00 | 00:00:00 | |
| SONDE2-11 | 2026-09-05 23:54:33 | 48.90854 | 13.07594 | 98° | 38km/h | 19514m | 4.4m/s | -56.7°C | 1.6% | 63.2hPa | 2.7V | 00:00:00 | 00:00:00 | 00:00:00 | |
| OE5WHR-10 | 2026-09-05 23:54:32 | 48.90856 | 13.07580 | 100° | 40km/h | 19510m | 3.3m/s | -56.6°C | 5.0% | 63.2hPa | 2.7V | 00:00:00 | 01:49:39 | 00:00:00 | |
| BAUMI2-15 | 2026-09-05 23:54:31 | 48.90858 | 13.07566 | 103° | 35km/h | 19506m | 5.1m/s | -56.6°C | 5.1% | 63.2hPa | 2.7V | 04:12:00 | 01:49:38 | 00:00:00 | |
| DK5PH-5 | 2026-09-05 23:54:30 | 48.90860 | 13.07553 | 109° | 40km/h | 19501m | 4.7m/s | -56.7°C | 5.1% | 63.3hPa | 2.7V | 00:00:00 | 01:49:37 | 00:00:00 | |
| EDDB2-11 | 2026-09-05 23:54:29 | 48.90863 | 13.07541 | 113° | 33km/h | 19496m | 4.4m/s | -56.7°C | 1.6% | 63.4hPa | 2.7V | 00:00:00 | 00:00:00 | 00:00:00 | |
| OE5HKT-10 | 2026-09-05 23:54:23 | 48.90893 | 13.07471 | 123° | 42km/h | 19468m | 3.7m/s | -56.7°C | 5.1% | 63.6hPa | 2.7V | 00:00:00 | 00:00:00 | 00:00:00 | |
| PETON7-10 | 2026-09-05 23:54:22 | 48.90897 | 13.07458 | 119° | 42km/h | 19463m | 4.8m/s | -56.7°C | 5.1% | 63.6hPa | 2.7V | 00:00:00 | 01:49:29 | 00:00:00 | |
| BAUMI2-15 | 2026-09-05 23:54:21 | 48.90902 | 13.07445 | 115° | 42km/h | 19459m | 4.6m/s | -56.7°C | 5.1% | 63.7hPa | 2.7V | 00:00:00 | 01:49:28 | 00:00:00 | |
| SONCRA | 2026-09-05 23:54:20 | 48.90906 | 13.07430 | 110° | 42km/h | 19454m | 3.9m/s | -56.8°C | 1.6% | 63.8hPa | 2.7V | 00:00:00 | 00:00:00 | 00:00:00 | |
| BAUMI2-15 | 2026-09-05 23:54:16 | 48.90918 | 13.07369 | 108° | 44km/h | 19437m | 3.6m/s | -56.8°C | 5.1% | 63.9hPa | 2.7V | 00:00:00 | 01:49:23 | 00:00:00 | |
| OE5DXL-15 | 2026-09-05 23:54:12 | 48.90935 | 13.07308 | 118° | 46km/h | 19419m | 4.6m/s | -56.7°C | 5.1% | 64.1hPa | 2.7V | 00:00:00 | 00:00:00 | 00:00:00 | |
| OE5WHR-10 | 2026-09-05 23:54:11 | 48.90940 | 13.07293 | 119° | 44km/h | 19414m | 4.8m/s | -56.7°C | 5.1% | 64.1hPa | 2.7V | 00:00:00 | 00:00:00 | 00:00:00 | |
| OE5REO-15 | 2026-09-05 23:54:08 | 48.90950 | 13.07264 | 117° | 44km/h | 19406m | 4.0m/s | -56.7°C | 1.6% | 64.3hPa | 2.7V | 04:13:00 | 00:00:00 | 00:00:00 | |
| PETON7-10 | 2026-09-05 23:54:07 | 48.90960 | 13.07232 | 112° | 44km/h | 19397m | 3.7m/s | -56.7°C | 5.1% | 64.3hPa | 2.7V | 04:13:00 | 00:00:00 | 00:00:00 | |
| OE5MMP-10 | 2026-09-05 23:54:06 | 48.90964 | 13.07215 | 109° | 44km/h | 19393m | 3.7m/s | -56.7°C | 5.1% | 64.4hPa | 2.7V | 00:00:00 | 01:49:13 | 00:00:00 | |
| S52SK | 2026-09-05 23:54:05 | 48.90964 | 13.07215 | 110° | 47km/h | 19393m | 3.8m/s | -56.7°C | 1.6% | 64.4hPa | 2.6V | 00:00:00 | 00:00:00 | 00:00:00 | |
| OE5DRO-10 | 2026-09-05 23:54:04 | 48.90970 | 13.07181 | 104° | 44km/h | 19384m | 4.7m/s | -56.7°C | 5.1% | 64.5hPa | 2.6V | 00:00:00 | 00:00:00 | 00:00:00 | |
| OE5HKT-10 | 2026-09-05 23:54:02 | 48.90975 | 13.07149 | 104° | 46km/h | 19375m | 4.2m/s | -56.7°C | 5.1% | 64.6hPa | 2.6V | 04:13:00 | 01:49:09 | 00:00:00 | |
| EDDB2-11 | 2026-09-05 23:53:58 | 48.90988 | 13.07084 | 110° | 42km/h | 19357m | 5.1m/s | -56.7°C | 1.5% | 64.8hPa | 2.6V | 00:00:00 | 00:00:00 | 00:00:00 | |
| SONCRA | 2026-09-05 23:53:49 | 48.91014 | 13.06945 | 90° | 44km/h | 19318m | 3.6m/s | -56.8°C | 1.6% | 65.2hPa | 2.6V | 00:00:00 | 00:00:00 | 00:00:00 | |
| OE5MMP-10 | 2026-09-05 23:53:46 | 48.91015 | 13.06887 | 93° | 49km/h | 19305m | 3.6m/s | -56.7°C | 5.2% | 65.3hPa | 2.6V | 00:00:00 | 01:48:53 | 00:00:00 | |
| OE5DRO-10 | 2026-09-05 23:53:45 | 48.91016 | 13.06866 | 94° | 49km/h | 19301m | 3.9m/s | -56.7°C | 5.2% | 65.3hPa | 2.6V | 00:00:00 | 00:00:00 | 00:00:00 | |
| PG1ADW-2 | 2026-09-05 23:53:42 | 48.91018 | 13.06806 | 96° | 47km/h | 19288m | 3.8m/s | -56.7°C | 5.2% | 65.4hPa | 2.7V | 00:00:00 | 00:00:00 | 00:00:00 | |
| OE5HKT-10 | 2026-09-05 23:53:41 | 48.91020 | 13.06787 | 97° | 47km/h | 19283m | 5.2m/s | -56.7°C | 5.2% | 65.5hPa | 2.7V | 00:00:00 | 00:00:00 | 00:00:00 | |
| PETON7-10 | 2026-09-05 23:53:37 | 48.91027 | 13.06716 | 99° | 47km/h | 19265m | 4.7m/s | -56.5°C | 5.1% | 65.7hPa | 2.6V | 00:00:00 | 01:48:44 | 00:00:00 | |
| OE5MMP-10 | 2026-09-05 23:53:36 | 48.91029 | 13.06700 | 99° | 47km/h | 19261m | 3.7m/s | -56.5°C | 5.1% | 65.7hPa | 2.6V | 00:00:00 | 01:48:43 | 00:00:00 | |
| DL6DJ-15 | 2026-09-05 23:53:33 | 48.91034 | 13.06630 | 92° | 49km/h | 19243m | 4.2m/s | -56.4°C | 1.5% | 65.9hPa | 2.6V | 00:00:00 | 00:00:00 | 00:00:00 | |
| BAUMI2-15 | 2026-09-05 23:53:31 | 48.91034 | 13.06611 | 90° | 49km/h | 19238m | 5.2m/s | -56.3°C | 5.0% | 65.9hPa | 2.6V | 00:00:00 | 01:48:38 | 00:00:00 | |
| OE5WHR-10 | 2026-09-05 23:53:29 | 48.91033 | 13.06573 | 88° | 49km/h | 19229m | 4.8m/s | -56.3°C | 5.1% | 66.0hPa | 2.6V | 04:13:00 | 01:48:36 | 00:00:00 | |
| DK5PH-5 | 2026-09-05 23:53:28 | 48.91032 | 13.06553 | 90° | 51km/h | 19223m | 5.3m/s | -56.3°C | 5.1% | 66.1hPa | 2.6V | 04:13:00 | 01:48:35 | 00:00:00 | |
| EDDB2-11 | 2026-09-05 23:53:27 | 48.91032 | 13.06534 | 90° | 49km/h | 19219m | 3.7m/s | -56.3°C | 1.5% | 66.2hPa | 2.6V | 00:00:00 | 00:00:00 | 00:00:00 | |
| OE5MMP-10 | 2026-09-05 23:53:26 | 48.91032 | 13.06515 | 91° | 49km/h | 19215m | 3.8m/s | -56.2°C | 5.0% | 66.2hPa | 2.6V | 00:00:00 | 01:48:33 | 00:00:00 | |
| PETON7-10 | 2026-09-05 23:53:22 | 48.91034 | 13.06445 | 96° | 49km/h | 19197m | 5.1m/s | -56.1°C | 5.0% | 66.4hPa | 2.6V | 00:00:00 | 00:00:00 | 00:00:00 | |
| OE5HKT-10 | 2026-09-05 23:53:20 | 48.91036 | 13.06408 | 92° | 51km/h | 19188m | 4.1m/s | -56.0°C | 5.0% | 66.5hPa | 2.6V | 00:00:00 | 00:00:00 | 00:00:00 | |
| SONCRA | 2026-09-05 23:53:18 | 48.91035 | 13.06368 | 86° | 51km/h | 19179m | 4.2m/s | -56.0°C | 1.5% | 66.6hPa | 2.6V | 00:00:00 | 00:00:00 | 00:00:00 | |
| OE5MMP-10 | 2026-09-05 23:53:16 | 48.91034 | 13.06327 | 89° | 49km/h | 19170m | 5.3m/s | -55.9°C | 5.0% | 66.7hPa | 2.6V | 00:00:00 | 01:48:23 | 00:00:00 | |
| OE5DXL-15 | 2026-09-05 23:53:12 | 48.91033 | 13.06249 | 89° | 49km/h | 19151m | 5.0m/s | -55.8°C | 5.0% | 66.8hPa | 2.6V | 00:00:00 | 00:00:00 | 00:00:00 | |
| OE5WHR-10 | 2026-09-05 23:53:08 | 48.91036 | 13.06176 | 98° | 51km/h | 19133m | 3.4m/s | -55.8°C | 4.9% | 67.1hPa | 2.6V | 00:00:00 | 00:00:00 | 00:00:00 | |
| PETON7-10 | 2026-09-05 23:53:07 | 48.91037 | 13.06157 | 97° | 51km/h | 19128m | 4.7m/s | -55.8°C | 4.9% | 67.1hPa | 2.7V | 00:00:00 | 00:00:00 | 00:00:00 | |
| DL6DJ-15 | 2026-09-05 23:53:02 | 48.91041 | 13.06036 | 90° | 53km/h | 19099m | 4.8m/s | -55.7°C | 1.5% | 67.5hPa | 2.7V | 00:00:00 | 00:00:00 | 00:00:00 | |
| SONDE2-11 | 2026-09-05 23:53:00 | 48.91040 | 13.05996 | 86° | 51km/h | 19089m | 4.5m/s | -55.7°C | 1.5% | 67.5hPa | 2.7V | 00:00:00 | 00:00:00 | 00:00:00 | |
| OE5HKT-10 | 2026-09-05 23:52:59 | 48.91040 | 13.05995 | 87° | 49km/h | 19089m | 4.5m/s | -55.6°C | 5.0% | 67.5hPa | 2.7V | 00:00:00 | 01:48:06 | 00:00:00 | |
| DK5PH-5 | 2026-09-05 23:52:58 | 48.91039 | 13.05976 | 87° | 49km/h | 19085m | 4.1m/s | -55.6°C | 4.9% | 67.5hPa | 2.7V | 00:00:00 | 01:48:05 | 00:00:00 | |
| OE5MMP-10 | 2026-09-05 23:52:56 | 48.91038 | 13.05937 | 91° | 49km/h | 19075m | 4.7m/s | -55.5°C | 4.9% | 67.7hPa | 2.7V | 00:00:00 | 01:48:03 | 00:00:00 | |
| PETON7-10 | 2026-09-05 23:52:52 | 48.91038 | 13.05862 | 89° | 49km/h | 19056m | 4.3m/s | -55.3°C | 4.8% | 67.8hPa | 2.7V | 04:14:00 | 01:47:59 | 00:00:00 | |
| OE5REO-15 | 2026-09-05 23:52:50 | 48.91039 | 13.05823 | 94° | 51km/h | 19047m | 5.0m/s | -55.3°C | 1.5% | 68.0hPa | 2.7V | 04:14:00 | 00:00:00 | 00:00:00 | |
| OE5DRO-10 | 2026-09-05 23:52:48 | 48.91040 | 13.05785 | 94° | 49km/h | 19038m | 5.2m/s | -55.2°C | 4.8% | 68.1hPa | 2.7V | 04:14:00 | 00:00:00 | 00:00:00 | |
| OE5WHR-10 | 2026-09-05 23:52:47 | 48.91041 | 13.05768 | 93° | 49km/h | 19032m | 5.4m/s | -55.1°C | 4.7% | 68.1hPa | 2.7V | 00:00:00 | 00:00:00 | 00:00:00 | |
| OE5MMP-10 | 2026-09-05 23:52:46 | 48.91041 | 13.05750 | 92° | 49km/h | 19027m | 4.2m/s | -55.1°C | 4.7% | 68.2hPa | 2.7V | 00:00:00 | 01:47:53 | 00:00:00 | |
| PG1ADW-2 | 2026-09-05 23:52:42 | 48.91043 | 13.05677 | 93° | 49km/h | 19008m | 4.1m/s | -55.0°C | 4.6% | 68.4hPa | 2.7V | 00:00:00 | 01:47:49 | 00:00:00 | |
| DO3MHA-11 | 2026-09-05 23:52:39 | 48.91043 | 13.05621 | 88° | 47km/h | 18993m | 4.4m/s | -55.1°C | 4.6% | 68.5hPa | 2.7V | 00:00:00 | 01:47:46 | 00:00:00 | |
| OE5HKT-10 | 2026-09-05 23:52:38 | 48.91042 | 13.05602 | 88° | 49km/h | 18988m | 5.1m/s | -55.1°C | 4.6% | 68.6hPa | 2.7V | 00:00:00 | 00:00:00 | 00:00:00 | |
| PETON7-10 | 2026-09-05 23:52:37 | 48.91042 | 13.05582 | 89° | 49km/h | 18983m | 5.6m/s | -55.2°C | 4.6% | 68.6hPa | 2.7V | 00:00:00 | 00:00:00 | 00:00:00 | |
| OE5MMP-10 | 2026-09-05 23:52:36 | 48.91042 | 13.05562 | 91° | 49km/h | 18978m | 4.8m/s | -55.2°C | 4.6% | 68.7hPa | 2.6V | 00:00:00 | 01:47:43 | 00:00:00 | |
| OE5REO-15 | 2026-09-05 23:52:34 | 48.91042 | 13.05542 | 91° | 51km/h | 18973m | 4.9m/s | -55.2°C | 1.4% | 68.8hPa | 2.6V | 04:15:00 | 00:00:00 | 00:00:00 | |
| DL6DJ-15 | 2026-09-05 23:52:31 | 48.91045 | 13.05450 | 96° | 47km/h | 18949m | 5.2m/s | -55.4°C | 1.4% | 69.0hPa | 2.6V | 00:00:00 | 00:00:00 | 00:00:00 | |
| SONDE2-11 | 2026-09-05 23:52:29 | 48.91047 | 13.05413 | 91° | 46km/h | 18939m | 5.7m/s | -55.5°C | 1.4% | 69.2hPa | 2.6V | 00:00:00 | 00:00:00 | 00:00:00 | |
| DK5PH-5 | 2026-09-05 23:52:28 | 48.91047 | 13.05413 | 92° | 49km/h | 18939m | 5.7m/s | -55.5°C | 4.6% | 69.1hPa | 2.6V | 00:00:00 | 01:47:35 | 00:00:00 | |
| OE5MMP-10 | 2026-09-05 23:52:26 | 48.91047 | 13.05377 | 89° | 49km/h | 18929m | 4.1m/s | -55.6°C | 4.6% | 69.2hPa | 2.6V | 00:00:00 | 01:47:33 | 00:00:00 | |
| EDDB2-11 | 2026-09-05 23:52:25 | 48.91047 | 13.05359 | 89° | 49km/h | 18925m | 5.0m/s | -55.7°C | 1.4% | 69.3hPa | 2.6V | 00:00:00 | 00:00:00 | 00:00:00 | |
| DO3MHA-11 | 2026-09-05 23:52:24 | 48.91047 | 13.05339 | 95° | 47km/h | 18920m | 5.2m/s | -55.7°C | 4.6% | 69.3hPa | 2.6V | 04:15:00 | 01:47:31 | 00:00:00 | |
| PETON7-10 | 2026-09-05 23:52:22 | 48.91051 | 13.05300 | 104° | 47km/h | 18910m | 5.3m/s | -55.8°C | 4.6% | 69.4hPa | 2.6V | 00:00:00 | 00:00:00 | 00:00:00 | |
| S52SK | 2026-09-05 23:52:20 | 48.91055 | 13.05282 | 108° | 49km/h | 18905m | 5.5m/s | -55.9°C | 1.5% | 69.5hPa | 2.6V | 00:00:00 | 00:00:00 | 00:00:00 | |
| OE5REO-15 | 2026-09-05 23:52:18 | 48.91062 | 13.05247 | 110° | 47km/h | 18895m | 5.0m/s | -56.0°C | 1.5% | 69.6hPa | 2.6V | 04:15:00 | 00:00:00 | 00:00:00 | |
| OE5HKT-10 | 2026-09-05 23:52:17 | 48.91069 | 13.05212 | 104° | 49km/h | 18884m | 4.3m/s | -56.2°C | 4.9% | 69.7hPa | 2.6V | 04:15:00 | 00:00:00 | 00:00:00 | |
| OE5MMP-10 | 2026-09-05 23:52:16 | 48.91071 | 13.05195 | 101° | 47km/h | 18879m | 4.9m/s | -56.3°C | 4.9% | 69.7hPa | 2.6V | 04:15:00 | 01:47:23 | 00:00:00 | |
| DO3MHA-11 | 2026-09-05 23:52:14 | 48.91074 | 13.05163 | 95° | 49km/h | 18869m | 4.5m/s | -56.5°C | 5.0% | 69.9hPa | 2.6V | 00:00:00 | 01:47:21 | 00:00:00 | |
| OE5DXL-15 | 2026-09-05 23:52:12 | 48.91075 | 13.05130 | 95° | 49km/h | 18860m | 5.6m/s | -56.5°C | 5.1% | 70.0hPa | 2.7V | 00:00:00 | 00:00:00 | 00:00:00 | |
| OE5DRO-10 | 2026-09-05 23:52:10 | 48.91078 | 13.05092 | 100° | 51km/h | 18849m | 4.5m/s | -56.6°C | 5.1% | 70.1hPa | 2.7V | 00:00:00 | 00:00:00 | 00:00:00 | |
| PETON7-10 | 2026-09-05 23:52:07 | 48.91088 | 13.05032 | 107° | 51km/h | 18834m | 3.7m/s | -56.7°C | 5.1% | 70.3hPa | 2.7V | 00:00:00 | 01:47:14 | 00:00:00 | |
| OE5MMP-10 | 2026-09-05 23:52:06 | 48.91092 | 13.05013 | 107° | 51km/h | 18830m | 4.6m/s | -56.7°C | 5.0% | 70.3hPa | 2.7V | 00:00:00 | 01:47:13 | 00:00:00 | |
| OE5WHR-10 | 2026-09-05 23:52:05 | 48.91095 | 13.04993 | 106° | 49km/h | 18825m | 5.4m/s | -56.7°C | 5.1% | 70.4hPa | 2.7V | 00:00:00 | 00:00:00 | 00:00:00 | |
| DO3MHA-11 | 2026-09-05 23:52:04 | 48.91099 | 13.04974 | 104° | 51km/h | 18820m | 5.2m/s | -56.8°C | 5.1% | 70.4hPa | 2.6V | 00:00:00 | 01:47:11 | 00:00:00 | |
| PG1ADW-2 | 2026-09-05 23:52:02 | 48.91105 | 13.04934 | 103° | 47km/h | 18810m | 5.0m/s | -56.7°C | 5.1% | 70.5hPa | 2.6V | 00:00:00 | 00:00:00 | 00:00:00 | |
| DL6DJ-15 | 2026-09-05 23:51:59 | 48.91112 | 13.04879 | 96° | 47km/h | 18794m | 4.4m/s | -56.7°C | 1.6% | 70.8hPa | 2.6V | 00:00:00 | 00:00:00 | 00:00:00 | |
| SONDE2-11 | 2026-09-05 23:51:58 | 48.91113 | 13.04840 | 88° | 53km/h | 18784m | 5.0m/s | -56.7°C | 1.6% | 70.9hPa | 2.6V | 00:00:00 | 00:00:00 | 00:00:00 | |
| OE5MMP-10 | 2026-09-05 23:51:56 | 48.91112 | 13.04819 | 87° | 47km/h | 18779m | 3.9m/s | -56.6°C | 5.1% | 70.9hPa | 2.6V | 00:00:00 | 01:47:03 | 00:00:00 | |
| DO3MHA-11 | 2026-09-05 23:51:54 | 48.91111 | 13.04779 | 88° | 46km/h | 18769m | 5.6m/s | -56.5°C | 5.1% | 71.0hPa | 2.6V | 00:00:00 | 01:47:01 | 00:00:00 | |
| PETON7-10 | 2026-09-05 23:51:52 | 48.91110 | 13.04742 | 90° | 46km/h | 18758m | 5.6m/s | -56.4°C | 5.0% | 71.1hPa | 2.6V | 00:00:00 | 00:00:00 | 00:00:00 | |
| OE5DRO-10 | 2026-09-05 23:51:51 | 48.91110 | 13.04724 | 89° | 46km/h | 18753m | 5.8m/s | -56.4°C | 5.1% | 71.2hPa | 2.7V | 00:00:00 | 00:00:00 | 00:00:00 | |
| OE5REO-15 | 2026-09-05 23:51:47 | 48.91111 | 13.04672 | 97° | 42km/h | 18737m | 5.9m/s | -56.3°C | 1.6% | 71.4hPa | 2.6V | 04:16:00 | 00:00:00 | 00:00:00 | |
| OE5MMP-10 | 2026-09-05 23:51:46 | 48.91114 | 13.04640 | 98° | 46km/h | 18728m | 3.6m/s | -56.2°C | 5.1% | 71.4hPa | 2.6V | 00:00:00 | 01:46:53 | 00:00:00 | |
| DO3MHA-11 | 2026-09-05 23:51:44 | 48.91115 | 13.04605 | 89° | 46km/h | 18718m | 5.9m/s | -56.1°C | 4.9% | 71.6hPa | 2.6V | 00:00:00 | 01:46:51 | 00:00:00 | |
| SP3BTT-10 | 2026-09-05 23:51:43 | 48.91114 | 13.04586 | 83° | 40km/h | 18713m | 5.1m/s | -56.0°C | 4.9% | 71.6hPa | 2.6V | 00:00:00 | 00:00:00 | 00:00:00 | |
| PG1ADW-2 | 2026-09-05 23:51:42 | 48.91112 | 13.04567 | 81° | 46km/h | 18708m | 4.4m/s | -56.0°C | 5.0% | 71.6hPa | 2.7V | 00:00:00 | 00:00:00 | 00:00:00 | |
| DL1JEZ-13 | 2026-09-05 23:51:40 | 48.91108 | 13.04528 | 85° | 49km/h | 18698m | 5.5m/s | 0°C | 0% | 0hPa | 2.7V | 00:00:00 | 00:00:00 | 00:00:00 | |
| OE8JPQ-2 | 2026-09-05 23:51:38 | 48.91107 | 13.04494 | 92° | 40km/h | 18687m | 5.1m/s | 0°C | 0% | 0hPa | 2.7V | 00:00:00 | 00:00:00 | 00:00:00 | |
| PETON7-10 | 2026-09-05 23:51:37 | 48.91108 | 13.04479 | 95° | 46km/h | 18682m | 4.6m/s | -55.9°C | 4.9% | 72.0hPa | 2.7V | 04:15:00 | 00:00:00 | 00:00:00 | |
| OE5MMP-10 | 2026-09-05 23:51:36 | 48.91108 | 13.04463 | 94° | 46km/h | 18678m | 4.7m/s | -55.9°C | 4.9% | 72.0hPa | 2.7V | 00:00:00 | 01:46:43 | 00:00:00 | |
| OE5HKT-10 | 2026-09-05 23:51:35 | 48.91109 | 13.04448 | 90° | 44km/h | 18673m | 5.6m/s | -55.8°C | 4.9% | 72.1hPa | 2.7V | 00:00:00 | 00:00:00 | 00:00:00 | |
| DO3MHA-11 | 2026-09-05 23:51:34 | 48.91108 | 13.04432 | 88° | 47km/h | 18667m | 5.0m/s | -55.8°C | 5.0% | 72.1hPa | 2.7V | 04:15:00 | 01:46:41 | 00:00:00 | |
| OE5DRO-10 | 2026-09-05 23:51:32 | 48.91107 | 13.04398 | 86° | 44km/h | 18657m | 5.6m/s | -55.7°C | 4.9% | 72.2hPa | 2.7V | 00:00:00 | 00:00:00 | 00:00:00 | |
| DK5PH-5 | 2026-09-05 23:51:28 | 48.91102 | 13.04325 | 80° | 40km/h | 18636m | 5.2m/s | -55.7°C | 4.8% | 72.5hPa | 2.7V | 00:00:00 | 01:46:35 | 00:00:00 | |
| SONDE2-11 | 2026-09-05 23:51:27 | 48.91099 | 13.04289 | 82° | 46km/h | 18627m | 4.6m/s | -55.7°C | 1.5% | 72.6hPa | 2.7V | 00:00:00 | 00:00:00 | 00:00:00 | |
| OE5MMP-10 | 2026-09-05 23:51:26 | 48.91099 | 13.04289 | 83° | 42km/h | 18627m | 4.6m/s | -55.6°C | 4.8% | 72.6hPa | 2.7V | 04:16:00 | 01:46:33 | 00:00:00 | |
| DO3MHA-11 | 2026-09-05 23:51:24 | 48.91097 | 13.04254 | 91° | 42km/h | 18617m | 4.5m/s | -55.6°C | 4.8% | 72.7hPa | 2.7V | 00:00:00 | 01:46:31 | 00:00:00 | |
| OE5WHR-10 | 2026-09-05 23:51:23 | 48.91097 | 13.04237 | 94° | 38km/h | 18613m | 3.8m/s | -55.7°C | 4.9% | 72.8hPa | 2.7V | 00:00:00 | 01:46:30 | 00:00:00 | |
| PETON7-10 | 2026-09-05 23:51:22 | 48.91098 | 13.04220 | 92° | 42km/h | 18608m | 5.4m/s | -55.7°C | 4.9% | 72.8hPa | 2.7V | 00:00:00 | 01:46:29 | 00:00:00 | |
| BAUMI2-15 | 2026-09-05 23:51:17 | 48.91094 | 13.04143 | 86° | 40km/h | 18584m | 5.1m/s | -55.7°C | 5.0% | 73.1hPa | 2.7V | 04:16:00 | 01:46:24 | 00:00:00 | |
| OE5MMP-10 | 2026-09-05 23:51:16 | 48.91093 | 13.04129 | 84° | 42km/h | 18579m | 4.4m/s | -55.7°C | 4.9% | 73.1hPa | 2.7V | 00:00:00 | 01:46:23 | 00:00:00 | |
| DO3MHA-11 | 2026-09-05 23:51:14 | 48.91090 | 13.04097 | 78° | 40km/h | 18569m | 5.3m/s | -55.6°C | 4.9% | 73.3hPa | 2.7V | 00:00:00 | 01:46:21 | 00:00:00 | |
| OE5DRO-10 | 2026-09-05 23:51:13 | 48.91087 | 13.04080 | 78° | 37km/h | 18564m | 4.3m/s | -55.6°C | 4.9% | 73.3hPa | 2.6V | 04:16:00 | 00:00:00 | 00:00:00 | |
| OE5DXL-15 | 2026-09-05 23:51:12 | 48.91085 | 13.04063 | 80° | 37km/h | 18559m | 4.8m/s | -55.5°C | 4.8% | 73.4hPa | 2.6V | 00:00:00 | 00:00:00 | 00:00:00 | |
| PETON7-10 | 2026-09-05 23:51:07 | 48.91079 | 13.03986 | 78° | 35km/h | 18534m | 5.5m/s | -55.4°C | 4.9% | 73.6hPa | 2.6V | 00:00:00 | 00:00:00 | 00:00:00 | |
| OE5MMP-10 | 2026-09-05 23:51:06 | 48.91077 | 13.03973 | 74° | 33km/h | 18529m | 4.3m/s | -55.4°C | 4.9% | 73.7hPa | 2.6V | 00:00:00 | 01:46:13 | 00:00:00 | |
| DO3MHA-11 | 2026-09-05 23:51:04 | 48.91072 | 13.03951 | 75° | 35km/h | 18521m | 5.1m/s | -55.3°C | 4.8% | 73.8hPa | 2.6V | 00:00:00 | 01:46:11 | 00:00:00 | |
| OE5WHR-10 | 2026-09-05 23:51:02 | 48.91069 | 13.03931 | 81° | 37km/h | 18510m | 3.8m/s | -55.3°C | 4.8% | 73.9hPa | 2.6V | 00:00:00 | 00:00:00 | 00:00:00 | |
| OE5REO-15 | 2026-09-05 23:51:01 | 48.91069 | 13.03931 | 81° | 27km/h | 18510m | 3.9m/s | -55.3°C | 1.5% | 74.0hPa | 2.6V | 04:17:00 | 00:00:00 | 00:00:00 | |
| DL6DJ-15 | 2026-09-05 23:50:57 | 48.91057 | 13.03865 | 71° | 42km/h | 18487m | 4.7m/s | -55.2°C | 1.5% | 74.3hPa | 2.6V | 00:00:00 | 00:00:00 | 00:00:00 | |
| SONDE2-11 | 2026-09-05 23:50:56 | 48.91051 | 13.03834 | 74° | 40km/h | 18477m | 4.6m/s | -55.1°C | 1.5% | 74.4hPa | 2.6V | 00:00:00 | 00:00:00 | 00:00:00 | |
| EDDB2-11 | 2026-09-05 23:50:52 | 48.91039 | 13.03781 | 71° | 33km/h | 18460m | 4.0m/s | -54.9°C | 1.5% | 74.6hPa | 2.6V | 00:00:00 | 00:00:00 | 00:00:00 | |
| BAUMI2-15 | 2026-09-05 23:50:47 | 48.91030 | 13.03727 | 73° | 38km/h | 18441m | 4.0m/s | -54.8°C | 4.8% | 74.8hPa | 2.6V | 00:00:00 | 01:45:54 | 00:00:00 | |
| OE5MMP-10 | 2026-09-05 23:50:46 | 48.91027 | 13.03714 | 68° | 38km/h | 18437m | 5.5m/s | -54.8°C | 4.8% | 74.8hPa | 2.6V | 00:00:00 | 01:45:53 | 00:00:00 | |
| DO3MHA-11 | 2026-09-05 23:50:44 | 48.91017 | 13.03687 | 60° | 37km/h | 18427m | 3.6m/s | -54.8°C | 4.8% | 74.9hPa | 2.6V | 04:16:00 | 01:45:51 | 00:00:00 | |
| PG1ADW-2 | 2026-09-05 23:50:42 | 48.91008 | 13.03663 | 65° | 35km/h | 18419m | 4.9m/s | -54.7°C | 4.8% | 75.0hPa | 2.7V | 04:16:00 | 00:00:00 | 00:00:00 | |
| OE5WHR-10 | 2026-09-05 23:50:41 | 48.91005 | 13.03650 | 72° | 35km/h | 18414m | 5.0m/s | -54.7°C | 4.7% | 75.1hPa | 2.7V | 00:00:00 | 00:00:00 | 00:00:00 | |
| S52SK | 2026-09-05 23:50:40 | 48.91005 | 13.03650 | 73° | 35km/h | 18414m | 5.0m/s | -54.7°C | 1.5% | 75.1hPa | 2.7V | 00:00:00 | 00:00:00 | 00:00:00 | |
| PETON7-10 | 2026-09-05 23:50:38 | 48.90998 | 13.03594 | 80° | 33km/h | 18395m | 4.1m/s | -54.5°C | 4.6% | 75.3hPa | 2.7V | 00:00:00 | 01:45:44 | 00:00:00 | |
| OE5MMP-10 | 2026-09-05 23:50:36 | 48.90996 | 13.03580 | 81° | 33km/h | 18391m | 4.1m/s | -54.5°C | 4.6% | 75.3hPa | 2.7V | 04:16:00 | 01:45:43 | 00:00:00 | |
| DO3MHA-11 | 2026-09-05 23:50:34 | 48.90993 | 13.03552 | 79° | 31km/h | 18382m | 4.2m/s | -54.4°C | 4.7% | 75.4hPa | 2.7V | 00:00:00 | 01:45:41 | 00:00:00 | |
| OE5DRO-10 | 2026-09-05 23:50:33 | 48.90991 | 13.03540 | 75° | 33km/h | 18377m | 4.6m/s | -54.3°C | 4.6% | 75.5hPa | 2.7V | 00:00:00 | 00:00:00 | 00:00:00 | |
| OE5HKT-10 | 2026-09-05 23:50:32 | 48.90988 | 13.03528 | 69° | 31km/h | 18372m | 5.5m/s | -54.3°C | 4.5% | 75.6hPa | 2.7V | 04:16:00 | 00:00:00 | 00:00:00 | |
| BAUMI2-15 | 2026-09-05 23:50:31 | 48.90985 | 13.03517 | 63° | 29km/h | 18367m | 4.4m/s | -54.3°C | 4.6% | 75.6hPa | 2.6V | 00:00:00 | 01:45:38 | 00:00:00 | |
| DK5PH-5 | 2026-09-05 23:50:28 | 48.90975 | 13.03487 | 68° | 31km/h | 18354m | 4.7m/s | -54.2°C | 4.5% | 75.8hPa | 2.6V | 00:00:00 | 01:45:35 | 00:00:00 | |
| OE5MMP-10 | 2026-09-05 23:50:26 | 48.90970 | 13.03465 | 76° | 33km/h | 18347m | 4.1m/s | -54.1°C | 4.5% | 75.9hPa | 2.7V | 00:00:00 | 01:45:33 | 00:00:00 | |
| SONDE2-11 | 2026-09-05 23:50:25 | 48.90966 | 13.03439 | 76° | 37km/h | 18337m | 4.3m/s | -54.2°C | 1.4% | 76.0hPa | 2.7V | 00:00:00 | 00:00:00 | 00:00:00 | |
| DO3MHA-11 | 2026-09-05 23:50:24 | 48.90966 | 13.03439 | 77° | 33km/h | 18337m | 4.2m/s | -54.1°C | 4.5% | 76.0hPa | 2.7V | 00:00:00 | 01:45:31 | 00:00:00 | |
| PETON7-10 | 2026-09-05 23:50:22 | 48.90962 | 13.03411 | 78° | 33km/h | 18329m | 4.8m/s | -54.1°C | 4.5% | 76.1hPa | 2.7V | 04:17:00 | 00:00:00 | 00:00:00 | |
| EDDB2-11 | 2026-09-05 23:50:21 | 48.90959 | 13.03387 | 79° | 31km/h | 18319m | 4.4m/s | -54.1°C | 1.4% | 76.2hPa | 2.6V | 00:00:00 | 00:00:00 | 00:00:00 | |
| OE5WHR-10 | 2026-09-05 23:50:20 | 48.90958 | 13.03386 | 80° | 31km/h | 18320m | 4.3m/s | -54.1°C | 4.5% | 76.2hPa | 2.6V | 00:00:00 | 01:45:27 | 00:00:00 | |
| OE5MMP-10 | 2026-09-05 23:50:16 | 48.90951 | 13.03339 | 79° | 31km/h | 18302m | 3.7m/s | -54.1°C | 4.4% | 76.4hPa | 2.6V | 00:00:00 | 01:45:23 | 00:00:00 | |
| OE5REO-15 | 2026-09-05 23:50:15 | 48.90951 | 13.03339 | 79° | 31km/h | 18302m | 3.7m/s | -54.1°C | 1.4% | 76.5hPa | 2.6V | 04:18:00 | 00:00:00 | 00:00:00 | |
| DO3MHA-11 | 2026-09-05 23:50:14 | 48.90949 | 13.03317 | 83° | 33km/h | 18293m | 4.4m/s | -54.1°C | 4.4% | 76.5hPa | 2.6V | 00:00:00 | 01:45:21 | 00:00:00 | |
| OE5DXL-15 | 2026-09-05 23:50:12 | 48.90947 | 13.03294 | 81° | 35km/h | 18284m | 5.1m/s | -54.3°C | 4.4% | 76.6hPa | 2.6V | 04:17:00 | 00:00:00 | 00:00:00 | |
| OE5HKT-10 | 2026-09-05 23:50:11 | 48.90945 | 13.03282 | 80° | 35km/h | 18279m | 3.5m/s | -54.3°C | 4.4% | 76.7hPa | 2.6V | 00:00:00 | 00:00:00 | 00:00:00 | |
| OE5MMP-10 | 2026-09-05 23:50:07 | 48.90940 | 13.03219 | 83° | 33km/h | 18257m | 5.2m/s | -54.5°C | 4.5% | 76.9hPa | 2.6V | 00:00:00 | 01:45:13 | 00:00:00 | |
| DO3MHA-11 | 2026-09-05 23:50:03 | 48.90937 | 13.03180 | 89° | 33km/h | 18244m | 4.6m/s | -54.6°C | 4.6% | 77.1hPa | 2.6V | 00:00:00 | 01:45:10 | 00:00:00 | |
| PG1ADW-2 | 2026-09-05 23:50:02 | 48.90937 | 13.03168 | 95° | 37km/h | 18239m | 5.5m/s | -54.7°C | 4.6% | 77.1hPa | 2.6V | 00:00:00 | 01:45:09 | 00:00:00 | |
| DL6DJ-15 | 2026-09-05 23:49:55 | 48.90948 | 13.03081 | 106° | 37km/h | 18207m | 4.6m/s | -54.9°C | 1.5% | 77.6hPa | 2.6V | 00:00:00 | 00:00:00 | 00:00:00 | |
| SONDE2-11 | 2026-09-05 23:49:53 | 48.90953 | 13.03053 | 105° | 38km/h | 18198m | 5.2m/s | -54.9°C | 1.5% | 77.7hPa | 2.6V | 00:00:00 | 00:00:00 | 00:00:00 | |
| EDDB2-11 | 2026-09-05 23:49:50 | 48.90964 | 13.02995 | 108° | 37km/h | 18180m | 4.1m/s | -54.9°C | 1.5% | 77.9hPa | 2.6V | 00:00:00 | 00:00:00 | 00:00:00 | |
| SP3BTT-10 | 2026-09-05 23:49:47 | 48.90969 | 13.02969 | 104° | 38km/h | 18172m | 4.5m/s | -55.0°C | 4.6% | 78.0hPa | 2.6V | 04:17:00 | 00:00:00 | 00:00:00 | |
| OE5MMP-10 | 2026-09-05 23:49:46 | 48.90971 | 13.02955 | 101° | 37km/h | 18168m | 4.2m/s | -55.0°C | 4.6% | 78.0hPa | 2.6V | 04:17:00 | 01:44:53 | 00:00:00 | |
| OE5REO-15 | 2026-09-05 23:49:45 | 48.90971 | 13.02955 | 101° | 37km/h | 18168m | 4.2m/s | -55.0°C | 1.5% | 78.0hPa | 2.6V | 04:18:00 | 00:00:00 | 00:00:00 | |
| DO3MHA-11 | 2026-09-05 23:49:43 | 48.90977 | 13.02914 | 108° | 33km/h | 18157m | 4.7m/s | -55.0°C | 4.5% | 78.1hPa | 2.6V | 00:00:00 | 01:44:50 | 00:00:00 | |
| PG1ADW-2 | 2026-09-05 23:49:42 | 48.90981 | 13.02900 | 112° | 29km/h | 18153m | 3.9m/s | -55.0°C | 4.5% | 78.2hPa | 2.6V | 00:00:00 | 00:00:00 | 00:00:00 | |
| BAUMI2-15 | 2026-09-05 23:49:41 | 48.90984 | 13.02887 | 114° | 37km/h | 18149m | 3.4m/s | -55.1°C | 4.6% | 78.2hPa | 2.6V | 00:00:00 | 01:44:48 | 00:00:00 | |
| OE5WHR-10 | 2026-09-05 23:49:38 | 48.90994 | 13.02846 | 109° | 27km/h | 18137m | 3.1m/s | -55.0°C | 4.6% | 78.4hPa | 2.6V | 00:00:00 | 00:00:00 | 00:00:00 | |
| PETON7-10 | 2026-09-05 23:49:37 | 48.90997 | 13.02834 | 110° | 26km/h | 18134m | 3.3m/s | -55.0°C | 4.5% | 78.4hPa | 2.6V | 00:00:00 | 00:00:00 | 00:00:00 | |
| OE5MMP-10 | 2026-09-05 23:49:36 | 48.91000 | 13.02823 | 113° | 26km/h | 18130m | 4.7m/s | -55.0°C | 4.6% | 78.5hPa | 2.6V | 00:00:00 | 01:44:43 | 00:00:00 | |
| DO3MHA-11 | 2026-09-05 23:49:33 | 48.91008 | 13.02799 | 118° | 26km/h | 18116m | 4.2m/s | -55.1°C | 4.5% | 78.6hPa | 2.6V | 00:00:00 | 01:44:40 | 00:00:00 | |
| BAUMI2-15 | 2026-09-05 23:49:31 | 48.91013 | 13.02782 | 106° | 26km/h | 18107m | 3.8m/s | -55.6°C | 4.7% | 78.8hPa | 2.6V | 00:00:00 | 01:44:38 | 00:00:00 | |
| OE5HKT-10 | 2026-09-05 23:49:29 | 48.91015 | 13.02762 | 98° | 33km/h | 18100m | 4.5m/s | -55.9°C | 4.7% | 78.8hPa | 2.6V | 00:00:00 | 00:00:00 | 00:00:00 | |
| DK5PH-5 | 2026-09-05 23:49:27 | 48.91017 | 13.02742 | 101° | 38km/h | 18091m | 3.4m/s | -56.1°C | 4.9% | 78.9hPa | 2.6V | 00:00:00 | 01:44:34 | 00:00:00 | |
| BAUMI2-15 | 2026-09-05 23:49:26 | 48.91018 | 13.02732 | 102° | 35km/h | 18087m | 3.5m/s | -56.1°C | 4.9% | 79.0hPa | 2.6V | 00:00:00 | 01:44:33 | 00:00:00 | |
| DL6DJ-15 | 2026-09-05 23:49:24 | 48.91022 | 13.02712 | 107° | 27km/h | 18079m | 4.1m/s | -56.2°C | 1.5% | 79.1hPa | 2.7V | 00:00:00 | 00:00:00 | 00:00:00 | |
| SONDE2-11 | 2026-09-05 23:49:23 | 48.91028 | 13.02693 | 124° | 26km/h | 18071m | 4.6m/s | -56.3°C | 1.6% | 79.3hPa | 2.7V | 00:00:00 | 00:00:00 | 00:00:00 | |
| PETON7-10 | 2026-09-05 23:49:22 | 48.91027 | 13.02693 | 125° | 37km/h | 18071m | 4.6m/s | -56.3°C | 4.9% | 79.2hPa | 2.7V | 00:00:00 | 00:00:00 | 00:00:00 | |
| EDDB2-11 | 2026-09-05 23:49:19 | 48.91049 | 13.02669 | 145° | 29km/h | 18054m | 4.8m/s | -56.6°C | 1.6% | 79.5hPa | 2.7V | 00:00:00 | 00:00:00 | 00:00:00 | |
| OE5WHR-10 | 2026-09-05 23:49:17 | 48.91055 | 13.02662 | 140° | 42km/h | 18049m | 4.2m/s | -56.6°C | 5.1% | 79.5hPa | 2.7V | 00:00:00 | 01:44:24 | 00:00:00 | |
| OE5MMP-10 | 2026-09-05 23:49:16 | 48.91061 | 13.02652 | 132° | 40km/h | 18046m | 2.9m/s | -56.6°C | 5.1% | 79.5hPa | 2.7V | 00:00:00 | 01:44:23 | 00:00:00 | |
| DO3MHA-11 | 2026-09-05 23:49:13 | 48.91079 | 13.02616 | 122° | 40km/h | 18033m | 3.9m/s | -56.6°C | 5.1% | 79.7hPa | 2.7V | 00:00:00 | 01:44:20 | 00:00:00 | |
| OE5DXL-15 | 2026-09-05 23:49:12 | 48.91084 | 13.02602 | 122° | 42km/h | 18030m | 3.2m/s | -56.6°C | 5.1% | 79.7hPa | 2.6V | 00:00:00 | 00:00:00 | 00:00:00 | |
| OE5HKT-10 | 2026-09-05 23:49:08 | 48.91108 | 13.02548 | 131° | 42km/h | 18013m | 4.6m/s | -56.6°C | 5.1% | 79.9hPa | 2.6V | 00:00:00 | 00:00:00 | 00:00:00 | |
| PETON7-10 | 2026-09-05 23:49:07 | 48.91115 | 13.02537 | 135° | 44km/h | 18008m | 4.4m/s | -56.6°C | 5.1% | 80.0hPa | 2.6V | 04:18:00 | 01:44:14 | 00:00:00 | |
| OE5MMP-10 | 2026-09-05 23:49:06 | 48.91121 | 13.02527 | 138° | 42km/h | 18005m | 3.3m/s | -56.6°C | 5.0% | 80.0hPa | 2.6V | 00:00:00 | 01:44:13 | 00:00:00 | |
| DO3MHA-11 | 2026-09-05 23:49:03 | 48.91142 | 13.02498 | 133° | 46km/h | 17993m | 3.4m/s | -56.5°C | 5.0% | 80.2hPa | 2.7V | 04:18:00 | 01:44:10 | 00:00:00 | |
| PG1ADW-2 | 2026-09-05 23:49:02 | 48.91148 | 13.02487 | 131° | 44km/h | 17989m | 4.5m/s | -56.5°C | 5.0% | 80.2hPa | 2.7V | 04:18:00 | 00:00:00 | 00:00:00 | |
| DL6DJ-15 | 2026-09-05 23:48:53 | 48.91205 | 13.02350 | 122° | 42km/h | 17952m | 3.7m/s | -56.5°C | 1.6% | 80.8hPa | 2.6V | 00:00:00 | 00:00:00 | 00:00:00 | |
| SONDE2-11 | 2026-09-05 23:48:51 | 48.91217 | 13.02323 | 129° | 40km/h | 17942m | 4.1m/s | -56.5°C | 1.7% | 80.9hPa | 2.6V | 00:00:00 | 00:00:00 | 00:00:00 | |
| OE5HKT-10 | 2026-09-05 23:48:47 | 48.91243 | 13.02278 | 132° | 44km/h | 17927m | 3.5m/s | -56.4°C | 5.2% | 81.0hPa | 2.6V | 04:18:00 | 01:43:54 | 00:00:00 | |
| OE5MMP-10 | 2026-09-05 23:48:46 | 48.91250 | 13.02267 | 131° | 44km/h | 17923m | 3.9m/s | -56.3°C | 5.1% | 81.1hPa | 2.6V | 00:00:00 | 01:43:53 | 00:00:00 | |
| DO3MHA-11 | 2026-09-05 23:48:43 | 48.91270 | 13.02227 | 125° | 44km/h | 17911m | 4.6m/s | -56.2°C | 5.1% | 81.2hPa | 2.6V | 00:00:00 | 01:43:50 | 00:00:00 | |
| PG1ADW-2 | 2026-09-05 23:48:42 | 48.91276 | 13.02213 | 120° | 42km/h | 17906m | 4.7m/s | -56.2°C | 5.0% | 81.3hPa | 2.7V | 00:00:00 | 01:43:49 | 00:00:00 | |
| OE5REO-15 | 2026-09-05 23:48:41 | 48.91277 | 13.02213 | 121° | 46km/h | 17906m | 4.7m/s | -56.2°C | 1.6% | 81.3hPa | 2.7V | 04:18:00 | 00:00:00 | 00:00:00 | |
| OE5DRO-10 | 2026-09-05 23:48:39 | 48.91293 | 13.02167 | 118° | 42km/h | 17892m | 4.0m/s | -56.1°C | 5.0% | 81.5hPa | 2.7V | 00:00:00 | 00:00:00 | 00:00:00 | |
| OE5MMP-10 | 2026-09-05 23:48:36 | 48.91306 | 13.02123 | 113° | 44km/h | 17879m | 4.3m/s | -56.1°C | 5.0% | 81.6hPa | 2.7V | 00:00:00 | 01:43:43 | 00:00:00 | |
| OE5WHR-10 | 2026-09-05 23:48:35 | 48.91310 | 13.02109 | 115° | 42km/h | 17875m | 4.2m/s | -56.1°C | 5.0% | 81.7hPa | 2.6V | 00:00:00 | 00:00:00 | 00:00:00 | |
| DO3MHA-11 | 2026-09-05 23:48:33 | 48.91321 | 13.02080 | 122° | 44km/h | 17865m | 4.6m/s | -56.1°C | 5.0% | 81.8hPa | 2.6V | 00:00:00 | 01:43:40 | 00:00:00 | |
| S52SK | 2026-09-05 23:48:30 | 48.91334 | 13.02050 | 126° | 47km/h | 17856m | 4.4m/s | -56.1°C | 1.6% | 82.0hPa | 2.6V | 00:00:00 | 00:00:00 | 00:00:00 | |
| OE5MMP-10 | 2026-09-05 23:48:26 | 48.91364 | 13.01976 | 123° | 37km/h | 17835m | 4.2m/s | -55.9°C | 5.0% | 82.2hPa | 2.6V | 00:00:00 | 01:43:33 | 00:00:00 | |
| S52SK | 2026-09-05 23:48:25 | 48.91364 | 13.01976 | 123° | 42km/h | 17835m | 4.3m/s | -55.9°C | 0% | 82.3hPa | 2.6V | 00:00:00 | 00:00:00 | 00:00:00 | |
| DO3MHA-11 | 2026-09-05 23:48:23 | 48.91379 | 13.01940 | 125° | 38km/h | 17822m | 3.3m/s | -55.8°C | 4.9% | 82.4hPa | 2.6V | 00:00:00 | 01:43:30 | 00:00:00 | |
| PETON7-10 | 2026-09-05 23:48:22 | 48.91383 | 13.01930 | 128° | 42km/h | 17819m | 3.8m/s | -55.8°C | 4.9% | 82.4hPa | 2.6V | 00:00:00 | 01:43:29 | 00:00:00 | |
| OE5DRO-10 | 2026-09-05 23:48:20 | 48.91395 | 13.01912 | 138° | 42km/h | 17810m | 4.2m/s | -55.7°C | 5.0% | 82.5hPa | 2.6V | 00:00:00 | 00:00:00 | 00:00:00 | |
| EDDB2-11 | 2026-09-05 23:48:17 | 48.91422 | 13.01865 | 122° | 42km/h | 17793m | 4.5m/s | -55.7°C | 1.6% | 82.8hPa | 2.6V | 00:00:00 | 00:00:00 | 00:00:00 | |
| OE5MMP-10 | 2026-09-05 23:48:16 | 48.91422 | 13.01865 | 123° | 44km/h | 17793m | 4.4m/s | -55.6°C | 5.0% | 82.7hPa | 2.6V | 00:00:00 | 01:43:23 | 00:00:00 | |
| OE5WHR-10 | 2026-09-05 23:48:14 | 48.91434 | 13.01835 | 121° | 44km/h | 17785m | 5.1m/s | -55.6°C | 4.9% | 82.9hPa | 2.6V | 04:19:00 | 01:43:21 | 00:00:00 | |
| DO3MHA-11 | 2026-09-05 23:48:13 | 48.91440 | 13.01819 | 121° | 42km/h | 17780m | 4.3m/s | -55.5°C | 5.0% | 82.9hPa | 2.6V | 04:19:00 | 01:43:20 | 00:00:00 | |
| OE5DXL-15 | 2026-09-05 23:48:12 | 48.91446 | 13.01804 | 121° | 46km/h | 17776m | 4.2m/s | -55.5°C | 4.9% | 83.0hPa | 2.6V | 00:00:00 | 00:00:00 | 00:00:00 | |
| OE5REO-15 | 2026-09-05 23:48:11 | 48.91446 | 13.01804 | 121° | 46km/h | 17776m | 4.3m/s | -55.6°C | 1.6% | 83.0hPa | 2.6V | 04:19:00 | 00:00:00 | 00:00:00 | |
| DO8TBO-1 | 2026-09-05 23:48:10 | 48.91458 | 13.01775 | 122° | 47km/h | 17766m | 3.9m/s | -55.5°C | 4.9% | 83.1hPa | 2.6V | 00:00:00 | 01:43:17 | 00:00:00 | |
| OE5MMP-10 | 2026-09-05 23:48:06 | 48.91482 | 13.01727 | 131° | 44km/h | 17749m | 4.9m/s | -55.4°C | 4.8% | 83.3hPa | 2.6V | 04:19:00 | 01:43:13 | 00:00:00 | |
| OE5HKT-10 | 2026-09-05 23:48:05 | 48.91488 | 13.01715 | 129° | 46km/h | 17744m | 5.0m/s | -55.3°C | 4.8% | 83.4hPa | 2.6V | 00:00:00 | 00:00:00 | 00:00:00 | |
| DO3MHA-11 | 2026-09-05 23:48:03 | 48.91501 | 13.01690 | 126° | 46km/h | 17735m | 4.7m/s | -55.3°C | 4.8% | 83.5hPa | 2.6V | 00:00:00 | 01:43:10 | 00:00:00 | |
| PG1ADW-2 | 2026-09-05 23:48:02 | 48.91507 | 13.01676 | 125° | 47km/h | 17730m | 4.6m/s | -55.3°C | 4.8% | 83.6hPa | 2.6V | 00:00:00 | 00:00:00 | 00:00:00 | |
| DL6DJ-15 | 2026-09-05 23:47:51 | 48.91569 | 13.01511 | 119° | 42km/h | 17680m | 4.2m/s | -55.2°C | 1.5% | 84.3hPa | 2.7V | 00:00:00 | 00:00:00 | 00:00:00 | |
| SONDE2-11 | 2026-09-05 23:47:49 | 48.91580 | 13.01481 | 121° | 46km/h | 17671m | 5.1m/s | -55.2°C | 1.5% | 84.4hPa | 2.7V | 00:00:00 | 00:00:00 | 00:00:00 | |
| EDDB2-11 | 2026-09-05 23:47:45 | 48.91605 | 13.01414 | 114° | 49km/h | 17653m | 4.6m/s | -55.2°C | 1.5% | 84.6hPa | 2.7V | 00:00:00 | 00:00:00 | 00:00:00 | |
| OE5HKT-10 | 2026-09-05 23:47:44 | 48.91610 | 13.01396 | 114° | 49km/h | 17649m | 4.2m/s | -55.1°C | 4.7% | 84.6hPa | 2.7V | 00:00:00 | 01:42:51 | 00:00:00 | |
| DO3MHA-11 | 2026-09-05 23:47:43 | 48.91615 | 13.01379 | 117° | 47km/h | 17645m | 4.7m/s | -55.1°C | 4.7% | 84.7hPa | 2.7V | 00:00:00 | 01:42:50 | 00:00:00 | |
| PG1ADW-2 | 2026-09-05 23:47:42 | 48.91621 | 13.01362 | 118° | 51km/h | 17640m | 4.6m/s | -55.2°C | 4.8% | 84.7hPa | 2.6V | 00:00:00 | 00:00:00 | 00:00:00 | |
| OE5REO-15 | 2026-09-05 23:47:40 | 48.91627 | 13.01346 | 119° | 49km/h | 17636m | 3.8m/s | -55.2°C | 1.5% | 84.9hPa | 2.6V | 00:00:00 | 00:00:00 | 00:00:00 | |
| PETON7-10 | 2026-09-05 23:47:37 | 48.91648 | 13.01281 | 120° | 51km/h | 17617m | 4.8m/s | -55.4°C | 4.9% | 85.1hPa | 2.6V | 00:00:00 | 01:42:44 | 00:00:00 | |
| OE5MMP-10 | 2026-09-05 23:47:36 | 48.91655 | 13.01265 | 123° | 51km/h | 17612m | 5.0m/s | -55.4°C | 4.9% | 85.1hPa | 2.6V | 00:00:00 | 01:42:43 | 00:00:00 | |
| DO3MHA-11 | 2026-09-05 23:47:33 | 48.91675 | 13.01219 | 122° | 53km/h | 17599m | 5.1m/s | -55.4°C | 4.9% | 85.3hPa | 2.6V | 00:00:00 | 01:42:40 | 00:00:00 | |
| OE5WHR-10 | 2026-09-05 23:47:32 | 48.91681 | 13.01203 | 119° | 53km/h | 17594m | 4.5m/s | -55.4°C | 4.9% | 85.4hPa | 2.6V | 00:00:00 | 00:00:00 | 00:00:00 | |
| OE5MMP-10 | 2026-09-05 23:47:26 | 48.91719 | 13.01095 | 117° | 51km/h | 17566m | 5.2m/s | -55.4°C | 4.8% | 85.7hPa | 2.6V | 00:00:00 | 01:42:33 | 00:00:00 | |
| OE5REO-15 | 2026-09-05 23:47:24 | 48.91725 | 13.01077 | 117° | 51km/h | 17561m | 4.0m/s | -55.4°C | 1.6% | 85.8hPa | 2.6V | 00:00:00 | 00:00:00 | 00:00:00 | |
| OE5HKT-10 | 2026-09-05 23:47:23 | 48.91737 | 13.01042 | 120° | 53km/h | 17552m | 5.1m/s | -55.3°C | 4.8% | 85.9hPa | 2.6V | 00:00:00 | 00:00:00 | 00:00:00 | |
| PETON7-10 | 2026-09-05 23:47:22 | 48.91744 | 13.01025 | 122° | 53km/h | 17547m | 3.9m/s | -55.2°C | 4.8% | 86.0hPa | 2.7V | 00:00:00 | 00:00:00 | 00:00:00 | |
| DL6DJ-15 | 2026-09-05 23:47:20 | 48.91764 | 13.00976 | 122° | 49km/h | 17533m | 3.8m/s | -55.2°C | 1.6% | 86.2hPa | 2.6V | 00:00:00 | 00:00:00 | 00:00:00 | |
| BAUMI2-15 | 2026-09-05 23:47:19 | 48.91764 | 13.00976 | 123° | 53km/h | 17533m | 3.7m/s | -55.1°C | 4.9% | 86.2hPa | 2.6V | 00:00:00 | 01:42:26 | 00:00:00 | |
| SONDE2-11 | 2026-09-05 23:47:18 | 48.91771 | 13.00959 | 124° | 51km/h | 17529m | 4.2m/s | -55.1°C | 1.6% | 86.3hPa | 2.6V | 00:00:00 | 00:00:00 | 00:00:00 | |
| OE5MMP-10 | 2026-09-05 23:47:16 | 48.91787 | 13.00926 | 130° | 53km/h | 17520m | 4.1m/s | -55.0°C | 4.9% | 86.3hPa | 2.6V | 04:20:00 | 01:42:23 | 00:00:00 | |
| BAUMI2-15 | 2026-09-05 23:47:14 | 48.91805 | 13.00894 | 130° | 53km/h | 17511m | 5.1m/s | -55.0°C | 4.8% | 86.5hPa | 2.6V | 00:00:00 | 01:42:21 | 00:00:00 | |
| DO3MHA-11 | 2026-09-05 23:47:13 | 48.91813 | 13.00878 | 129° | 53km/h | 17506m | 4.6m/s | -55.0°C | 4.8% | 86.6hPa | 2.6V | 00:00:00 | 01:42:20 | 00:00:00 | |
| OE5DXL-15 | 2026-09-05 23:47:12 | 48.91821 | 13.00863 | 128° | 58km/h | 17502m | 3.9m/s | -55.0°C | 4.8% | 86.6hPa | 2.6V | 00:00:00 | 00:00:00 | 00:00:00 | |
| OE5WHR-10 | 2026-09-05 23:47:11 | 48.91829 | 13.00847 | 128° | 57km/h | 17498m | 4.5m/s | -55.0°C | 4.8% | 86.7hPa | 2.6V | 00:00:00 | 01:42:18 | 00:00:00 | |
| BAUMI2-15 | 2026-09-05 23:47:09 | 48.91846 | 13.00815 | 129° | 53km/h | 17488m | 4.0m/s | -55.0°C | 4.7% | 86.8hPa | 2.6V | 04:20:00 | 01:42:16 | 00:00:00 | |
| OE5REO-15 | 2026-09-05 23:47:08 | 48.91846 | 13.00815 | 130° | 55km/h | 17488m | 4.1m/s | -55.0°C | 1.6% | 86.8hPa | 2.7V | 00:00:00 | 00:00:00 | 00:00:00 | |
| PETON7-10 | 2026-09-05 23:47:07 | 48.91862 | 13.00782 | 126° | 57km/h | 17478m | 5.9m/s | -55.0°C | 4.6% | 86.9hPa | 2.7V | 00:00:00 | 00:00:00 | 00:00:00 | |
| OE5MMP-10 | 2026-09-05 23:47:06 | 48.91869 | 13.00766 | 124° | 57km/h | 17473m | 4.8m/s | -55.0°C | 4.6% | 87.0hPa | 2.7V | 00:00:00 | 01:42:13 | 00:00:00 | |
| BAUMI2-15 | 2026-09-05 23:47:04 | 48.91884 | 13.00731 | 124° | 57km/h | 17463m | 5.7m/s | -55.0°C | 4.6% | 87.1hPa | 2.6V | 00:00:00 | 01:42:11 | 00:00:00 | |
| DO3MHA-11 | 2026-09-05 23:47:03 | 48.91892 | 13.00714 | 126° | 58km/h | 17458m | 4.9m/s | -55.0°C | 4.6% | 87.2hPa | 2.6V | 00:00:00 | 01:42:10 | 00:00:00 | |
| OE5HKT-10 | 2026-09-05 23:47:02 | 48.91901 | 13.00696 | 129° | 60km/h | 17453m | 4.2m/s | -55.1°C | 4.7% | 87.2hPa | 2.6V | 04:20:00 | 00:00:00 | 00:00:00 | |
| DL6DJ-15 | 2026-09-05 23:46:49 | 48.92052 | 13.00478 | 139° | 57km/h | 17386m | 5.0m/s | -55.4°C | 1.6% | 88.3hPa | 2.6V | 00:00:00 | 00:00:00 | 00:00:00 | |
| SONDE2-11 | 2026-09-05 23:46:47 | 48.92063 | 13.00464 | 139° | 57km/h | 17382m | 3.8m/s | -55.4°C | 1.6% | 88.3hPa | 2.6V | 00:00:00 | 00:00:00 | 00:00:00 | |
| OE5MMP-10 | 2026-09-05 23:46:46 | 48.92074 | 13.00449 | 141° | 62km/h | 17378m | 4.1m/s | -55.4°C | 4.7% | 88.3hPa | 2.6V | 00:00:00 | 01:41:53 | 00:00:00 | |
| OE5DRO-10 | 2026-09-05 23:46:45 | 48.92086 | 13.00434 | 142° | 66km/h | 17373m | 5.1m/s | -55.4°C | 4.7% | 88.4hPa | 2.6V | 00:00:00 | 00:00:00 | 00:00:00 | |
| BAUMI2-15 | 2026-09-05 23:46:44 | 48.92099 | 13.00419 | 142° | 64km/h | 17369m | 3.9m/s | -55.4°C | 4.7% | 88.5hPa | 2.6V | 04:20:00 | 01:41:51 | 00:00:00 | |
| DO3MHA-11 | 2026-09-05 23:46:43 | 48.92112 | 13.00402 | 141° | 62km/h | 17365m | 3.5m/s | -55.4°C | 4.7% | 88.5hPa | 2.6V | 00:00:00 | 01:41:50 | 00:00:00 | |
| PG1ADW-2 | 2026-09-05 23:46:42 | 48.92125 | 13.00386 | 139° | 64km/h | 17361m | 4.5m/s | -55.4°C | 4.7% | 88.5hPa | 2.7V | 00:00:00 | 00:00:00 | 00:00:00 | |
| OE5HKT-10 | 2026-09-05 23:46:41 | 48.92137 | 13.00370 | 138° | 64km/h | 17356m | 4.9m/s | -55.4°C | 4.8% | 88.6hPa | 2.7V | 00:00:00 | 01:41:48 | 00:00:00 | |
| S52SK | 2026-09-05 23:46:40 | 48.92137 | 13.00370 | 138° | 62km/h | 17356m | 4.9m/s | -55.4°C | 0% | 88.6hPa | 2.7V | 00:00:00 | 00:00:00 | 00:00:00 | |
| BAUMI2-15 | 2026-09-05 23:46:39 | 48.92158 | 13.00338 | 134° | 60km/h | 17347m | 4.1m/s | -55.4°C | 4.8% | 88.7hPa | 2.7V | 00:00:00 | 01:41:46 | 00:00:00 | |
| BAUMI2-15 | 2026-09-05 23:46:34 | 48.92212 | 13.00254 | 135° | 68km/h | 17326m | 4.7m/s | -55.5°C | 4.7% | 89.0hPa | 2.7V | 00:00:00 | 01:41:41 | 00:00:00 | |
| DO3MHA-11 | 2026-09-05 23:46:33 | 48.92223 | 13.00237 | 134° | 68km/h | 17322m | 3.6m/s | -55.5°C | 4.8% | 89.1hPa | 2.7V | 04:20:00 | 01:41:40 | 00:00:00 | |
| OE5WHR-10 | 2026-09-05 23:46:29 | 48.92272 | 13.00160 | 134° | 69km/h | 17305m | 3.9m/s | -55.6°C | 4.8% | 89.3hPa | 2.7V | 04:20:00 | 00:00:00 | 00:00:00 | |
| OE5MMP-10 | 2026-09-05 23:46:26 | 48.92306 | 13.00101 | 129° | 66km/h | 17291m | 3.9m/s | -55.8°C | 4.8% | 89.5hPa | 2.7V | 04:21:00 | 01:41:33 | 00:00:00 | |
| BAUMI2-15 | 2026-09-05 23:46:24 | 48.92326 | 13.00062 | 128° | 64km/h | 17283m | 5.0m/s | -55.8°C | 4.8% | 89.6hPa | 2.7V | 00:00:00 | 01:41:31 | 00:00:00 | |
| DO3MHA-11 | 2026-09-05 23:46:23 | 48.92336 | 13.00042 | 129° | 69km/h | 17278m | 4.6m/s | -55.9°C | 4.8% | 89.7hPa | 2.6V | 00:00:00 | 01:41:30 | 00:00:00 | |
| PETON7-10 | 2026-09-05 23:46:22 | 48.92346 | 13.00023 | 128° | 71km/h | 17274m | 4.1m/s | -55.9°C | 4.8% | 89.8hPa | 2.6V | 00:00:00 | 00:00:00 | 00:00:00 | |
| DK5PH-5 | 2026-09-05 23:46:21 | 48.92356 | 13.00003 | 127° | 71km/h | 17269m | 4.7m/s | 0°C | 0% | 0hPa | 2.6V | 00:00:00 | 01:41:28 | 00:00:00 | |
| OE5HKT-10 | 2026-09-05 23:46:20 | 48.92365 | 12.99983 | 126° | 71km/h | 17264m | 5.1m/s | -56.1°C | 4.9% | 89.9hPa | 2.6V | 00:00:00 | 00:00:00 | 00:00:00 | |
| BAUMI2-15 | 2026-09-05 23:46:19 | 48.92375 | 12.99962 | 125° | 73km/h | 17260m | 4.2m/s | -56.1°C | 4.9% | 90.0hPa | 2.6V | 04:21:00 | 01:41:26 | 00:00:00 | |
| DL6DJ-15 | 2026-09-05 23:46:18 | 48.92395 | 12.99918 | 125° | 73km/h | 17250m | 5.1m/s | -56.2°C | 1.6% | 90.1hPa | 2.6V | 00:00:00 | 00:00:00 | 00:00:00 | |
| OE5MMP-10 | 2026-09-05 23:46:16 | 48.92406 | 12.99895 | 126° | 71km/h | 17245m | 4.3m/s | -56.2°C | 4.9% | 90.2hPa | 2.6V | 00:00:00 | 01:41:23 | 00:00:00 | |
| SP3BTT-10 | 2026-09-05 23:46:15 | 48.92417 | 12.99871 | 125° | 75km/h | 17240m | 5.3m/s | -56.3°C | 5.0% | 90.3hPa | 2.6V | 00:00:00 | 00:00:00 | 00:00:00 | |
| BAUMI2-15 | 2026-09-05 23:46:14 | 48.92427 | 12.99847 | 123° | 75km/h | 17236m | 4.0m/s | -56.4°C | 5.1% | 90.3hPa | 2.7V | 00:00:00 | 01:41:21 | 00:00:00 | |
| DO3MHA-11 | 2026-09-05 23:46:13 | 48.92437 | 12.99822 | 123° | 71km/h | 17232m | 3.9m/s | -56.4°C | 5.1% | 90.4hPa | 2.7V | 00:00:00 | 01:41:20 | 00:00:00 | |
| OE5DXL-15 | 2026-09-05 23:46:12 | 48.92447 | 12.99798 | 123° | 73km/h | 17227m | 4.9m/s | -56.5°C | 5.1% | 90.4hPa | 2.6V | 00:00:00 | 00:00:00 | 00:00:00 | |
| BAUMI2-15 | 2026-09-05 23:46:09 | 48.92476 | 12.99727 | 121° | 66km/h | 17213m | 5.3m/s | -56.7°C | 5.2% | 90.6hPa | 2.6V | 00:00:00 | 01:41:16 | 00:00:00 | |
| OE5WHR-10 | 2026-09-05 23:46:08 | 48.92484 | 12.99706 | 119° | 73km/h | 17208m | 3.9m/s | -56.8°C | 5.2% | 90.7hPa | 2.6V | 00:00:00 | 01:41:15 | 00:00:00 | |
| PETON7-10 | 2026-09-05 23:46:07 | 48.92492 | 12.99684 | 118° | 71km/h | 17205m | 3.0m/s | -56.8°C | 5.1% | 90.7hPa | 2.6V | 00:00:00 | 01:41:14 | 00:00:00 | |
| OE5MMP-10 | 2026-09-05 23:46:06 | 48.92500 | 12.99662 | 119° | 73km/h | 17201m | 4.7m/s | -56.9°C | 5.2% | 90.8hPa | 2.6V | 00:00:00 | 01:41:13 | 00:00:00 | |
| OE5REO-15 | 2026-09-05 23:46:05 | 48.92500 | 12.99662 | 120° | 64km/h | 17201m | 4.8m/s | -57.0°C | 1.7% | 90.8hPa | 2.7V | 04:21:00 | 00:00:00 | 00:00:00 | |
| BAUMI2-15 | 2026-09-05 23:46:04 | 48.92517 | 12.99617 | 120° | 77km/h | 17192m | 4.0m/s | -57.1°C | 5.2% | 90.9hPa | 2.7V | 00:00:00 | 01:41:11 | 00:00:00 | |
| DO3MHA-11 | 2026-09-05 23:46:03 | 48.92526 | 12.99592 | 120° | 73km/h | 17188m | 3.7m/s | -57.1°C | 5.3% | 91.0hPa | 2.7V | 00:00:00 | 01:41:10 | 00:00:00 | |
| PG1ADW-2 | 2026-09-05 23:46:02 | 48.92535 | 12.99566 | 118° | 75km/h | 17184m | 4.2m/s | -57.1°C | 5.3% | 91.0hPa | 2.7V | 00:00:00 | 01:41:09 | 00:00:00 | |
| DL6DJ-15 | 2026-09-05 23:45:47 | 48.92645 | 12.99139 | 109° | 75km/h | 17115m | 3.9m/s | -56.7°C | 1.8% | 92.1hPa | 2.6V | 00:00:00 | 00:00:00 | 00:00:00 | |
| OE5MMP-10 | 2026-09-05 23:45:46 | 48.92645 | 12.99138 | 110° | 69km/h | 17115m | 3.8m/s | -56.7°C | 5.3% | 92.0hPa | 2.6V | 00:00:00 | 01:40:53 | 00:00:00 | |
| SP3BTT-10 | 2026-09-05 23:45:45 | 48.92651 | 12.99112 | 110° | 73km/h | 17111m | 4.0m/s | 0°C | 0% | 0hPa | 2.6V | 04:21:00 | 00:00:00 | 00:00:00 | |
| BAUMI2-15 | 2026-09-05 23:45:44 | 48.92658 | 12.99086 | 111° | 66km/h | 17106m | 4.7m/s | -56.6°C | 5.3% | 92.2hPa | 2.6V | 00:00:00 | 01:40:51 | 00:00:00 | |
| DO3MHA-11 | 2026-09-05 23:45:42 | 48.92669 | 12.99039 | 110° | 69km/h | 17099m | 3.8m/s | -56.5°C | 5.3% | 92.3hPa | 2.6V | 04:21:00 | 01:40:49 | 00:00:00 | |
| EDDB2-11 | 2026-09-05 23:45:41 | 48.92675 | 12.99015 | 107° | 64km/h | 17094m | 4.7m/s | -56.6°C | 1.7% | 92.4hPa | 2.6V | 00:00:00 | 00:00:00 | 00:00:00 | |
| BAUMI2-15 | 2026-09-05 23:45:39 | 48.92684 | 12.98966 | 106° | 69km/h | 17086m | 3.5m/s | -56.4°C | 5.2% | 92.5hPa | 2.6V | 00:00:00 | 01:40:46 | 00:00:00 | |
| OE5HKT-10 | 2026-09-05 23:45:38 | 48.92688 | 12.98941 | 108° | 68km/h | 17082m | 4.2m/s | -56.4°C | 5.2% | 92.5hPa | 2.7V | 00:00:00 | 01:40:45 | 00:00:00 | |
| PETON7-10 | 2026-09-05 23:45:37 | 48.92694 | 12.98916 | 110° | 68km/h | 17078m | 4.5m/s | -56.4°C | 5.2% | 92.6hPa | 2.7V | 00:00:00 | 00:00:00 | 00:00:00 | |
| OE5MMP-10 | 2026-09-05 23:45:36 | 48.92700 | 12.98891 | 111° | 68km/h | 17074m | 3.6m/s | -56.3°C | 5.2% | 92.6hPa | 2.7V | 04:21:00 | 01:40:43 | 00:00:00 | |
| BAUMI2-15 | 2026-09-05 23:45:34 | 48.92713 | 12.98839 | 111° | 68km/h | 17065m | 4.4m/s | -56.3°C | 5.2% | 92.8hPa | 2.6V | 00:00:00 | 01:40:41 | 00:00:00 | |
| OE5REO-15 | 2026-09-05 23:45:33 | 48.92713 | 12.98839 | 111° | 73km/h | 17065m | 4.4m/s | -56.3°C | 1.7% | 92.8hPa | 2.6V | 00:00:00 | 00:00:00 | 00:00:00 | |
| DO8TBO-1 | 2026-09-05 23:45:30 | 48.92736 | 12.98741 | 110° | 66km/h | 17048m | 4.0m/s | -56.1°C | 5.1% | 93.0hPa | 2.6V | 00:00:00 | 01:40:37 | 00:00:00 | |
| BAUMI2-15 | 2026-09-05 23:45:29 | 48.92741 | 12.98718 | 108° | 64km/h | 17044m | 3.8m/s | -56.1°C | 5.0% | 93.1hPa | 2.6V | 04:21:00 | 01:40:36 | 00:00:00 | |
| OE5WHR-10 | 2026-09-05 23:45:26 | 48.92754 | 12.98648 | 106° | 66km/h | 17032m | 3.3m/s | -56.1°C | 5.1% | 93.3hPa | 2.6V | 00:00:00 | 00:00:00 | 00:00:00 | |
| DO3MHA-11 | 2026-09-05 23:45:22 | 48.92772 | 12.98551 | 106° | 64km/h | 17016m | 4.5m/s | -56.1°C | 5.0% | 93.5hPa | 2.6V | 00:00:00 | 01:40:29 | 00:00:00 | |
| DK5PH-5 | 2026-09-05 23:45:21 | 48.92777 | 12.98526 | 106° | 82km/h | 17011m | 4.5m/s | 0°C | 0% | 0hPa | 2.6V | 00:00:00 | 01:40:28 | 00:00:00 | |
| OE5HKT-10 | 2026-09-05 23:45:17 | 48.92799 | 12.98429 | 115° | 66km/h | 16994m | 3.9m/s | -56.2°C | 5.0% | 93.8hPa | 2.6V | 04:22:00 | 00:00:00 | 00:00:00 | |
| OE5MMP-10 | 2026-09-05 23:45:16 | 48.92806 | 12.98408 | 115° | 64km/h | 16990m | 4.3m/s | -56.2°C | 5.0% | 93.9hPa | 2.6V | 00:00:00 | 01:40:23 | 00:00:00 | |
| DL6DJ-15 | 2026-09-05 23:45:15 | 48.92812 | 12.98386 | 113° | 60km/h | 16985m | 5.1m/s | -56.2°C | 1.7% | 94.0hPa | 2.6V | 00:00:00 | 00:00:00 | 00:00:00 | |
| SONDE2-11 | 2026-09-05 23:45:14 | 48.92818 | 12.98365 | 113° | 60km/h | 16981m | 3.9m/s | -56.3°C | 1.7% | 94.0hPa | 2.6V | 00:00:00 | 00:00:00 | 00:00:00 | |
| DO3MHA-11 | 2026-09-05 23:45:12 | 48.92831 | 12.98323 | 116° | 68km/h | 16972m | 5.0m/s | -56.3°C | 5.0% | 94.1hPa | 2.6V | 00:00:00 | 01:40:19 | 00:00:00 | |
| OE5DRO-10 | 2026-09-05 23:45:10 | 48.92843 | 12.98280 | 113° | 69km/h | 16963m | 4.3m/s | -56.3°C | 5.0% | 94.3hPa | 2.7V | 00:00:00 | 00:00:00 | 00:00:00 | |
| PETON7-10 | 2026-09-05 23:45:07 | 48.92862 | 12.98207 | 113° | 69km/h | 16951m | 4.7m/s | -56.3°C | 5.0% | 94.5hPa | 2.6V | 00:00:00 | 00:00:00 | 00:00:00 | |
| OE5MMP-10 | 2026-09-05 23:45:06 | 48.92870 | 12.98183 | 116° | 68km/h | 16946m | 4.4m/s | -56.3°C | 5.1% | 94.5hPa | 2.6V | 00:00:00 | 01:40:13 | 00:00:00 | |
| OE5WHR-10 | 2026-09-05 23:45:05 | 48.92878 | 12.98159 | 118° | 71km/h | 16942m | 3.7m/s | -56.4°C | 5.1% | 94.6hPa | 2.7V | 00:00:00 | 01:40:12 | 00:00:00 | |
| DO3MHA-11 | 2026-09-05 23:45:02 | 48.92905 | 12.98091 | 125° | 68km/h | 16929m | 3.5m/s | -56.4°C | 5.0% | 94.8hPa | 2.7V | 00:00:00 | 01:40:09 | 00:00:00 | |
| DO8TBO-1 | 2026-09-05 23:45:00 | 48.92925 | 12.98050 | 130° | 73km/h | 16921m | 4.5m/s | -56.5°C | 5.0% | 94.9hPa | 2.7V | 00:00:00 | 01:40:07 | 00:00:00 | |
| OE5MMP-10 | 2026-09-05 23:44:56 | 48.92964 | 12.97967 | 118° | 75km/h | 16904m | 3.7m/s | -56.8°C | 5.2% | 95.1hPa | 2.7V | 00:00:00 | 01:40:03 | 00:00:00 | |
| PETON7-10 | 2026-09-05 23:44:52 | 48.92993 | 12.97867 | 116° | 75km/h | 16888m | 3.6m/s | -56.9°C | 5.3% | 95.4hPa | 2.7V | 00:00:00 | 00:00:00 | 00:00:00 | |
| OE5DRO-10 | 2026-09-05 23:44:51 | 48.93002 | 12.97840 | 119° | 75km/h | 16884m | 4.2m/s | -56.9°C | 5.3% | 95.4hPa | 2.7V | 04:22:00 | 00:00:00 | 00:00:00 | |
| S52SK | 2026-09-05 23:44:49 | 48.93012 | 12.97814 | 123° | 78km/h | 16880m | 4.2m/s | -57.0°C | 0% | 95.6hPa | 2.7V | 00:00:00 | 00:00:00 | 00:00:00 | |
| OE5MMP-10 | 2026-09-05 23:44:46 | 48.93058 | 12.97723 | 131° | 75km/h | 16863m | 3.6m/s | -57.0°C | 5.3% | 95.8hPa | 2.7V | 04:22:00 | 01:39:53 | 00:00:00 | |
| OE5WHR-10 | 2026-09-05 23:44:44 | 48.93083 | 12.97682 | 133° | 73km/h | 16855m | 4.6m/s | -57.0°C | 5.3% | 95.9hPa | 2.7V | 04:22:00 | 00:00:00 | 00:00:00 | |
| SONDE2-11 | 2026-09-05 23:44:43 | 48.93095 | 12.97661 | 131° | 75km/h | 16850m | 4.2m/s | -57.0°C | 1.8% | 96.0hPa | 2.6V | 00:00:00 | 00:00:00 | 00:00:00 | |
| DO3MHA-11 | 2026-09-05 23:44:42 | 48.93108 | 12.97639 | 130° | 75km/h | 16846m | 3.9m/s | -57.0°C | 5.3% | 96.0hPa | 2.6V | 00:00:00 | 01:39:49 | 00:00:00 | |
| EDDB2-11 | 2026-09-05 23:44:39 | 48.93142 | 12.97567 | 122° | 73km/h | 16833m | 4.5m/s | -57.1°C | 1.9% | 96.3hPa | 2.6V | 00:00:00 | 00:00:00 | 00:00:00 | |
| PETON7-10 | 2026-09-05 23:44:37 | 48.93162 | 12.97519 | 122° | 71km/h | 16826m | 3.7m/s | -57.0°C | 5.3% | 96.3hPa | 2.6V | 00:00:00 | 01:39:44 | 00:00:00 | |
| OE5MMP-10 | 2026-09-05 23:44:36 | 48.93172 | 12.97494 | 123° | 73km/h | 16822m | 4.8m/s | -57.0°C | 5.3% | 96.4hPa | 2.6V | 00:00:00 | 01:39:43 | 00:00:00 | |
| OE5HKT-10 | 2026-09-05 23:44:35 | 48.93182 | 12.97469 | 123° | 71km/h | 16817m | 3.7m/s | -57.0°C | 5.3% | 96.4hPa | 2.6V | 00:00:00 | 01:39:42 | 00:00:00 | |
| DO3MHA-11 | 2026-09-05 23:44:32 | 48.93212 | 12.97397 | 123° | 71km/h | 16804m | 4.3m/s | -57.0°C | 5.3% | 96.7hPa | 2.6V | 00:00:00 | 01:39:39 | 00:00:00 | |
| DO8TBO-1 | 2026-09-05 23:44:30 | 48.93232 | 12.97352 | 125° | 68km/h | 16795m | 4.6m/s | -57.0°C | 5.3% | 96.8hPa | 2.6V | 04:22:00 | 01:39:37 | 00:00:00 | |
| SP3BTT-10 | 2026-09-05 23:44:29 | 48.93243 | 12.97329 | 125° | 68km/h | 16791m | 3.3m/s | 0°C | 0% | 0hPa | 2.6V | 00:00:00 | 00:00:00 | 00:00:00 | |
| OE5MMP-10 | 2026-09-05 23:44:26 | 48.93271 | 12.97261 | 120° | 69km/h | 16778m | 3.7m/s | -57.0°C | 5.3% | 97.1hPa | 2.6V | 00:00:00 | 01:39:33 | 00:00:00 | |
| OE5WHR-10 | 2026-09-05 23:44:23 | 48.93297 | 12.97190 | 120° | 68km/h | 16766m | 3.4m/s | -57.0°C | 5.3% | 97.2hPa | 2.6V | 00:00:00 | 00:00:00 | 00:00:00 | |
| DO3MHA-11 | 2026-09-05 23:44:22 | 48.93305 | 12.97166 | 120° | 68km/h | 16762m | 3.4m/s | -57.1°C | 5.2% | 97.3hPa | 2.6V | 00:00:00 | 01:39:29 | 00:00:00 | |
| OE5REO-15 | 2026-09-05 23:44:21 | 48.93306 | 12.97166 | 120° | 71km/h | 16762m | 3.5m/s | -57.1°C | 1.8% | 97.3hPa | 2.6V | 00:00:00 | 00:00:00 | 00:00:00 | |
| OE5MMP-10 | 2026-09-05 23:44:16 | 48.93358 | 12.97034 | 121° | 68km/h | 16737m | 3.8m/s | -57.1°C | 5.3% | 97.7hPa | 2.6V | 00:00:00 | 01:39:23 | 00:00:00 | |
| OE5HKT-10 | 2026-09-05 23:44:14 | 48.93375 | 12.96986 | 116° | 66km/h | 16730m | 4.0m/s | -57.1°C | 5.3% | 97.8hPa | 2.6V | 00:00:00 | 00:00:00 | 00:00:00 | |
| OE5DRO-10 | 2026-09-05 23:44:13 | 48.93382 | 12.96962 | 115° | 64km/h | 16726m | 4.6m/s | -57.1°C | 5.3% | 97.9hPa | 2.6V | 00:00:00 | 00:00:00 | 00:00:00 | |
| DO3MHA-11 | 2026-09-05 23:44:12 | 48.93390 | 12.96940 | 115° | 66km/h | 16722m | 4.0m/s | -57.2°C | 5.3% | 97.9hPa | 2.7V | 00:00:00 | 01:39:19 | 00:00:00 | |
| EDDB2-11 | 2026-09-05 23:44:08 | 48.93421 | 12.96853 | 123° | 66km/h | 16705m | 3.7m/s | -57.5°C | 1.9% | 98.2hPa | 2.7V | 00:00:00 | 00:00:00 | 00:00:00 | |
| PETON7-10 | 2026-09-05 23:44:07 | 48.93430 | 12.96832 | 124° | 64km/h | 16702m | 3.4m/s | -57.5°C | 5.4% | 98.2hPa | 2.7V | 04:23:00 | 00:00:00 | 00:00:00 | |
| OE5MMP-10 | 2026-09-05 23:44:06 | 48.93439 | 12.96810 | 123° | 64km/h | 16697m | 4.8m/s | -57.5°C | 5.4% | 98.3hPa | 2.7V | 00:00:00 | 01:39:13 | 00:00:00 | |
| OE5REO-15 | 2026-09-05 23:44:04 | 48.93448 | 12.96789 | 121° | 66km/h | 16693m | 4.1m/s | -57.6°C | 1.9% | 98.4hPa | 2.6V | 00:00:00 | 00:00:00 | 00:00:00 | |
| DO3MHA-11 | 2026-09-05 23:44:02 | 48.93472 | 12.96721 | 117° | 64km/h | 16679m | 3.8m/s | -57.6°C | 5.4% | 98.6hPa | 2.6V | 04:23:00 | 01:39:09 | 00:00:00 | |
| DO8TBO-1 | 2026-09-05 23:44:00 | 48.93486 | 12.96677 | 114° | 68km/h | 16671m | 4.6m/s | -57.5°C | 5.3% | 98.7hPa | 2.6V | 00:00:00 | 01:39:07 | 00:00:00 | |
| OE5MMP-10 | 2026-09-05 23:43:56 | 48.93514 | 12.96594 | 124° | 66km/h | 16654m | 4.4m/s | -57.8°C | 5.5% | 99.0hPa | 2.6V | 04:23:00 | 01:39:03 | 00:00:00 | |
| OE5DRO-10 | 2026-09-05 23:43:54 | 48.93533 | 12.96553 | 125° | 69km/h | 16646m | 4.3m/s | -58.0°C | 5.5% | 99.1hPa | 2.6V | 00:00:00 | 00:00:00 | 00:00:00 | |
| OE5HKT-10 | 2026-09-05 23:43:53 | 48.93542 | 12.96532 | 125° | 69km/h | 16641m | 5.0m/s | -58.1°C | 5.7% | 99.2hPa | 2.6V | 00:00:00 | 00:00:00 | 00:00:00 | |
| PETON7-10 | 2026-09-05 23:43:52 | 48.93551 | 12.96512 | 124° | 69km/h | 16636m | 4.2m/s | -58.1°C | 5.7% | 99.3hPa | 2.6V | 00:00:00 | 01:38:59 | 00:00:00 | |
| OE5REO-15 | 2026-09-05 23:43:49 | 48.93570 | 12.96471 | 126° | 66km/h | 16627m | 5.1m/s | -58.2°C | 2.0% | 99.5hPa | 2.6V | 00:00:00 | 00:00:00 | 00:00:00 | |
| OE5MMP-10 | 2026-09-05 23:43:46 | 48.93607 | 12.96384 | 121° | 71km/h | 16611m | 3.9m/s | -58.2°C | 5.8% | 99.7hPa | 2.6V | 00:00:00 | 01:38:53 | 00:00:00 | |
| SP3BTT-10 | 2026-09-05 23:43:44 | 48.93624 | 12.96339 | 122° | 71km/h | 16602m | 5.1m/s | 0°C | 0% | 0hPa | 2.6V | 00:00:00 | 00:00:00 | 00:00:00 | |
| DO3MHA-11 | 2026-09-05 23:43:42 | 48.93643 | 12.96293 | 122° | 73km/h | 16593m | 4.0m/s | -58.2°C | 5.8% | 100.0hPa | 2.6V | 00:00:00 | 01:38:49 | 00:00:00 | |
| OE5WHR-10 | 2026-09-05 23:43:41 | 48.93653 | 12.96270 | 121° | 71km/h | 16589m | 5.0m/s | -58.2°C | 5.8% | 100.0hPa | 2.6V | 00:00:00 | 00:00:00 | 00:00:00 | |
| PETON7-10 | 2026-09-05 23:43:37 | 48.93691 | 12.96171 | 122° | 71km/h | 16570m | 4.4m/s | -58.1°C | 5.8% | 100.3hPa | 2.6V | 00:00:00 | 00:00:00 | 00:00:00 | |
| OE5MMP-10 | 2026-09-05 23:43:36 | 48.93701 | 12.96147 | 122° | 69km/h | 16566m | 4.0m/s | -58.1°C | 5.7% | 100.4hPa | 2.6V | 00:00:00 | 01:38:43 | 00:00:00 | |
| OE5DRO-10 | 2026-09-05 23:43:35 | 48.93710 | 12.96122 | 121° | 69km/h | 16562m | 5.0m/s | -58.0°C | 5.7% | 100.5hPa | 2.7V | 00:00:00 | 00:00:00 | 00:00:00 | |
| OE5REO-15 | 2026-09-05 23:43:34 | 48.93710 | 12.96122 | 121° | 73km/h | 16562m | 5.1m/s | -58.1°C | 2.0% | 100.5hPa | 2.7V | 00:00:00 | 00:00:00 | 00:00:00 | |
| OE5HKT-10 | 2026-09-05 23:43:32 | 48.93738 | 12.96053 | 124° | 69km/h | 16549m | 4.9m/s | -57.9°C | 5.7% | 100.6hPa | 2.7V | 04:23:00 | 01:38:39 | 00:00:00 | |
| DO8TBO-1 | 2026-09-05 23:43:30 | 48.93757 | 12.96010 | 125° | 69km/h | 16541m | 3.7m/s | -57.9°C | 5.7% | 100.8hPa | 2.7V | 00:00:00 | 01:38:37 | 00:00:00 | |
| OE5MMP-10 | 2026-09-05 23:43:26 | 48.93794 | 12.95923 | 124° | 71km/h | 16523m | 5.4m/s | -57.8°C | 5.6% | 101.1hPa | 2.7V | 00:00:00 | 01:38:33 | 00:00:00 | |
| DO3MHA-11 | 2026-09-05 23:43:22 | 48.93835 | 12.95827 | 121° | 68km/h | 16505m | 4.7m/s | -57.8°C | 5.6% | 101.3hPa | 2.7V | 00:00:00 | 01:38:29 | 00:00:00 | |
| OE5WHR-10 | 2026-09-05 23:43:20 | 48.93853 | 12.95781 | 121° | 69km/h | 16497m | 3.9m/s | -57.8°C | 5.5% | 101.5hPa | 2.7V | 00:00:00 | 00:00:00 | 00:00:00 | |
| OE5REO-15 | 2026-09-05 23:43:18 | 48.93862 | 12.95759 | 123° | 68km/h | 16493m | 5.0m/s | -57.8°C | 2.0% | 101.6hPa | 2.7V | 04:24:00 | 00:00:00 | 00:00:00 | |
| BAUMI2-15 | 2026-09-05 23:43:17 | 48.93881 | 12.95715 | 124° | 68km/h | 16484m | 4.0m/s | -57.8°C | 5.5% | 101.7hPa | 2.7V | 00:00:00 | 01:38:24 | 00:00:00 | |
| OE5MMP-10 | 2026-09-05 23:43:16 | 48.93891 | 12.95693 | 124° | 69km/h | 16480m | 4.3m/s | -57.8°C | 5.5% | 101.8hPa | 2.7V | 00:00:00 | 01:38:23 | 00:00:00 | |
| DO3MHA-11 | 2026-09-05 23:43:12 | 48.93928 | 12.95607 | 126° | 71km/h | 16461m | 4.7m/s | -57.9°C | 5.7% | 102.0hPa | 2.7V | 04:24:00 | 01:38:19 | 00:00:00 | |
| OE5HKT-10 | 2026-09-05 23:43:11 | 48.93939 | 12.95585 | 127° | 69km/h | 16457m | 4.0m/s | -57.9°C | 5.7% | 102.1hPa | 2.6V | 00:00:00 | 00:00:00 | 00:00:00 | |
| SONDE2-11 | 2026-09-05 23:43:10 | 48.93960 | 12.95541 | 124° | 69km/h | 16449m | 5.1m/s | -58.0°C | 2.1% | 102.3hPa | 2.7V | 00:00:00 | 00:00:00 | 00:00:00 | |
| BAUMI2-15 | 2026-09-05 23:43:07 | 48.93979 | 12.95495 | 124° | 71km/h | 16440m | 3.7m/s | -58.0°C | 5.6% | 102.4hPa | 2.7V | 00:00:00 | 01:38:14 | 00:00:00 | |
| OE5MMP-10 | 2026-09-05 23:43:06 | 48.93989 | 12.95473 | 125° | 68km/h | 16436m | 4.7m/s | -58.0°C | 5.7% | 102.5hPa | 2.7V | 04:24:00 | 01:38:13 | 00:00:00 | |
| OE5REO-15 | 2026-09-05 23:43:03 | 48.94010 | 12.95428 | 127° | 69km/h | 16427m | 4.2m/s | -58.0°C | 2.1% | 102.7hPa | 2.7V | 04:24:00 | 00:00:00 | 00:00:00 | |
| DO3MHA-11 | 2026-09-05 23:43:02 | 48.94030 | 12.95386 | 126° | 68km/h | 16417m | 4.4m/s | -58.1°C | 5.7% | 102.8hPa | 2.7V | 00:00:00 | 01:38:09 | 00:00:00 | |
| DO8TBO-1 | 2026-09-05 23:43:00 | 48.94050 | 12.95345 | 128° | 69km/h | 16408m | 5.3m/s | 0°C | 0% | 0hPa | 2.7V | 00:00:00 | 01:38:07 | 00:00:00 | |
| OE5WHR-10 | 2026-09-05 23:42:59 | 48.94060 | 12.95325 | 129° | 69km/h | 16403m | 3.9m/s | -58.4°C | 5.9% | 103.0hPa | 2.6V | 04:24:00 | 01:38:06 | 00:00:00 | |
| BAUMI2-15 | 2026-09-05 23:42:57 | 48.94080 | 12.95286 | 129° | 69km/h | 16395m | 4.5m/s | -58.4°C | 5.8% | 103.1hPa | 2.6V | 00:00:00 | 01:38:04 | 00:00:00 | |
| OE5MMP-10 | 2026-09-05 23:42:56 | 48.94091 | 12.95266 | 129° | 71km/h | 16391m | 3.3m/s | -58.4°C | 5.8% | 103.2hPa | 2.6V | 00:00:00 | 01:38:03 | 00:00:00 | |
| PETON7-10 | 2026-09-05 23:42:52 | 48.94138 | 12.95184 | 131° | 69km/h | 16373m | 4.9m/s | -58.3°C | 5.7% | 103.5hPa | 2.6V | 04:24:00 | 00:00:00 | 00:00:00 | |
| OE5HKT-10 | 2026-09-05 23:42:50 | 48.94160 | 12.95142 | 130° | 71km/h | 16364m | 4.3m/s | -58.4°C | 5.8% | 103.6hPa | 2.6V | 00:00:00 | 00:00:00 | 00:00:00 | |
| BAUMI2-15 | 2026-09-05 23:42:47 | 48.94195 | 12.95080 | 129° | 69km/h | 16350m | 4.7m/s | -58.5°C | 5.9% | 103.9hPa | 2.6V | 00:00:00 | 01:37:54 | 00:00:00 | |
| OE5MMP-10 | 2026-09-05 23:42:46 | 48.94205 | 12.95059 | 127° | 69km/h | 16345m | 4.8m/s | -58.5°C | 5.9% | 103.9hPa | 2.6V | 00:00:00 | 01:37:53 | 00:00:00 | |
| SP3BTT-10 | 2026-09-05 23:42:44 | 48.94225 | 12.95016 | 125° | 78km/h | 16337m | 4.8m/s | 0°C | 0% | 0hPa | 2.6V | 00:00:00 | 00:00:00 | 00:00:00 | |
| DO3MHA-11 | 2026-09-05 23:42:42 | 48.94245 | 12.94971 | 124° | 71km/h | 16328m | 3.7m/s | -58.5°C | 5.9% | 104.2hPa | 2.6V | 00:00:00 | 01:37:49 | 00:00:00 | |
| DL6DJ-15 | 2026-09-05 23:42:40 | 48.94265 | 12.94926 | 121° | 69km/h | 16319m | 4.6m/s | -58.6°C | 2.2% | 104.5hPa | 2.7V | 00:00:00 | 00:00:00 | 00:00:00 | |
| SONDE2-11 | 2026-09-05 23:42:39 | 48.94284 | 12.94880 | 122° | 69km/h | 16310m | 5.5m/s | -58.6°C | 2.2% | 104.6hPa | 2.7V | 00:00:00 | 00:00:00 | 00:00:00 | |
| OE5WHR-10 | 2026-09-05 23:42:38 | 48.94284 | 12.94880 | 123° | 77km/h | 16310m | 5.4m/s | -58.5°C | 5.9% | 104.5hPa | 2.7V | 00:00:00 | 00:00:00 | 00:00:00 | |
| PETON7-10 | 2026-09-05 23:42:37 | 48.94293 | 12.94857 | 123° | 77km/h | 16305m | 4.3m/s | -58.6°C | 5.9% | 104.6hPa | 2.6V | 00:00:00 | 00:00:00 | 00:00:00 | |
| OE5MMP-10 | 2026-09-05 23:42:36 | 48.94303 | 12.94834 | 123° | 77km/h | 16300m | 4.6m/s | -58.6°C | 5.9% | 104.7hPa | 2.6V | 00:00:00 | 01:37:43 | 00:00:00 | |
| EDDB2-11 | 2026-09-05 23:42:35 | 48.94312 | 12.94811 | 121° | 68km/h | 16296m | 4.6m/s | -58.7°C | 2.2% | 104.8hPa | 2.6V | 00:00:00 | 00:00:00 | 00:00:00 | |
| DO3MHA-11 | 2026-09-05 23:42:32 | 48.94341 | 12.94742 | 125° | 80km/h | 16283m | 4.9m/s | -58.7°C | 5.9% | 105.0hPa | 2.6V | 00:00:00 | 01:37:39 | 00:00:00 | |
| DO8TBO-1 | 2026-09-05 23:42:30 | 48.94363 | 12.94692 | 125° | 84km/h | 16274m | 5.1m/s | -58.8°C | 5.9% | 105.1hPa | 2.6V | 00:00:00 | 01:37:37 | 00:00:00 | |
| OE5HKT-10 | 2026-09-05 23:42:29 | 48.94375 | 12.94667 | 125° | 84km/h | 16269m | 4.5m/s | -58.8°C | 5.9% | 105.2hPa | 2.6V | 00:00:00 | 01:37:36 | 00:00:00 | |
| BAUMI2-15 | 2026-09-05 23:42:27 | 48.94398 | 12.94615 | 125° | 82km/h | 16260m | 5.1m/s | -58.8°C | 5.9% | 105.4hPa | 2.6V | 00:00:00 | 01:37:34 | 00:00:00 | |
| OE5MMP-10 | 2026-09-05 23:42:26 | 48.94410 | 12.94589 | 125° | 78km/h | 16255m | 4.1m/s | -58.9°C | 5.8% | 105.4hPa | 2.6V | 00:00:00 | 01:37:33 | 00:00:00 | |
| PETON7-10 | 2026-09-05 23:42:22 | 48.94452 | 12.94482 | 117° | 84km/h | 16239m | 3.9m/s | -59.3°C | 6.1% | 105.8hPa | 2.6V | 00:00:00 | 01:37:29 | 00:00:00 | |
| OE5DRO-10 | 2026-09-05 23:42:19 | 48.94477 | 12.94407 | 119° | 86km/h | 16226m | 4.5m/s | -59.3°C | 6.2% | 105.9hPa | 2.6V | 00:00:00 | 00:00:00 | 00:00:00 | |
| OE5WHR-10 | 2026-09-05 23:42:17 | 48.94497 | 12.94354 | 120° | 88km/h | 16218m | 3.7m/s | -59.3°C | 6.2% | 106.1hPa | 2.7V | 00:00:00 | 00:00:00 | 00:00:00 | |
| OE5MMP-10 | 2026-09-05 23:42:16 | 48.94508 | 12.94325 | 120° | 88km/h | 16214m | 4.9m/s | -59.3°C | 6.2% | 106.1hPa | 2.7V | 04:25:00 | 01:37:23 | 00:00:00 | |
| DO3MHA-11 | 2026-09-05 23:42:11 | 48.94563 | 12.94174 | 118° | 88km/h | 16192m | 4.5m/s | -59.3°C | 6.2% | 106.5hPa | 2.7V | 00:00:00 | 01:37:18 | 00:00:00 | |
| DL6DJ-15 | 2026-09-05 23:42:09 | 48.94582 | 12.94113 | 113° | 86km/h | 16183m | 3.6m/s | -59.3°C | 2.3% | 106.7hPa | 2.6V | 00:00:00 | 00:00:00 | 00:00:00 | |
| SONDE2-11 | 2026-09-05 23:42:08 | 48.94599 | 12.94054 | 115° | 80km/h | 16174m | 4.7m/s | -59.3°C | 2.3% | 106.9hPa | 2.6V | 00:00:00 | 00:00:00 | 00:00:00 | |
| PETON7-10 | 2026-09-05 23:42:07 | 48.94599 | 12.94054 | 116° | 84km/h | 16174m | 4.7m/s | -59.2°C | 6.2% | 106.8hPa | 2.6V | 00:00:00 | 00:00:00 | 00:00:00 | |
| OE5MMP-10 | 2026-09-05 23:42:06 | 48.94608 | 12.94026 | 117° | 88km/h | 16169m | 3.9m/s | -59.2°C | 6.1% | 106.9hPa | 2.6V | 00:00:00 | 01:37:13 | 00:00:00 | |
| EDDB2-11 | 2026-09-05 23:42:04 | 48.94627 | 12.93970 | 117° | 84km/h | 16161m | 4.9m/s | -59.3°C | 2.3% | 107.1hPa | 2.6V | 00:00:00 | 00:00:00 | 00:00:00 | |
| PG1ADW-2 | 2026-09-05 23:42:02 | 48.94648 | 12.93911 | 121° | 84km/h | 16152m | 5.2m/s | -59.3°C | 6.1% | 107.2hPa | 2.6V | 00:00:00 | 01:37:09 | 00:00:00 | |
| OE5DRO-10 | 2026-09-05 23:42:00 | 48.94672 | 12.93851 | 123° | 84km/h | 16143m | 3.3m/s | -59.3°C | 6.2% | 107.3hPa | 2.7V | 00:00:00 | 00:00:00 | 00:00:00 | |
| DO3MHA-11 | 2026-09-05 23:41:58 | 48.94697 | 12.93791 | 121° | 80km/h | 16135m | 4.6m/s | -59.2°C | 6.1% | 107.5hPa | 2.7V | 00:00:00 | 01:37:05 | 00:00:00 | |
| BAUMI2-15 | 2026-09-05 23:41:57 | 48.94708 | 12.93762 | 120° | 78km/h | 16131m | 3.8m/s | 0°C | 0% | 0hPa | 2.7V | 00:00:00 | 01:37:04 | 00:00:00 | |
| OE5WHR-10 | 2026-09-05 23:41:56 | 48.94718 | 12.93733 | 119° | 82km/h | 16127m | 3.9m/s | -59.2°C | 6.1% | 107.6hPa | 2.7V | 00:00:00 | 01:37:03 | 00:00:00 | |
| PETON7-10 | 2026-09-05 23:41:52 | 48.94755 | 12.93630 | 117° | 82km/h | 16108m | 4.6m/s | -59.5°C | 6.3% | 107.9hPa | 2.7V | 00:00:00 | 00:00:00 | 00:00:00 | |
| DO3MHA-11 | 2026-09-05 23:41:48 | 48.94795 | 12.93525 | 125° | 84km/h | 16093m | 4.5m/s | -59.4°C | 6.4% | 108.2hPa | 2.7V | 00:00:00 | 01:36:55 | 00:00:00 | |
| OE5HKT-10 | 2026-09-05 23:41:47 | 48.94807 | 12.93498 | 125° | 84km/h | 16089m | 3.6m/s | -59.4°C | 6.4% | 108.3hPa | 2.7V | 04:25:00 | 00:00:00 | 00:00:00 | |
| OE5REO-15 | 2026-09-05 23:41:46 | 48.94819 | 12.93470 | 125° | 89km/h | 16085m | 4.3m/s | -59.5°C | 2.4% | 108.4hPa | 2.7V | 04:26:00 | 00:00:00 | 00:00:00 | |
| SP3BTT-10 | 2026-09-05 23:41:43 | 48.94854 | 12.93385 | 121° | 89km/h | 16072m | 3.6m/s | 0°C | 0% | 0hPa | 2.7V | 00:00:00 | 00:00:00 | 00:00:00 | |
| BAUMI2-15 | 2026-09-05 23:41:42 | 48.94864 | 12.93358 | 121° | 80km/h | 16068m | 4.6m/s | 0°C | 0% | 0hPa | 2.7V | 00:00:00 | 01:36:49 | 00:00:00 | |
| OE5DRO-10 | 2026-09-05 23:41:41 | 48.94875 | 12.93332 | 122° | 84km/h | 16064m | 4.2m/s | -59.3°C | 6.3% | 108.7hPa | 2.7V | 04:25:00 | 00:00:00 | 00:00:00 | |
| DL6DJ-15 | 2026-09-05 23:41:38 | 48.94906 | 12.93255 | 121° | 80km/h | 16052m | 4.7m/s | -59.2°C | 2.4% | 109.0hPa | 2.7V | 00:00:00 | 00:00:00 | 00:00:00 | |
| SONDE2-11 | 2026-09-05 23:41:37 | 48.94930 | 12.93200 | 123° | 86km/h | 16044m | 3.4m/s | -59.2°C | 2.3% | 109.1hPa | 2.7V | 00:00:00 | 00:00:00 | 00:00:00 | |
| OE5MMP-10 | 2026-09-05 23:41:36 | 48.94930 | 12.93200 | 124° | 86km/h | 16044m | 3.4m/s | -59.1°C | 6.2% | 109.1hPa | 2.7V | 00:00:00 | 01:36:43 | 00:00:00 | |
| OE5WHR-10 | 2026-09-05 23:41:35 | 48.94942 | 12.93173 | 126° | 88km/h | 16039m | 5.1m/s | -59.1°C | 6.2% | 109.1hPa | 2.7V | 00:00:00 | 00:00:00 | 00:00:00 | |
| EDDB2-11 | 2026-09-05 23:41:33 | 48.94982 | 12.93092 | 126° | 88km/h | 16027m | 5.0m/s | -59.2°C | 2.4% | 109.4hPa | 2.7V | 00:00:00 | 00:00:00 | 00:00:00 | |
| BAUMI2-15 | 2026-09-05 23:41:32 | 48.94982 | 12.93092 | 127° | 86km/h | 16027m | 4.9m/s | 0°C | 0% | 0hPa | 2.7V | 00:00:00 | 01:36:39 | 00:00:00 | |
| DO8TBO-1 | 2026-09-05 23:41:30 | 48.95008 | 12.93036 | 125° | 89km/h | 16018m | 4.3m/s | -59.2°C | 6.2% | 109.5hPa | 2.7V | 00:00:00 | 01:36:37 | 00:00:00 | |
| DO3MHA-11 | 2026-09-05 23:41:28 | 48.95032 | 12.92983 | 125° | 86km/h | 16009m | 4.0m/s | -59.2°C | 6.2% | 109.7hPa | 2.6V | 04:25:00 | 01:36:35 | 00:00:00 | |
| BAUMI2-15 | 2026-09-05 23:41:27 | 48.95044 | 12.92956 | 123° | 82km/h | 16005m | 4.2m/s | 0°C | 0% | 0hPa | 2.6V | 00:00:00 | 01:36:34 | 00:00:00 | |
| OE5MMP-10 | 2026-09-05 23:41:26 | 48.95055 | 12.92930 | 122° | 88km/h | 16000m | 5.2m/s | -59.2°C | 6.2% | 109.8hPa | 2.6V | 04:26:00 | 01:36:33 | 00:00:00 | |
| PETON7-10 | 2026-09-05 23:41:22 | 48.95098 | 12.92822 | 124° | 89km/h | 15983m | 3.5m/s | -59.1°C | 6.3% | 110.1hPa | 2.6V | 00:00:00 | 00:00:00 | 00:00:00 | |
| DO3MHA-11 | 2026-09-05 23:41:18 | 48.95150 | 12.92705 | 125° | 89km/h | 15967m | 3.8m/s | -59.0°C | 6.3% | 110.4hPa | 2.6V | 00:00:00 | 01:36:25 | 00:00:00 | |
| OE5MMP-10 | 2026-09-05 23:41:16 | 48.95176 | 12.92647 | 125° | 88km/h | 15958m | 3.5m/s | -59.0°C | 6.3% | 110.6hPa | 2.6V | 00:00:00 | 01:36:23 | 00:00:00 | |
| OE5WHR-10 | 2026-09-05 23:41:14 | 48.95202 | 12.92589 | 123° | 91km/h | 15950m | 4.4m/s | -59.1°C | 6.3% | 110.7hPa | 2.6V | 04:26:00 | 00:00:00 | 00:00:00 | |
| OE5DXL-15 | 2026-09-05 23:41:12 | 48.95225 | 12.92530 | 120° | 93km/h | 15942m | 4.0m/s | -59.2°C | 6.3% | 110.9hPa | 2.6V | 00:00:00 | 00:00:00 | 00:00:00 | |
| S52SK | 2026-09-05 23:41:11 | 48.95225 | 12.92530 | 121° | 89km/h | 15942m | 4.1m/s | -59.2°C | 0% | 110.9hPa | 2.6V | 00:00:00 | 00:00:00 | 00:00:00 | |
| DO3MHA-11 | 2026-09-05 23:41:08 | 48.95269 | 12.92414 | 122° | 95km/h | 15925m | 4.1m/s | -59.1°C | 6.3% | 111.1hPa | 2.6V | 00:00:00 | 01:36:15 | 00:00:00 | |
| PETON7-10 | 2026-09-05 23:41:07 | 48.95281 | 12.92386 | 122° | 93km/h | 15921m | 4.6m/s | -59.0°C | 6.3% | 111.2hPa | 2.7V | 00:00:00 | 00:00:00 | 00:00:00 | |
| OE5MMP-10 | 2026-09-05 23:41:06 | 48.95293 | 12.92358 | 123° | 97km/h | 15916m | 4.4m/s | -59.0°C | 6.3% | 111.3hPa | 2.7V | 00:00:00 | 01:36:13 | 00:00:00 | |
| OE3MUC-15 | 2026-09-05 23:41:05 | 48.95305 | 12.92328 | 123° | 95km/h | 15912m | 3.6m/s | 0°C | 0% | 0hPa | 2.7V | 00:00:00 | 00:00:00 | 00:00:00 | |
| OE5DRO-10 | 2026-09-05 23:41:03 | 48.95331 | 12.92269 | 125° | 93km/h | 15903m | 4.0m/s | -58.9°C | 6.3% | 111.5hPa | 2.7V | 00:00:00 | 00:00:00 | 00:00:00 | |
| PG1ADW-2 | 2026-09-05 23:41:02 | 48.95345 | 12.92237 | 123° | 93km/h | 15900m | 3.4m/s | -58.9°C | 6.3% | 111.6hPa | 2.7V | 00:00:00 | 00:00:00 | 00:00:00 | |
| DO8TBO-1 | 2026-09-05 23:41:00 | 48.95372 | 12.92171 | 121° | 93km/h | 15891m | 3.6m/s | -58.9°C | 6.3% | 111.7hPa | 2.7V | 00:00:00 | 01:36:07 | 00:00:00 | |
| OE3MUC-15 | 2026-09-05 23:40:59 | 48.95384 | 12.92138 | 120° | 95km/h | 15888m | 3.3m/s | 0°C | 0% | 0hPa | 2.7V | 04:26:00 | 00:00:00 | 00:00:00 | |
| OE5REO-15 | 2026-09-05 23:40:58 | 48.95384 | 12.92138 | 120° | 100km/h | 15888m | 3.3m/s | -58.9°C | 2.5% | 111.9hPa | 2.7V | 04:26:00 | 00:00:00 | 00:00:00 | |
| OE5MMP-10 | 2026-09-05 23:40:56 | 48.95420 | 12.92043 | 120° | 91km/h | 15876m | 3.9m/s | -58.9°C | 6.3% | 112.0hPa | 2.7V | 00:00:00 | 01:36:03 | 00:00:00 | |
| OE3MUC-15 | 2026-09-05 23:40:55 | 48.95431 | 12.92014 | 120° | 84km/h | 15872m | 3.3m/s | 0°C | 0% | 0hPa | 2.7V | 00:00:00 | 00:00:00 | 00:00:00 | |
| OE5WHR-10 | 2026-09-05 23:40:53 | 48.95452 | 12.91957 | 119° | 93km/h | 15864m | 4.2m/s | -58.9°C | 6.2% | 112.2hPa | 2.7V | 00:00:00 | 01:36:00 | 00:00:00 | |
| PETON7-10 | 2026-09-05 23:40:52 | 48.95462 | 12.91927 | 119° | 93km/h | 15860m | 3.3m/s | -58.9°C | 6.3% | 112.3hPa | 2.7V | 00:00:00 | 01:35:59 | 00:00:00 | |
| DO3MHA-11 | 2026-09-05 23:40:48 | 48.95509 | 12.91803 | 120° | 93km/h | 15844m | 3.6m/s | -58.8°C | 6.2% | 112.6hPa | 2.7V | 00:00:00 | 01:35:55 | 00:00:00 | |
| OE3MUC-15 | 2026-09-05 23:40:45 | 48.95544 | 12.91705 | 118° | 93km/h | 15831m | 4.4m/s | 0°C | 0% | 0hPa | 2.7V | 00:00:00 | 00:00:00 | 00:00:00 | |
| OE5HKT-10 | 2026-09-05 23:40:44 | 48.95555 | 12.91673 | 118° | 91km/h | 15827m | 4.7m/s | -58.7°C | 6.2% | 112.9hPa | 2.7V | 00:00:00 | 00:00:00 | 00:00:00 | |
| OE5REO-15 | 2026-09-05 23:40:43 | 48.95555 | 12.91673 | 119° | 95km/h | 15827m | 4.7m/s | -58.8°C | 2.5% | 112.9hPa | 2.7V | 04:27:00 | 00:00:00 | 00:00:00 | |
| PG1ADW-2 | 2026-09-05 23:40:42 | 48.95577 | 12.91610 | 117° | 91km/h | 15819m | 3.9m/s | -58.7°C | 6.1% | 113.0hPa | 2.7V | 04:26:00 | 01:35:49 | 00:00:00 | |
| OE3MUC-15 | 2026-09-05 23:40:39 | 48.95606 | 12.91515 | 115° | 91km/h | 15807m | 3.4m/s | 0°C | 0% | 0hPa | 2.7V | 00:00:00 | 00:00:00 | 00:00:00 | |
| DO3MHA-11 | 2026-09-05 23:40:38 | 48.95616 | 12.91484 | 117° | 93km/h | 15803m | 4.7m/s | -58.9°C | 6.2% | 113.3hPa | 2.7V | 04:26:00 | 01:35:45 | 00:00:00 | |
| PETON7-10 | 2026-09-05 23:40:37 | 48.95627 | 12.91453 | 119° | 91km/h | 15799m | 4.1m/s | -59.0°C | 6.2% | 113.4hPa | 2.7V | 00:00:00 | 00:00:00 | 00:00:00 | |
| OE5MMP-10 | 2026-09-05 23:40:36 | 48.95638 | 12.91423 | 120° | 91km/h | 15795m | 3.6m/s | -59.0°C | 6.2% | 113.5hPa | 2.6V | 04:26:00 | 01:35:43 | 00:00:00 | |
| SONDE2-11 | 2026-09-05 23:40:35 | 48.95661 | 12.91360 | 117° | 93km/h | 15787m | 4.3m/s | -59.2°C | 2.5% | 113.7hPa | 2.7V | 00:00:00 | 00:00:00 | 00:00:00 | |
| OE5WHR-10 | 2026-09-05 23:40:32 | 48.95682 | 12.91294 | 117° | 93km/h | 15779m | 4.2m/s | -59.3°C | 6.4% | 113.8hPa | 2.7V | 00:00:00 | 00:00:00 | 00:00:00 | |
| OE3MUC-15 | 2026-09-05 23:40:31 | 48.95692 | 12.91262 | 117° | 91km/h | 15774m | 5.0m/s | 0°C | 0% | 0hPa | 2.7V | 04:26:00 | 00:00:00 | 00:00:00 | |
| DO3MHA-11 | 2026-09-05 23:40:28 | 48.95722 | 12.91168 | 115° | 91km/h | 15761m | 4.7m/s | -59.6°C | 6.5% | 114.0hPa | 2.7V | 00:00:00 | 01:35:35 | 00:00:00 | |
| OE5REO-15 | 2026-09-05 23:40:27 | 48.95731 | 12.91137 | 115° | 89km/h | 15757m | 3.5m/s | -59.7°C | 2.7% | 114.2hPa | 2.7V | 04:27:00 | 00:00:00 | 00:00:00 | |
| OE5MMP-10 | 2026-09-05 23:40:26 | 48.95741 | 12.91105 | 116° | 91km/h | 15753m | 3.5m/s | -59.7°C | 6.5% | 114.2hPa | 2.7V | 00:00:00 | 01:35:33 | 00:00:00 | |
| OE5DRO-10 | 2026-09-05 23:40:25 | 48.95751 | 12.91074 | 118° | 93km/h | 15749m | 4.9m/s | -59.7°C | 6.5% | 114.3hPa | 2.7V | 00:00:00 | 00:00:00 | 00:00:00 | |
| OE5HKT-10 | 2026-09-05 23:40:23 | 48.95773 | 12.91014 | 120° | 93km/h | 15741m | 3.1m/s | -59.7°C | 6.6% | 114.4hPa | 2.7V | 00:00:00 | 01:35:30 | 00:00:00 | |
| PETON7-10 | 2026-09-05 23:40:22 | 48.95784 | 12.90983 | 119° | 95km/h | 15738m | 3.8m/s | 0°C | 0% | 0hPa | 2.7V | 04:27:00 | 00:00:00 | 00:00:00 | |
| DO3MHA-11 | 2026-09-05 23:40:18 | 48.95823 | 12.90853 | 114° | 95km/h | 15722m | 4.3m/s | -59.9°C | 6.7% | 114.8hPa | 2.7V | 00:00:00 | 01:35:25 | 00:00:00 | |
| OE5MMP-10 | 2026-09-05 23:40:16 | 48.95842 | 12.90787 | 115° | 95km/h | 15713m | 3.6m/s | -60.0°C | 6.8% | 114.9hPa | 2.7V | 00:00:00 | 01:35:23 | 00:00:00 | |
| OE5DXL-15 | 2026-09-05 23:40:12 | 48.95880 | 12.90653 | 114° | 93km/h | 15697m | 4.2m/s | -60.2°C | 7.0% | 115.2hPa | 2.7V | 04:27:00 | 00:00:00 | 00:00:00 | |
| OE5WHR-10 | 2026-09-05 23:40:11 | 48.95889 | 12.90620 | 115° | 93km/h | 15692m | 4.5m/s | -60.2°C | 7.0% | 115.3hPa | 2.7V | 00:00:00 | 00:00:00 | 00:00:00 | |
| OE5REO-15 | 2026-09-05 23:40:10 | 48.95889 | 12.90620 | 115° | 93km/h | 15692m | 4.5m/s | -60.3°C | 2.8% | 115.4hPa | 2.7V | 04:27:00 | 00:00:00 | 00:00:00 | |
| PETON7-10 | 2026-09-05 23:40:07 | 48.95929 | 12.90488 | 114° | 95km/h | 15676m | 3.8m/s | -60.2°C | 6.9% | 115.6hPa | 2.7V | 00:00:00 | 01:35:14 | 00:00:00 | |
| OE5MMP-10 | 2026-09-05 23:40:06 | 48.95938 | 12.90454 | 114° | 95km/h | 15673m | 3.8m/s | -60.2°C | 7.0% | 115.7hPa | 2.7V | 00:00:00 | 01:35:13 | 00:00:00 | |
| SONDE2-11 | 2026-09-05 23:40:03 | 48.95967 | 12.90355 | 113° | 93km/h | 15661m | 3.8m/s | -60.3°C | 2.9% | 116.0hPa | 2.6V | 00:00:00 | 00:00:00 | 00:00:00 | |
| EDDB2-11 | 2026-09-05 23:40:00 | 48.96005 | 12.90219 | 113° | 95km/h | 15645m | 4.8m/s | -60.2°C | 2.9% | 116.2hPa | 2.6V | 00:00:00 | 00:00:00 | 00:00:00 | |
| DO3MHA-11 | 2026-09-05 23:39:58 | 48.96015 | 12.90185 | 114° | 91km/h | 15641m | 4.3m/s | -60.1°C | 6.9% | 116.3hPa | 2.6V | 00:00:00 | 01:35:05 | 00:00:00 | |
| OE5MMP-10 | 2026-09-05 23:39:56 | 48.96033 | 12.90120 | 112° | 91km/h | 15632m | 4.1m/s | -60.1°C | 6.9% | 116.5hPa | 2.6V | 00:00:00 | 01:35:03 | 00:00:00 | |
| OE5REO-15 | 2026-09-05 23:39:54 | 48.96041 | 12.90086 | 111° | 93km/h | 15628m | 4.9m/s | -60.1°C | 2.8% | 116.6hPa | 2.6V | 04:28:00 | 00:00:00 | 00:00:00 | |
| PETON7-10 | 2026-09-05 23:39:52 | 48.96064 | 12.89986 | 110° | 89km/h | 15616m | 4.8m/s | -60.1°C | 6.9% | 116.8hPa | 2.6V | 00:00:00 | 00:00:00 | 00:00:00 | |
| OE5MMP-10 | 2026-09-05 23:39:46 | 48.96113 | 12.89788 | 112° | 88km/h | 15590m | 4.7m/s | -60.4°C | 7.0% | 117.3hPa | 2.6V | 04:27:00 | 01:34:53 | 00:00:00 | |
| PG1ADW-2 | 2026-09-05 23:39:42 | 48.96147 | 12.89661 | 112° | 86km/h | 15573m | 3.6m/s | -60.6°C | 7.2% | 117.5hPa | 2.6V | 00:00:00 | 00:00:00 | 00:00:00 | |
| OE5HKT-10 | 2026-09-05 23:39:41 | 48.96155 | 12.89630 | 113° | 86km/h | 15570m | 3.6m/s | -60.6°C | 7.1% | 117.6hPa | 2.6V | 00:00:00 | 00:00:00 | 00:00:00 | |
| OE5REO-15 | 2026-09-05 23:39:39 | 48.96164 | 12.89599 | 114° | 86km/h | 15566m | 5.2m/s | -60.6°C | 2.9% | 117.7hPa | 2.6V | 04:28:00 | 00:00:00 | 00:00:00 | |
| DO3MHA-11 | 2026-09-05 23:39:38 | 48.96181 | 12.89537 | 113° | 86km/h | 15557m | 4.4m/s | -60.6°C | 7.1% | 117.9hPa | 2.6V | 00:00:00 | 01:34:45 | 00:00:00 | |
| PETON7-10 | 2026-09-05 23:39:37 | 48.96189 | 12.89506 | 113° | 84km/h | 15553m | 3.8m/s | -60.6°C | 7.1% | 118.0hPa | 2.7V | 00:00:00 | 00:00:00 | 00:00:00 | |
| OE5MMP-10 | 2026-09-05 23:39:36 | 48.96197 | 12.89474 | 113° | 84km/h | 15549m | 3.5m/s | -60.6°C | 7.1% | 118.0hPa | 2.7V | 00:00:00 | 01:34:43 | 00:00:00 | |
| DL6DJ-15 | 2026-09-05 23:39:34 | 48.96224 | 12.89382 | 113° | 86km/h | 15536m | 3.9m/s | -60.8°C | 3.0% | 118.3hPa | 2.7V | 00:00:00 | 00:00:00 | 00:00:00 | |
| SONDE2-11 | 2026-09-05 23:39:32 | 48.96232 | 12.89351 | 113° | 86km/h | 15532m | 4.6m/s | -60.8°C | 3.1% | 118.4hPa | 2.7V | 00:00:00 | 00:00:00 | 00:00:00 | |
| S52SK | 2026-09-05 23:39:30 | 48.96241 | 12.89321 | 114° | 86km/h | 15528m | 3.9m/s | -60.9°C | 0% | 118.5hPa | 2.7V | 00:00:00 | 00:00:00 | 00:00:00 | |
| EDDB2-11 | 2026-09-05 23:39:29 | 48.96266 | 12.89234 | 113° | 78km/h | 15515m | 3.7m/s | -60.9°C | 3.1% | 118.7hPa | 2.7V | 00:00:00 | 00:00:00 | 00:00:00 | |
| DO3MHA-11 | 2026-09-05 23:39:28 | 48.96266 | 12.89234 | 114° | 84km/h | 15515m | 3.6m/s | -60.8°C | 7.4% | 118.6hPa | 2.7V | 00:00:00 | 01:34:35 | 00:00:00 | |
| OE5MMP-10 | 2026-09-05 23:39:26 | 48.96282 | 12.89177 | 112° | 84km/h | 15507m | 4.1m/s | -60.8°C | 7.3% | 118.8hPa | 2.7V | 00:00:00 | 01:34:33 | 00:00:00 | |
| S52SK | 2026-09-05 23:39:24 | 48.96290 | 12.89147 | 114° | 84km/h | 15503m | 3.1m/s | -60.9°C | 0% | 119.0hPa | 2.7V | 00:00:00 | 00:00:00 | 00:00:00 | |
| OE5HKT-10 | 2026-09-05 23:39:23 | 48.96334 | 12.88998 | 115° | 84km/h | 15482m | 3.7m/s | -60.8°C | 7.3% | 119.3hPa | 2.7V | 00:00:00 | 01:34:27 | 00:00:00 | |
| OE5MMP-10 | 2026-09-05 23:39:22 | 48.96371 | 12.88884 | 116° | 84km/h | 15465m | 4.5m/s | -60.8°C | 7.3% | 119.6hPa | 2.7V | 00:00:00 | 01:34:23 | 00:00:00 | |
| OE5DXL-15 | 2026-09-05 23:39:21 | 48.96405 | 12.88773 | 115° | 84km/h | 15448m | 4.2m/s | -60.8°C | 7.4% | 120.0hPa | 2.7V | 00:00:00 | 00:00:00 | 00:00:00 | |
| OE5DRO-10 | 2026-09-05 23:39:10 | 48.96432 | 12.88683 | 116° | 86km/h | 15436m | 3.5m/s | -60.8°C | 7.4% | 120.2hPa | 2.6V | 00:00:00 | 00:00:00 | 00:00:00 | |
| OE5WHR-10 | 2026-09-05 23:39:08 | 48.96442 | 12.88651 | 117° | 86km/h | 15432m | 3.1m/s | -60.8°C | 7.4% | 120.2hPa | 2.6V | 00:00:00 | 00:00:00 | 00:00:00 | |
| PETON7-10 | 2026-09-05 23:39:07 | 48.96453 | 12.88621 | 119° | 86km/h | 15428m | 4.5m/s | -60.8°C | 7.4% | 120.3hPa | 2.6V | 04:28:00 | 00:00:00 | 00:00:00 | |
| OE5MMP-10 | 2026-09-05 23:39:06 | 48.96464 | 12.88591 | 120° | 86km/h | 15424m | 3.8m/s | -60.8°C | 7.5% | 120.4hPa | 2.7V | 00:00:00 | 01:34:13 | 00:00:00 | |
| DL6DJ-15 | 2026-09-05 23:39:03 | 48.96505 | 12.88477 | 116° | 82km/h | 15409m | 3.2m/s | -60.8°C | 3.2% | 120.8hPa | 2.6V | 00:00:00 | 00:00:00 | 00:00:00 | |
| PG1ADW-2 | 2026-09-05 23:39:02 | 48.96505 | 12.88477 | 117° | 84km/h | 15409m | 3.2m/s | -60.7°C | 7.5% | 120.7hPa | 2.6V | 04:28:00 | 00:00:00 | 00:00:00 | |
| SONDE2-11 | 2026-09-05 23:39:01 | 48.96515 | 12.88448 | 117° | 82km/h | 15405m | 4.0m/s | -60.8°C | 3.2% | 120.8hPa | 2.6V | 00:00:00 | 00:00:00 | 00:00:00 | |
| EDDB2-11 | 2026-09-05 23:38:58 | 48.96553 | 12.88332 | 115° | 84km/h | 15388m | 4.3m/s | -60.6°C | 3.2% | 121.1hPa | 2.6V | 00:00:00 | 00:00:00 | 00:00:00 | |
| OE5MMP-10 | 2026-09-05 23:38:56 | 48.96563 | 12.88302 | 116° | 84km/h | 15384m | 3.9m/s | -60.6°C | 7.5% | 121.2hPa | 2.6V | 04:28:00 | 01:34:03 | 00:00:00 | |
| PETON7-10 | 2026-09-05 23:38:52 | 48.96603 | 12.88187 | 119° | 84km/h | 15368m | 3.9m/s | -60.4°C | 7.5% | 121.5hPa | 2.6V | 00:00:00 | 00:00:00 | 00:00:00 | |
| OE5REO-15 | 2026-09-05 23:38:51 | 48.96603 | 12.88187 | 119° | 84km/h | 15368m | 4.0m/s | -60.5°C | 3.2% | 121.5hPa | 2.6V | 04:29:00 | 00:00:00 | 00:00:00 | |
| OE5DRO-10 | 2026-09-05 23:38:50 | 48.96622 | 12.88130 | 118° | 84km/h | 15360m | 3.0m/s | -60.4°C | 7.4% | 121.7hPa | 2.6V | 00:00:00 | 00:00:00 | 00:00:00 | |
| DO3MHA-11 | 2026-09-05 23:38:48 | 48.96642 | 12.88075 | 120° | 82km/h | 15353m | 4.3m/s | -60.4°C | 7.4% | 121.8hPa | 2.6V | 00:00:00 | 01:33:55 | 00:00:00 | |
| OE5WHR-10 | 2026-09-05 23:38:47 | 48.96652 | 12.88049 | 121° | 86km/h | 15349m | 4.1m/s | -60.4°C | 7.4% | 121.9hPa | 2.6V | 00:00:00 | 01:33:54 | 00:00:00 | |
| OE5MMP-10 | 2026-09-05 23:38:46 | 48.96662 | 12.88022 | 120° | 86km/h | 15345m | 4.4m/s | -60.4°C | 7.5% | 121.9hPa | 2.6V | 00:00:00 | 01:33:53 | 00:00:00 | |
| BAUMI2-15 | 2026-09-05 23:38:43 | 48.96692 | 12.87939 | 120° | 88km/h | 15333m | 4.3m/s | 0°C | 0% | 0hPa | 2.6V | 00:00:00 | 01:33:50 | 00:00:00 | |
| OE5DXL-15 | 2026-09-05 23:38:42 | 48.96703 | 12.87911 | 121° | 86km/h | 15328m | 4.3m/s | -60.3°C | 7.4% | 122.3hPa | 2.6V | 00:00:00 | 00:00:00 | 00:00:00 | |
| OE5HKT-10 | 2026-09-05 23:38:38 | 48.96746 | 12.87793 | 117° | 86km/h | 15313m | 3.3m/s | -60.2°C | 7.4% | 122.6hPa | 2.6V | 00:00:00 | 00:00:00 | 00:00:00 | |
| PETON7-10 | 2026-09-05 23:38:37 | 48.96756 | 12.87764 | 118° | 86km/h | 15309m | 3.8m/s | -60.2°C | 7.4% | 122.6hPa | 2.6V | 00:00:00 | 01:33:44 | 00:00:00 | |
| OE3MUC-15 | 2026-09-05 23:38:36 | 48.96766 | 12.87735 | 119° | 84km/h | 15305m | 4.5m/s | 0°C | 0% | 0hPa | 2.6V | 00:00:00 | 00:00:00 | 00:00:00 | |
| DL6DJ-15 | 2026-09-05 23:38:32 | 48.96821 | 12.87598 | 121° | 86km/h | 15284m | 3.8m/s | -60.2°C | 3.2% | 123.2hPa | 2.6V | 00:00:00 | 00:00:00 | 00:00:00 | |
| OE3MUC-15 | 2026-09-05 23:38:31 | 48.96821 | 12.87597 | 122° | 86km/h | 15284m | 3.8m/s | 0°C | 0% | 0hPa | 2.6V | 00:00:00 | 00:00:00 | 00:00:00 | |
| SONDE2-11 | 2026-09-05 23:38:30 | 48.96833 | 12.87570 | 123° | 86km/h | 15280m | 5.1m/s | -60.3°C | 3.3% | 123.3hPa | 2.6V | 00:00:00 | 00:00:00 | 00:00:00 | |
| DO3MHA-11 | 2026-09-05 23:38:28 | 48.96856 | 12.87513 | 123° | 86km/h | 15271m | 4.1m/s | -60.2°C | 7.4% | 123.4hPa | 2.6V | 00:00:00 | 01:33:35 | 00:00:00 | |
| EDDB2-11 | 2026-09-05 23:38:27 | 48.96879 | 12.87457 | 120° | 86km/h | 15263m | 3.8m/s | -60.3°C | 3.3% | 123.6hPa | 2.6V | 00:00:00 | 00:00:00 | 00:00:00 | |
| OE5MMP-10 | 2026-09-05 23:38:26 | 48.96879 | 12.87457 | 121° | 86km/h | 15263m | 3.8m/s | -60.2°C | 7.4% | 123.6hPa | 2.6V | 00:00:00 | 01:33:33 | 00:00:00 | |
| PETON7-10 | 2026-09-05 23:38:22 | 48.96925 | 12.87344 | 123° | 88km/h | 15246m | 3.5m/s | -60.1°C | 7.4% | 123.9hPa | 2.6V | 00:00:00 | 00:00:00 | 00:00:00 | |
| OE3MUC-15 | 2026-09-05 23:38:21 | 48.96936 | 12.87316 | 122° | 84km/h | 15242m | 4.5m/s | 0°C | 0% | 0hPa | 2.6V | 00:00:00 | 00:00:00 | 00:00:00 | |
| OE5REO-15 | 2026-09-05 23:38:20 | 48.96936 | 12.87316 | 122° | 86km/h | 15242m | 4.6m/s | -60.1°C | 3.3% | 124.1hPa | 2.6V | 04:29:00 | 00:00:00 | 00:00:00 | |
| DO3MHA-11 | 2026-09-05 23:38:18 | 48.96971 | 12.87234 | 126° | 88km/h | 15231m | 4.7m/s | -60.1°C | 7.4% | 124.2hPa | 2.6V | 00:00:00 | 01:33:25 | 00:00:00 | |
| OE5HKT-10 | 2026-09-05 23:38:17 | 48.96984 | 12.87208 | 127° | 91km/h | 15226m | 3.4m/s | -60.2°C | 7.4% | 124.3hPa | 2.6V | 04:29:00 | 01:33:24 | 00:00:00 | |
| OE5MMP-10 | 2026-09-05 23:38:16 | 48.96997 | 12.87182 | 127° | 89km/h | 15223m | 4.2m/s | -60.3°C | 7.4% | 124.4hPa | 2.6V | 00:00:00 | 01:33:23 | 00:00:00 | |
| OE5DRO-10 | 2026-09-05 23:38:12 | 48.97047 | 12.87073 | 125° | 93km/h | 15206m | 5.4m/s | -60.4°C | 7.8% | 124.7hPa | 2.6V | 00:00:00 | 00:00:00 | 00:00:00 | |
| DO3MHA-11 | 2026-09-05 23:38:08 | 48.97098 | 12.86954 | 121° | 93km/h | 15189m | 3.5m/s | 0°C | 0% | 0hPa | 2.6V | 04:29:00 | 01:33:15 | 00:00:00 | |
| PETON7-10 | 2026-09-05 23:38:07 | 48.97110 | 12.86923 | 121° | 93km/h | 15185m | 2.9m/s | -60.5°C | 7.8% | 125.1hPa | 2.6V | 00:00:00 | 00:00:00 | 00:00:00 | |
| OE5MMP-10 | 2026-09-05 23:38:06 | 48.97122 | 12.86892 | 123° | 91km/h | 15182m | 4.6m/s | -60.5°C | 7.8% | 125.2hPa | 2.6V | 04:29:00 | 01:33:13 | 00:00:00 | |
| OE5WHR-10 | 2026-09-05 23:38:05 | 48.97135 | 12.86863 | 125° | 95km/h | 15177m | 4.4m/s | -60.5°C | 7.7% | 125.3hPa | 2.6V | 00:00:00 | 00:00:00 | 00:00:00 | |
| OE5REO-15 | 2026-09-05 23:38:04 | 48.97135 | 12.86863 | 125° | 91km/h | 15177m | 4.4m/s | -60.6°C | 3.4% | 125.3hPa | 2.6V | 04:29:00 | 00:00:00 | 00:00:00 | |
| PG1ADW-2 | 2026-09-05 23:38:02 | 48.97175 | 12.86777 | 125° | 97km/h | 15166m | 4.4m/s | -60.5°C | 7.6% | 125.5hPa | 2.6V | 00:00:00 | 01:33:09 | 00:00:00 | |
| DL6DJ-15 | 2026-09-05 23:38:00 | 48.97200 | 12.86719 | 122° | 91km/h | 15157m | 3.6m/s | -60.5°C | 3.4% | 125.7hPa | 2.7V | 00:00:00 | 00:00:00 | 00:00:00 | |
| SONDE2-11 | 2026-09-05 23:37:59 | 48.97213 | 12.86689 | 122° | 91km/h | 15153m | 4.2m/s | -60.5°C | 3.5% | 125.8hPa | 2.7V | 00:00:00 | 00:00:00 | 00:00:00 | |
| EDDB2-11 | 2026-09-05 23:37:56 | 48.97262 | 12.86565 | 119° | 99km/h | 15136m | 4.5m/s | -60.5°C | 3.5% | 126.2hPa | 2.7V | 00:00:00 | 00:00:00 | 00:00:00 | |
| OE5DRO-10 | 2026-09-05 23:37:53 | 48.97288 | 12.86499 | 121° | 100km/h | 15129m | 4.2m/s | -60.5°C | 7.6% | 126.2hPa | 2.7V | 00:00:00 | 00:00:00 | 00:00:00 | |
| PETON7-10 | 2026-09-05 23:37:52 | 48.97301 | 12.86466 | 123° | 100km/h | 15124m | 4.5m/s | -60.5°C | 7.6% | 126.3hPa | 2.7V | 04:29:00 | 01:32:59 | 00:00:00 | |
| DO8TBO-1 | 2026-09-05 23:37:50 | 48.97327 | 12.86403 | 123° | 104km/h | 15117m | 3.4m/s | -60.5°C | 7.6% | 126.5hPa | 2.7V | 00:00:00 | 01:32:57 | 00:00:00 | |
| OE5REO-15 | 2026-09-05 23:37:48 | 48.97340 | 12.86372 | 122° | 95km/h | 15113m | 4.4m/s | -60.5°C | 3.5% | 126.6hPa | 2.7V | 04:29:00 | 00:00:00 | 00:00:00 | |
| OE5MMP-10 | 2026-09-05 23:37:46 | 48.97377 | 12.86276 | 121° | 102km/h | 15100m | 4.3m/s | -60.4°C | 7.6% | 126.8hPa | 2.7V | 00:00:00 | 01:32:53 | 00:00:00 | |
| DO3MHA-11 | 2026-09-05 23:37:44 | 48.97403 | 12.86209 | 121° | 104km/h | 15092m | 3.9m/s | -60.5°C | 7.6% | 127.0hPa | 2.7V | 00:00:00 | 01:32:51 | 00:00:00 | |
| PG1ADW-2 | 2026-09-05 23:37:42 | 48.97430 | 12.86141 | 120° | 108km/h | 15083m | 4.9m/s | -60.9°C | 7.9% | 127.1hPa | 2.7V | 00:00:00 | 00:00:00 | 00:00:00 | |
| PETON7-10 | 2026-09-05 23:37:37 | 48.97498 | 12.85971 | 124° | 110km/h | 15063m | 3.3m/s | -61.1°C | 8.0% | 127.6hPa | 2.7V | 00:00:00 | 00:00:00 | 00:00:00 | |
| OE5MMP-10 | 2026-09-05 23:37:36 | 48.97512 | 12.85936 | 123° | 110km/h | 15059m | 4.4m/s | -61.1°C | 8.0% | 127.7hPa | 2.7V | 00:00:00 | 01:32:43 | 00:00:00 | |
| OE5HKT-10 | 2026-09-05 23:37:35 | 48.97527 | 12.85901 | 122° | 108km/h | 15054m | 4.0m/s | -61.3°C | 8.1% | 127.8hPa | 2.6V | 00:00:00 | 00:00:00 | 00:00:00 | |
| DO3MHA-11 | 2026-09-05 23:37:34 | 48.97541 | 12.85866 | 121° | 110km/h | 15050m | 3.9m/s | -61.3°C | 8.2% | 127.8hPa | 2.6V | 00:00:00 | 01:32:41 | 00:00:00 | |
| DM0DOS-11 | 2026-09-05 23:37:33 | 48.97607 | 12.85681 | 115° | 110km/h | 15028m | 3.7m/s | -61.5°C | 8.4% | 128.3hPa | 2.7V | 04:29:57 | 01:32:36 | 00:00:00 | |
| OE5REO-15 | 2026-09-05 23:37:32 | 48.97555 | 12.85830 | 122° | 110km/h | 15046m | 4.6m/s | -61.4°C | 3.8% | 128.0hPa | 2.7V | 04:29:00 | 00:00:00 | 00:00:00 | |
| DL6DJ-15 | 2026-09-05 23:37:29 | 48.97607 | 12.85681 | 115° | 110km/h | 15028m | 3.7m/s | -61.5°C | 3.9% | 128.4hPa | 2.7V | 00:00:00 | 00:00:00 | 00:00:00 | |
| SONDE2-11 | 2026-09-05 23:37:28 | 48.97619 | 12.85643 | 115° | 111km/h | 15024m | 4.7m/s | -61.4°C | 3.9% | 128.4hPa | 2.7V | 00:00:00 | 00:00:00 | 00:00:00 | |
| OE5MMP-10 | 2026-09-05 23:37:26 | 48.97644 | 12.85566 | 117° | 108km/h | 15017m | 3.3m/s | -61.4°C | 8.4% | 128.6hPa | 2.7V | 00:00:00 | 01:32:33 | 00:00:00 | |
| DO3MHA-11 | 2026-09-05 23:37:24 | 48.97669 | 12.85490 | 116° | 106km/h | 15007m | 4.5m/s | -61.4°C | 8.4% | 128.7hPa | 2.7V | 00:00:00 | 01:32:31 | 00:00:00 | |
| OE5WHR-10 | 2026-09-05 23:37:23 | 48.97681 | 12.85453 | 117° | 104km/h | 15003m | 3.9m/s | -61.4°C | 8.3% | 128.8hPa | 2.7V | 00:00:00 | 00:00:00 | 00:00:00 | |
| PETON7-10 | 2026-09-05 23:37:22 | 48.97693 | 12.85416 | 118° | 106km/h | 14999m | 4.8m/s | -61.4°C | 8.4% | 128.9hPa | 2.6V | 00:00:00 | 00:00:00 | 00:00:00 | |
| DO8TBO-1 | 2026-09-05 23:37:20 | 48.97718 | 12.85342 | 117° | 104km/h | 14991m | 4.0m/s | -61.4°C | 8.3% | 129.1hPa | 2.6V | 00:00:00 | 01:32:27 | 00:00:00 | |
| OE5MMP-10 | 2026-09-05 23:37:16 | 48.97763 | 12.85198 | 116° | 106km/h | 14974m | 4.3m/s | -61.5°C | 8.5% | 129.4hPa | 2.6V | 04:30:00 | 01:32:23 | 00:00:00 | |
| OE5DRO-10 | 2026-09-05 23:37:15 | 48.97774 | 12.85162 | 116° | 104km/h | 14970m | 3.1m/s | -61.5°C | 8.4% | 129.5hPa | 2.6V | 00:00:00 | 00:00:00 | 00:00:00 | |
| DO3MHA-11 | 2026-09-05 23:37:14 | 48.97785 | 12.85125 | 115° | 106km/h | 14966m | 4.8m/s | -61.6°C | 8.4% | 129.6hPa | 2.6V | 04:30:00 | 01:32:21 | 00:00:00 | |
| DM0DOS-11 | 2026-09-05 23:37:13 | 48.97832 | 12.84978 | 118° | 108km/h | 14950m | 3.4m/s | -61.9°C | 8.7% | 130hPa | 2.6V | 04:30:16 | 01:32:17 | 00:00:00 | |
| OE5DXL-15 | 2026-09-05 23:37:12 | 48.97808 | 12.85051 | 116° | 102km/h | 14958m | 3.1m/s | -61.7°C | 8.5% | 129.8hPa | 2.6V | 00:00:00 | 00:00:00 | 00:00:00 | |
| PETON7-10 | 2026-09-05 23:37:07 | 48.97869 | 12.84870 | 116° | 102km/h | 14939m | 4.2m/s | -61.8°C | 8.9% | 130.1hPa | 2.6V | 00:00:00 | 01:32:14 | 00:00:00 | |
| OE5MMP-10 | 2026-09-05 23:37:06 | 48.97880 | 12.84834 | 114° | 102km/h | 14936m | 3.3m/s | -61.8°C | 8.8% | 130.3hPa | 2.6V | 00:00:00 | 01:32:13 | 00:00:00 | |
| DM0DOS-11 | 2026-09-05 23:37:05 | 48.97936 | 12.84618 | 110° | 102km/h | 14911m | 4.2m/s | -61.7°C | 8.7% | 130.8hPa | 2.7V | 04:30:26 | 01:32:07 | 00:00:00 | |
| DO3MHA-11 | 2026-09-05 23:37:04 | 48.97899 | 12.84763 | 113° | 102km/h | 14928m | 4.7m/s | -61.7°C | 8.7% | 130.4hPa | 2.6V | 00:00:00 | 01:32:11 | 00:00:00 | |
| OE5WHR-10 | 2026-09-05 23:37:02 | 48.97918 | 12.84691 | 112° | 102km/h | 14920m | 3.8m/s | -61.7°C | 8.7% | 130.6hPa | 2.7V | 00:00:00 | 00:00:00 | 00:00:00 | |
| OE5REO-15 | 2026-09-05 23:37:01 | 48.97918 | 12.84690 | 112° | 100km/h | 14920m | 3.9m/s | -61.7°C | 4.1% | 130.6hPa | 2.7V | 00:00:00 | 00:00:00 | 00:00:00 | |
| DL6DJ-15 | 2026-09-05 23:36:58 | 48.97954 | 12.84544 | 111° | 104km/h | 14902m | 4.8m/s | -61.7°C | 4.2% | 131.0hPa | 2.7V | 00:00:00 | 00:00:00 | 00:00:00 | |
| SONDE2-11 | 2026-09-05 23:36:57 | 48.97964 | 12.84507 | 112° | 104km/h | 14898m | 3.1m/s | -61.7°C | 4.1% | 131.1hPa | 2.7V | 00:00:00 | 00:00:00 | 00:00:00 | |
| EDDB2-11 | 2026-09-05 23:36:54 | 48.98001 | 12.84358 | 109° | 99km/h | 14883m | 3.5m/s | -61.7°C | 4.2% | 131.4hPa | 2.7V | 00:00:00 | 00:00:00 | 00:00:00 | |
| DM0DOS-11 | 2026-09-05 23:36:53 | 48.98028 | 12.84251 | 112° | 100km/h | 14871m | 3.7m/s | -61.7°C | 0% | 131.7hPa | 2.7V | 04:30:36 | 01:31:57 | 00:00:00 | |
| PETON7-10 | 2026-09-05 23:36:52 | 48.98010 | 12.84322 | 111° | 100km/h | 14879m | 3.6m/s | -61.7°C | 8.9% | 131.4hPa | 2.6V | 00:00:00 | 00:00:00 | 00:00:00 | |
| DO8TBO-1 | 2026-09-05 23:36:50 | 48.98028 | 12.84251 | 113° | 97km/h | 14871m | 3.7m/s | -61.7°C | 8.9% | 131.6hPa | 2.7V | 04:30:00 | 01:31:57 | 00:00:00 | |
| OE5MMP-10 | 2026-09-05 23:36:46 | 48.98065 | 12.84108 | 112° | 100km/h | 14856m | 3.8m/s | -61.7°C | 8.9% | 131.9hPa | 2.8V | 00:00:00 | 01:31:53 | 00:00:00 | |
| DM0DOS-11 | 2026-09-05 23:36:45 | 48.98123 | 12.83887 | 112° | 102km/h | 14832m | 4.4m/s | 0°C | 0% | 0hPa | 2.8V | 00:00:00 | 01:31:47 | 00:00:00 | |
| DO3MHA-11 | 2026-09-05 23:36:42 | 48.98104 | 12.83961 | 112° | 99km/h | 14840m | 4.2m/s | -61.6°C | 9.0% | 132.3hPa | 2.6V | 00:00:00 | 01:31:49 | 00:00:00 | |
| OE5WHR-10 | 2026-09-05 23:36:41 | 48.98114 | 12.83924 | 112° | 95km/h | 14836m | 3.4m/s | -61.6°C | 9.0% | 132.3hPa | 2.6V | 00:00:00 | 01:31:48 | 00:00:00 | |
| PETON7-10 | 2026-09-05 23:36:37 | 48.98153 | 12.83783 | 114° | 95km/h | 14820m | 4.6m/s | -61.5°C | 9.0% | 132.7hPa | 2.6V | 04:30:00 | 00:00:00 | 00:00:00 | |
| OE5MMP-10 | 2026-09-05 23:36:36 | 48.98162 | 12.83750 | 114° | 93km/h | 14815m | 3.6m/s | -61.5°C | 9.0% | 132.8hPa | 2.6V | 00:00:00 | 01:31:43 | 00:00:00 | |
| DM0DOS-11 | 2026-09-05 23:36:33 | 48.98220 | 12.83557 | 111° | 93km/h | 14793m | 3.6m/s | 0°C | 0% | 0hPa | 2.6V | 00:00:00 | 01:31:37 | 00:00:00 | |
| DO3MHA-11 | 2026-09-05 23:36:32 | 48.98202 | 12.83623 | 115° | 95km/h | 14801m | 3.6m/s | -61.4°C | 9.1% | 133.1hPa | 2.7V | 00:00:00 | 01:31:39 | 00:00:00 | |
| OE5REO-15 | 2026-09-05 23:36:29 | 48.98220 | 12.83557 | 113° | 93km/h | 14793m | 3.6m/s | -61.4°C | 4.5% | 133.3hPa | 2.7V | 04:31:00 | 00:00:00 | 00:00:00 | |
| DL6DJ-15 | 2026-09-05 23:36:27 | 48.98248 | 12.83455 | 114° | 97km/h | 14782m | 3.8m/s | -61.5°C | 4.5% | 133.6hPa | 2.7V | 00:00:00 | 00:00:00 | 00:00:00 | |
| OE5MMP-10 | 2026-09-05 23:36:26 | 48.98259 | 12.83421 | 116° | 97km/h | 14778m | 3.7m/s | -61.5°C | 9.2% | 133.6hPa | 2.7V | 04:31:00 | 01:31:33 | 00:00:00 | |
| DM0DOS-11 | 2026-09-05 23:36:25 | 48.98315 | 12.83216 | 110° | 100km/h | 14754m | 4.6m/s | 0°C | 0% | 0hPa | 2.7V | 00:00:00 | 01:31:27 | 00:00:00 | |
| S52SK | 2026-09-05 23:36:24 | 48.98269 | 12.83387 | 116° | 95km/h | 14774m | 4.5m/s | -61.5°C | 0% | 133.7hPa | 2.7V | 00:00:00 | 00:00:00 | 00:00:00 | |
| DO3MHA-11 | 2026-09-05 23:36:22 | 48.98297 | 12.83287 | 112° | 99km/h | 14762m | 3.3m/s | -61.5°C | 9.4% | 134.0hPa | 2.7V | 04:31:00 | 01:31:29 | 00:00:00 | |
| OE5WHR-10 | 2026-09-05 23:36:20 | 48.98315 | 12.83216 | 111° | 97km/h | 14754m | 4.6m/s | -61.6°C | 9.6% | 134.1hPa | 2.7V | 00:00:00 | 00:00:00 | 00:00:00 | |
| S52SK | 2026-09-05 23:36:19 | 48.98315 | 12.83216 | 112° | 100km/h | 14754m | 4.6m/s | -61.6°C | 0% | 134.2hPa | 2.8V | 00:00:00 | 00:00:00 | 00:00:00 | |
| OE5DRO-10 | 2026-09-05 23:36:18 | 48.98333 | 12.83145 | 111° | 97km/h | 14745m | 4.5m/s | -61.6°C | 9.7% | 134.3hPa | 2.8V | 00:00:00 | 00:00:00 | 00:00:00 | |
| OE5MMP-10 | 2026-09-05 23:36:16 | 48.98351 | 12.83075 | 112° | 97km/h | 14736m | 3.8m/s | -61.5°C | 9.6% | 134.5hPa | 2.8V | 00:00:00 | 01:31:23 | 00:00:00 | |
| OE5REO-15 | 2026-09-05 23:36:14 | 48.98360 | 12.83040 | 112° | 97km/h | 14732m | 4.9m/s | -61.5°C | 4.9% | 134.7hPa | 2.8V | 04:31:00 | 00:00:00 | 00:00:00 | |
| DM0DOS-11 | 2026-09-05 23:36:13 | 48.98400 | 12.82865 | 107° | 97km/h | 14712m | 4.4m/s | 0°C | 0% | 0hPa | 2.8V | 00:00:00 | 01:31:17 | 00:00:00 | |
| DO3MHA-11 | 2026-09-05 23:36:12 | 48.98385 | 12.82935 | 110° | 97km/h | 14720m | 4.3m/s | -61.5°C | 9.7% | 134.9hPa | 2.7V | 00:00:00 | 01:31:19 | 00:00:00 | |
| S52SK | 2026-09-05 23:36:08 | 48.98408 | 12.82829 | 109° | 99km/h | 14708m | 4.3m/s | -61.5°C | 0% | 135.2hPa | 2.7V | 00:00:00 | 00:00:00 | 00:00:00 | |
| PETON7-10 | 2026-09-05 23:36:07 | 48.98423 | 12.82758 | 108° | 93km/h | 14700m | 4.5m/s | -61.4°C | 9.8% | 135.3hPa | 2.7V | 00:00:00 | 00:00:00 | 00:00:00 | |
| OE5MMP-10 | 2026-09-05 23:36:06 | 48.98430 | 12.82723 | 108° | 93km/h | 14696m | 3.6m/s | -61.3°C | 9.7% | 135.4hPa | 2.7V | 00:00:00 | 01:31:13 | 00:00:00 | |
| DO3MHA-11 | 2026-09-05 23:36:02 | 48.98462 | 12.82584 | 111° | 91km/h | 14681m | 3.7m/s | -61.3°C | 9.8% | 135.7hPa | 2.7V | 00:00:00 | 01:31:09 | 00:00:00 | |
| DM0DOS-11 | 2026-09-05 23:36:00 | 48.98497 | 12.82452 | 112° | 91km/h | 14663m | 4.7m/s | 0°C | 0% | 0hPa | 2.8V | 00:00:00 | 01:31:05 | 00:00:00 | |
| DL6DJ-15 | 2026-09-05 23:35:56 | 48.98514 | 12.82387 | 110° | 91km/h | 14656m | 3.5m/s | -61.4°C | 5.2% | 136.3hPa | 2.7V | 00:00:00 | 00:00:00 | 00:00:00 | |
| SONDE2-11 | 2026-09-05 23:35:55 | 48.98522 | 12.82354 | 108° | 89km/h | 14651m | 4.7m/s | -61.3°C | 5.2% | 136.4hPa | 2.7V | 00:00:00 | 00:00:00 | 00:00:00 | |
| EDDB2-11 | 2026-09-05 23:35:51 | 48.98550 | 12.82220 | 108° | 93km/h | 14636m | 3.3m/s | -61.2°C | 5.2% | 136.7hPa | 2.7V | 00:00:00 | 00:00:00 | 00:00:00 | |
| DO8TBO-1 | 2026-09-05 23:35:50 | 48.98558 | 12.82185 | 108° | 88km/h | 14633m | 3.3m/s | -61.2°C | 10.0% | 136.8hPa | 2.7V | 00:00:00 | 01:30:57 | 00:00:00 | |
| OE5MMP-10 | 2026-09-05 23:35:46 | 48.98589 | 12.82054 | 113° | 89km/h | 14617m | 3.7m/s | -61.4°C | 10.5% | 137.1hPa | 2.7V | 00:00:00 | 01:30:53 | 00:00:00 | |
| OE5REO-15 | 2026-09-05 23:35:43 | 48.98607 | 12.81991 | 115° | 88km/h | 14610m | 4.1m/s | 0°C | 0% | 137.3hPa | 2.7V | 04:32:00 | 00:00:00 | 00:00:00 | |
| DO3MHA-11 | 2026-09-05 23:35:42 | 48.98624 | 12.81929 | 112° | 88km/h | 14602m | 3.4m/s | -61.6°C | 10.7% | 137.5hPa | 2.7V | 00:00:00 | 01:30:49 | 00:00:00 | |
| OE5DRO-10 | 2026-09-05 23:35:40 | 48.98640 | 12.81866 | 112° | 88km/h | 14594m | 4.2m/s | -61.8°C | 10.9% | 137.6hPa | 2.7V | 00:00:00 | 00:00:00 | 00:00:00 | |
| OE5WHR-10 | 2026-09-05 23:35:38 | 48.98656 | 12.81801 | 110° | 88km/h | 14587m | 3.9m/s | -61.7°C | 10.7% | 137.8hPa | 2.7V | 00:00:00 | 01:30:45 | 00:00:00 | |
| PETON7-10 | 2026-09-05 23:35:37 | 48.98664 | 12.81769 | 110° | 88km/h | 14583m | 4.5m/s | -61.7°C | 10.8% | 137.9hPa | 2.7V | 00:00:00 | 01:30:44 | 00:00:00 | |
| OE5MMP-10 | 2026-09-05 23:35:36 | 48.98671 | 12.81738 | 111° | 88km/h | 14579m | 3.5m/s | -61.6°C | 10.8% | 138.0hPa | 2.7V | 04:31:00 | 01:30:43 | 00:00:00 | |
| DO3MHA-11 | 2026-09-05 23:35:32 | 48.98705 | 12.81613 | 116° | 88km/h | 14564m | 4.3m/s | -61.6°C | 10.9% | 138.3hPa | 2.7V | 04:31:00 | 01:30:39 | 00:00:00 | |
| OE5REO-15 | 2026-09-05 23:35:28 | 48.98743 | 12.81493 | 118° | 88km/h | 14548m | 4.5m/s | 0°C | 0% | 138.7hPa | 2.7V | 04:32:00 | 00:00:00 | 00:00:00 | |
| OE5MMP-10 | 2026-09-05 23:35:26 | 48.98763 | 12.81433 | 117° | 88km/h | 14540m | 4.0m/s | -61.5°C | 10.8% | 138.9hPa | 2.7V | 00:00:00 | 01:30:33 | 00:00:00 | |
| DL6DJ-15 | 2026-09-05 23:35:25 | 48.98772 | 12.81403 | 114° | 86km/h | 14536m | 4.7m/s | -61.5°C | 5.9% | 139.0hPa | 2.7V | 00:00:00 | 00:00:00 | 00:00:00 | |
| SONDE2-11 | 2026-09-05 23:35:24 | 48.98781 | 12.81373 | 113° | 86km/h | 14532m | 3.4m/s | -61.4°C | 5.9% | 139.1hPa | 2.7V | 00:00:00 | 00:00:00 | 00:00:00 | |
| DO3MHA-11 | 2026-09-05 23:35:22 | 48.98799 | 12.81311 | 115° | 88km/h | 14524m | 4.7m/s | -61.3°C | 10.7% | 139.2hPa | 2.7V | 00:00:00 | 01:30:29 | 00:00:00 | |
| OE5DRO-10 | 2026-09-05 23:35:21 | 48.98808 | 12.81280 | 115° | 88km/h | 14520m | 3.5m/s | -61.3°C | 10.8% | 139.3hPa | 2.7V | 04:32:00 | 00:00:00 | 00:00:00 | |
| EDDB2-11 | 2026-09-05 23:35:20 | 48.98818 | 12.81248 | 114° | 88km/h | 14516m | 4.0m/s | -61.3°C | 5.8% | 139.4hPa | 2.7V | 00:00:00 | 00:00:00 | 00:00:00 | |
| OE5WHR-10 | 2026-09-05 23:35:17 | 48.98845 | 12.81156 | 116° | 88km/h | 14505m | 3.7m/s | -61.2°C | 10.7% | 139.6hPa | 2.7V | 00:00:00 | 00:00:00 | 00:00:00 | |
| OE5MMP-10 | 2026-09-05 23:35:16 | 48.98855 | 12.81125 | 117° | 86km/h | 14501m | 4.3m/s | -61.2°C | 10.8% | 139.8hPa | 2.7V | 00:00:00 | 01:30:23 | 00:00:00 | |
| DO3MHA-11 | 2026-09-05 23:35:12 | 48.98895 | 12.81007 | 118° | 88km/h | 14485m | 3.1m/s | -61.2°C | 11.1% | 140.1hPa | 2.7V | 00:00:00 | 01:30:19 | 00:00:00 | |
| PETON7-10 | 2026-09-05 23:35:07 | 48.98947 | 12.80862 | 118° | 89km/h | 14466m | 3.1m/s | -61.3°C | 11.3% | 140.5hPa | 2.7V | 00:00:00 | 00:00:00 | 00:00:00 | |
| OE5MMP-10 | 2026-09-05 23:35:06 | 48.98957 | 12.80832 | 117° | 91km/h | 14462m | 3.7m/s | -61.3°C | 11.3% | 140.6hPa | 2.7V | 00:00:00 | 01:30:13 | 00:00:00 | |
| DO3MHA-11 | 2026-09-05 23:35:02 | 48.98997 | 12.80704 | 115° | 88km/h | 14446m | 4.2m/s | -61.3°C | 11.5% | 141.0hPa | 2.7V | 00:00:00 | 01:30:09 | 00:00:00 | |
| DL6DJ-15 | 2026-09-05 23:34:54 | 48.99074 | 12.80460 | 118° | 84km/h | 14415m | 4.1m/s | -61.4°C | 6.9% | 141.7hPa | 2.7V | 00:00:00 | 00:00:00 | 00:00:00 | |
| SONDE2-11 | 2026-09-05 23:34:53 | 48.99084 | 12.80432 | 119° | 86km/h | 14410m | 5.0m/s | -61.4°C | 7.0% | 141.8hPa | 2.7V | 00:00:00 | 00:00:00 | 00:00:00 | |
| EDDB2-11 | 2026-09-05 23:34:50 | 48.99128 | 12.80312 | 117° | 88km/h | 14394m | 4.5m/s | -61.6°C | 7.2% | 142.2hPa | 2.7V | 00:00:00 | 00:00:00 | 00:00:00 | |
| DK5PH-5 | 2026-09-05 23:34:47 | 48.99149 | 12.80251 | 119° | 86km/h | 14387m | 3.4m/s | 0°C | 0% | 0hPa | 2.7V | 00:00:00 | 01:29:54 | 00:00:00 | |
| OE5DRO-10 | 2026-09-05 23:34:43 | 48.99194 | 12.80132 | 121° | 86km/h | 14372m | 4.3m/s | -61.6°C | 13.1% | 142.7hPa | 2.7V | 00:00:00 | 00:00:00 | 00:00:00 | |
| DO3MHA-11 | 2026-09-05 23:34:42 | 48.99205 | 12.80104 | 121° | 86km/h | 14367m | 4.1m/s | -61.6°C | 13.2% | 142.8hPa | 2.7V | 04:32:00 | 01:29:49 | 00:00:00 | |
| OE5REO-15 | 2026-09-05 23:34:41 | 48.99205 | 12.80104 | 121° | 84km/h | 14367m | 4.2m/s | 0°C | 0% | 142.8hPa | 2.7V | 00:00:00 | 00:00:00 | 00:00:00 | |
| S52SK | 2026-09-05 23:34:39 | 48.99226 | 12.80049 | 122° | 84km/h | 14360m | 4.1m/s | -61.6°C | 0% | 0hPa | 2.7V | 00:00:00 | 00:00:00 | 00:00:00 | |
| PETON7-10 | 2026-09-05 23:34:37 | 48.99261 | 12.79966 | 123° | 88km/h | 14348m | 4.1m/s | -61.5°C | 14.0% | 143.2hPa | 2.7V | 00:00:00 | 00:00:00 | 00:00:00 | |
| OE5WHR-10 | 2026-09-05 23:34:35 | 48.99285 | 12.79910 | 124° | 89km/h | 14340m | 3.8m/s | -61.5°C | 14.5% | 143.4hPa | 2.7V | 00:00:00 | 01:29:42 | 00:00:00 | |
| S52SK | 2026-09-05 23:34:33 | 48.99297 | 12.79882 | 126° | 89km/h | 14336m | 4.4m/s | -61.7°C | 0% | 0hPa | 2.7V | 00:00:00 | 00:00:00 | 00:00:00 | |
| DO3MHA-11 | 2026-09-05 23:34:32 | 48.99324 | 12.79825 | 127° | 88km/h | 14328m | 2.9m/s | -61.7°C | 14.8% | 143.7hPa | 2.7V | 00:00:00 | 01:29:39 | 00:00:00 | |
| OE5MMP-10 | 2026-09-05 23:34:26 | 48.99397 | 12.79662 | 125° | 89km/h | 14305m | 3.4m/s | -61.6°C | 15.1% | 144.2hPa | 2.7V | 00:00:00 | 01:29:33 | 00:00:00 | |
| OE5REO-15 | 2026-09-05 23:34:25 | 48.99397 | 12.79662 | 125° | 84km/h | 14305m | 3.5m/s | 0°C | 0% | 144.3hPa | 2.7V | 00:00:00 | 00:00:00 | 00:00:00 | |
| OE5DRO-10 | 2026-09-05 23:34:24 | 48.99423 | 12.79607 | 126° | 95km/h | 14298m | 4.3m/s | -61.5°C | 15.2% | 144.4hPa | 2.7V | 00:00:00 | 00:00:00 | 00:00:00 | |
| DL6DJ-15 | 2026-09-05 23:34:23 | 48.99436 | 12.79579 | 126° | 91km/h | 14292m | 5.6m/s | -61.6°C | 9.5% | 144.6hPa | 2.7V | 00:00:00 | 00:00:00 | 00:00:00 | |
| PETON7-10 | 2026-09-05 23:34:22 | 48.99451 | 12.79551 | 129° | 95km/h | 14288m | 3.8m/s | -61.5°C | 15.6% | 144.6hPa | 2.7V | 00:00:00 | 00:00:00 | 00:00:00 | |
| DO3MHA-11 | 2026-09-05 23:34:21 | 48.99466 | 12.79523 | 132° | 99km/h | 14284m | 4.6m/s | -61.5°C | 15.7% | 144.7hPa | 2.7V | 00:00:00 | 01:29:28 | 00:00:00 | |
| EDDB2-11 | 2026-09-05 23:34:18 | 48.99516 | 12.79450 | 138° | 88km/h | 14269m | 4.4m/s | -61.5°C | 10.1% | 145.1hPa | 2.7V | 00:00:00 | 00:00:00 | 00:00:00 | |
| OE5MMP-10 | 2026-09-05 23:34:16 | 48.99548 | 12.79404 | 136° | 97km/h | 14261m | 2.9m/s | -61.4°C | 16.4% | 145.2hPa | 2.7V | 00:00:00 | 01:29:23 | 00:00:00 | |
| OE5WHR-10 | 2026-09-05 23:34:14 | 48.99578 | 12.79354 | 131° | 100km/h | 14255m | 3.0m/s | -61.3°C | 16.4% | 145.4hPa | 2.7V | 04:33:00 | 00:00:00 | 00:00:00 | |
| OE5DXL-15 | 2026-09-05 23:34:12 | 48.99608 | 12.79298 | 129° | 104km/h | 14246m | 5.8m/s | -61.4°C | 16.7% | 145.6hPa | 2.7V | 00:00:00 | 00:00:00 | 00:00:00 | |
| OE5REO-15 | 2026-09-05 23:34:08 | 48.99658 | 12.79208 | 134° | 102km/h | 14233m | 5.2m/s | 0°C | 0% | 145.9hPa | 2.7V | 00:00:00 | 00:00:00 | 00:00:00 | |
| PETON7-10 | 2026-09-05 23:34:07 | 48.99694 | 12.79153 | 138° | 100km/h | 14224m | 4.1m/s | -61.6°C | 17.8% | 146.1hPa | 2.7V | 04:33:00 | 01:29:14 | 00:00:00 | |
| OE5MMP-10 | 2026-09-05 23:34:06 | 48.99712 | 12.79128 | 138° | 100km/h | 14220m | 3.7m/s | -61.6°C | 18.0% | 146.2hPa | 2.7V | 00:00:00 | 01:29:13 | 00:00:00 | |
| OE5DRO-10 | 2026-09-05 23:34:05 | 48.99730 | 12.79102 | 137° | 102km/h | 14216m | 4.2m/s | -61.7°C | 18.2% | 146.3hPa | 2.7V | 00:00:00 | 00:00:00 | 00:00:00 | |
| PG1ADW-2 | 2026-09-05 23:34:02 | 48.99783 | 12.79019 | 132° | 104km/h | 14203m | 3.1m/s | -61.8°C | 18.9% | 146.6hPa | 2.7V | 04:33:00 | 01:29:09 | 00:00:00 | |
| DL6DJ-15 | 2026-09-05 23:33:52 | 48.99976 | 12.78706 | 132° | 104km/h | 14160m | 3.4m/s | -61.9°C | 13.2% | 147.7hPa | 2.7V | 00:00:00 | 00:00:00 | 00:00:00 | |
| SONDE2-11 | 2026-09-05 23:33:51 | 48.99994 | 12.78677 | 132° | 104km/h | 14156m | 4.2m/s | -61.9°C | 13.2% | 147.8hPa | 2.7V | 00:00:00 | 00:00:00 | 00:00:00 | |
| EDDB2-11 | 2026-09-05 23:33:47 | 49.00048 | 12.78582 | 130° | 110km/h | 14143m | 3.7m/s | -61.9°C | 13.7% | 148.1hPa | 2.7V | 00:00:00 | 00:00:00 | 00:00:00 | |
| OE5MMP-10 | 2026-09-05 23:33:46 | 49.00066 | 12.78550 | 131° | 111km/h | 14139m | 4.8m/s | -61.8°C | 20.7% | 148.1hPa | 2.7V | 00:00:00 | 01:28:53 | 00:00:00 | |
| PG1ADW-2 | 2026-09-05 23:33:42 | 49.00141 | 12.78424 | 134° | 115km/h | 14123m | 4.0m/s | -61.9°C | 22.0% | 148.5hPa | 2.7V | 00:00:00 | 00:00:00 | 00:00:00 | |
| DO3MHA-11 | 2026-09-05 23:33:38 | 49.00218 | 12.78301 | 133° | 113km/h | 14108m | 2.9m/s | -62.1°C | 23.0% | 148.8hPa | 2.7V | 04:33:00 | 01:28:45 | 00:00:00 | |
| PETON7-10 | 2026-09-05 23:33:37 | 49.00236 | 12.78269 | 132° | 117km/h | 14105m | 4.3m/s | -62.2°C | 23.4% | 148.9hPa | 2.7V | 00:00:00 | 00:00:00 | 00:00:00 | |
| OE5MMP-10 | 2026-09-05 23:33:36 | 49.00255 | 12.78237 | 132° | 115km/h | 14101m | 3.6m/s | -62.3°C | 23.7% | 149.0hPa | 2.7V | 00:00:00 | 01:28:43 | 00:00:00 | |
| OE5WHR-10 | 2026-09-05 23:33:32 | 49.00332 | 12.78108 | 134° | 122km/h | 14086m | 3.5m/s | -62.6°C | 24.3% | 149.4hPa | 2.7V | 00:00:00 | 01:28:39 | 00:00:00 | |
| DO3MHA-11 | 2026-09-05 23:33:28 | 49.00412 | 12.77980 | 135° | 122km/h | 14068m | 4.9m/s | -62.7°C | 25.2% | 149.8hPa | 2.7V | 00:00:00 | 01:28:35 | 00:00:00 | |
| OE5DRO-10 | 2026-09-05 23:33:27 | 49.00433 | 12.77948 | 134° | 126km/h | 14064m | 3.7m/s | -62.7°C | 25.4% | 149.9hPa | 2.7V | 00:00:00 | 00:00:00 | 00:00:00 | |
| OE5MMP-10 | 2026-09-05 23:33:26 | 49.00453 | 12.77914 | 134° | 124km/h | 14060m | 3.7m/s | -62.6°C | 25.5% | 150.0hPa | 2.7V | 00:00:00 | 01:28:33 | 00:00:00 | |
| PETON7-10 | 2026-09-05 23:33:22 | 49.00538 | 12.77772 | 133° | 128km/h | 14043m | 4.5m/s | -62.6°C | 25.3% | 150.4hPa | 2.7V | 00:00:00 | 01:28:29 | 00:00:00 | |
| DM0DOS-11 | 2026-09-05 23:33:21 | 49.00581 | 12.77704 | 132° | 120km/h | 14035m | 3.4m/s | 0°C | 0% | 0hPa | 2.7V | 00:00:00 | 01:28:27 | 00:00:00 | |
| DL6DJ-15 | 2026-09-05 23:33:21 | 49.00581 | 12.77704 | 132° | 119km/h | 14035m | 3.4m/s | -62.6°C | 17.5% | 150.6hPa | 2.7V | 00:00:00 | 00:00:00 | 00:00:00 | |
| SONDE2-11 | 2026-09-05 23:33:20 | 49.00601 | 12.77670 | 132° | 119km/h | 14031m | 5.0m/s | -62.6°C | 17.5% | 150.8hPa | 2.7V | 00:00:00 | 00:00:00 | 00:00:00 | |
| DO3MHA-11 | 2026-09-05 23:33:18 | 49.00622 | 12.77635 | 132° | 131km/h | 14027m | 4.4m/s | -62.5°C | 25.5% | 150.8hPa | 2.7V | 00:00:00 | 01:28:25 | 00:00:00 | |
| OE5MMP-10 | 2026-09-05 23:33:16 | 49.00664 | 12.77563 | 132° | 131km/h | 14019m | 4.1m/s | -62.4°C | 25.6% | 151.0hPa | 2.7V | 00:00:00 | 01:28:23 | 00:00:00 | |
| S52SK | 2026-09-05 23:33:14 | 49.00686 | 12.77527 | 134° | 130km/h | 14014m | 4.8m/s | -62.5°C | 0% | 0hPa | 2.7V | 00:00:00 | 00:00:00 | 00:00:00 | |
| OE5DXL-15 | 2026-09-05 23:33:12 | 49.00754 | 12.77414 | 132° | 131km/h | 14001m | 4.5m/s | -62.4°C | 26.2% | 151.5hPa | 2.7V | 00:00:00 | 00:00:00 | 00:00:00 | |
| OE5WHR-10 | 2026-09-05 23:33:11 | 49.00777 | 12.77375 | 131° | 133km/h | 13997m | 3.3m/s | -62.4°C | 26.4% | 151.6hPa | 2.7V | 00:00:00 | 00:00:00 | 00:00:00 | |
| DO3MHA-11 | 2026-09-05 23:33:08 | 49.00842 | 12.77259 | 130° | 131km/h | 13985m | 3.2m/s | -62.4°C | 26.6% | 151.8hPa | 2.7V | 00:00:00 | 01:28:15 | 00:00:00 | |
| PETON7-10 | 2026-09-05 23:33:07 | 49.00863 | 12.77220 | 130° | 133km/h | 13981m | 4.6m/s | -62.4°C | 26.6% | 151.9hPa | 2.7V | 00:00:00 | 00:00:00 | 00:00:00 | |
| OE5MMP-10 | 2026-09-05 23:33:06 | 49.00884 | 12.77181 | 130° | 133km/h | 13977m | 3.8m/s | -62.5°C | 27.1% | 152.1hPa | 2.7V | 04:34:00 | 01:28:13 | 00:00:00 | |
| OE5REO-15 | 2026-09-05 23:33:05 | 49.00884 | 12.77181 | 130° | 131km/h | 13977m | 3.9m/s | 0°C | 0% | 0hPa | 2.7V | 00:00:00 | 00:00:00 | 00:00:00 | |
| PG1ADW-2 | 2026-09-05 23:33:02 | 49.00969 | 12.77029 | 131° | 133km/h | 13960m | 4.0m/s | -62.7°C | 28.0% | 152.5hPa | 2.7V | 00:00:00 | 00:00:00 | 00:00:00 | |
| DL6DJ-15 | 2026-09-05 23:32:50 | 49.01253 | 12.76521 | 128° | 131km/h | 13910m | 3.5m/s | -62.8°C | 21.3% | 153.8hPa | 2.7V | 00:00:00 | 00:00:00 | 00:00:00 | |
| SONDE2-11 | 2026-09-05 23:32:49 | 49.01274 | 12.76481 | 129° | 131km/h | 13907m | 3.6m/s | -62.8°C | 21.1% | 153.9hPa | 2.7V | 00:00:00 | 00:00:00 | 00:00:00 | |
| EDDB2-11 | 2026-09-05 23:32:45 | 49.01338 | 12.76366 | 130° | 130km/h | 13895m | 4.1m/s | -62.9°C | 21.0% | 154.1hPa | 2.7V | 00:00:00 | 00:00:00 | 00:00:00 | |
| OE5DXL-15 | 2026-09-05 23:32:42 | 49.01402 | 12.76250 | 131° | 130km/h | 13882m | 4.7m/s | -62.8°C | 30.1% | 154.4hPa | 2.7V | 04:34:00 | 00:00:00 | 00:00:00 | |
| DO3MHA-11 | 2026-09-05 23:32:38 | 49.01483 | 12.76095 | 127° | 130km/h | 13866m | 3.8m/s | -62.8°C | 31.2% | 154.8hPa | 2.7V | 00:00:00 | 01:27:45 | 00:00:00 | |
| OE5MMP-10 | 2026-09-05 23:32:36 | 49.01522 | 12.76014 | 126° | 130km/h | 13858m | 4.4m/s | -62.8°C | 30.7% | 155.0hPa | 2.7V | 00:00:00 | 01:27:43 | 00:00:00 | |
| OE5REO-15 | 2026-09-05 23:32:32 | 49.01579 | 12.75893 | 127° | 128km/h | 13846m | 4.6m/s | 0°C | 0% | 0hPa | 2.7V | 00:00:00 | 00:00:00 | 00:00:00 | |
| OE5DRO-10 | 2026-09-05 23:32:30 | 49.01637 | 12.75774 | 129° | 130km/h | 13833m | 5.0m/s | -62.9°C | 30.7% | 155.6hPa | 2.7V | 00:00:00 | 00:00:00 | 00:00:00 | |
| OE5WHR-10 | 2026-09-05 23:32:29 | 49.01657 | 12.75736 | 129° | 130km/h | 13829m | 3.5m/s | -62.9°C | 30.9% | 155.7hPa | 2.7V | 04:34:00 | 01:27:36 | 00:00:00 | |
| DO3MHA-11 | 2026-09-05 23:32:28 | 49.01677 | 12.75697 | 128° | 130km/h | 13825m | 3.5m/s | -62.9°C | 31.2% | 155.8hPa | 2.7V | 00:00:00 | 01:27:35 | 00:00:00 | |
| OE5MMP-10 | 2026-09-05 23:32:26 | 49.01717 | 12.75617 | 126° | 130km/h | 13818m | 3.3m/s | -63.1°C | 31.9% | 156.0hPa | 2.7V | 00:00:00 | 01:27:33 | 00:00:00 | |
| PG1ADW-2 | 2026-09-05 23:32:22 | 49.01789 | 12.75451 | 122° | 130km/h | 13801m | 4.7m/s | -63.2°C | 32.5% | 156.5hPa | 2.7V | 04:35:00 | 00:00:00 | 00:00:00 | |
| DL6DJ-15 | 2026-09-05 23:32:19 | 49.01859 | 12.75279 | 123° | 128km/h | 13784m | 4.0m/s | -63.4°C | 24.6% | 156.9hPa | 2.7V | 00:00:00 | 00:00:00 | 00:00:00 | |
| SONDE2-11 | 2026-09-05 23:32:18 | 49.01877 | 12.75237 | 124° | 130km/h | 13780m | 3.7m/s | -63.5°C | 24.6% | 157.0hPa | 2.7V | 00:00:00 | 00:00:00 | 00:00:00 | |
| OE5MMP-10 | 2026-09-05 23:32:16 | 49.01896 | 12.75196 | 126° | 130km/h | 13776m | 4.8m/s | -63.4°C | 34.0% | 157.1hPa | 2.7V | 04:35:00 | 01:27:23 | 00:00:00 | |
| EDDB2-11 | 2026-09-05 23:32:14 | 49.01935 | 12.75115 | 126° | 130km/h | 13768m | 3.9m/s | -63.5°C | 24.7% | 157.3hPa | 2.7V | 00:00:00 | 00:00:00 | 00:00:00 | |
| OE5DXL-15 | 2026-09-05 23:32:12 | 49.01973 | 12.75034 | 125° | 128km/h | 13760m | 4.3m/s | -63.4°C | 34.4% | 157.5hPa | 2.7V | 00:00:00 | 00:00:00 | 00:00:00 | |
| OE5DRO-10 | 2026-09-05 23:32:11 | 49.01991 | 12.74993 | 125° | 128km/h | 13755m | 4.6m/s | -63.4°C | 34.4% | 157.6hPa | 2.7V | 04:35:00 | 00:00:00 | 00:00:00 | |
| DO3MHA-11 | 2026-09-05 23:32:08 | 49.02045 | 12.74869 | 123° | 128km/h | 13743m | 4.8m/s | -63.5°C | 34.3% | 157.9hPa | 2.7V | 00:00:00 | 01:27:15 | 00:00:00 | |
| PETON7-10 | 2026-09-05 23:32:07 | 49.02063 | 12.74828 | 123° | 126km/h | 13739m | 4.4m/s | -63.5°C | 34.3% | 158.0hPa | 2.7V | 00:00:00 | 00:00:00 | 00:00:00 | |
| OE5MMP-10 | 2026-09-05 23:32:06 | 49.02080 | 12.74787 | 124° | 126km/h | 13735m | 3.8m/s | -63.6°C | 34.3% | 158.2hPa | 2.7V | 00:00:00 | 01:27:13 | 00:00:00 | |
| S52SK | 2026-09-05 23:32:03 | 49.02117 | 12.74706 | 126° | 128km/h | 13726m | 3.5m/s | -63.7°C | 0% | 0hPa | 2.7V | 00:00:00 | 00:00:00 | 00:00:00 | |
| PG1ADW-2 | 2026-09-05 23:32:02 | 49.02153 | 12.74625 | 124° | 128km/h | 13719m | 4.6m/s | -63.7°C | 34.7% | 158.5hPa | 2.7V | 00:00:00 | 00:00:00 | 00:00:00 | |
| SONDE2-11 | 2026-09-05 23:31:47 | 49.02411 | 12.73947 | 119° | 133km/h | 13651m | 5.1m/s | -64.0°C | 27.3% | 160.3hPa | 2.7V | 00:00:00 | 00:00:00 | 00:00:00 | |
| OE5MMP-10 | 2026-09-05 23:31:46 | 49.02410 | 12.73947 | 120° | 128km/h | 13651m | 5.1m/s | -63.9°C | 37.4% | 160.3hPa | 2.7V | 00:00:00 | 01:26:53 | 00:00:00 | |
| EDDB2-11 | 2026-09-05 23:31:43 | 49.02462 | 12.73813 | 121° | 133km/h | 13638m | 4.2m/s | -63.9°C | 28.6% | 160.7hPa | 2.7V | 00:00:00 | 00:00:00 | 00:00:00 | |
| PG1ADW-2 | 2026-09-05 23:31:42 | 49.02479 | 12.73769 | 123° | 124km/h | 13635m | 3.8m/s | -63.8°C | 39.5% | 160.8hPa | 2.7V | 00:00:00 | 00:00:00 | 00:00:00 | |
| DO3MHA-11 | 2026-09-05 23:31:38 | 49.02545 | 12.73606 | 122° | 124km/h | 13619m | 2.1m/s | -63.7°C | 39.1% | 161.2hPa | 2.7V | 00:00:00 | 01:26:45 | 00:00:00 | |
| PETON7-10 | 2026-09-05 23:31:37 | 49.02561 | 12.73568 | 122° | 124km/h | 13616m | 3.0m/s | -63.6°C | 38.6% | 161.2hPa | 2.7V | 04:35:00 | 00:00:00 | 00:00:00 | |
| OE5MMP-10 | 2026-09-05 23:31:36 | 49.02576 | 12.73529 | 122° | 124km/h | 13612m | 5.0m/s | -63.6°C | 38.3% | 161.3hPa | 2.7V | 00:00:00 | 01:26:43 | 00:00:00 | |
| DO3MHA-11 | 2026-09-05 23:31:28 | 49.02705 | 12.73196 | 125° | 128km/h | 13576m | 4.5m/s | -63.4°C | 39.2% | 162.3hPa | 2.7V | 00:00:00 | 01:26:35 | 00:00:00 | |
| OE5WHR-10 | 2026-09-05 23:31:26 | 49.02740 | 12.73118 | 125° | 130km/h | 13566m | 5.4m/s | -63.3°C | 38.9% | 162.5hPa | 2.7V | 00:00:00 | 01:26:33 | 00:00:00 | |
| PETON7-10 | 2026-09-05 23:31:22 | 49.02813 | 12.72954 | 125° | 130km/h | 13547m | 5.7m/s | -63.3°C | 38.5% | 163.0hPa | 2.7V | 00:00:00 | 00:00:00 | 00:00:00 | |
| OE5DRO-10 | 2026-09-05 23:31:21 | 49.02832 | 12.72912 | 126° | 130km/h | 13541m | 5.0m/s | -63.3°C | 38.5% | 163.2hPa | 2.7V | 00:00:00 | 00:00:00 | 00:00:00 | |
| DO3MHA-11 | 2026-09-05 23:31:18 | 49.02890 | 12.72787 | 125° | 130km/h | 13527m | 5.4m/s | -63.3°C | 38.7% | 163.5hPa | 2.7V | 00:00:00 | 01:26:25 | 00:00:00 | |
| SONDE2-11 | 2026-09-05 23:31:16 | 49.02946 | 12.72666 | 127° | 128km/h | 13514m | 6.4m/s | -63.2°C | 29.5% | 164.0hPa | 2.7V | 00:00:00 | 00:00:00 | 00:00:00 | |
| OE5REO-15 | 2026-09-05 23:31:13 | 49.02966 | 12.72627 | 131° | 130km/h | 13508m | 5.2m/s | 0°C | 0% | 0hPa | 2.7V | 00:00:00 | 00:00:00 | 00:00:00 | |
| OE5DXL-15 | 2026-09-05 23:31:12 | 49.03010 | 12.72551 | 132° | 131km/h | 13501m | 3.7m/s | -63.2°C | 40.6% | 164.3hPa | 2.7V | 00:00:00 | 00:00:00 | 00:00:00 | |
| DO3MHA-11 | 2026-09-05 23:31:08 | 49.03093 | 12.72394 | 128° | 128km/h | 13483m | 4.4m/s | -63.7°C | 43.6% | 164.7hPa | 2.7V | 04:36:00 | 01:26:15 | 00:00:00 | |
| PETON7-10 | 2026-09-05 23:31:07 | 49.03113 | 12.72356 | 129° | 133km/h | 13478m | 5.9m/s | -63.9°C | 44.7% | 164.9hPa | 2.7V | 00:00:00 | 01:26:14 | 00:00:00 | |
| OE5MMP-10 | 2026-09-05 23:31:06 | 49.03133 | 12.72318 | 130° | 130km/h | 13473m | 3.9m/s | -63.9°C | 45.5% | 165.0hPa | 2.7V | 00:00:00 | 01:26:13 | 00:00:00 | |
| OE5WHR-10 | 2026-09-05 23:31:05 | 49.03153 | 12.72281 | 129° | 133km/h | 13469m | 4.1m/s | -63.9°C | 45.1% | 165.1hPa | 2.7V | 00:00:00 | 00:00:00 | 00:00:00 | |
| OE5HKT-10 | 2026-09-05 23:31:04 | 49.03173 | 12.72243 | 129° | 130km/h | 13465m | 4.6m/s | -63.8°C | 44.9% | 165.3hPa | 2.7V | 00:00:00 | 01:26:11 | 00:00:00 | |
| PG1ADW-2 | 2026-09-05 23:31:02 | 49.03213 | 12.72168 | 131° | 133km/h | 13455m | 4.6m/s | -63.8°C | 45.1% | 165.5hPa | 2.7V | 00:00:00 | 00:00:00 | 00:00:00 | |
| DL6DJ-15 | 2026-09-05 23:30:45 | 49.03569 | 12.71481 | 125° | 137km/h | 13379m | 4.6m/s | -63.4°C | 36.1% | 167.6hPa | 2.7V | 00:00:00 | 00:00:00 | 00:00:00 | |
| OE5WHR-10 | 2026-09-05 23:30:44 | 49.03590 | 12.71438 | 127° | 135km/h | 13375m | 4.2m/s | -63.4°C | 47.6% | 167.7hPa | 2.7V | 04:36:00 | 00:00:00 | 00:00:00 | |
| OE5HKT-10 | 2026-09-05 23:30:43 | 49.03610 | 12.71396 | 127° | 133km/h | 13371m | 3.5m/s | -63.4°C | 47.7% | 167.8hPa | 2.7V | 00:00:00 | 00:00:00 | 00:00:00 | |
| PG1ADW-2 | 2026-09-05 23:30:42 | 49.03630 | 12.71354 | 126° | 135km/h | 13367m | 5.1m/s | -63.4°C | 47.8% | 167.9hPa | 2.7V | 04:36:00 | 00:00:00 | 00:00:00 | |
| EDDB2-11 | 2026-09-05 23:30:41 | 49.03650 | 12.71312 | 125° | 135km/h | 13362m | 4.7m/s | -63.5°C | 37.2% | 168.1hPa | 2.7V | 00:00:00 | 00:00:00 | 00:00:00 | |
| DO3MHA-11 | 2026-09-05 23:30:38 | 49.03709 | 12.71184 | 126° | 135km/h | 13349m | 3.8m/s | -63.4°C | 49.0% | 168.4hPa | 2.7V | 00:00:00 | 01:25:45 | 00:00:00 | |
| DB0NH | 2026-09-05 23:30:37 | 49.03729 | 12.71141 | 125° | 128km/h | 13345m | 4.1m/s | -63.4°C | 49.0% | 168.5hPa | 2.7V | 04:36:00 | 01:25:44 | 00:00:00 | |
| OE5MMP-10 | 2026-09-05 23:30:36 | 49.03748 | 12.71098 | 125° | 135km/h | 13341m | 4.7m/s | -63.4°C | 49.4% | 168.6hPa | 2.7V | 04:36:00 | 01:25:43 | 00:00:00 | |
| DO9HM | 2026-09-05 23:30:32 | 49.03806 | 12.70968 | 125° | 133km/h | 13328m | 4.1m/s | -63.3°C | 38.1% | 169.0hPa | 2.7V | 00:00:00 | 00:00:00 | 00:00:00 | |
| PETON7-10 | 2026-09-05 23:30:31 | 49.03843 | 12.70882 | 123° | 137km/h | 13321m | 4.8m/s | -63.3°C | 49.6% | 169.1hPa | 2.7V | 00:00:00 | 00:00:00 | 00:00:00 | |
| DO3MHA-11 | 2026-09-05 23:30:28 | 49.03898 | 12.70751 | 124° | 137km/h | 13307m | 5.0m/s | -63.3°C | 51.0% | 169.5hPa | 2.7V | 00:00:00 | 01:25:35 | 00:00:00 | |
| OE5MMP-10 | 2026-09-05 23:30:26 | 49.03936 | 12.70665 | 125° | 139km/h | 13298m | 4.0m/s | -63.3°C | 51.7% | 169.7hPa | 2.7V | 00:00:00 | 01:25:33 | 00:00:00 | |
| OE5DRO-10 | 2026-09-05 23:30:24 | 49.03975 | 12.70577 | 124° | 139km/h | 13290m | 3.3m/s | -63.3°C | 52.2% | 170.0hPa | 2.7V | 04:37:00 | 00:00:00 | 00:00:00 | |
| OE5WHR-10 | 2026-09-05 23:30:23 | 49.03994 | 12.70533 | 125° | 139km/h | 13287m | 3.9m/s | -63.3°C | 51.9% | 170.1hPa | 2.7V | 00:00:00 | 01:25:30 | 00:00:00 | |
| PG1ADW-2 | 2026-09-05 23:30:22 | 49.04014 | 12.70489 | 125° | 139km/h | 13283m | 4.3m/s | -63.3°C | 52.3% | 170.2hPa | 2.7V | 00:00:00 | 00:00:00 | 00:00:00 | |
| DO3MHA-11 | 2026-09-05 23:30:18 | 49.04093 | 12.70312 | 124° | 139km/h | 13266m | 3.6m/s | -63.5°C | 53.9% | 170.7hPa | 2.7V | 04:37:00 | 01:25:25 | 00:00:00 | |
| OE5MMP-10 | 2026-09-05 23:30:17 | 49.04132 | 12.70222 | 125° | 139km/h | 13258m | 4.6m/s | -63.4°C | 53.6% | 170.9hPa | 2.7V | 00:00:00 | 01:25:23 | 00:00:00 | |
| DL6DJ-15 | 2026-09-05 23:30:14 | 49.04172 | 12.70134 | 124° | 137km/h | 13250m | 4.1m/s | -63.4°C | 41.1% | 171.2hPa | 2.7V | 00:00:00 | 00:00:00 | 00:00:00 | |
| SONDE2-11 | 2026-09-05 23:30:13 | 49.04192 | 12.70090 | 123° | 137km/h | 13245m | 5.0m/s | -63.4°C | 41.4% | 171.3hPa | 2.7V | 00:00:00 | 00:00:00 | 00:00:00 | |
| OE5DXL-15 | 2026-09-05 23:30:12 | 49.04211 | 12.70045 | 124° | 135km/h | 13241m | 3.9m/s | -63.4°C | 54.4% | 171.3hPa | 2.7V | 04:37:00 | 00:00:00 | 00:00:00 | |
| EDDB2-11 | 2026-09-05 23:30:10 | 49.04249 | 12.69956 | 123° | 139km/h | 13233m | 4.9m/s | -63.4°C | 42.7% | 171.6hPa | 2.7V | 00:00:00 | 00:00:00 | 00:00:00 | |
| DO3MHA-11 | 2026-09-05 23:30:08 | 49.04288 | 12.69867 | 124° | 139km/h | 13226m | 3.2m/s | -63.3°C | 55.7% | 171.8hPa | 2.7V | 00:00:00 | 01:25:15 | 00:00:00 | |
| OE5DRO-10 | 2026-09-05 23:30:06 | 49.04346 | 12.69733 | 124° | 133km/h | 13213m | 3.6m/s | -63.3°C | 56.3% | 172.2hPa | 2.7V | 00:00:00 | 00:00:00 | 00:00:00 | |
| OE5WHR-10 | 2026-09-05 23:30:02 | 49.04405 | 12.69601 | 125° | 133km/h | 13201m | 4.6m/s | -63.4°C | 56.3% | 172.5hPa | 2.7V | 00:00:00 | 00:00:00 | 00:00:00 | |
| OE5REO-15 | 2026-09-05 23:30:01 | 49.04405 | 12.69601 | 125° | 139km/h | 13201m | 4.6m/s | 0°C | 0% | 0hPa | 2.7V | 00:00:00 | 00:00:00 | 00:00:00 | |
| PETON7-10 | 2026-09-05 23:30:00 | 49.04443 | 12.69513 | 124° | 131km/h | 13193m | 3.9m/s | -63.5°C | 57.2% | 172.7hPa | 2.7V | 00:00:00 | 00:00:00 | 00:00:00 | |
| DO3MHA-11 | 2026-09-05 23:29:58 | 49.04482 | 12.69425 | 125° | 131km/h | 13183m | 4.5m/s | -63.6°C | 57.3% | 173.0hPa | 2.7V | 00:00:00 | 01:25:05 | 00:00:00 | |
| OE5MMP-10 | 2026-09-05 23:29:56 | 49.04519 | 12.69340 | 124° | 130km/h | 13175m | 4.8m/s | -63.5°C | 56.6% | 173.2hPa | 2.7V | 00:00:00 | 01:25:03 | 00:00:00 | |
| DO3MHA-11 | 2026-09-05 23:29:48 | 49.04665 | 12.69007 | 126° | 133km/h | 13142m | 4.3m/s | -63.4°C | 59.6% | 174.2hPa | 2.7V | 00:00:00 | 01:24:55 | 00:00:00 | |
| OE5MMP-10 | 2026-09-05 23:29:46 | 49.04705 | 12.68925 | 128° | 133km/h | 13134m | 3.7m/s | -63.6°C | 61.1% | 174.4hPa | 2.7V | 04:37:00 | 01:24:53 | 00:00:00 | |
| PETON7-10 | 2026-09-05 23:29:45 | 49.04725 | 12.68884 | 127° | 133km/h | 13129m | 4.7m/s | -63.6°C | 61.5% | 174.5hPa | 2.7V | 00:00:00 | 00:00:00 | 00:00:00 | |
| DL6DJ-15 | 2026-09-05 23:29:43 | 49.04765 | 12.68802 | 126° | 131km/h | 13121m | 3.4m/s | -63.8°C | 49.5% | 174.9hPa | 2.7V | 00:00:00 | 00:00:00 | 00:00:00 | |
| PG1ADW-2 | 2026-09-05 23:29:42 | 49.04784 | 12.68761 | 127° | 133km/h | 13117m | 4.4m/s | -63.9°C | 63.3% | 174.9hPa | 2.7V | 00:00:00 | 00:00:00 | 00:00:00 | |
| OE5WHR-10 | 2026-09-05 23:29:41 | 49.04805 | 12.68720 | 127° | 133km/h | 13112m | 4.2m/s | -63.9°C | 63.8% | 175.0hPa | 2.7V | 00:00:00 | 00:00:00 | 00:00:00 | |
| EDDB2-11 | 2026-09-05 23:29:39 | 49.04864 | 12.68595 | 124° | 133km/h | 13100m | 4.4m/s | -63.9°C | 49.6% | 175.4hPa | 2.7V | 00:00:00 | 00:00:00 | 00:00:00 | |
| DO3MHA-11 | 2026-09-05 23:29:38 | 49.04864 | 12.68595 | 125° | 131km/h | 13100m | 4.3m/s | -63.9°C | 63.3% | 175.3hPa | 2.7V | 00:00:00 | 01:24:45 | 00:00:00 | |
| OE5MMP-10 | 2026-09-05 23:29:36 | 49.04902 | 12.68509 | 124° | 131km/h | 13091m | 4.7m/s | -63.9°C | 63.2% | 175.5hPa | 2.7V | 00:00:00 | 01:24:43 | 00:00:00 | |
| PETON7-10 | 2026-09-05 23:29:30 | 49.05017 | 12.68261 | 128° | 133km/h | 13065m | 5.3m/s | -63.8°C | 63.2% | 176.4hPa | 2.7V | 00:00:00 | 01:24:37 | 00:00:00 | |
| AM1SDL-15 | 2026-09-05 23:29:29 | 49.05037 | 12.68221 | 129° | 133km/h | 13060m | 3.7m/s | -63.7°C | 63.4% | 176.5hPa | 2.7V | 00:00:00 | 01:24:36 | 00:00:00 | |
| DO3MHA-11 | 2026-09-05 23:29:28 | 49.05058 | 12.68182 | 128° | 133km/h | 13057m | 3.2m/s | -63.7°C | 63.5% | 176.6hPa | 2.7V | 04:37:00 | 01:24:35 | 00:00:00 | |
| OE5DRO-10 | 2026-09-05 23:29:27 | 49.05077 | 12.68142 | 127° | 133km/h | 13053m | 4.4m/s | -63.7°C | 63.3% | 176.7hPa | 2.7V | 00:00:00 | 00:00:00 | 00:00:00 | |
| OE5MMP-10 | 2026-09-05 23:29:26 | 49.05097 | 12.68101 | 126° | 135km/h | 13048m | 4.1m/s | -63.7°C | 64.1% | 176.8hPa | 2.7V | 00:00:00 | 01:24:33 | 00:00:00 | |
| OE5HKT-10 | 2026-09-05 23:29:25 | 49.05116 | 12.68060 | 125° | 135km/h | 13045m | 3.3m/s | -63.8°C | 64.4% | 176.9hPa | 2.7V | 00:00:00 | 01:24:32 | 00:00:00 | |
| S52SK | 2026-09-05 23:29:24 | 49.05116 | 12.68060 | 125° | 133km/h | 13045m | 3.3m/s | 0°C | 0% | 0hPa | 2.7V | 00:00:00 | 00:00:00 | 00:00:00 | |
| PG1ADW-2 | 2026-09-05 23:29:22 | 49.05174 | 12.67932 | 127° | 135km/h | 13033m | 3.9m/s | -63.7°C | 64.1% | 177.3hPa | 2.7V | 00:00:00 | 00:00:00 | 00:00:00 | |
| DO9HM | 2026-09-05 23:29:21 | 49.05194 | 12.67890 | 128° | 137km/h | 13029m | 3.7m/s | -63.7°C | 50.2% | 177.4hPa | 2.7V | 04:38:00 | 00:00:00 | 00:00:00 | |
| OE5WHR-10 | 2026-09-05 23:29:20 | 49.05215 | 12.67848 | 127° | 135km/h | 13025m | 4.9m/s | -63.7°C | 63.4% | 177.5hPa | 2.7V | 00:00:00 | 01:24:27 | 00:00:00 | |
| DO3MHA-11 | 2026-09-05 23:29:18 | 49.05255 | 12.67764 | 127° | 133km/h | 13016m | 3.5m/s | -63.6°C | 63.5% | 177.7hPa | 2.7V | 00:00:00 | 01:24:25 | 00:00:00 | |
| AM1SDL-15 | 2026-09-05 23:29:17 | 49.05275 | 12.67723 | 127° | 133km/h | 13012m | 4.8m/s | -63.7°C | 63.6% | 177.9hPa | 2.7V | 00:00:00 | 01:24:24 | 00:00:00 | |
| OE5MMP-10 | 2026-09-05 23:29:16 | 49.05295 | 12.67682 | 127° | 133km/h | 13008m | 4.1m/s | -63.7°C | 63.9% | 178.0hPa | 2.7V | 00:00:00 | 01:24:23 | 00:00:00 | |
| PETON7-10 | 2026-09-05 23:29:15 | 49.05314 | 12.67640 | 126° | 135km/h | 13003m | 5.0m/s | -63.7°C | 64.2% | 178.1hPa | 2.7V | 00:00:00 | 00:00:00 | 00:00:00 | |
| OE5DXL-15 | 2026-09-05 23:29:12 | 49.05373 | 12.67517 | 127° | 135km/h | 12991m | 4.4m/s | -63.6°C | 65.3% | 178.5hPa | 2.7V | 00:00:00 | 00:00:00 | 00:00:00 | |
| SONDE2-11 | 2026-09-05 23:29:11 | 49.05393 | 12.67476 | 126° | 133km/h | 12987m | 3.5m/s | -63.6°C | 51.3% | 178.6hPa | 2.7V | 00:00:00 | 00:00:00 | 00:00:00 | |
| DO3MHA-11 | 2026-09-05 23:29:08 | 49.05455 | 12.67351 | 128° | 137km/h | 12974m | 4.2m/s | -63.4°C | 64.2% | 178.9hPa | 2.7V | 00:00:00 | 01:24:15 | 00:00:00 | |
| OE5MMP-10 | 2026-09-05 23:29:06 | 49.05498 | 12.67268 | 129° | 137km/h | 12966m | 3.6m/s | -63.4°C | 64.2% | 179.2hPa | 2.7V | 00:00:00 | 01:24:13 | 00:00:00 | |
| AM1SDL-15 | 2026-09-05 23:29:05 | 49.05520 | 12.67227 | 128° | 137km/h | 12962m | 4.8m/s | -63.4°C | 64.0% | 179.3hPa | 2.7V | 04:38:00 | 01:24:12 | 00:00:00 | |
| OE5HKT-10 | 2026-09-05 23:29:04 | 49.05540 | 12.67185 | 128° | 135km/h | 12958m | 3.8m/s | -63.4°C | 63.8% | 179.4hPa | 2.7V | 04:38:00 | 00:00:00 | 00:00:00 | |
| PG1ADW-2 | 2026-09-05 23:29:02 | 49.05582 | 12.67103 | 128° | 135km/h | 12950m | 4.7m/s | -63.3°C | 63.1% | 179.7hPa | 2.7V | 04:38:00 | 00:00:00 | 00:00:00 | |
| PETON7-10 | 2026-09-05 23:29:00 | 49.05623 | 12.67020 | 127° | 135km/h | 12942m | 4.7m/s | -63.4°C | 62.0% | 179.9hPa | 2.7V | 04:38:00 | 00:00:00 | 00:00:00 | |
| OE5WHR-10 | 2026-09-05 23:28:59 | 49.05643 | 12.66977 | 126° | 137km/h | 12937m | 4.2m/s | -63.4°C | 62.0% | 180.0hPa | 2.7V | 04:38:00 | 00:00:00 | 00:00:00 | |
| DO3MHA-11 | 2026-09-05 23:28:58 | 49.05663 | 12.66934 | 125° | 135km/h | 12933m | 4.1m/s | -63.4°C | 61.9% | 180.2hPa | 2.7V | 00:00:00 | 01:24:05 | 00:00:00 | |
| OE5MMP-10 | 2026-09-05 23:28:56 | 49.05703 | 12.66847 | 126° | 135km/h | 12925m | 3.9m/s | -63.4°C | 62.4% | 180.4hPa | 2.7V | 04:38:00 | 01:24:03 | 00:00:00 | |
| AM1SDL-15 | 2026-09-05 23:28:53 | 49.05762 | 12.66720 | 125° | 135km/h | 12913m | 3.9m/s | -63.4°C | 62.9% | 180.8hPa | 2.7V | 00:00:00 | 01:24:00 | 00:00:00 | |
| OE5DRO-10 | 2026-09-05 23:28:49 | 49.05845 | 12.66558 | 132° | 137km/h | 12897m | 3.6m/s | -63.3°C | 62.7% | 181.2hPa | 2.7V | 04:38:00 | 00:00:00 | 00:00:00 | |
| DO3MHA-11 | 2026-09-05 23:28:48 | 49.05868 | 12.66519 | 132° | 137km/h | 12893m | 4.3m/s | -63.3°C | 62.2% | 181.3hPa | 2.7V | 00:00:00 | 01:23:55 | 00:00:00 | |
| OE5MMP-10 | 2026-09-05 23:28:46 | 49.05912 | 12.66438 | 130° | 137km/h | 12885m | 5.0m/s | -63.3°C | 61.9% | 181.6hPa | 2.7V | 00:00:00 | 01:23:53 | 00:00:00 | |
| PETON7-10 | 2026-09-05 23:28:45 | 49.05934 | 12.66398 | 129° | 137km/h | 12880m | 4.6m/s | -63.4°C | 62.6% | 181.7hPa | 2.7V | 00:00:00 | 01:23:52 | 00:00:00 | |
| OE5HKT-10 | 2026-09-05 23:28:43 | 49.05977 | 12.66316 | 129° | 133km/h | 12871m | 4.5m/s | -63.3°C | 62.2% | 181.9hPa | 2.7V | 00:00:00 | 00:00:00 | 00:00:00 | |
| OE5DXL-15 | 2026-09-05 23:28:42 | 49.05998 | 12.66274 | 129° | 133km/h | 12867m | 3.8m/s | -63.3°C | 62.2% | 182.1hPa | 2.7V | 00:00:00 | 00:00:00 | 00:00:00 | |
| AM1SDL-15 | 2026-09-05 23:28:41 | 49.06020 | 12.66233 | 129° | 137km/h | 12863m | 3.8m/s | -63.3°C | 61.8% | 182.2hPa | 2.7V | 00:00:00 | 01:23:48 | 00:00:00 | |
| DO9HM | 2026-09-05 23:28:40 | 49.06041 | 12.66192 | 129° | 137km/h | 12860m | 4.3m/s | -63.4°C | 48.8% | 182.3hPa | 2.7V | 00:00:00 | 00:00:00 | 00:00:00 | |
| OE5WHR-10 | 2026-09-05 23:28:38 | 49.06084 | 12.66108 | 130° | 133km/h | 12851m | 4.7m/s | -63.3°C | 62.5% | 182.6hPa | 2.7V | 00:00:00 | 00:00:00 | 00:00:00 | |
| EDDB2-11 | 2026-09-05 23:28:37 | 49.06107 | 12.66067 | 129° | 139km/h | 12847m | 3.4m/s | -63.4°C | 49.6% | 182.8hPa | 2.7V | 00:00:00 | 00:00:00 | 00:00:00 | |
| OE5MMP-10 | 2026-09-05 23:28:36 | 49.06129 | 12.66026 | 130° | 135km/h | 12844m | 3.2m/s | -63.3°C | 63.0% | 182.8hPa | 2.7V | 00:00:00 | 01:23:43 | 00:00:00 | |
| PETON7-10 | 2026-09-05 23:28:30 | 49.06260 | 12.65781 | 129° | 131km/h | 12821m | 4.4m/s | -63.3°C | 64.4% | 183.5hPa | 2.7V | 00:00:00 | 00:00:00 | 00:00:00 | |
| AM1SDL-15 | 2026-09-05 23:28:29 | 49.06280 | 12.65742 | 129° | 131km/h | 12817m | 3.3m/s | -63.3°C | 64.7% | 183.6hPa | 2.7V | 00:00:00 | 01:23:36 | 00:00:00 | |
| DO3MHA-11 | 2026-09-05 23:28:28 | 49.06301 | 12.65702 | 129° | 131km/h | 12813m | 3.5m/s | -63.2°C | 64.4% | 183.7hPa | 2.7V | 00:00:00 | 01:23:35 | 00:00:00 | |
| OE5MMP-10 | 2026-09-05 23:28:26 | 49.06342 | 12.65623 | 129° | 131km/h | 12806m | 3.2m/s | -63.2°C | 64.8% | 183.9hPa | 2.7V | 00:00:00 | 01:23:33 | 00:00:00 | |
| PG1ADW-2 | 2026-09-05 23:28:22 | 49.06424 | 12.65464 | 129° | 133km/h | 12790m | 4.6m/s | -63.1°C | 64.7% | 184.4hPa | 2.7V | 00:00:00 | 00:00:00 | 00:00:00 | |
| DO3MHA-11 | 2026-09-05 23:28:18 | 49.06508 | 12.65306 | 130° | 133km/h | 12774m | 3.6m/s | -63.1°C | 65.5% | 184.8hPa | 2.7V | 00:00:00 | 01:23:25 | 00:00:00 | |
| OE5WHR-10 | 2026-09-05 23:28:17 | 49.06530 | 12.65267 | 130° | 133km/h | 12770m | 4.7m/s | -63.1°C | 65.7% | 185.0hPa | 2.7V | 00:00:00 | 01:23:24 | 00:00:00 | |
| OE5MMP-10 | 2026-09-05 23:28:16 | 49.06551 | 12.65227 | 130° | 133km/h | 12766m | 3.3m/s | -63.0°C | 66.0% | 185.1hPa | 2.7V | 00:00:00 | 01:23:23 | 00:00:00 | |
| PETON7-10 | 2026-09-05 23:28:15 | 49.06572 | 12.65188 | 129° | 133km/h | 12762m | 4.3m/s | -63.0°C | 65.7% | 185.2hPa | 2.7V | 00:00:00 | 00:00:00 | 00:00:00 | |
| OE5DXL-15 | 2026-09-05 23:28:12 | 49.06634 | 12.65067 | 128° | 133km/h | 12750m | 4.7m/s | -62.9°C | 66.0% | 185.6hPa | 2.7V | 00:00:00 | 00:00:00 | 00:00:00 | |
| OE5DRO-10 | 2026-09-05 23:28:11 | 49.06655 | 12.65027 | 128° | 133km/h | 12746m | 3.6m/s | -62.9°C | 66.6% | 185.7hPa | 2.7V | 00:00:00 | 00:00:00 | 00:00:00 | |
| DL6DJ-15 | 2026-09-05 23:28:10 | 49.06676 | 12.64986 | 127° | 133km/h | 12742m | 3.6m/s | -63.0°C | 52.9% | 185.9hPa | 2.7V | 00:00:00 | 00:00:00 | 00:00:00 | |
| SONDE2-11 | 2026-09-05 23:28:09 | 49.06696 | 12.64945 | 126° | 133km/h | 12739m | 4.2m/s | -62.9°C | 53.3% | 186.0hPa | 2.7V | 00:00:00 | 00:00:00 | 00:00:00 | |
| DO3MHA-11 | 2026-09-05 23:28:08 | 49.06716 | 12.64903 | 128° | 133km/h | 12735m | 2.7m/s | -62.9°C | 67.6% | 186.1hPa | 2.7V | 00:00:00 | 01:23:15 | 00:00:00 | |
| OE5MMP-10 | 2026-09-05 23:28:06 | 49.06757 | 12.64823 | 129° | 133km/h | 12728m | 4.0m/s | -62.8°C | 67.4% | 186.3hPa | 2.7V | 04:39:00 | 01:23:13 | 00:00:00 | |
| AM1SDL-15 | 2026-09-05 23:28:05 | 49.06778 | 12.64783 | 130° | 133km/h | 12725m | 2.8m/s | -62.8°C | 67.6% | 186.4hPa | 2.7V | 04:39:00 | 01:23:12 | 00:00:00 | |
| PG1ADW-2 | 2026-09-05 23:28:02 | 49.06840 | 12.64665 | 129° | 133km/h | 12714m | 3.4m/s | -62.7°C | 67.5% | 186.7hPa | 2.7V | 00:00:00 | 00:00:00 | 00:00:00 | |
| PETON7-10 | 2026-09-05 23:28:00 | 49.06882 | 12.64585 | 129° | 133km/h | 12706m | 3.4m/s | -62.7°C | 68.0% | 186.9hPa | 2.7V | 00:00:00 | 01:23:07 | 00:00:00 | |
| DO3MHA-11 | 2026-09-05 23:27:58 | 49.06923 | 12.64502 | 127° | 133km/h | 12699m | 4.2m/s | -62.6°C | 69.0% | 187.2hPa | 2.7V | 00:00:00 | 01:23:05 | 00:00:00 | |
| DO9HM | 2026-09-05 23:27:57 | 49.06923 | 12.64502 | 127° | 135km/h | 12699m | 4.3m/s | -62.7°C | 55.1% | 187.2hPa | 2.7V | 00:00:00 | 00:00:00 | 00:00:00 | |
| OE5WHR-10 | 2026-09-05 23:27:56 | 49.06963 | 12.64418 | 127° | 133km/h | 12692m | 3.0m/s | -62.6°C | 69.4% | 187.4hPa | 2.7V | 00:00:00 | 00:00:00 | 00:00:00 | |
| AM1SDL-15 | 2026-09-05 23:27:53 | 49.07025 | 12.64295 | 128° | 133km/h | 12680m | 4.2m/s | -62.5°C | 69.1% | 187.7hPa | 2.7V | 00:00:00 | 01:23:00 | 00:00:00 | |
| OE5DRO-10 | 2026-09-05 23:27:52 | 49.07045 | 12.64255 | 129° | 131km/h | 12676m | 3.5m/s | -62.5°C | 69.1% | 187.9hPa | 2.7V | 00:00:00 | 00:00:00 | 00:00:00 | |
| OE5HKT-10 | 2026-09-05 23:27:51 | 49.07066 | 12.64216 | 129° | 131km/h | 12673m | 3.6m/s | -62.5°C | 69.0% | 187.9hPa | 2.7V | 00:00:00 | 01:22:58 | 00:00:00 | |
| DO3MHA-11 | 2026-09-05 23:27:48 | 49.07129 | 12.64098 | 129° | 133km/h | 12661m | 4.2m/s | -62.4°C | 69.0% | 188.3hPa | 2.7V | 04:39:00 | 01:22:55 | 00:00:00 | |
| OE5MMP-10 | 2026-09-05 23:27:46 | 49.07170 | 12.64019 | 128° | 133km/h | 12654m | 2.9m/s | -62.3°C | 68.3% | 188.5hPa | 2.7V | 00:00:00 | 01:22:53 | 00:00:00 | |
| PETON7-10 | 2026-09-05 23:27:45 | 49.07190 | 12.63978 | 128° | 130km/h | 12650m | 4.6m/s | -62.3°C | 67.4% | 188.6hPa | 2.7V | 04:39:00 | 00:00:00 | 00:00:00 | |
| PG1ADW-2 | 2026-09-05 23:27:42 | 49.07253 | 12.63852 | 126° | 130km/h | 12639m | 4.3m/s | -62.1°C | 67.6% | 189.0hPa | 2.7V | 00:00:00 | 00:00:00 | 00:00:00 | |
| AM1SDL-15 | 2026-09-05 23:27:39 | 49.07312 | 12.63726 | 126° | 128km/h | 12629m | 3.8m/s | -62.1°C | 67.1% | 189.3hPa | 2.7V | 00:00:00 | 01:22:46 | 00:00:00 | |
| DO3MHA-11 | 2026-09-05 23:27:38 | 49.07331 | 12.63685 | 128° | 128km/h | 12625m | 3.9m/s | -62.0°C | 67.2% | 189.4hPa | 2.7V | 00:00:00 | 01:22:45 | 00:00:00 | |
| DO9HM | 2026-09-05 23:27:37 | 49.07331 | 12.63685 | 128° | 130km/h | 12625m | 3.9m/s | -62.1°C | 53.8% | 189.5hPa | 2.7V | 00:00:00 | 00:00:00 | 00:00:00 | |
| OE5MMP-10 | 2026-09-05 23:27:36 | 49.07371 | 12.63607 | 128° | 128km/h | 12618m | 4.2m/s | -61.9°C | 66.8% | 189.6hPa | 2.7V | 00:00:00 | 01:22:43 | 00:00:00 | |
| OE5WHR-10 | 2026-09-05 23:27:35 | 49.07390 | 12.63569 | 128° | 130km/h | 12614m | 3.7m/s | -61.9°C | 66.9% | 189.7hPa | 2.7V | 00:00:00 | 00:00:00 | 00:00:00 | |
| OE5DRO-10 | 2026-09-05 23:27:33 | 49.07429 | 12.63493 | 130° | 130km/h | 12607m | 4.5m/s | -61.8°C | 66.7% | 189.9hPa | 2.7V | 00:00:00 | 00:00:00 | 00:00:00 | |
| OE5HKT-10 | 2026-09-05 23:27:30 | 49.07490 | 12.63380 | 129° | 131km/h | 12596m | 4.1m/s | -61.7°C | 66.9% | 190.3hPa | 2.7V | 00:00:00 | 00:00:00 | 00:00:00 | |
| DO3MHA-11 | 2026-09-05 23:27:28 | 49.07530 | 12.63299 | 128° | 130km/h | 12588m | 4.6m/s | -61.7°C | 66.9% | 190.5hPa | 2.7V | 00:00:00 | 01:22:35 | 00:00:00 | |
| AM1SDL-15 | 2026-09-05 23:27:27 | 49.07551 | 12.63258 | 128° | 130km/h | 12584m | 3.2m/s | -61.6°C | 67.5% | 190.7hPa | 2.7V | 00:00:00 | 01:22:34 | 00:00:00 | |
| PETON7-10 | 2026-09-05 23:27:26 | 49.07572 | 12.63217 | 127° | 130km/h | 12580m | 3.9m/s | -61.6°C | 67.6% | 190.8hPa | 2.7V | 00:00:00 | 00:00:00 | 00:00:00 | |
| PG1ADW-2 | 2026-09-05 23:27:22 | 49.07651 | 12.63055 | 129° | 130km/h | 12565m | 4.2m/s | -61.5°C | 69.1% | 191.2hPa | 2.7V | 04:40:00 | 01:22:29 | 00:00:00 | |
| DO3MHA-11 | 2026-09-05 23:27:18 | 49.07733 | 12.62905 | 130° | 131km/h | 12550m | 3.5m/s | -61.4°C | 68.7% | 191.7hPa | 2.7V | 00:00:00 | 01:22:25 | 00:00:00 | |
| OE5MMP-10 | 2026-09-05 23:27:16 | 49.07775 | 12.62828 | 130° | 130km/h | 12542m | 3.0m/s | -61.4°C | 68.1% | 192.0hPa | 2.7V | 04:40:00 | 01:22:23 | 00:00:00 | |
| AM1SDL-15 | 2026-09-05 23:27:15 | 49.07796 | 12.62788 | 129° | 130km/h | 12539m | 4.2m/s | -61.3°C | 67.1% | 192.1hPa | 2.7V | 00:00:00 | 01:22:22 | 00:00:00 | |
| OE5WHR-10 | 2026-09-05 23:27:14 | 49.07816 | 12.62748 | 127° | 128km/h | 12534m | 4.6m/s | -61.3°C | 66.9% | 192.2hPa | 2.7V | 04:40:00 | 01:22:21 | 00:00:00 | |
| OE5DXL-15 | 2026-09-05 23:27:12 | 49.07855 | 12.62666 | 126° | 130km/h | 12527m | 4.0m/s | -61.2°C | 66.8% | 192.4hPa | 2.7V | 00:00:00 | 00:00:00 | 00:00:00 | |
| PETON7-10 | 2026-09-05 23:27:11 | 49.07875 | 12.62625 | 127° | 128km/h | 12523m | 4.7m/s | -61.2°C | 67.1% | 192.5hPa | 2.7V | 00:00:00 | 01:22:18 | 00:00:00 | |
| OE5HKT-10 | 2026-09-05 23:27:09 | 49.07915 | 12.62544 | 128° | 128km/h | 12515m | 4.2m/s | -61.1°C | 66.7% | 192.8hPa | 2.7V | 00:00:00 | 00:00:00 | 00:00:00 | |
| DO3MHA-11 | 2026-09-05 23:27:08 | 49.07935 | 12.62506 | 129° | 128km/h | 12511m | 4.7m/s | -61.1°C | 66.7% | 192.9hPa | 2.7V | 00:00:00 | 01:22:15 | 00:00:00 | |
| SONDE2-11 | 2026-09-05 23:27:07 | 49.07955 | 12.62468 | 129° | 126km/h | 12506m | 4.1m/s | -61.1°C | 53.8% | 193.1hPa | 2.7V | 00:00:00 | 00:00:00 | 00:00:00 | |
| OE5MMP-10 | 2026-09-05 23:27:06 | 49.07976 | 12.62430 | 130° | 128km/h | 12502m | 5.4m/s | -61.0°C | 67.1% | 193.2hPa | 2.7V | 00:00:00 | 01:22:13 | 00:00:00 | |
| EDDB2-11 | 2026-09-05 23:27:04 | 49.08039 | 12.62314 | 129° | 130km/h | 12489m | 3.3m/s | -61.0°C | 54.8% | 193.6hPa | 2.7V | 00:00:00 | 00:00:00 | 00:00:00 | |
| AM1SDL-15 | 2026-09-05 23:27:03 | 49.08039 | 12.62314 | 130° | 126km/h | 12489m | 3.2m/s | -60.9°C | 68.0% | 193.6hPa | 2.7V | 04:40:00 | 01:22:10 | 00:00:00 | |
| PG1ADW-2 | 2026-09-05 23:27:02 | 49.08060 | 12.62276 | 130° | 128km/h | 12486m | 4.3m/s | -60.9°C | 67.9% | 193.7hPa | 2.7V | 00:00:00 | 00:00:00 | 00:00:00 | |
| DO3MHA-11 | 2026-09-05 23:26:58 | 49.08142 | 12.62125 | 129° | 128km/h | 12470m | 3.1m/s | -60.8°C | 68.3% | 194.2hPa | 2.7V | 04:40:00 | 01:22:05 | 00:00:00 | |
| OE5MMP-10 | 2026-09-05 23:26:56 | 49.08181 | 12.62049 | 127° | 128km/h | 12463m | 4.6m/s | -60.7°C | 67.3% | 194.4hPa | 2.7V | 00:00:00 | 01:22:03 | 00:00:00 | |
| OE5DRO-10 | 2026-09-05 23:26:55 | 49.08199 | 12.62011 | 127° | 128km/h | 12459m | 3.4m/s | -60.7°C | 67.1% | 194.5hPa | 2.7V | 00:00:00 | 00:00:00 | 00:00:00 | |
| S52SK | 2026-09-05 23:26:54 | 49.08199 | 12.62011 | 127° | 124km/h | 12459m | 3.5m/s | 0°C | 0% | 0hPa | 2.7V | 00:00:00 | 00:00:00 | 00:00:00 | |
| OE5WHR-10 | 2026-09-05 23:26:53 | 49.08237 | 12.61933 | 127° | 128km/h | 12450m | 3.9m/s | -60.6°C | 67.3% | 194.9hPa | 2.7V | 00:00:00 | 00:00:00 | 00:00:00 | |
| AM1SDL-15 | 2026-09-05 23:26:51 | 49.08277 | 12.61854 | 129° | 130km/h | 12443m | 4.5m/s | -60.5°C | 65.7% | 195.0hPa | 2.7V | 00:00:00 | 01:21:58 | 00:00:00 | |
| DO3MHA-11 | 2026-09-05 23:26:48 | 49.08339 | 12.61738 | 129° | 128km/h | 12430m | 3.3m/s | -60.4°C | 66.2% | 195.5hPa | 2.7V | 00:00:00 | 01:21:55 | 00:00:00 | |
| OE5HKT-10 | 2026-09-05 23:26:47 | 49.08359 | 12.61700 | 129° | 128km/h | 12426m | 4.3m/s | 0°C | 0% | 0hPa | 2.7V | 04:40:00 | 01:21:54 | 00:00:00 | |
| OE5MMP-10 | 2026-09-05 23:26:46 | 49.08379 | 12.61660 | 128° | 128km/h | 12422m | 4.2m/s | -60.3°C | 65.9% | 195.7hPa | 2.7V | 00:00:00 | 01:21:53 | 00:00:00 | |
| OE5REO-15 | 2026-09-05 23:26:45 | 49.08379 | 12.61660 | 128° | 131km/h | 12422m | 4.3m/s | 0°C | 0% | 0hPa | 2.7V | 00:00:00 | 00:00:00 | 00:00:00 | |
| OE5DXL-15 | 2026-09-05 23:26:42 | 49.08458 | 12.61497 | 128° | 126km/h | 12407m | 2.8m/s | -60.2°C | 65.6% | 196.2hPa | 2.7V | 00:00:00 | 00:00:00 | 00:00:00 | |
| PETON7-10 | 2026-09-05 23:26:41 | 49.08478 | 12.61458 | 127° | 126km/h | 12404m | 4.4m/s | 0°C | 0% | 0hPa | 2.7V | 00:00:00 | 00:00:00 | 00:00:00 | |
| AM1SDL-15 | 2026-09-05 23:26:39 | 49.08516 | 12.61381 | 127° | 126km/h | 12396m | 3.0m/s | -60.1°C | 64.8% | 196.5hPa | 2.7V | 00:00:00 | 01:21:46 | 00:00:00 | |
| DO3MHA-11 | 2026-09-05 23:26:38 | 49.08534 | 12.61344 | 128° | 128km/h | 12392m | 4.4m/s | -60.1°C | 64.6% | 196.7hPa | 2.7V | 00:00:00 | 01:21:45 | 00:00:00 | |
| DL6DJ-15 | 2026-09-05 23:26:37 | 49.08553 | 12.61308 | 128° | 119km/h | 12388m | 3.6m/s | -60.1°C | 52.2% | 196.9hPa | 2.7V | 00:00:00 | 00:00:00 | 00:00:00 | |
| OE5MMP-10 | 2026-09-05 23:26:36 | 49.08572 | 12.61271 | 129° | 128km/h | 12385m | 2.6m/s | -60.0°C | 64.3% | 196.9hPa | 2.7V | 00:00:00 | 01:21:43 | 00:00:00 | |
| EDDB2-11 | 2026-09-05 23:26:33 | 49.08649 | 12.61113 | 125° | 131km/h | 12370m | 3.6m/s | -59.9°C | 50.9% | 197.4hPa | 2.7V | 00:00:00 | 00:00:00 | 00:00:00 | |
| OE5WHR-10 | 2026-09-05 23:26:32 | 49.08649 | 12.61113 | 126° | 128km/h | 12370m | 3.5m/s | -59.8°C | 63.2% | 197.3hPa | 2.7V | 00:00:00 | 00:00:00 | 00:00:00 | |
| DO3MHA-11 | 2026-09-05 23:26:28 | 49.08727 | 12.60951 | 126° | 126km/h | 12356m | 3.9m/s | -59.7°C | 62.3% | 197.8hPa | 2.7V | 00:00:00 | 01:21:35 | 00:00:00 | |
| AM1SDL-15 | 2026-09-05 23:26:27 | 49.08746 | 12.60912 | 126° | 126km/h | 12352m | 3.6m/s | -59.7°C | 62.3% | 197.9hPa | 2.7V | 00:00:00 | 01:21:34 | 00:00:00 | |
| PETON7-10 | 2026-09-05 23:26:26 | 49.08764 | 12.60873 | 127° | 126km/h | 12349m | 3.8m/s | 0°C | 0% | 0hPa | 2.7V | 04:41:00 | 01:21:33 | 00:00:00 | |
| PG1ADW-2 | 2026-09-05 23:26:22 | 49.08841 | 12.60719 | 128° | 126km/h | 12332m | 3.9m/s | -59.5°C | 62.2% | 198.6hPa | 2.7V | 00:00:00 | 00:00:00 | 00:00:00 | |
| OE5DRO-10 | 2026-09-05 23:26:17 | 49.08941 | 12.60528 | 129° | 126km/h | 12312m | 3.9m/s | -59.3°C | 61.6% | 199.2hPa | 2.7V | 00:00:00 | 00:00:00 | 00:00:00 | |
| OE5MMP-10 | 2026-09-05 23:26:16 | 49.08961 | 12.60490 | 128° | 126km/h | 12308m | 3.5m/s | -59.2°C | 61.4% | 199.4hPa | 2.7V | 00:00:00 | 01:21:23 | 00:00:00 | |
| AM1SDL-15 | 2026-09-05 23:26:15 | 49.08980 | 12.60451 | 128° | 126km/h | 12304m | 4.9m/s | -59.2°C | 61.2% | 199.5hPa | 2.7V | 00:00:00 | 01:21:22 | 00:00:00 | |
| OE5DXL-15 | 2026-09-05 23:26:12 | 49.09038 | 12.60334 | 126° | 128km/h | 12292m | 5.0m/s | -59.1°C | 61.0% | 199.9hPa | 2.7V | 00:00:00 | 00:00:00 | 00:00:00 | |
| PETON7-10 | 2026-09-05 23:26:11 | 49.09056 | 12.60295 | 126° | 126km/h | 12288m | 3.5m/s | 0°C | 0% | 0hPa | 2.7V | 00:00:00 | 00:00:00 | 00:00:00 | |
| DO3MHA-11 | 2026-09-05 23:26:08 | 49.09113 | 12.60179 | 129° | 128km/h | 12276m | 3.3m/s | -58.9°C | 61.5% | 200.4hPa | 2.7V | 04:41:00 | 01:21:15 | 00:00:00 | |
| OE5MMP-10 | 2026-09-05 23:26:06 | 49.09153 | 12.60103 | 129° | 126km/h | 12268m | 4.8m/s | -58.8°C | 60.7% | 200.6hPa | 2.7V | 00:00:00 | 01:21:13 | 00:00:00 | |
| OE5HKT-10 | 2026-09-05 23:26:05 | 49.09173 | 12.60064 | 129° | 128km/h | 12264m | 3.3m/s | 0°C | 0% | 0hPa | 2.7V | 00:00:00 | 00:00:00 | 00:00:00 | |
| EDDB2-11 | 2026-09-05 23:26:02 | 49.09255 | 12.59910 | 127° | 126km/h | 12247m | 4.7m/s | -58.7°C | 49.0% | 201.3hPa | 2.7V | 00:00:00 | 00:00:00 | 00:00:00 | |
| DO3MHA-11 | 2026-09-05 23:25:58 | 49.09310 | 12.59793 | 125° | 126km/h | 12235m | 4.9m/s | -58.6°C | 60.3% | 201.7hPa | 2.7V | 00:00:00 | 01:21:05 | 00:00:00 | |
| OE5MMP-10 | 2026-09-05 23:25:56 | 49.09345 | 12.59713 | 125° | 126km/h | 12226m | 3.7m/s | -58.5°C | 61.8% | 202.0hPa | 2.7V | 00:00:00 | 01:21:03 | 00:00:00 | |
| PETON7-10 | 2026-09-05 23:25:51 | 49.09444 | 12.59524 | 135° | 128km/h | 12204m | 4.0m/s | 0°C | 0% | 0hPa | 2.7V | 00:00:00 | 00:00:00 | 00:00:00 | |
| OE5WHR-10 | 2026-09-05 23:25:50 | 49.09467 | 12.59489 | 136° | 126km/h | 12200m | 5.1m/s | -58.2°C | 60.0% | 202.8hPa | 2.7V | 00:00:00 | 00:00:00 | 00:00:00 | |
| AM1SDL-15 | 2026-09-05 23:25:47 | 49.09534 | 12.59382 | 131° | 128km/h | 12187m | 7.4m/s | -58.1°C | 57.6% | 203.2hPa | 2.7V | 04:41:00 | 01:20:54 | 00:00:00 | |
| OE5MMP-10 | 2026-09-05 23:25:46 | 49.09554 | 12.59343 | 128° | 128km/h | 12180m | 6.2m/s | -58.0°C | 57.3% | 203.5hPa | 2.7V | 00:00:00 | 01:20:53 | 00:00:00 | |
| OE5HKT-10 | 2026-09-05 23:25:44 | 49.09593 | 12.59262 | 125° | 126km/h | 12168m | 6.7m/s | 0°C | 0% | 0hPa | 2.7V | 00:00:00 | 01:20:51 | 00:00:00 | |
| DO3MHA-11 | 2026-09-05 23:25:43 | 49.09612 | 12.59221 | 126° | 126km/h | 12160m | 7.7m/s | -57.8°C | 55.5% | 204.0hPa | 2.7V | 00:00:00 | 01:20:50 | 00:00:00 | |
| PG1ADW-2 | 2026-09-05 23:25:42 | 49.09632 | 12.59182 | 129° | 124km/h | 12153m | 6.9m/s | 0°C | 0% | 0hPa | 2.7V | 04:41:00 | 00:00:00 | 00:00:00 | |
| OE5DRO-10 | 2026-09-05 23:25:39 | 49.09695 | 12.59074 | 133° | 126km/h | 12138m | 4.0m/s | -57.6°C | 55.8% | 204.8hPa | 2.7V | 04:41:00 | 00:00:00 | 00:00:00 | |
| PETON7-10 | 2026-09-05 23:25:36 | 49.09757 | 12.58964 | 129° | 124km/h | 12123m | 3.7m/s | 0°C | 0% | 0hPa | 2.7V | 00:00:00 | 01:20:43 | 00:00:00 | |
| DL6DJ-15 | 2026-09-05 23:25:35 | 49.09776 | 12.58925 | 126° | 128km/h | 12119m | 3.9m/s | -57.5°C | 45.1% | 205.4hPa | 2.7V | 00:00:00 | 00:00:00 | 00:00:00 | |
| SONDE2-11 | 2026-09-05 23:25:34 | 49.09796 | 12.58886 | 127° | 126km/h | 12115m | 4.9m/s | -57.5°C | 44.7% | 205.6hPa | 2.7V | 00:00:00 | 00:00:00 | 00:00:00 | |
| DO3MHA-11 | 2026-09-05 23:25:33 | 49.09815 | 12.58847 | 129° | 122km/h | 12110m | 5.6m/s | -57.4°C | 55.3% | 205.7hPa | 2.7V | 00:00:00 | 01:20:40 | 00:00:00 | |
| EDDB2-11 | 2026-09-05 23:25:31 | 49.09875 | 12.58739 | 130° | 122km/h | 12096m | 3.6m/s | -57.4°C | 44.8% | 206.2hPa | 2.7V | 00:00:00 | 00:00:00 | 00:00:00 | |
| OE5WHR-10 | 2026-09-05 23:25:29 | 49.09895 | 12.58703 | 131° | 126km/h | 12092m | 5.2m/s | -57.3°C | 54.9% | 206.3hPa | 2.7V | 04:41:00 | 00:00:00 | 00:00:00 | |
| OE5MMP-10 | 2026-09-05 23:25:26 | 49.09955 | 12.58593 | 129° | 128km/h | 12078m | 5.6m/s | -57.1°C | 54.3% | 206.7hPa | 2.7V | 00:00:00 | 01:20:33 | 00:00:00 | |
| DO3MHA-11 | 2026-09-05 23:25:23 | 49.10013 | 12.58481 | 128° | 128km/h | 12065m | 5.5m/s | -57.0°C | 53.4% | 207.2hPa | 2.7V | 00:00:00 | 01:20:30 | 00:00:00 | |
| PG1ADW-2 | 2026-09-05 23:25:22 | 49.10034 | 12.58442 | 128° | 126km/h | 12059m | 4.8m/s | 0°C | 0% | 0hPa | 2.7V | 00:00:00 | 00:00:00 | 00:00:00 | |
| PETON7-10 | 2026-09-05 23:25:21 | 49.10054 | 12.58402 | 129° | 128km/h | 12055m | 3.7m/s | 0°C | 0% | 0hPa | 2.7V | 00:00:00 | 00:00:00 | 00:00:00 | |
| OE5DRO-10 | 2026-09-05 23:25:20 | 49.10075 | 12.58362 | 129° | 128km/h | 12051m | 5.3m/s | -56.9°C | 53.8% | 207.6hPa | 2.7V | 00:00:00 | 00:00:00 | 00:00:00 | |
| OE5MMP-10 | 2026-09-05 23:25:16 | 49.10159 | 12.58215 | 133° | 128km/h | 12033m | 4.6m/s | -56.8°C | 53.3% | 208.2hPa | 2.7V | 00:00:00 | 01:20:23 | 00:00:00 | |
| DO3MHA-11 | 2026-09-05 23:25:13 | 49.10221 | 12.58108 | 130° | 128km/h | 12020m | 4.1m/s | -56.7°C | 52.1% | 208.6hPa | 2.7V | 04:42:00 | 01:20:20 | 00:00:00 | |
| OE5DXL-15 | 2026-09-05 23:25:12 | 49.10241 | 12.58071 | 129° | 128km/h | 12016m | 3.5m/s | -56.7°C | 51.9% | 208.7hPa | 2.7V | 04:42:00 | 00:00:00 | 00:00:00 | |
| AM1SDL-15 | 2026-09-05 23:25:11 | 49.10261 | 12.58033 | 130° | 128km/h | 12012m | 4.6m/s | -56.7°C | 51.5% | 208.9hPa | 2.7V | 00:00:00 | 01:20:18 | 00:00:00 | |
| DO9HM | 2026-09-05 23:25:09 | 49.10282 | 12.57995 | 131° | 130km/h | 12007m | 4.8m/s | -56.7°C | 41.9% | 209.1hPa | 2.7V | 04:42:00 | 00:00:00 | 00:00:00 | |
| OE5WHR-10 | 2026-09-05 23:25:08 | 49.10326 | 12.57919 | 132° | 128km/h | 11999m | 3.6m/s | -56.6°C | 51.4% | 209.3hPa | 2.7V | 00:00:00 | 01:20:15 | 00:00:00 | |
| OE5MMP-10 | 2026-09-05 23:25:06 | 49.10370 | 12.57844 | 132° | 126km/h | 11990m | 4.1m/s | -56.5°C | 51.1% | 209.6hPa | 2.7V | 00:00:00 | 01:20:13 | 00:00:00 | |
| PETON7-10 | 2026-09-05 23:25:04 | 49.10413 | 12.57772 | 134° | 128km/h | 11981m | 4.9m/s | 0°C | 0% | 0hPa | 2.7V | 04:42:00 | 00:00:00 | 00:00:00 | |
| DO3MHA-11 | 2026-09-05 23:25:03 | 49.10435 | 12.57737 | 134° | 128km/h | 11977m | 3.8m/s | -56.4°C | 50.6% | 210.0hPa | 2.7V | 00:00:00 | 01:20:10 | 00:00:00 | |
| OE5HKT-10 | 2026-09-05 23:25:02 | 49.10456 | 12.57702 | 133° | 128km/h | 11973m | 4.1m/s | 0°C | 0% | 0hPa | 2.7V | 04:42:00 | 00:00:00 | 00:00:00 | |
| EDDB2-11 | 2026-09-05 23:25:00 | 49.10520 | 12.57597 | 132° | 126km/h | 11961m | 4.3m/s | -56.4°C | -1.0% | 210.6hPa | 2.7V | 00:00:00 | 00:00:00 | 00:00:00 | |
| AM1SDL-15 | 2026-09-05 23:24:59 | 49.10520 | 12.57597 | 133° | 128km/h | 11961m | 4.3m/s | -56.3°C | 49.8% | 210.5hPa | 2.7V | 00:00:00 | 01:20:06 | 00:00:00 | |
| OE5MMP-10 | 2026-09-05 23:24:56 | 49.10588 | 12.57487 | 134° | 128km/h | 11949m | 3.8m/s | -56.2°C | 49.5% | 210.9hPa | 2.7V | 00:00:00 | 01:20:03 | 00:00:00 | |
| DO3MHA-11 | 2026-09-05 23:24:53 | 49.10656 | 12.57375 | 134° | 126km/h | 11937m | 3.7m/s | -56.1°C | 49.1% | 211.4hPa | 2.7V | 00:00:00 | 01:20:00 | 00:00:00 | |
| PETON7-10 | 2026-09-05 23:24:49 | 49.10745 | 12.57236 | 134° | 128km/h | 11920m | 5.0m/s | 0°C | 0% | 0hPa | 2.7V | 00:00:00 | 01:19:56 | 00:00:00 | |
| DO9HM | 2026-09-05 23:24:48 | 49.10745 | 12.57236 | 135° | 124km/h | 11920m | 5.1m/s | -56.0°C | 38.7% | 212.0hPa | 2.7V | 04:42:00 | 00:00:00 | 00:00:00 | |
| OE5WHR-10 | 2026-09-05 23:24:47 | 49.10788 | 12.57166 | 134° | 128km/h | 11912m | 3.8m/s | -55.9°C | 47.6% | 212.2hPa | 2.7V | 00:00:00 | 00:00:00 | 00:00:00 | |
| OE5MMP-10 | 2026-09-05 23:24:46 | 49.10810 | 12.57131 | 134° | 130km/h | 11907m | 5.1m/s | -55.8°C | 47.4% | 212.4hPa | 2.7V | 04:42:00 | 01:19:53 | 00:00:00 | |
| DO3MHA-11 | 2026-09-05 23:24:43 | 49.10877 | 12.57024 | 134° | 128km/h | 11894m | 3.8m/s | -55.7°C | 47.2% | 212.8hPa | 2.7V | 00:00:00 | 01:19:50 | 00:00:00 | |
| OE5DXL-15 | 2026-09-05 23:24:42 | 49.10899 | 12.56988 | 135° | 130km/h | 11890m | 4.2m/s | -55.7°C | 46.9% | 212.9hPa | 2.7V | 00:00:00 | 00:00:00 | 00:00:00 | |
| PG1ADW-2 | 2026-09-05 23:24:41 | 49.10923 | 12.56951 | 135° | 130km/h | 11885m | 4.8m/s | 0°C | 0% | 0hPa | 2.7V | 00:00:00 | 01:19:48 | 00:00:00 | |
| OE5HKT-10 | 2026-09-05 23:24:37 | 49.11015 | 12.56809 | 135° | 126km/h | 11869m | 3.1m/s | 0°C | 0% | 0hPa | 2.7V | 00:00:00 | 01:19:44 | 00:00:00 | |
| OE5MMP-10 | 2026-09-05 23:24:36 | 49.11038 | 12.56775 | 135° | 128km/h | 11865m | 4.8m/s | -55.5°C | 45.4% | 213.8hPa | 2.7V | 00:00:00 | 01:19:43 | 00:00:00 | |
| AM1SDL-15 | 2026-09-05 23:24:35 | 49.11060 | 12.56740 | 135° | 130km/h | 11860m | 4.6m/s | -55.4°C | 45.5% | 214.0hPa | 2.7V | 00:00:00 | 01:19:42 | 00:00:00 | |
| PETON7-10 | 2026-09-05 23:24:34 | 49.11082 | 12.56706 | 135° | 130km/h | 11856m | 4.0m/s | 0°C | 0% | 0hPa | 2.7V | 00:00:00 | 00:00:00 | 00:00:00 | |
| DL6DJ-15 | 2026-09-05 23:24:33 | 49.11125 | 12.56637 | 132° | 126km/h | 11847m | 3.7m/s | -55.4°C | 36.7% | 214.4hPa | 2.7V | 00:00:00 | 00:00:00 | 00:00:00 | |
| SONDE2-11 | 2026-09-05 23:24:32 | 49.11125 | 12.56637 | 132° | 126km/h | 11847m | 3.7m/s | -55.4°C | 36.7% | 214.4hPa | 2.7V | 00:00:00 | 00:00:00 | 00:00:00 | |
| EDDB2-11 | 2026-09-05 23:24:29 | 49.11217 | 12.56491 | 134° | 133km/h | 11830m | 4.0m/s | 0°C | -1.0% | -1.0hPa | 2.7V | 00:00:00 | 00:00:00 | 00:00:00 | |
| DO9HM | 2026-09-05 23:24:27 | 49.11216 | 12.56491 | 136° | 135km/h | 11831m | 4.0m/s | -55.2°C | 35.6% | 215.0hPa | 2.7V | 00:00:00 | 00:00:00 | 00:00:00 | |
| OE5WHR-10 | 2026-09-05 23:24:26 | 49.11264 | 12.56417 | 135° | 130km/h | 11821m | 3.8m/s | -55.1°C | 43.7% | 215.2hPa | 2.7V | 00:00:00 | 00:00:00 | 00:00:00 | |
| DO3MHA-11 | 2026-09-05 23:24:23 | 49.11336 | 12.56304 | 134° | 130km/h | 11809m | 2.8m/s | -54.9°C | 43.5% | 215.7hPa | 2.7V | 04:43:00 | 01:19:30 | 00:00:00 | |
| PG1ADW-2 | 2026-09-05 23:24:21 | 49.11380 | 12.56228 | 131° | 128km/h | 11801m | 4.7m/s | 0°C | 0% | 0hPa | 2.7V | 00:00:00 | 00:00:00 | 00:00:00 | |
| OE5MMP-10 | 2026-09-05 23:24:16 | 49.11489 | 12.56047 | 137° | 130km/h | 11779m | 3.8m/s | -54.7°C | 41.0% | 216.7hPa | 2.7V | 00:00:00 | 01:19:23 | 00:00:00 | |
| DO3MHA-11 | 2026-09-05 23:24:13 | 49.11562 | 12.55941 | 135° | 128km/h | 11766m | 3.9m/s | -54.5°C | 41.9% | 217.1hPa | 2.7V | 00:00:00 | 01:19:20 | 00:00:00 | |
| AM1SDL-15 | 2026-09-05 23:24:11 | 49.11607 | 12.55868 | 132° | 128km/h | 11758m | 4.4m/s | -54.5°C | 42.2% | 217.4hPa | 2.7V | 00:00:00 | 01:19:18 | 00:00:00 | |
| OE5MMP-10 | 2026-09-05 23:24:06 | 49.11712 | 12.55686 | 133° | 128km/h | 11736m | 5.3m/s | -54.4°C | 42.1% | 218.2hPa | 2.7V | 00:00:00 | 01:19:13 | 00:00:00 | |
| OE5WHR-10 | 2026-09-05 23:24:05 | 49.11735 | 12.55649 | 133° | 128km/h | 11731m | 5.7m/s | -54.3°C | 42.6% | 218.3hPa | 2.7V | 00:00:00 | 01:19:12 | 00:00:00 | |
| OE5DRO-10 | 2026-09-05 23:24:04 | 49.11757 | 12.55612 | 133° | 128km/h | 11726m | 4.0m/s | -54.3°C | 42.8% | 218.5hPa | 2.7V | 04:43:00 | 00:00:00 | 00:00:00 | |
| DO3MHA-11 | 2026-09-05 23:24:03 | 49.11780 | 12.55575 | 134° | 128km/h | 11721m | 4.8m/s | -54.3°C | 42.6% | 218.6hPa | 2.7V | 00:00:00 | 01:19:10 | 00:00:00 | |
| DL6DJ-15 | 2026-09-05 23:24:02 | 49.11824 | 12.55505 | 134° | 124km/h | 11711m | 3.9m/s | -54.5°C | 36.0% | 219.1hPa | 2.7V | 00:00:00 | 00:00:00 | 00:00:00 | |
| PG1ADW-2 | 2026-09-05 23:24:01 | 49.11824 | 12.55505 | 135° | 126km/h | 11712m | 3.8m/s | 0°C | 0% | 0hPa | 2.7V | 00:00:00 | 00:00:00 | 00:00:00 | |
| AM1SDL-15 | 2026-09-05 23:23:59 | 49.11868 | 12.55436 | 134° | 130km/h | 11702m | 4.8m/s | -54.5°C | 45.1% | 219.3hPa | 2.7V | 00:00:00 | 01:19:06 | 00:00:00 | |
| OE5MMP-10 | 2026-09-05 23:23:56 | 49.11932 | 12.55327 | 131° | 130km/h | 11691m | 4.8m/s | -54.4°C | 44.3% | 219.7hPa | 2.7V | 04:43:00 | 01:19:03 | 00:00:00 | |
| DO3MHA-11 | 2026-09-05 23:23:53 | 49.11996 | 12.55211 | 131° | 130km/h | 11677m | 3.7m/s | -54.3°C | 43.8% | 220.1hPa | 2.7V | 00:00:00 | 01:19:00 | 00:00:00 | |
| OE5HKT-10 | 2026-09-05 23:23:50 | 49.12063 | 12.55094 | 132° | 126km/h | 11666m | 4.4m/s | 0°C | 0% | 0hPa | 2.7V | 00:00:00 | 00:00:00 | 00:00:00 | |
| AM1SDL-15 | 2026-09-05 23:23:47 | 49.12127 | 12.54984 | 132° | 126km/h | 11654m | 4.4m/s | -54.1°C | 42.1% | 220.9hPa | 2.7V | 04:43:00 | 01:18:54 | 00:00:00 | |
| OE5MMP-10 | 2026-09-05 23:23:46 | 49.12148 | 12.54948 | 133° | 126km/h | 11650m | 3.8m/s | -54.1°C | 41.7% | 221.1hPa | 2.7V | 00:00:00 | 01:18:53 | 00:00:00 | |
| OE5DRO-10 | 2026-09-05 23:23:45 | 49.12169 | 12.54912 | 133° | 124km/h | 11646m | 3.9m/s | -54.0°C | 41.3% | 221.2hPa | 2.7V | 00:00:00 | 00:00:00 | 00:00:00 | |
| OE5WHR-10 | 2026-09-05 23:23:44 | 49.12191 | 12.54877 | 134° | 124km/h | 11642m | 4.5m/s | -54.0°C | 41.2% | 221.3hPa | 2.7V | 04:43:00 | 00:00:00 | 00:00:00 | |
| DO3MHA-11 | 2026-09-05 23:23:43 | 49.12212 | 12.54842 | 133° | 124km/h | 11637m | 3.8m/s | -54.0°C | 41.2% | 221.5hPa | 2.7V | 00:00:00 | 01:18:50 | 00:00:00 | |
| OE5DXL-15 | 2026-09-05 23:23:42 | 49.12233 | 12.54806 | 132° | 124km/h | 11634m | 4.1m/s | -53.9°C | 40.9% | 221.6hPa | 2.7V | 00:00:00 | 00:00:00 | 00:00:00 | |
| OE5MMP-10 | 2026-09-05 23:23:36 | 49.12353 | 12.54574 | 129° | 120km/h | 11608m | 4.4m/s | -53.7°C | 39.6% | 222.5hPa | 2.7V | 00:00:00 | 01:18:43 | 00:00:00 | |
| AM1SDL-15 | 2026-09-05 23:23:35 | 49.12372 | 12.54538 | 130° | 120km/h | 11603m | 5.0m/s | -53.6°C | 39.2% | 222.6hPa | 2.7V | 00:00:00 | 01:18:42 | 00:00:00 | |
| DO3MHA-11 | 2026-09-05 23:23:33 | 49.12411 | 12.54468 | 132° | 122km/h | 11593m | 4.4m/s | -53.5°C | 39.4% | 223.0hPa | 2.7V | 04:43:00 | 01:18:40 | 00:00:00 | |
| DL6DJ-15 | 2026-09-05 23:23:31 | 49.12472 | 12.54362 | 130° | 120km/h | 11582m | 4.3m/s | -53.5°C | 31.2% | 223.4hPa | 2.7V | 00:00:00 | 00:00:00 | 00:00:00 | |
| OE5HKT-10 | 2026-09-05 23:23:29 | 49.12492 | 12.54327 | 131° | 120km/h | 11578m | 4.5m/s | 0°C | 0% | 0hPa | 2.7V | 00:00:00 | 01:18:36 | 00:00:00 | |
| OE5MMP-10 | 2026-09-05 23:23:26 | 49.12550 | 12.54217 | 129° | 124km/h | 11564m | 5.2m/s | -53.2°C | 38.0% | 224.0hPa | 2.7V | 00:00:00 | 01:18:33 | 00:00:00 | |
| DO9HM | 2026-09-05 23:23:25 | 49.12549 | 12.54217 | 130° | 124km/h | 11564m | 5.2m/s | -53.3°C | 30.7% | 224.0hPa | 2.7V | 04:44:00 | 00:00:00 | 00:00:00 | |
| DO3MHA-11 | 2026-09-05 23:23:23 | 49.12609 | 12.54103 | 128° | 124km/h | 11550m | 5.2m/s | -53.1°C | 37.8% | 224.5hPa | 2.7V | 00:00:00 | 01:18:30 | 00:00:00 | |
| AM1SDL-15 | 2026-09-05 23:23:22 | 49.12628 | 12.54065 | 128° | 122km/h | 11546m | 3.2m/s | -53.1°C | 38.1% | 224.6hPa | 2.7V | 00:00:00 | 01:18:29 | 00:00:00 | |
| PETON7-10 | 2026-09-05 23:23:18 | 49.12706 | 12.53914 | 130° | 122km/h | 11531m | 3.9m/s | 0°C | 0% | 0hPa | 2.7V | 00:00:00 | 01:18:25 | 00:00:00 | |
| OE5MMP-10 | 2026-09-05 23:23:16 | 49.12745 | 12.53842 | 129° | 122km/h | 11522m | 4.6m/s | -52.9°C | 36.4% | 225.5hPa | 2.7V | 00:00:00 | 01:18:23 | 00:00:00 | |
| DO3MHA-11 | 2026-09-05 23:23:13 | 49.12802 | 12.53732 | 129° | 122km/h | 11509m | 4.0m/s | -52.7°C | 35.9% | 226.0hPa | 2.7V | 00:00:00 | 01:18:20 | 00:00:00 | |
| OE5DXL-15 | 2026-09-05 23:23:12 | 49.12821 | 12.53694 | 129° | 122km/h | 11505m | 3.5m/s | -52.7°C | 35.5% | 226.1hPa | 2.7V | 00:00:00 | 00:00:00 | 00:00:00 | |
| AM1SDL-15 | 2026-09-05 23:23:10 | 49.12859 | 12.53621 | 129° | 122km/h | 11496m | 4.4m/s | -52.6°C | 34.9% | 226.4hPa | 2.7V | 00:00:00 | 01:18:17 | 00:00:00 | |
| OE5DRO-10 | 2026-09-05 23:23:07 | 49.12916 | 12.53510 | 128° | 122km/h | 11482m | 3.6m/s | -52.5°C | 34.6% | 226.9hPa | 2.7V | 00:00:00 | 00:00:00 | 00:00:00 | |
| OE5MMP-10 | 2026-09-05 23:23:06 | 49.12935 | 12.53472 | 128° | 122km/h | 11479m | 3.6m/s | -52.4°C | 34.3% | 227.1hPa | 2.7V | 04:44:00 | 01:18:13 | 00:00:00 | |
| DO9HM | 2026-09-05 23:23:04 | 49.12954 | 12.53435 | 130° | 122km/h | 11475m | 4.8m/s | -52.4°C | 27.5% | 227.3hPa | 2.9V | 04:44:00 | 00:00:00 | 00:00:00 | |
| DO3MHA-11 | 2026-09-05 23:23:03 | 49.12992 | 12.53362 | 129° | 122km/h | 11466m | 3.9m/s | -52.3°C | 34.0% | 227.5hPa | 2.9V | 00:00:00 | 01:18:10 | 00:00:00 | |
| OE5WHR-10 | 2026-09-05 23:23:02 | 49.13011 | 12.53325 | 128° | 122km/h | 11462m | 4.6m/s | -52.3°C | 33.9% | 227.6hPa | 2.9V | 00:00:00 | 01:18:09 | 00:00:00 | |
| DL6DJ-15 | 2026-09-05 23:23:00 | 49.13069 | 12.53211 | 127° | 122km/h | 11450m | 3.8m/s | -52.2°C | 27.5% | 228.1hPa | 2.9V | 00:00:00 | 00:00:00 | 00:00:00 | |
| AM1SDL-15 | 2026-09-05 23:22:58 | 49.13088 | 12.53173 | 128° | 122km/h | 11446m | 4.4m/s | -52.1°C | 34.3% | 228.1hPa | 2.9V | 00:00:00 | 01:18:05 | 00:00:00 | |
| OE5MMP-10 | 2026-09-05 23:22:56 | 49.13125 | 12.53099 | 128° | 122km/h | 11438m | 4.2m/s | -52.0°C | 34.2% | 228.5hPa | 2.9V | 00:00:00 | 01:18:03 | 00:00:00 | |
| DO3MHA-11 | 2026-09-05 23:22:53 | 49.13181 | 12.52986 | 128° | 122km/h | 11426m | 3.8m/s | -51.9°C | 34.0% | 228.9hPa | 2.9V | 00:00:00 | 01:18:00 | 00:00:00 | |
| DL1JEZ-13 | 2026-09-05 23:22:52 | 49.13181 | 12.52986 | 128° | 120km/h | 11426m | 3.8m/s | 0°C | 0% | 0hPa | 2.9V | 00:00:00 | 00:00:00 | 00:00:00 | |
| OE5DRO-10 | 2026-09-05 23:22:48 | 49.13274 | 12.52801 | 128° | 122km/h | 11407m | 4.0m/s | -51.7°C | 32.9% | 229.6hPa | 2.9V | 00:00:00 | 00:00:00 | 00:00:00 | |
| OE5MMP-10 | 2026-09-05 23:22:46 | 49.13312 | 12.52725 | 129° | 124km/h | 11398m | 4.0m/s | -51.6°C | 32.6% | 229.9hPa | 2.9V | 00:00:00 | 01:17:53 | 00:00:00 | |
| DO9HM | 2026-09-05 23:22:43 | 49.13372 | 12.52612 | 130° | 126km/h | 11385m | 3.9m/s | -51.6°C | 26.1% | 230.4hPa | 2.9V | 04:45:00 | 00:00:00 | 00:00:00 | |
| OE5DXL-15 | 2026-09-05 23:22:42 | 49.13392 | 12.52574 | 130° | 122km/h | 11381m | 5.3m/s | -51.5°C | 32.2% | 230.5hPa | 2.9V | 04:44:00 | 01:17:49 | 00:00:00 | |
| OE5WHR-10 | 2026-09-05 23:22:41 | 49.13412 | 12.52538 | 130° | 120km/h | 11376m | 3.7m/s | -51.4°C | 32.4% | 230.7hPa | 2.9V | 00:00:00 | 00:00:00 | 00:00:00 | |
| AM1SDL-15 | 2026-09-05 23:22:34 | 49.13545 | 12.52282 | 128° | 120km/h | 11347m | 4.7m/s | -51.2°C | 31.8% | 231.7hPa | 2.7V | 00:00:00 | 01:17:41 | 00:00:00 | |
| DO3MHA-11 | 2026-09-05 23:22:33 | 49.13563 | 12.52245 | 127° | 120km/h | 11343m | 4.2m/s | -51.1°C | 32.1% | 231.9hPa | 2.7V | 00:00:00 | 01:17:40 | 00:00:00 | |
| OE5REO-15 | 2026-09-05 23:22:31 | 49.13582 | 12.52207 | 128° | 122km/h | 11339m | 3.2m/s | 0°C | 0% | 0hPa | 2.7V | 00:00:00 | 00:00:00 | 00:00:00 | |
| OE5DRO-10 | 2026-09-05 23:22:29 | 49.13637 | 12.52097 | 128° | 117km/h | 11327m | 4.2m/s | -51.0°C | 31.7% | 232.4hPa | 2.7V | 04:44:00 | 00:00:00 | 00:00:00 | |
| DL6DJ-15 | 2026-09-05 23:22:28 | 49.13656 | 12.52059 | 127° | 120km/h | 11322m | 5.0m/s | -51.0°C | 25.7% | 232.6hPa | 2.7V | 00:00:00 | 00:00:00 | 00:00:00 | |
| OE5MMP-10 | 2026-09-05 23:22:26 | 49.13694 | 12.51984 | 129° | 120km/h | 11315m | 3.7m/s | -50.9°C | 32.0% | 232.9hPa | 2.7V | 00:00:00 | 01:17:33 | 00:00:00 | |
| DO3MHA-11 | 2026-09-05 23:22:23 | 49.13751 | 12.51876 | 129° | 122km/h | 11304m | 3.8m/s | -50.7°C | 31.7% | 233.3hPa | 2.7V | 00:00:00 | 01:17:30 | 00:00:00 | |
| AM1SDL-15 | 2026-09-05 23:22:22 | 49.13769 | 12.51840 | 128° | 122km/h | 11299m | 4.6m/s | -50.7°C | 31.6% | 233.5hPa | 2.7V | 00:00:00 | 01:17:29 | 00:00:00 | |
| OE5WHR-10 | 2026-09-05 23:22:20 | 49.13806 | 12.51768 | 128° | 124km/h | 11291m | 4.0m/s | -50.6°C | 31.3% | 233.8hPa | 2.7V | 00:00:00 | 00:00:00 | 00:00:00 | |
| OE5MMP-10 | 2026-09-05 23:22:16 | 49.13885 | 12.51618 | 130° | 120km/h | 11272m | 4.0m/s | -50.4°C | 31.4% | 234.4hPa | 2.7V | 04:45:00 | 01:17:23 | 00:00:00 | |
| DO3MHA-11 | 2026-09-05 23:22:13 | 49.13947 | 12.51506 | 131° | 119km/h | 11260m | 3.9m/s | -50.3°C | 31.9% | 234.9hPa | 2.7V | 00:00:00 | 01:17:20 | 00:00:00 | |
| OE5DXL-15 | 2026-09-05 23:22:12 | 49.13967 | 12.51469 | 130° | 120km/h | 11256m | 3.6m/s | -50.3°C | 31.9% | 235.0hPa | 2.7V | 00:00:00 | 00:00:00 | 00:00:00 | |
| AM1SDL-15 | 2026-09-05 23:22:10 | 49.14003 | 12.51397 | 126° | 124km/h | 11247m | 4.5m/s | -50.3°C | 32.0% | 235.3hPa | 2.7V | 00:00:00 | 01:17:17 | 00:00:00 | |
| OE5MMP-10 | 2026-09-05 23:22:06 | 49.14067 | 12.51254 | 127° | 128km/h | 11231m | 3.6m/s | -50.1°C | 33.8% | 235.9hPa | 2.7V | 00:00:00 | 01:17:13 | 00:00:00 | |
| DO3MHA-11 | 2026-09-05 23:22:03 | 49.14127 | 12.51138 | 130° | 126km/h | 11218m | 4.4m/s | -50.0°C | 33.0% | 236.4hPa | 2.7V | 00:00:00 | 01:17:10 | 00:00:00 | |
| DO9HM | 2026-09-05 23:22:02 | 49.14149 | 12.51098 | 132° | 137km/h | 11214m | 4.4m/s | -50.0°C | 26.7% | 236.6hPa | 2.7V | 00:00:00 | 00:00:00 | 00:00:00 | |
| DL6DJ-15 | 2026-09-05 23:21:57 | 49.14262 | 12.50919 | 134° | 117km/h | 11189m | 7.4m/s | -49.8°C | 26.4% | 237.4hPa | 2.7V | 00:00:00 | 00:00:00 | 00:00:00 | |
| OE5MMP-10 | 2026-09-05 23:21:56 | 49.14282 | 12.50885 | 131° | 119km/h | 11182m | 6.9m/s | -49.7°C | 32.6% | 237.6hPa | 2.7V | 00:00:00 | 01:17:03 | 00:00:00 | |
| ANDY1245 | 2026-09-05 23:21:54 | 49.14300 | 12.50850 | 127° | 115km/h | 11176m | 5.3m/s | 0°C | 0% | 0hPa | 2.7V | 00:00:00 | 00:00:00 | 00:00:00 | |
| DO3MHA-11 | 2026-09-05 23:21:53 | 49.14333 | 12.50775 | 122° | 119km/h | 11163m | 8.2m/s | -49.5°C | 32.1% | 238.3hPa | 2.7V | 04:45:00 | 01:17:00 | 00:00:00 | |
| OE5MMP-10 | 2026-09-05 23:21:46 | 49.14449 | 12.50508 | 129° | 120km/h | 11121m | 5.6m/s | -49.2°C | 32.4% | 239.8hPa | 2.7V | 00:00:00 | 01:16:53 | 00:00:00 | |
| DO3MHA-11 | 2026-09-05 23:21:43 | 49.14508 | 12.50399 | 130° | 124km/h | 11105m | 6.5m/s | -49.0°C | 32.2% | 240.4hPa | 2.7V | 00:00:00 | 01:16:50 | 00:00:00 | |
| OE5DXL-15 | 2026-09-05 23:21:42 | 49.14527 | 12.50362 | 128° | 117km/h | 11099m | 6.2m/s | -48.9°C | 32.3% | 240.7hPa | 2.7V | 00:00:00 | 00:00:00 | 00:00:00 | |
| DO9HM | 2026-09-05 23:21:41 | 49.14527 | 12.50362 | 129° | 122km/h | 11099m | 6.2m/s | -49.0°C | 26.5% | 240.7hPa | 2.7V | 00:00:00 | 00:00:00 | 00:00:00 | |
| OE5WHR-10 | 2026-09-05 23:21:38 | 49.14598 | 12.50213 | 126° | 117km/h | 11073m | 4.8m/s | -48.7°C | 33.0% | 241.6hPa | 2.7V | 00:00:00 | 00:00:00 | 00:00:00 | |
| OE5MMP-10 | 2026-09-05 23:21:36 | 49.14633 | 12.50134 | 125° | 117km/h | 11060m | 6.1m/s | -48.7°C | 33.7% | 242.1hPa | 2.9V | 00:00:00 | 01:16:43 | 00:00:00 | |
| DO3MHA-11 | 2026-09-05 23:21:33 | 49.14687 | 12.50011 | 125° | 115km/h | 11043m | 6.3m/s | -48.5°C | 34.0% | 242.6hPa | 2.9V | 00:00:00 | 01:16:40 | 00:00:00 | |
| DL6DJ-15 | 2026-09-05 23:21:26 | 49.14809 | 12.49766 | 127° | 115km/h | 11000m | 7.3m/s | -48.4°C | 27.7% | 244.3hPa | 2.9V | 00:00:00 | 00:00:00 | 00:00:00 | |
| OE5MMP-10 | 2026-09-05 23:21:25 | 49.14827 | 12.49731 | 126° | 115km/h | 10994m | 5.4m/s | -48.3°C | 33.0% | 244.5hPa | 2.9V | 04:46:00 | 01:16:32 | 00:00:00 | |
| DO3MHA-11 | 2026-09-05 23:21:23 | 49.14859 | 12.49659 | 124° | 117km/h | 10979m | 5.9m/s | -48.2°C | 32.5% | 245.0hPa | 2.9V | 00:00:00 | 01:16:30 | 00:00:00 | |
| AM1SDL-15 | 2026-09-05 23:21:21 | 49.14890 | 12.49584 | 122° | 115km/h | 10966m | 6.2m/s | 0°C | 0% | 0hPa | 2.9V | 00:00:00 | 01:16:28 | 00:00:00 | |
| DO9HM | 2026-09-05 23:21:20 | 49.14891 | 12.49584 | 123° | 115km/h | 10966m | 6.2m/s | -48.1°C | 26.1% | 245.5hPa | 2.9V | 04:46:00 | 00:00:00 | 00:00:00 | |
| OE5WHR-10 | 2026-09-05 23:21:17 | 49.14953 | 12.49432 | 125° | 117km/h | 10943m | 5.7m/s | -47.8°C | 29.9% | 246.3hPa | 2.9V | 00:00:00 | 00:00:00 | 00:00:00 | |
| DO8TBO-1 | 2026-09-05 23:21:16 | 49.14971 | 12.49395 | 126° | 119km/h | 10939m | 3.2m/s | -47.8°C | 29.0% | 246.5hPa | 2.9V | 00:00:00 | 01:16:23 | 00:00:00 | |
| OE5MMP-10 | 2026-09-05 23:21:15 | 49.14988 | 12.49359 | 127° | 119km/h | 10934m | 6.0m/s | -47.8°C | 27.6% | 246.7hPa | 2.9V | 00:00:00 | 01:16:22 | 00:00:00 | |
| OE5DRO-10 | 2026-09-05 23:21:14 | 49.15005 | 12.49323 | 126° | 119km/h | 10929m | 4.2m/s | -47.7°C | 26.7% | 247.0hPa | 2.9V | 00:00:00 | 00:00:00 | 00:00:00 | |
| DO3MHA-11 | 2026-09-05 23:21:13 | 49.15022 | 12.49287 | 126° | 120km/h | 10923m | 6.6m/s | -47.7°C | 25.1% | 247.1hPa | 2.9V | 00:00:00 | 01:16:20 | 00:00:00 | |
| OE5DXL-15 | 2026-09-05 23:21:12 | 49.15039 | 12.49251 | 126° | 119km/h | 10916m | 6.8m/s | -47.6°C | 24.3% | 247.4hPa | 2.9V | 00:00:00 | 00:00:00 | 00:00:00 | |
| AM1SDL-15 | 2026-09-05 23:21:09 | 49.15088 | 12.49140 | 124° | 120km/h | 10900m | 5.6m/s | 0°C | 0% | 0hPa | 2.9V | 00:00:00 | 01:16:16 | 00:00:00 | |
| OE5MMP-10 | 2026-09-05 23:21:05 | 49.15159 | 12.48980 | 124° | 117km/h | 10881m | 6.1m/s | -47.3°C | 21.8% | 248.8hPa | 2.9V | 00:00:00 | 01:16:12 | 00:00:00 | |
| DO3MHA-11 | 2026-09-05 23:21:03 | 49.15194 | 12.48903 | 125° | 117km/h | 10869m | 5.3m/s | -47.2°C | 20.8% | 249.3hPa | 2.9V | 04:46:00 | 01:16:10 | 00:00:00 | |
| DO9HM | 2026-09-05 23:20:58 | 49.15260 | 12.48761 | 129° | 113km/h | 10846m | 5.0m/s | -47.1°C | 16.2% | 250.2hPa | 2.9V | 04:46:00 | 00:00:00 | 00:00:00 | |
| AM1SDL-15 | 2026-09-05 23:20:57 | 49.15296 | 12.48690 | 128° | 119km/h | 10834m | 5.1m/s | 0°C | 0% | 0hPa | 2.9V | 00:00:00 | 01:16:04 | 00:00:00 | |
| OE5WHR-10 | 2026-09-05 23:20:56 | 49.15315 | 12.48654 | 129° | 119km/h | 10828m | 8.5m/s | -46.8°C | 20.1% | 250.8hPa | 2.9V | 00:00:00 | 01:16:03 | 00:00:00 | |
| OE5MMP-10 | 2026-09-05 23:20:55 | 49.15334 | 12.48616 | 128° | 119km/h | 10822m | 4.7m/s | -46.8°C | 20.0% | 251.1hPa | 2.9V | 00:00:00 | 01:16:02 | 00:00:00 | |
| DO3MHA-11 | 2026-09-05 23:20:53 | 49.15371 | 12.48540 | 126° | 119km/h | 10809m | 4.9m/s | -46.7°C | 19.8% | 251.5hPa | 2.9V | 00:00:00 | 01:16:00 | 00:00:00 | |
| DO8TBO-1 | 2026-09-05 23:20:46 | 49.15488 | 12.48279 | 126° | 120km/h | 10769m | 4.3m/s | -46.3°C | 19.9% | 253.0hPa | 2.9V | 00:00:00 | 01:15:53 | 00:00:00 | |
| AM1SDL-15 | 2026-09-05 23:20:45 | 49.15506 | 12.48242 | 128° | 119km/h | 10764m | 5.7m/s | 0°C | 0% | 0hPa | 2.9V | 00:00:00 | 01:15:52 | 00:00:00 | |
| DO3MHA-11 | 2026-09-05 23:20:43 | 49.15543 | 12.48169 | 128° | 119km/h | 10755m | 5.5m/s | -46.2°C | 20.0% | 253.5hPa | 2.9V | 00:00:00 | 01:15:50 | 00:00:00 | |
| OE5DXL-15 | 2026-09-05 23:20:42 | 49.15562 | 12.48133 | 128° | 120km/h | 10751m | 3.7m/s | -46.2°C | 20.1% | 253.7hPa | 2.7V | 00:00:00 | 00:00:00 | 00:00:00 | |
| OE5MMP-10 | 2026-09-05 23:20:40 | 49.15597 | 12.48062 | 127° | 122km/h | 10741m | 4.8m/s | -46.1°C | 19.9% | 254.0hPa | 2.7V | 00:00:00 | 01:15:47 | 00:00:00 | |
| OE5REO-15 | 2026-09-05 23:20:38 | 49.15615 | 12.48025 | 128° | 117km/h | 10737m | 4.1m/s | 0°C | 0% | 0hPa | 2.7V | 00:00:00 | 00:00:00 | 00:00:00 | |
| OE5DRO-10 | 2026-09-05 23:20:36 | 49.15669 | 12.47917 | 127° | 122km/h | 10723m | 5.2m/s | -45.9°C | 19.9% | 254.7hPa | 2.7V | 00:00:00 | 00:00:00 | 00:00:00 | |
| OE5WHR-10 | 2026-09-05 23:20:35 | 49.15687 | 12.47878 | 126° | 122km/h | 10718m | 4.8m/s | -45.9°C | 19.8% | 255.0hPa | 2.7V | 00:00:00 | 00:00:00 | 00:00:00 | |
| DO3MHA-11 | 2026-09-05 23:20:33 | 49.15723 | 12.47799 | 125° | 120km/h | 10709m | 6.2m/s | -45.8°C | 19.8% | 255.2hPa | 2.9V | 00:00:00 | 01:15:40 | 00:00:00 | |
| OE5MMP-10 | 2026-09-05 23:20:30 | 49.15780 | 12.47683 | 129° | 119km/h | 10694m | 3.6m/s | -45.7°C | 20.6% | 255.8hPa | 2.9V | 04:46:00 | 01:15:37 | 00:00:00 | |
| DL6DJ-15 | 2026-09-05 23:20:24 | 49.15893 | 12.47470 | 125° | 119km/h | 10665m | 6.4m/s | -45.5°C | 16.0% | 257.0hPa | 2.7V | 00:00:00 | 00:00:00 | 00:00:00 | |
| DO3MHA-11 | 2026-09-05 23:20:23 | 49.15910 | 12.47432 | 126° | 120km/h | 10659m | 5.6m/s | -45.4°C | 19.6% | 257.2hPa | 2.7V | 00:00:00 | 01:15:30 | 00:00:00 | |
| AM1SDL-15 | 2026-09-05 23:20:21 | 49.15947 | 12.47358 | 129° | 120km/h | 10647m | 5.4m/s | 0°C | 0% | 0hPa | 2.7V | 00:00:00 | 01:15:28 | 00:00:00 | |
| OE5MMP-10 | 2026-09-05 23:20:20 | 49.15966 | 12.47321 | 129° | 120km/h | 10641m | 6.7m/s | -45.2°C | 19.4% | 257.9hPa | 2.7V | 00:00:00 | 01:15:27 | 00:00:00 | |
| OE5DRO-10 | 2026-09-05 23:20:17 | 49.16025 | 12.47208 | 128° | 117km/h | 10625m | 5.8m/s | -45.0°C | 18.9% | 258.4hPa | 2.7V | 00:00:00 | 00:00:00 | 00:00:00 | |
| DO9HM | 2026-09-05 23:20:16 | 49.16044 | 12.47170 | 127° | 120km/h | 10620m | 5.8m/s | -45.0°C | 15.1% | 258.7hPa | 2.9V | 04:47:00 | 00:00:00 | 00:00:00 | |
| OE5WHR-10 | 2026-09-05 23:20:14 | 49.16078 | 12.47096 | 125° | 117km/h | 10609m | 3.5m/s | -44.9°C | 18.7% | 259.2hPa | 2.9V | 04:47:00 | 00:00:00 | 00:00:00 | |
| DO3MHA-11 | 2026-09-05 23:20:13 | 49.16094 | 12.47059 | 124° | 117km/h | 10604m | 5.9m/s | -44.8°C | 18.5% | 259.4hPa | 2.9V | 04:47:00 | 01:15:20 | 00:00:00 | |
| OE5DXL-15 | 2026-09-05 23:20:12 | 49.16110 | 12.47022 | 125° | 119km/h | 10599m | 4.2m/s | -44.8°C | 18.6% | 259.5hPa | 2.9V | 04:47:00 | 00:00:00 | 00:00:00 | |
| OE5MMP-10 | 2026-09-05 23:20:10 | 49.16143 | 12.46949 | 125° | 117km/h | 10588m | 4.1m/s | -44.7°C | 18.5% | 260.0hPa | 2.9V | 00:00:00 | 01:15:17 | 00:00:00 | |
| AM1SDL-15 | 2026-09-05 23:20:09 | 49.16160 | 12.46911 | 125° | 117km/h | 10583m | 7.9m/s | 0°C | 0% | 0hPa | 2.9V | 00:00:00 | 01:15:16 | 00:00:00 | |
| DO3MHA-11 | 2026-09-05 23:20:03 | 49.16270 | 12.46695 | 131° | 119km/h | 10546m | 5.2m/s | -44.3°C | 18.5% | 261.5hPa | 2.9V | 00:00:00 | 01:15:10 | 00:00:00 | |
| OE5MMP-10 | 2026-09-05 23:20:00 | 49.16326 | 12.46590 | 128° | 120km/h | 10528m | 6.7m/s | -44.3°C | 18.9% | 262.1hPa | 2.9V | 00:00:00 | 01:15:07 | 00:00:00 | |
| OE5DRO-10 | 2026-09-05 23:19:58 | 49.16360 | 12.46517 | 125° | 120km/h | 10515m | 8.1m/s | -44.2°C | 19.3% | 262.7hPa | 2.9V | 04:47:00 | 00:00:00 | 00:00:00 | |
| AM1SDL-15 | 2026-09-05 23:19:57 | 49.16377 | 12.46479 | 124° | 122km/h | 10508m | 5.1m/s | 0°C | 0% | 0hPa | 2.9V | 00:00:00 | 01:15:04 | 00:00:00 | |
| DO9HM | 2026-09-05 23:19:54 | 49.16412 | 12.46401 | 125° | 122km/h | 10495m | 4.7m/s | -44.1°C | 16.2% | 263.5hPa | 2.9V | 04:47:00 | 00:00:00 | 00:00:00 | |
| OE5WHR-10 | 2026-09-05 23:19:53 | 49.16447 | 12.46325 | 127° | 122km/h | 10486m | 4.1m/s | -44.0°C | 20.1% | 263.8hPa | 2.9V | 00:00:00 | 01:15:00 | 00:00:00 | |
| OE5MMP-10 | 2026-09-05 23:19:50 | 49.16503 | 12.46213 | 129° | 120km/h | 10470m | 5.3m/s | 0°C | 0% | 0hPa | 2.9V | 00:00:00 | 01:14:57 | 00:00:00 | |
| DO8TBO-1 | 2026-09-05 23:19:46 | 49.16582 | 12.46062 | 128° | 120km/h | 10449m | 3.9m/s | -43.6°C | 20.1% | 265.4hPa | 2.9V | 00:00:00 | 01:14:53 | 00:00:00 | |
| AM1SDL-15 | 2026-09-05 23:19:45 | 49.16600 | 12.46025 | 128° | 122km/h | 10445m | 6.1m/s | 0°C | 0% | 0hPa | 2.9V | 00:00:00 | 01:14:52 | 00:00:00 | |
| DO3MHA-11 | 2026-09-05 23:19:43 | 49.16637 | 12.45956 | 130° | 122km/h | 10433m | 8.7m/s | -43.4°C | 19.5% | 266.0hPa | 2.9V | 00:00:00 | 01:14:50 | 00:00:00 | |
| OE5DXL-15 | 2026-09-05 23:19:42 | 49.16655 | 12.45922 | 130° | 122km/h | 10427m | 4.6m/s | -43.4°C | 19.7% | 266.3hPa | 2.9V | 00:00:00 | 00:00:00 | 00:00:00 | |
| OE5MMP-10 | 2026-09-05 23:19:40 | 49.16692 | 12.45852 | 128° | 124km/h | 10415m | 4.5m/s | 0°C | 0% | 0hPa | 2.9V | 04:47:00 | 01:14:47 | 00:00:00 | |
| OE5DRO-10 | 2026-09-05 23:19:39 | 49.16711 | 12.45815 | 128° | 122km/h | 10409m | 6.9m/s | -43.2°C | 19.6% | 266.9hPa | 2.9V | 00:00:00 | 00:00:00 | 00:00:00 | |
| DO3MHA-11 | 2026-09-05 23:19:33 | 49.16819 | 12.45575 | 125° | 119km/h | 10377m | 3.5m/s | -43.0°C | 19.7% | 268.1hPa | 2.9V | 00:00:00 | 01:14:40 | 00:00:00 | |
| OE5WHR-10 | 2026-09-05 23:19:32 | 49.16837 | 12.45536 | 126° | 120km/h | 10372m | 7.3m/s | -42.9°C | 19.6% | 268.3hPa | 2.9V | 00:00:00 | 00:00:00 | 00:00:00 | |
| OE5MMP-10 | 2026-09-05 23:19:30 | 49.16873 | 12.45463 | 128° | 119km/h | 10359m | 7.5m/s | 0°C | 0% | 0hPa | 2.9V | 00:00:00 | 01:14:37 | 00:00:00 | |
| DO3MHA-11 | 2026-09-05 23:19:23 | 49.17004 | 12.45211 | 126° | 122km/h | 10324m | 7.2m/s | -42.5°C | 20.7% | 270.3hPa | 2.9V | 04:48:00 | 01:14:30 | 00:00:00 | |
| OE5HKT-10 | 2026-09-05 23:19:22 | 49.17022 | 12.45172 | 126° | 124km/h | 10318m | 5.5m/s | 0°C | 0% | 0hPa | 2.9V | 00:00:00 | 00:00:00 | 00:00:00 | |
| AM1SDL-15 | 2026-09-05 23:19:21 | 49.17040 | 12.45134 | 125° | 122km/h | 10311m | 8.7m/s | 0°C | 0% | 0hPa | 2.9V | 00:00:00 | 01:14:28 | 00:00:00 | |
| OE5MMP-10 | 2026-09-05 23:19:20 | 49.17057 | 12.45096 | 125° | 122km/h | 10304m | 5.0m/s | 0°C | 0% | 0hPa | 2.9V | 00:00:00 | 01:14:27 | 00:00:00 | |
| DO8TBO-1 | 2026-09-05 23:19:16 | 49.17128 | 12.44942 | 125° | 122km/h | 10281m | 6.3m/s | -42.1°C | 20.7% | 272.0hPa | 2.9V | 04:48:00 | 01:14:23 | 00:00:00 | |
| DO9HM | 2026-09-05 23:19:13 | 49.17165 | 12.44863 | 127° | 124km/h | 10270m | 5.6m/s | -42.1°C | 17.0% | 272.4hPa | 2.9V | 00:00:00 | 00:00:00 | 00:00:00 | |
| DO3MHA-11 | 2026-09-05 23:19:12 | 49.17201 | 12.44788 | 127° | 122km/h | 10260m | 6.4m/s | -41.9°C | 20.1% | 272.7hPa | 2.9V | 00:00:00 | 01:14:19 | 00:00:00 | |
| OE5WHR-10 | 2026-09-05 23:19:11 | 49.17219 | 12.44751 | 128° | 120km/h | 10255m | 3.9m/s | -41.9°C | 20.2% | 273.1hPa | 2.9V | 00:00:00 | 00:00:00 | 00:00:00 | |
| OE5MMP-10 | 2026-09-05 23:19:10 | 49.17237 | 12.44716 | 128° | 120km/h | 10250m | 6.6m/s | 0°C | 0% | 0hPa | 2.9V | 00:00:00 | 01:14:17 | 00:00:00 | |
| AM1SDL-15 | 2026-09-05 23:19:09 | 49.17255 | 12.44680 | 128° | 122km/h | 10245m | 3.0m/s | 0°C | 0% | 0hPa | 2.9V | 00:00:00 | 01:14:16 | 00:00:00 | |
| DO3MHA-11 | 2026-09-05 23:19:02 | 49.17390 | 12.44416 | 126° | 120km/h | 10204m | 7.3m/s | -41.4°C | 19.2% | 275.1hPa | 2.9V | 00:00:00 | 01:14:09 | 00:00:00 | |
| DL6DJ-15 | 2026-09-05 23:18:51 | 49.17588 | 12.44001 | 126° | 126km/h | 10146m | 4.4m/s | -40.9°C | 14.6% | 277.5hPa | 2.9V | 00:00:00 | 00:00:00 | 00:00:00 | |
| OE5WHR-10 | 2026-09-05 23:18:50 | 49.17607 | 12.43962 | 127° | 122km/h | 10142m | 4.1m/s | -40.8°C | 17.6% | 277.6hPa | 2.9V | 00:00:00 | 01:13:57 | 00:00:00 | |
| DO8TBO-1 | 2026-09-05 23:18:46 | 49.17678 | 12.43808 | 124° | 126km/h | 10126m | 4.6m/s | -40.6°C | 16.8% | 278.4hPa | 2.9V | 00:00:00 | 01:13:53 | 00:00:00 | |
| AM1SDL-15 | 2026-09-05 23:18:45 | 49.17695 | 12.43771 | 125° | 122km/h | 10121m | 5.9m/s | 0°C | 0% | 0hPa | 2.7V | 00:00:00 | 01:13:52 | 00:00:00 | |
| DO3MHA-11 | 2026-09-05 23:18:42 | 49.17748 | 12.43658 | 127° | 122km/h | 10108m | 3.0m/s | -40.5°C | 16.7% | 279.1hPa | 2.7V | 00:00:00 | 01:13:49 | 00:00:00 | |
| OE5MMP-10 | 2026-09-05 23:18:40 | 49.17785 | 12.43581 | 126° | 124km/h | 10098m | 5.4m/s | 0°C | 0% | 0hPa | 2.7V | 00:00:00 | 01:13:47 | 00:00:00 | |
| AM1SDL-15 | 2026-09-05 23:18:33 | 49.17909 | 12.43308 | 123° | 126km/h | 10060m | 6.0m/s | 0°C | 0% | 0hPa | 2.7V | 00:00:00 | 01:13:40 | 00:00:00 | |
| DO3MHA-11 | 2026-09-05 23:18:32 | 49.17926 | 12.43267 | 124° | 126km/h | 10055m | 4.3m/s | -40.0°C | 15.9% | 281.2hPa | 2.7V | 04:48:00 | 01:13:39 | 00:00:00 | |
| OE5MMP-10 | 2026-09-05 23:18:30 | 49.17961 | 12.43185 | 124° | 119km/h | 10046m | 2.9m/s | 0°C | 0% | 0hPa | 2.7V | 00:00:00 | 01:13:37 | 00:00:00 | |
| OE5WHR-10 | 2026-09-05 23:18:29 | 49.17979 | 12.43145 | 124° | 128km/h | 10041m | 6.2m/s | -39.9°C | 16.2% | 281.8hPa | 2.7V | 04:48:00 | 00:00:00 | 00:00:00 | |
| DO9HM | 2026-09-05 23:18:26 | 49.18013 | 12.43066 | 125° | 122km/h | 10031m | 5.9m/s | -39.9°C | 13.4% | 282.3hPa | 2.7V | 04:49:00 | 00:00:00 | 00:00:00 | |
| OE5DRO-10 | 2026-09-05 23:18:23 | 49.18085 | 12.42904 | 125° | 128km/h | 10009m | 5.7m/s | -39.7°C | 16.0% | 283.2hPa | 2.7V | 04:49:00 | 00:00:00 | 00:00:00 | |
| DO3MHA-11 | 2026-09-05 23:18:22 | 49.18104 | 12.42862 | 126° | 130km/h | 10004m | 5.3m/s | -39.6°C | 16.0% | 283.4hPa | 2.9V | 00:00:00 | 01:13:29 | 00:00:00 | |
| DL6DJ-15 | 2026-09-05 23:18:20 | 49.18143 | 12.42780 | 126° | 131km/h | 9993m | 4.6m/s | -39.6°C | 13.4% | 283.9hPa | 2.9V | 00:00:00 | 00:00:00 | 00:00:00 | |
| DO8TBO-1 | 2026-09-05 23:18:16 | 49.18225 | 12.42624 | 132° | 122km/h | 9972m | 4.7m/s | -39.3°C | 16.3% | 284.7hPa | 2.9V | 00:00:00 | 01:13:23 | 00:00:00 | |
| DO3MHA-11 | 2026-09-05 23:18:12 | 49.18311 | 12.42475 | 129° | 128km/h | 9948m | 5.5m/s | -39.1°C | 16.1% | 285.8hPa | 2.9V | 00:00:00 | 01:13:19 | 00:00:00 | |
| AM1SDL-15 | 2026-09-05 23:18:09 | 49.18368 | 12.42360 | 126° | 124km/h | 9929m | 4.9m/s | 0°C | 0% | 0hPa | 2.9V | 00:00:00 | 01:13:16 | 00:00:00 | |
| OE5WHR-10 | 2026-09-05 23:18:08 | 49.18386 | 12.42321 | 127° | 120km/h | 9923m | 7.1m/s | -38.8°C | 15.7% | 286.8hPa | 2.9V | 00:00:00 | 00:00:00 | 00:00:00 | |
| DO9HM | 2026-09-05 23:18:06 | 49.18426 | 12.42243 | 130° | 130km/h | 9912m | 4.6m/s | -38.8°C | 12.9% | 287.3hPa | 2.9V | 04:49:00 | 00:00:00 | 00:00:00 | |
| OE5DRO-10 | 2026-09-05 23:18:04 | 49.18469 | 12.42165 | 131° | 119km/h | 9900m | 4.1m/s | -38.6°C | 15.7% | 287.7hPa | 2.9V | 00:00:00 | 00:00:00 | 00:00:00 | |
| DO3MHA-11 | 2026-09-05 23:18:02 | 49.18510 | 12.42090 | 130° | 119km/h | 9889m | 5.6m/s | -38.5°C | 15.5% | 288.1hPa | 2.9V | 00:00:00 | 01:13:09 | 00:00:00 | |
| DL6DJ-15 | 2026-09-05 23:17:49 | 49.18767 | 12.41634 | 131° | 115km/h | 9824m | 3.9m/s | -37.9°C | 12.7% | 291.0hPa | 2.9V | 00:00:00 | 00:00:00 | 00:00:00 | |
| OE5WHR-10 | 2026-09-05 23:17:46 | 49.18821 | 12.41535 | 127° | 119km/h | 9806m | 7.8m/s | -37.7°C | 15.0% | 291.6hPa | 2.9V | 00:00:00 | 01:12:53 | 00:00:00 | |
| OE5DRO-10 | 2026-09-05 23:17:45 | 49.18838 | 12.41501 | 127° | 120km/h | 9800m | 4.2m/s | -37.7°C | 15.0% | 291.9hPa | 2.9V | 00:00:00 | 00:00:00 | 00:00:00 | |
| OE5MMP-10 | 2026-09-05 23:17:42 | 49.18893 | 12.41395 | 132° | 122km/h | 9786m | 3.9m/s | 0°C | 0% | 0hPa | 2.9V | 00:00:00 | 01:12:49 | 00:00:00 | |
| DO3MHA-11 | 2026-09-05 23:17:32 | 49.19095 | 12.41042 | 131° | 117km/h | 9735m | 3.4m/s | -37.1°C | 16.1% | 294.7hPa | 2.9V | 00:00:00 | 01:12:39 | 00:00:00 | |
| OE5DRO-10 | 2026-09-05 23:17:26 | 49.19211 | 12.40834 | 131° | 120km/h | 9706m | 6.9m/s | -37.0°C | 17.2% | 295.8hPa | 2.9V | 00:00:00 | 00:00:00 | 00:00:00 | |
| DO9HM | 2026-09-05 23:17:25 | 49.19230 | 12.40800 | 132° | 115km/h | 9700m | 5.9m/s | -37.1°C | 14.4% | 296.1hPa | 2.9V | 04:50:00 | 00:00:00 | 00:00:00 | |
| DL6DJ-15 | 2026-09-05 23:17:22 | 49.19399 | 12.40539 | 134° | 120km/h | 9659m | 6.7m/s | -36.7°C | 13.2% | 297.9hPa | 2.9V | 00:00:00 | 00:00:00 | 00:00:00 | |
| DO8TBO-1 | 2026-09-05 23:17:21 | 49.19421 | 12.40504 | 133° | 120km/h | 9654m | 3.8m/s | -36.6°C | 15.5% | 298.1hPa | 2.9V | 00:00:00 | 01:12:23 | 00:00:00 | |
| DO3MHA-11 | 2026-09-05 23:17:20 | 49.19501 | 12.40359 | 129° | 119km/h | 9632m | 5.2m/s | -36.4°C | 14.5% | 298.9hPa | 2.9V | 00:00:00 | 01:12:19 | 00:00:00 | |
| OE5DRO-10 | 2026-09-05 23:17:16 | 49.19597 | 12.40180 | 130° | 120km/h | 9608m | 4.5m/s | -36.1°C | 13.9% | 300.1hPa | 2.9V | 00:00:00 | 00:00:00 | 00:00:00 | |
| OE5WHR-10 | 2026-09-05 23:17:08 | 49.19653 | 12.40079 | 130° | 120km/h | 9591m | 6.4m/s | -36.0°C | 13.9% | 300.7hPa | 2.9V | 00:00:00 | 00:00:00 | 00:00:00 | |
| DO9HM | 2026-09-05 23:17:05 | 49.19653 | 12.40079 | 131° | 115km/h | 9591m | 6.4m/s | -36.1°C | 11.6% | 300.8hPa | 2.9V | 00:00:00 | 00:00:00 | 00:00:00 | |
| DL6DJ-15 | 2026-09-05 23:16:47 | 49.20027 | 12.39459 | 135° | 119km/h | 9501m | 2.9m/s | -35.5°C | 12.1% | 304.7hPa | 2.9V | 00:00:00 | 00:00:00 | 00:00:00 | |
| DO8TBO-1 | 2026-09-05 23:16:46 | 49.20027 | 12.39459 | 136° | 119km/h | 9502m | 2.9m/s | -35.4°C | 14.4% | 304.7hPa | 2.9V | 04:50:00 | 01:11:53 | 00:00:00 | |
| OE5WHR-10 | 2026-09-05 23:16:43 | 49.20090 | 12.39359 | 132° | 117km/h | 9488m | 6.4m/s | -35.3°C | 14.7% | 305.2hPa | 2.9V | 04:50:00 | 01:11:50 | 00:00:00 | |
| DO3MHA-11 | 2026-09-05 23:16:42 | 49.20109 | 12.39325 | 131° | 117km/h | 9484m | 2.5m/s | -35.3°C | 14.9% | 305.4hPa | 2.9V | 00:00:00 | 01:11:49 | 00:00:00 | |
| DO3MHA-11 | 2026-09-05 23:16:32 | 49.20309 | 12.38989 | 137° | 117km/h | 9434m | 6.0m/s | -35.0°C | 17.0% | 307.7hPa | 2.9V | 00:00:00 | 01:11:39 | 00:00:00 | |
| OE5DRO-10 | 2026-09-05 23:16:29 | 49.20370 | 12.38890 | 131° | 119km/h | 9420m | 3.2m/s | -34.9°C | 17.5% | 308.4hPa | 2.9V | 00:00:00 | 00:00:00 | 00:00:00 | |
| DO3MHA-11 | 2026-09-05 23:16:22 | 49.20505 | 12.38655 | 134° | 120km/h | 9382m | 7.9m/s | -34.6°C | 18.5% | 309.9hPa | 2.9V | 00:00:00 | 01:11:29 | 00:00:00 | |
| DO9HM | 2026-09-05 23:16:21 | 49.20506 | 12.38655 | 135° | 115km/h | 9382m | 7.9m/s | -34.7°C | 16.0% | 310.0hPa | 2.9V | 00:00:00 | 00:00:00 | 00:00:00 | |
| DL6DJ-15 | 2026-09-05 23:16:16 | 49.20655 | 12.38427 | 134° | 126km/h | 9349m | 6.7m/s | -34.5°C | 16.1% | 311.4hPa | 2.9V | 00:00:00 | 00:00:00 | 00:00:00 | |
| DO3MHA-11 | 2026-09-05 23:16:12 | 49.20719 | 12.38322 | 132° | 117km/h | 9334m | 4.8m/s | -34.4°C | 18.2% | 312.0hPa | 2.9V | 00:00:00 | 01:11:19 | 00:00:00 | |
| OE5DRO-10 | 2026-09-05 23:16:10 | 49.20756 | 12.38251 | 127° | 119km/h | 9325m | 6.0m/s | -34.3°C | 18.0% | 312.5hPa | 2.9V | 00:00:00 | 00:00:00 | 00:00:00 | |
| DO3MHA-11 | 2026-09-05 23:16:02 | 49.20908 | 12.37977 | 132° | 119km/h | 9286m | 3.9m/s | -34.0°C | 17.2% | 314.2hPa | 2.9V | 04:51:00 | 01:11:09 | 00:00:00 | |
| DL6DJ-15 | 2026-09-05 23:15:45 | 49.21262 | 12.37343 | 128° | 113km/h | 9197m | 5.9m/s | -33.4°C | 20.1% | 318.2hPa | 2.9V | 00:00:00 | 00:00:00 | 00:00:00 | |
| DO3MHA-11 | 2026-09-05 23:15:42 | 49.21297 | 12.37273 | 126° | 120km/h | 9187m | 6.1m/s | -33.3°C | 23.0% | 318.6hPa | 2.9V | 00:00:00 | 01:10:49 | 00:00:00 | |
| OE5WHR-10 | 2026-09-05 23:15:40 | 49.21330 | 12.37200 | 125° | 124km/h | 9178m | 4.4m/s | 0°C | 0% | 0hPa | 2.7V | 00:00:00 | 01:10:47 | 00:00:00 | |
| DO9HM | 2026-09-05 23:15:39 | 49.21330 | 12.37200 | 126° | 117km/h | 9178m | 4.4m/s | -33.3°C | 20.4% | 319.1hPa | 2.7V | 04:52:00 | 00:00:00 | 00:00:00 | |
| DO3MHA-11 | 2026-09-05 23:15:32 | 49.21498 | 12.36921 | 133° | 124km/h | 9144m | 4.7m/s | -33.0°C | 23.3% | 320.6hPa | 2.7V | 00:00:00 | 01:10:39 | 00:00:00 | |
| DO3MHA-11 | 2026-09-05 23:15:22 | 49.21700 | 12.36551 | 132° | 124km/h | 9097m | 4.7m/s | -32.6°C | 21.4% | 322.7hPa | 2.7V | 00:00:00 | 01:10:29 | 00:00:00 | |
| OE5WHR-10 | 2026-09-05 23:15:19 | 49.21762 | 12.36439 | 130° | 124km/h | 9082m | 3.6m/s | 0°C | 0% | 0hPa | 2.7V | 00:00:00 | 00:00:00 | 00:00:00 | |
| DO8TBO-1 | 2026-09-05 23:15:16 | 49.21822 | 12.36333 | 133° | 122km/h | 9070m | 3.5m/s | -32.4°C | 22.2% | 324.0hPa | 2.7V | 00:00:00 | 01:10:23 | 00:00:00 | |
| OE5DRO-10 | 2026-09-05 23:15:13 | 49.21886 | 12.36227 | 133° | 122km/h | 9059m | 4.8m/s | -32.4°C | 23.3% | 324.5hPa | 2.7V | 04:52:00 | 00:00:00 | 00:00:00 | |
| DO3MHA-11 | 2026-09-05 23:15:12 | 49.21908 | 12.36191 | 132° | 126km/h | 9055m | 4.2m/s | -32.3°C | 23.7% | 324.7hPa | 2.7V | 04:52:00 | 01:10:19 | 00:00:00 | |
| DO3MHA-11 | 2026-09-05 23:15:02 | 49.22110 | 12.35818 | 129° | 120km/h | 9004m | 3.9m/s | -31.9°C | 22.6% | 327.0hPa | 2.9V | 00:00:00 | 01:10:09 | 00:00:00 | |
| DO9HM | 2026-09-05 23:14:59 | 49.22166 | 12.35713 | 132° | 113km/h | 8988m | 6.7m/s | -31.9°C | 19.8% | 327.8hPa | 2.9V | 04:52:00 | 00:00:00 | 00:00:00 | |
| OE5WHR-10 | 2026-09-05 23:14:58 | 49.22185 | 12.35680 | 133° | 126km/h | 8983m | 4.2m/s | 0°C | 0% | 0hPa | 2.9V | 04:52:00 | 00:00:00 | 00:00:00 | |
| OE5DRO-10 | 2026-09-05 23:14:54 | 49.22268 | 12.35540 | 131° | 126km/h | 8965m | 6.5m/s | -31.6°C | 22.5% | 328.8hPa | 2.9V | 00:00:00 | 00:00:00 | 00:00:00 | |
| DO3MHA-11 | 2026-09-05 23:14:52 | 49.22311 | 12.35463 | 131° | 124km/h | 8954m | 7.3m/s | -31.5°C | 22.3% | 329.3hPa | 2.9V | 00:00:00 | 01:09:59 | 00:00:00 | |
| DO8TBO-1 | 2026-09-05 23:14:46 | 49.22425 | 12.35240 | 128° | 126km/h | 8925m | 4.5m/s | -31.3°C | 22.7% | 330.7hPa | 2.9V | 00:00:00 | 01:09:53 | 00:00:00 | |
| DO3MHA-11 | 2026-09-05 23:14:42 | 49.22507 | 12.35089 | 133° | 128km/h | 8902m | 5.2m/s | -31.1°C | 23.3% | 331.7hPa | 2.9V | 00:00:00 | 01:09:49 | 00:00:00 | |
| DO9HM | 2026-09-05 23:14:38 | 49.22574 | 12.34978 | 132° | 128km/h | 8889m | 2.6m/s | -31.0°C | 22.9% | 332.4hPa | 2.9V | 04:52:00 | 00:00:00 | 00:00:00 | |
| OE5DRO-10 | 2026-09-05 23:14:35 | 49.22653 | 12.34826 | 127° | 126km/h | 8872m | 6.6m/s | -30.9°C | 25.7% | 333.1hPa | 2.9V | 00:00:00 | 00:00:00 | 00:00:00 | |
| OE5WHR-10 | 2026-09-05 23:14:34 | 49.22673 | 12.34787 | 129° | 124km/h | 8866m | 4.6m/s | 0°C | 0% | 0hPa | 2.9V | 00:00:00 | 01:09:41 | 00:00:00 | |
| DO3MHA-11 | 2026-09-05 23:14:32 | 49.22715 | 12.34712 | 132° | 124km/h | 8857m | 4.4m/s | -30.8°C | 25.4% | 333.8hPa | 2.9V | 00:00:00 | 01:09:39 | 00:00:00 | |
| DO3MHA-11 | 2026-09-05 23:14:22 | 49.22920 | 12.34353 | 129° | 124km/h | 8812m | 5.2m/s | -30.5°C | 24.7% | 336.0hPa | 2.9V | 04:53:00 | 01:09:29 | 00:00:00 | |
| DO9HM | 2026-09-05 23:14:17 | 49.23005 | 12.34202 | 135° | 124km/h | 8791m | 4.1m/s | -30.4°C | 21.7% | 337.0hPa | 2.9V | 04:53:00 | 00:00:00 | 00:00:00 | |
| OE5DRO-10 | 2026-09-05 23:14:16 | 49.23047 | 12.34134 | 133° | 126km/h | 8783m | 2.9m/s | -30.3°C | 24.5% | 337.4hPa | 2.9V | 00:00:00 | 00:00:00 | 00:00:00 | |
| OE5WHR-10 | 2026-09-05 23:14:12 | 49.23128 | 12.33990 | 128° | 124km/h | 8763m | 5.8m/s | 0°C | 0% | 0hPa | 2.9V | 00:00:00 | 00:00:00 | 00:00:00 | |
| DL6DJ-15 | 2026-09-05 23:14:11 | 49.23147 | 12.33952 | 127° | 122km/h | 8758m | 4.4m/s | -30.1°C | 22.7% | 338.6hPa | 2.9V | 00:00:00 | 00:00:00 | 00:00:00 | |
| DO3MHA-11 | 2026-09-05 23:14:02 | 49.23335 | 12.33615 | 132° | 124km/h | 8718m | 5.5m/s | -29.7°C | 24.5% | 340.4hPa | 2.9V | 00:00:00 | 01:09:09 | 00:00:00 | |
| OE5DRO-10 | 2026-09-05 23:13:57 | 49.23439 | 12.33429 | 127° | 126km/h | 8697m | 3.8m/s | -29.5°C | 24.8% | 341.4hPa | 2.9V | 00:00:00 | 00:00:00 | 00:00:00 | |
| DO3MHA-11 | 2026-09-05 23:13:52 | 49.23530 | 12.33244 | 130° | 128km/h | 8676m | 5.8m/s | -29.3°C | 24.4% | 342.5hPa | 2.9V | 00:00:00 | 01:08:59 | 00:00:00 | |
| OE5WHR-10 | 2026-09-05 23:13:51 | 49.23549 | 12.33209 | 132° | 126km/h | 8670m | 5.3m/s | 0°C | 0% | 0hPa | 2.9V | 00:00:00 | 00:00:00 | 00:00:00 | |
| DO3MHA-11 | 2026-09-05 23:13:42 | 49.23740 | 12.32866 | 128° | 124km/h | 8631m | 2.2m/s | -29.0°C | 25.8% | 344.6hPa | 2.9V | 00:00:00 | 01:08:49 | 00:00:00 | |
| OE5DRO-10 | 2026-09-05 23:13:38 | 49.23816 | 12.32713 | 129° | 126km/h | 8614m | 4.5m/s | -28.8°C | 25.5% | 345.4hPa | 2.9V | 04:53:00 | 00:00:00 | 00:00:00 | |
| DO9HM | 2026-09-05 23:13:36 | 49.23835 | 12.32677 | 131° | 122km/h | 8608m | 7.0m/s | -28.8°C | 23.1% | 345.8hPa | 2.9V | 04:54:00 | 00:00:00 | 00:00:00 | |
| DO3MHA-11 | 2026-09-05 23:13:32 | 49.23939 | 12.32492 | 131° | 126km/h | 8583m | 4.5m/s | -28.6°C | 27.1% | 346.9hPa | 2.9V | 04:53:00 | 01:08:39 | 00:00:00 | |
| OE5WHR-10 | 2026-09-05 23:13:30 | 49.23979 | 12.32416 | 129° | 126km/h | 8576m | 3.0m/s | 0°C | 0% | 0hPa | 2.9V | 00:00:00 | 01:08:37 | 00:00:00 | |
| DO3MHA-11 | 2026-09-05 23:13:22 | 49.24132 | 12.32103 | 129° | 122km/h | 8539m | 4.2m/s | -28.2°C | 28.0% | 349.1hPa | 2.9V | 00:00:00 | 01:08:29 | 00:00:00 | |
| OE5DRO-10 | 2026-09-05 23:13:19 | 49.24193 | 12.31991 | 131° | 122km/h | 8525m | 4.7m/s | -28.1°C | 28.4% | 349.8hPa | 2.9V | 00:00:00 | 00:00:00 | 00:00:00 | |
| DO8TBO-1 | 2026-09-05 23:13:15 | 49.24273 | 12.31851 | 131° | 124km/h | 8506m | 5.8m/s | -27.9°C | 27.9% | 350.6hPa | 2.9V | 00:00:00 | 01:08:22 | 00:00:00 | |
| DO3MHA-11 | 2026-09-05 23:13:12 | 49.24332 | 12.31740 | 130° | 124km/h | 8489m | 4.4m/s | -27.7°C | 27.7% | 351.6hPa | 2.9V | 00:00:00 | 01:08:19 | 00:00:00 | |
| OE5WHR-10 | 2026-09-05 23:13:09 | 49.24394 | 12.31626 | 130° | 122km/h | 8473m | 4.5m/s | 0°C | 0% | 0hPa | 2.7V | 00:00:00 | 00:00:00 | 00:00:00 | |
| DO3MHA-11 | 2026-09-05 23:13:02 | 49.24530 | 12.31373 | 129° | 120km/h | 8432m | 7.3m/s | -27.2°C | 26.6% | 354.3hPa | 2.7V | 00:00:00 | 01:08:09 | 00:00:00 | |
| OE5DRO-10 | 2026-09-05 23:13:00 | 49.24568 | 12.31300 | 128° | 124km/h | 8419m | 4.8m/s | -27.1°C | 26.5% | 355.0hPa | 2.7V | 00:00:00 | 00:00:00 | 00:00:00 | |
| DO9HM | 2026-09-05 23:12:55 | 49.24640 | 12.31153 | 128° | 120km/h | 8396m | 4.5m/s | -26.9°C | 23.9% | 356.2hPa | 2.7V | 04:54:00 | 00:00:00 | 00:00:00 | |
| DO3MHA-11 | 2026-09-05 23:12:52 | 49.24717 | 12.30997 | 128° | 126km/h | 8379m | 4.0m/s | -26.7°C | 26.4% | 357.0hPa | 2.7V | 00:00:00 | 01:07:59 | 00:00:00 | |
| DO8TBO-1 | 2026-09-05 23:12:43 | 49.24893 | 12.30652 | 129° | 124km/h | 8332m | 4.5m/s | -26.3°C | 25.6% | 359.3hPa | 2.7V | 00:00:00 | 01:07:50 | 00:00:00 | |
| DO3MHA-11 | 2026-09-05 23:12:42 | 49.24914 | 12.30613 | 129° | 128km/h | 8326m | 7.5m/s | -26.2°C | 25.3% | 359.5hPa | 2.7V | 04:54:00 | 01:07:49 | 00:00:00 | |
| OE5DRO-10 | 2026-09-05 23:12:41 | 49.24934 | 12.30573 | 128° | 126km/h | 8320m | 3.9m/s | -26.2°C | 25.5% | 359.8hPa | 2.9V | 00:00:00 | 00:00:00 | 00:00:00 | |
| DL6DJ-15 | 2026-09-05 23:12:38 | 49.24994 | 12.30451 | 126° | 128km/h | 8308m | 2.6m/s | -26.1°C | 23.4% | 360.5hPa | 2.9V | 00:00:00 | 00:00:00 | 00:00:00 | |
| DO9HM | 2026-09-05 23:12:34 | 49.25055 | 12.30335 | 130° | 124km/h | 8293m | 7.2m/s | -25.9°C | 23.4% | 361.2hPa | 2.9V | 04:55:00 | 00:00:00 | 00:00:00 | |
| DO3MHA-11 | 2026-09-05 23:12:32 | 49.25112 | 12.30225 | 128° | 124km/h | 8277m | 4.8m/s | -25.8°C | 25.8% | 362.0hPa | 2.9V | 00:00:00 | 01:07:39 | 00:00:00 | |
| DO3MHA-11 | 2026-09-05 23:12:22 | 49.25292 | 12.29836 | 128° | 119km/h | 8228m | 5.1m/s | -25.4°C | 27.4% | 364.4hPa | 2.9V | 00:00:00 | 01:07:29 | 00:00:00 | |
| DO9HM | 2026-09-05 23:12:15 | 49.25427 | 12.29594 | 136° | 122km/h | 8195m | 5.5m/s | -25.3°C | 28.7% | 366.2hPa | 2.9V | 04:55:00 | 00:00:00 | 00:00:00 | |
| DO8TBO-1 | 2026-09-05 23:12:13 | 49.25471 | 12.29527 | 136° | 124km/h | 8184m | 5.2m/s | -25.2°C | 31.8% | 366.6hPa | 2.9V | 00:00:00 | 01:07:20 | 00:00:00 | |
| DO3MHA-11 | 2026-09-05 23:12:12 | 49.25493 | 12.29494 | 137° | 128km/h | 8179m | 4.9m/s | -25.2°C | 31.5% | 366.9hPa | 2.9V | 00:00:00 | 01:07:19 | 00:00:00 | |
| DL6DJ-15 | 2026-09-05 23:12:07 | 49.25601 | 12.29316 | 129° | 130km/h | 8152m | 5.2m/s | -25.2°C | 29.1% | 368.2hPa | 2.9V | 00:00:00 | 00:00:00 | 00:00:00 | |
| OE5DRO-10 | 2026-09-05 23:12:03 | 49.25689 | 12.29162 | 133° | 122km/h | 8133m | 6.4m/s | -25.0°C | 29.8% | 369.2hPa | 2.9V | 04:55:00 | 00:00:00 | 00:00:00 | |
| DO3MHA-11 | 2026-09-05 23:12:02 | 49.25711 | 12.29125 | 133° | 122km/h | 8127m | 4.9m/s | -24.9°C | 29.5% | 369.5hPa | 2.9V | 00:00:00 | 01:07:09 | 00:00:00 | |
| DO9HM | 2026-09-05 23:11:53 | 49.25877 | 12.28848 | 134° | 128km/h | 8093m | 4.5m/s | -24.8°C | 31.0% | 371.4hPa | 2.9V | 04:56:00 | 00:00:00 | 00:00:00 | |
| DO3MHA-11 | 2026-09-05 23:11:52 | 49.25922 | 12.28775 | 134° | 120km/h | 8081m | 7.1m/s | -24.7°C | 33.4% | 371.8hPa | 2.9V | 04:55:00 | 01:06:59 | 00:00:00 | |
| OE5DRO-10 | 2026-09-05 23:11:44 | 49.26086 | 12.28498 | 134° | 122km/h | 8038m | 5.0m/s | -24.4°C | 32.3% | 374.0hPa | 2.9V | 00:00:00 | 00:00:00 | 00:00:00 | |
| DO8TBO-1 | 2026-09-05 23:11:43 | 49.26105 | 12.28467 | 134° | 124km/h | 8033m | 5.3m/s | -24.3°C | 31.9% | 374.3hPa | 2.9V | 00:00:00 | 01:06:50 | 00:00:00 | |
| DO3MHA-11 | 2026-09-05 23:11:42 | 49.26125 | 12.28435 | 134° | 122km/h | 8028m | 4.9m/s | -24.3°C | 31.7% | 374.5hPa | 2.9V | 00:00:00 | 01:06:49 | 00:00:00 | |
| DL6DJ-15 | 2026-09-05 23:11:36 | 49.26243 | 12.28225 | 129° | 130km/h | 7993m | 4.3m/s | -24.0°C | 28.9% | 376.3hPa | 2.9V | 00:00:00 | 00:00:00 | 00:00:00 | |
| DO9HM | 2026-09-05 23:11:34 | 49.26286 | 12.28149 | 132° | 128km/h | 7984m | 4.8m/s | -23.9°C | 28.9% | 376.8hPa | 2.9V | 04:56:00 | 00:00:00 | 00:00:00 | |
| DO3MHA-11 | 2026-09-05 23:11:32 | 49.26327 | 12.28077 | 132° | 128km/h | 7975m | 6.4m/s | -23.8°C | 31.0% | 377.2hPa | 2.9V | 00:00:00 | 01:06:39 | 00:00:00 | |
| OE5DRO-10 | 2026-09-05 23:11:25 | 49.26484 | 12.27829 | 135° | 128km/h | 7938m | 5.2m/s | -23.5°C | 33.0% | 379.2hPa | 2.9V | 00:00:00 | 00:00:00 | 00:00:00 | |
| DO3MHA-11 | 2026-09-05 23:11:22 | 49.26550 | 12.27718 | 131° | 124km/h | 7924m | 3.3m/s | -23.4°C | 33.6% | 379.9hPa | 2.9V | 00:00:00 | 01:06:29 | 00:00:00 | |
| DO8TBO-1 | 2026-09-05 23:11:13 | 49.26743 | 12.27398 | 138° | 120km/h | 7878m | 5.1m/s | -23.0°C | 33.1% | 382.3hPa | 2.9V | 04:56:00 | 01:06:20 | 00:00:00 | |
| DO3MHA-11 | 2026-09-05 23:11:12 | 49.26765 | 12.27367 | 139° | 122km/h | 7872m | 5.6m/s | -23.0°C | 33.1% | 382.5hPa | 2.9V | 00:00:00 | 01:06:19 | 00:00:00 | |
| OE5DRO-10 | 2026-09-05 23:11:06 | 49.26895 | 12.27169 | 135° | 120km/h | 7848m | 3.1m/s | -22.8°C | 33.8% | 383.8hPa | 2.9V | 00:00:00 | 00:00:00 | 00:00:00 | |
| DL6DJ-15 | 2026-09-05 23:11:05 | 49.26940 | 12.27103 | 137° | 122km/h | 7837m | 4.4m/s | -22.8°C | 31.3% | 384.4hPa | 2.9V | 00:00:00 | 00:00:00 | 00:00:00 | |
| DO3MHA-11 | 2026-09-05 23:11:02 | 49.26987 | 12.27040 | 140° | 119km/h | 7829m | 5.1m/s | -22.6°C | 33.8% | 384.8hPa | 2.9V | 04:56:00 | 01:06:09 | 00:00:00 | |
| DO9HM | 2026-09-05 23:10:53 | 49.27172 | 12.26740 | 132° | 119km/h | 7791m | 3.4m/s | -22.4°C | 30.9% | 386.9hPa | 2.9V | 04:57:00 | 00:00:00 | 00:00:00 | |
| DO3MHA-11 | 2026-09-05 23:10:52 | 49.27192 | 12.26706 | 133° | 120km/h | 7786m | 6.1m/s | -22.3°C | 33.3% | 387.1hPa | 2.9V | 00:00:00 | 01:05:59 | 00:00:00 | |
| OE5DRO-10 | 2026-09-05 23:10:47 | 49.27305 | 12.26548 | 139° | 115km/h | 7762m | 5.7m/s | -22.2°C | 35.4% | 388.3hPa | 2.9V | 00:00:00 | 00:00:00 | 00:00:00 | |
| NBG1-10 | 2026-09-05 23:10:44 | 49.27370 | 12.26452 | 135° | 113km/h | 7748m | 3.3m/s | -22.1°C | 35.4% | 389.1hPa | 2.9V | 00:00:00 | 01:05:51 | 00:00:00 | |
| DO8TBO-1 | 2026-09-05 23:10:43 | 49.27391 | 12.26420 | 135° | 117km/h | 7743m | 6.4m/s | -22.0°C | 35.2% | 389.3hPa | 2.7V | 00:00:00 | 01:05:50 | 00:00:00 | |
| DO3MHA-11 | 2026-09-05 23:10:42 | 49.27411 | 12.26388 | 135° | 117km/h | 7738m | 4.7m/s | -22.0°C | 35.0% | 389.6hPa | 2.9V | 00:00:00 | 01:05:49 | 00:00:00 | |
| DL6DJ-15 | 2026-09-05 23:10:34 | 49.27607 | 12.26118 | 134° | 117km/h | 7693m | 2.8m/s | -21.7°C | 33.5% | 392.1hPa | 2.9V | 00:00:00 | 00:00:00 | 00:00:00 | |
| DO3MHA-11 | 2026-09-05 23:10:32 | 49.27628 | 12.26085 | 136° | 117km/h | 7689m | 6.6m/s | -21.6°C | 35.6% | 392.2hPa | 2.9V | 00:00:00 | 01:05:39 | 00:00:00 | |
| DO9HM | 2026-09-05 23:10:31 | 49.27628 | 12.26085 | 136° | 117km/h | 7689m | 6.7m/s | -21.7°C | 33.1% | 392.3hPa | 2.9V | 04:57:00 | 00:00:00 | 00:00:00 | |
| OE5DRO-10 | 2026-09-05 23:10:28 | 49.27709 | 12.25964 | 139° | 122km/h | 7670m | 3.4m/s | -21.5°C | 36.9% | 393.2hPa | 2.9V | 04:56:00 | 00:00:00 | 00:00:00 | |
| DO3MHA-11 | 2026-09-05 23:10:22 | 49.27847 | 12.25781 | 138° | 120km/h | 7646m | 3.2m/s | -21.3°C | 38.3% | 394.6hPa | 2.9V | 00:00:00 | 01:05:29 | 00:00:00 | |
| DO8TBO-1 | 2026-09-05 23:10:13 | 49.28041 | 12.25486 | 135° | 119km/h | 7604m | 3.3m/s | -21.1°C | 39.4% | 396.9hPa | 2.9V | 00:00:00 | 01:05:20 | 00:00:00 | |
| DO3MHA-11 | 2026-09-05 23:10:12 | 49.28064 | 12.25451 | 137° | 122km/h | 7598m | 7.4m/s | -21.0°C | 39.0% | 397.1hPa | 2.9V | 04:57:00 | 01:05:19 | 00:00:00 | |
| DO9HM | 2026-09-05 23:10:10 | 49.28088 | 12.25418 | 138° | 128km/h | 7592m | 4.9m/s | -21.0°C | 36.3% | 397.4hPa | 2.7V | 04:57:00 | 00:00:00 | 00:00:00 | |
| OE5DRO-10 | 2026-09-05 23:10:09 | 49.28135 | 12.25353 | 140° | 120km/h | 7582m | 6.3m/s | -20.9°C | 38.4% | 397.9hPa | 2.7V | 00:00:00 | 00:00:00 | 00:00:00 | |
| DL6DJ-15 | 2026-09-05 23:10:03 | 49.28292 | 12.25133 | 133° | 124km/h | 7547m | 7.1m/s | -20.7°C | 35.8% | 399.9hPa | 2.7V | 00:00:00 | 00:00:00 | 00:00:00 | |
| DO3MHA-11 | 2026-09-05 23:10:02 | 49.28292 | 12.25133 | 134° | 122km/h | 7547m | 7.0m/s | -20.6°C | 38.4% | 399.8hPa | 2.7V | 00:00:00 | 01:05:09 | 00:00:00 | |
| DO3MHA-11 | 2026-09-05 23:09:52 | 49.28509 | 12.24805 | 133° | 108km/h | 7500m | 3.8m/s | -20.3°C | 39.9% | 402.3hPa | 2.7V | 00:00:00 | 01:04:59 | 00:00:00 | |
| OE5DRO-10 | 2026-09-05 23:09:50 | 49.28546 | 12.24745 | 134° | 111km/h | 7491m | 4.3m/s | -20.2°C | 39.7% | 402.8hPa | 2.7V | 00:00:00 | 00:00:00 | 00:00:00 | |
| DO9HM | 2026-09-05 23:09:49 | 49.28547 | 12.24745 | 135° | 104km/h | 7491m | 4.4m/s | -20.3°C | 37.1% | 402.8hPa | 2.9V | 04:57:00 | 00:00:00 | 00:00:00 | |
| NBG1-10 | 2026-09-05 23:09:48 | 49.28585 | 12.24688 | 139° | 111km/h | 7483m | 3.7m/s | -20.2°C | 40.1% | 403.3hPa | 2.9V | 00:00:00 | 01:04:55 | 00:00:00 | |
| DO8TBO-1 | 2026-09-05 23:09:43 | 49.28689 | 12.24554 | 139° | 115km/h | 7455m | 7.1m/s | -20.0°C | 40.7% | 404.7hPa | 2.9V | 00:00:00 | 01:04:50 | 00:00:00 | |
| DO3MHA-11 | 2026-09-05 23:09:42 | 49.28710 | 12.24524 | 137° | 115km/h | 7449m | 5.4m/s | -20.0°C | 41.7% | 405.2hPa | 2.9V | 00:00:00 | 01:04:49 | 00:00:00 | |
| DL6DJ-15 | 2026-09-05 23:09:32 | 49.28938 | 12.24177 | 135° | 115km/h | 7393m | 6.7m/s | -19.6°C | 39.3% | 408.2hPa | 2.7V | 00:00:00 | 00:00:00 | 00:00:00 | |
| OE5DRO-10 | 2026-09-05 23:09:31 | 49.28938 | 12.24177 | 136° | 113km/h | 7393m | 6.6m/s | -19.6°C | 41.9% | 408.1hPa | 2.7V | 00:00:00 | 00:00:00 | 00:00:00 | |
| DO9HM | 2026-09-05 23:09:29 | 49.28959 | 12.24146 | 137° | 113km/h | 7387m | 5.0m/s | -19.6°C | 39.6% | 408.5hPa | 2.7V | 04:57:00 | 00:00:00 | 00:00:00 | |
| DO3MHA-11 | 2026-09-05 23:09:22 | 49.29134 | 12.23923 | 145° | 115km/h | 7343m | 4.9m/s | -19.3°C | 45.8% | 410.8hPa | 2.7V | 04:58:00 | 01:04:29 | 00:00:00 | |
| DO3MHA-11 | 2026-09-05 23:09:12 | 49.29364 | 12.23653 | 140° | 113km/h | 7289m | 4.4m/s | -19.0°C | 46.9% | 413.9hPa | 2.7V | 00:00:00 | 01:04:19 | 00:00:00 | |
| DO9HM | 2026-09-05 23:09:09 | 49.29407 | 12.23598 | 142° | 111km/h | 7280m | 4.2m/s | -19.0°C | 44.7% | 414.4hPa | 2.9V | 04:58:00 | 00:00:00 | 00:00:00 | |
| NBG1-10 | 2026-09-05 23:09:04 | 49.29540 | 12.23427 | 140° | 115km/h | 7253m | 4.4m/s | -18.7°C | 47.2% | 415.8hPa | 2.9V | 00:00:00 | 01:04:11 | 00:00:00 | |
| DO3MHA-11 | 2026-09-05 23:09:02 | 49.29584 | 12.23369 | 139° | 115km/h | 7246m | 4.2m/s | -18.6°C | 46.9% | 416.3hPa | 2.9V | 00:00:00 | 01:04:09 | 00:00:00 | |
| DL6DJ-15 | 2026-09-05 23:09:00 | 49.29626 | 12.23310 | 136° | 113km/h | 7238m | 4.4m/s | -18.7°C | 44.1% | 416.7hPa | 2.9V | 00:00:00 | 00:00:00 | 00:00:00 | |
| OE5DRO-10 | 2026-09-05 23:08:53 | 49.29783 | 12.23109 | 141° | 115km/h | 7211m | 4.0m/s | -18.4°C | 46.7% | 418.2hPa | 2.9V | 04:58:00 | 00:00:00 | 00:00:00 | |
| DO3MHA-11 | 2026-09-05 23:08:52 | 49.29805 | 12.23080 | 139° | 115km/h | 7208m | 2.6m/s | -18.3°C | 46.8% | 418.5hPa | 2.9V | 00:00:00 | 01:03:59 | 00:00:00 | |
| DB0NH | 2026-09-05 23:08:49 | 49.29869 | 12.22992 | 139° | 115km/h | 7197m | 4.3m/s | -18.2°C | 46.2% | 419.1hPa | 2.9V | 04:58:00 | 01:03:56 | 00:00:00 | |
| DO9HM | 2026-09-05 23:08:48 | 49.29869 | 12.22992 | 140° | 113km/h | 7197m | 4.4m/s | -18.3°C | 43.6% | 419.1hPa | 2.9V | 04:58:00 | 00:00:00 | 00:00:00 | |
| DO3MHA-11 | 2026-09-05 23:08:42 | 49.30021 | 12.22787 | 139° | 115km/h | 7169m | 3.9m/s | -18.0°C | 45.5% | 420.8hPa | 2.9V | 00:00:00 | 01:03:49 | 00:00:00 | |
| OE5DRO-10 | 2026-09-05 23:08:34 | 49.30197 | 12.22560 | 143° | 117km/h | 7139m | 3.2m/s | -17.7°C | 45.1% | 422.4hPa | 2.9V | 00:00:00 | 00:00:00 | 00:00:00 | |
| DO3MHA-11 | 2026-09-05 23:08:32 | 49.30243 | 12.22503 | 140° | 113km/h | 7132m | 3.4m/s | -17.7°C | 45.3% | 422.9hPa | 2.9V | 04:58:00 | 01:03:39 | 00:00:00 | |
| NBG1-10 | 2026-09-05 23:08:31 | 49.30265 | 12.22473 | 138° | 113km/h | 7128m | 4.3m/s | -17.6°C | 45.0% | 423.1hPa | 2.9V | 00:00:00 | 01:03:38 | 00:00:00 | |
| DL6DJ-15 | 2026-09-05 23:08:29 | 49.30308 | 12.22410 | 135° | 115km/h | 7120m | 3.4m/s | -17.7°C | 42.5% | 423.6hPa | 2.9V | 00:00:00 | 00:00:00 | 00:00:00 | |
| DO9HM | 2026-09-05 23:08:27 | 49.30330 | 12.22379 | 137° | 115km/h | 7116m | 5.0m/s | -17.6°C | 42.8% | 423.7hPa | 2.9V | 04:59:00 | 00:00:00 | 00:00:00 | |
| DO3MHA-11 | 2026-09-05 23:08:22 | 49.30456 | 12.22207 | 138° | 122km/h | 7091m | 4.0m/s | -17.4°C | 46.0% | 425.1hPa | 2.9V | 00:00:00 | 01:03:29 | 00:00:00 | |
| DB0NH | 2026-09-05 23:08:19 | 49.30523 | 12.22117 | 140° | 115km/h | 7080m | 3.4m/s | -17.3°C | 45.4% | 425.7hPa | 2.9V | 00:00:00 | 01:03:26 | 00:00:00 | |
| OE5DRO-10 | 2026-09-05 23:08:15 | 49.30617 | 12.21985 | 138° | 111km/h | 7066m | 3.6m/s | -17.2°C | 45.1% | 426.5hPa | 2.9V | 00:00:00 | 00:00:00 | 00:00:00 | |
| DO3MHA-11 | 2026-09-05 23:08:12 | 49.30687 | 12.21890 | 140° | 108km/h | 7049m | 7.6m/s | -17.2°C | 46.1% | 427.4hPa | 2.9V | 00:00:00 | 01:03:19 | 00:00:00 | |
| DO9HM | 2026-09-05 23:08:07 | 49.30772 | 12.21778 | 141° | 106km/h | 7019m | 8.6m/s | -17.0°C | 44.4% | 429.2hPa | 2.9V | 04:59:00 | 00:00:00 | 00:00:00 | |
| DO3MHA-11 | 2026-09-05 23:08:02 | 49.30889 | 12.21618 | 137° | 113km/h | 6986m | 6.3m/s | -16.8°C | 47.0% | 431.0hPa | 2.9V | 00:00:00 | 01:03:09 | 00:00:00 | |
| NBG1-10 | 2026-09-05 23:07:58 | 49.30972 | 12.21496 | 138° | 110km/h | 6963m | 4.1m/s | -16.7°C | 47.8% | 432.4hPa | 2.9V | 04:59:00 | 01:03:05 | 00:00:00 | |
| OE5DRO-10 | 2026-09-05 23:07:56 | 49.31014 | 12.21437 | 139° | 110km/h | 6951m | 5.1m/s | -16.7°C | 48.0% | 433.0hPa | 2.9V | 00:00:00 | 00:00:00 | 00:00:00 | |
| DO3MHA-11 | 2026-09-05 23:07:52 | 49.31101 | 12.21325 | 140° | 110km/h | 6930m | 5.3m/s | -16.6°C | 49.0% | 434.3hPa | 2.9V | 00:00:00 | 01:02:59 | 00:00:00 | |
| DO9HM | 2026-09-05 23:07:47 | 49.31196 | 12.21173 | 133° | 111km/h | 6907m | 4.3m/s | -16.4°C | 46.5% | 435.8hPa | 2.9V | 04:59:00 | 00:00:00 | 00:00:00 | |
| DB0NH | 2026-09-05 23:07:45 | 49.31234 | 12.21113 | 137° | 108km/h | 6896m | 3.9m/s | -16.3°C | 49.0% | 436.4hPa | 2.9V | 00:00:00 | 01:02:52 | 00:00:00 | |
| DO3MHA-11 | 2026-09-05 23:07:42 | 49.31295 | 12.21028 | 138° | 102km/h | 6881m | 4.8m/s | -16.2°C | 48.6% | 437.3hPa | 2.9V | 04:59:00 | 01:02:49 | 00:00:00 | |
| OE5DRO-10 | 2026-09-05 23:07:37 | 49.31393 | 12.20892 | 138° | 108km/h | 6852m | 4.3m/s | -16.0°C | 48.4% | 438.9hPa | 2.9V | 00:00:00 | 00:00:00 | 00:00:00 | |
| DO3MHA-11 | 2026-09-05 23:07:32 | 49.31484 | 12.20758 | 134° | 115km/h | 6825m | 4.6m/s | -15.8°C | 49.6% | 440.4hPa | 2.9V | 00:00:00 | 01:02:39 | 00:00:00 | |
| DL6DJ-15 | 2026-09-05 23:07:27 | 49.31584 | 12.20600 | 135° | 119km/h | 6793m | 8.5m/s | -15.8°C | 48.7% | 442.3hPa | 2.9V | 00:00:00 | 00:00:00 | 00:00:00 | |
| DO9HM | 2026-09-05 23:07:26 | 49.31584 | 12.20600 | 136° | 120km/h | 6793m | 8.5m/s | -15.8°C | 48.7% | 442.3hPa | 2.9V | 05:00:00 | 00:00:00 | 00:00:00 | |
| DO3MHA-11 | 2026-09-05 23:07:22 | 49.31690 | 12.20442 | 137° | 104km/h | 6767m | 4.7m/s | -15.6°C | 51.9% | 443.8hPa | 2.9V | 00:00:00 | 01:02:29 | 00:00:00 | |
| OE5DRO-10 | 2026-09-05 23:07:18 | 49.31767 | 12.20338 | 141° | 106km/h | 6746m | 5.9m/s | -15.5°C | 53.0% | 445.0hPa | 2.9V | 00:00:00 | 00:00:00 | 00:00:00 | |
| NBG1-10 | 2026-09-05 23:07:17 | 49.31787 | 12.20313 | 140° | 99km/h | 6741m | 4.7m/s | -15.5°C | 53.7% | 445.3hPa | 2.9V | 00:00:00 | 01:02:24 | 00:00:00 | |
| DB0NH | 2026-09-05 23:07:13 | 49.31868 | 12.20205 | 138° | 104km/h | 6719m | 5.2m/s | -15.7°C | 53.5% | 446.6hPa | 2.9V | 00:00:00 | 01:02:20 | 00:00:00 | |
| DO3MHA-11 | 2026-09-05 23:07:12 | 49.31889 | 12.20175 | 137° | 108km/h | 6714m | 5.5m/s | -15.7°C | 53.3% | 446.8hPa | 2.9V | 00:00:00 | 01:02:19 | 00:00:00 | |
| DO9HM | 2026-09-05 23:07:06 | 49.32001 | 12.19990 | 130° | 102km/h | 6675m | 6.5m/s | -15.6°C | 49.2% | 449.3hPa | 2.9V | 05:00:00 | 00:00:00 | 00:00:00 | |
| DO3MHA-11 | 2026-09-05 23:07:02 | 49.32070 | 12.19872 | 134° | 95km/h | 6655m | 4.0m/s | -15.4°C | 51.4% | 450.5hPa | 2.9V | 00:00:00 | 01:02:09 | 00:00:00 | |
| DL6DJ-15 | 2026-09-05 23:06:56 | 49.32167 | 12.19700 | 128° | 86km/h | 6627m | 4.1m/s | -15.5°C | 49.1% | 452.3hPa | 2.9V | 00:00:00 | 00:00:00 | 00:00:00 | |
| DO3MHA-11 | 2026-09-05 23:06:52 | 49.32227 | 12.19595 | 133° | 97km/h | 6612m | 4.5m/s | -15.4°C | 52.2% | 453.0hPa | 2.9V | 00:00:00 | 01:01:59 | 00:00:00 | |
| DO9HM | 2026-09-05 23:06:45 | 49.32323 | 12.19381 | 125° | 93km/h | 6575m | 3.9m/s | -15.4°C | 49.9% | 455.3hPa | 2.9V | 05:01:00 | 00:00:00 | 00:00:00 | |
| DO3MHA-11 | 2026-09-05 23:06:42 | 49.32366 | 12.19290 | 127° | 104km/h | 6557m | 7.9m/s | -15.3°C | 50.8% | 456.4hPa | 2.9V | 05:00:00 | 01:01:49 | 00:00:00 | |
| OE5DRO-10 | 2026-09-05 23:06:40 | 49.32397 | 12.19227 | 129° | 100km/h | 6541m | 6.2m/s | -15.2°C | 49.2% | 457.2hPa | 2.9V | 00:00:00 | 00:00:00 | 00:00:00 | |
| DB0NH | 2026-09-05 23:06:38 | 49.32429 | 12.19164 | 129° | 100km/h | 6529m | 6.8m/s | -15.2°C | 48.0% | 457.9hPa | 2.9V | 00:00:00 | 01:01:45 | 00:00:00 | |
| DF3TZ-5 | 2026-09-05 23:06:34 | 49.32494 | 12.19037 | 127° | 106km/h | 6508m | 5.6m/s | -15.3°C | 42.7% | 459.2hPa | 2.9V | 00:00:00 | 00:00:00 | 00:00:00 | |
| DO3MHA-11 | 2026-09-05 23:06:32 | 49.32526 | 12.18970 | 125° | 99km/h | 6498m | 5.1m/s | -15.3°C | 43.1% | 459.9hPa | 2.9V | 00:00:00 | 01:01:39 | 00:00:00 | |
| DL6DJ-15 | 2026-09-05 23:06:25 | 49.32615 | 12.18744 | 119° | 97km/h | 6457m | 5.7m/s | -15.2°C | 32.3% | 462.5hPa | 2.9V | 00:00:00 | 00:00:00 | 00:00:00 | |
| DO9HM | 2026-09-05 23:06:24 | 49.32627 | 12.18710 | 121° | 100km/h | 6452m | 5.3m/s | -15.2°C | 31.6% | 462.8hPa | 2.9V | 05:01:00 | 00:00:00 | 00:00:00 | |
| DO3MHA-11 | 2026-09-05 23:06:22 | 49.32653 | 12.18642 | 121° | 99km/h | 6440m | 4.7m/s | -15.1°C | 32.5% | 463.4hPa | 2.9V | 00:00:00 | 01:01:29 | 00:00:00 | |
| OE5DRO-10 | 2026-09-05 23:06:21 | 49.32666 | 12.18608 | 122° | 97km/h | 6436m | 3.8m/s | -15.1°C | 31.8% | 463.8hPa | 2.9V | 00:00:00 | 00:00:00 | 00:00:00 | |
| OE5DXL-15 | 2026-09-05 23:06:12 | 49.32785 | 12.18317 | 122° | 95km/h | 6385m | 7.4m/s | -14.9°C | 27.9% | 466.9hPa | 2.9V | 05:01:00 | 00:00:00 | 00:00:00 | |
| DB0NH | 2026-09-05 23:06:07 | 49.32846 | 12.18153 | 119° | 91km/h | 6354m | 5.6m/s | -14.7°C | 28.4% | 468.7hPa | 2.9V | 00:00:00 | 01:01:14 | 00:00:00 | |
| NBG1-10 | 2026-09-05 23:06:03 | 49.32892 | 12.18025 | 119° | 89km/h | 6335m | 3.5m/s | -14.5°C | 26.7% | 470.1hPa | 2.9V | 00:00:00 | 01:01:10 | 00:00:00 | |
| DO3MHA-11 | 2026-09-05 23:06:02 | 49.32903 | 12.17995 | 120° | 88km/h | 6330m | 4.9m/s | -14.5°C | 27.4% | 470.3hPa | 2.9V | 00:00:00 | 01:01:09 | 00:00:00 | |
| DL6DJ-15 | 2026-09-05 23:05:54 | 49.32989 | 12.17751 | 122° | 80km/h | 6298m | 2.9m/s | -14.3°C | 28.1% | 472.3hPa | 2.9V | 00:00:00 | 00:00:00 | 00:00:00 | |
| DO3MHA-11 | 2026-09-05 23:05:52 | 49.33012 | 12.17698 | 125° | 99km/h | 6290m | 4.0m/s | -14.2°C | 29.7% | 472.8hPa | 2.9V | 00:00:00 | 01:00:59 | 00:00:00 | |
| OE5DRO-10 | 2026-09-05 23:05:43 | 49.33132 | 12.17402 | 115° | 91km/h | 6236m | 6.5m/s | 0°C | 0% | 0hPa | 2.9V | 00:00:00 | 00:00:00 | 00:00:00 | |
| DO3MHA-11 | 2026-09-05 23:05:42 | 49.33143 | 12.17367 | 114° | 88km/h | 6230m | 5.1m/s | -13.7°C | 27.8% | 476.3hPa | 2.9V | 05:01:00 | 01:00:49 | 00:00:00 | |
| DO9HM | 2026-09-05 23:05:41 | 49.33143 | 12.17367 | 114° | 97km/h | 6230m | 5.2m/s | -13.7°C | 26.4% | 476.4hPa | 2.9V | 05:02:00 | 00:00:00 | 00:00:00 | |
| DO3MHA-11 | 2026-09-05 23:05:32 | 49.33252 | 12.17071 | 126° | 93km/h | 6180m | 6.0m/s | -13.2°C | 19.2% | 479.5hPa | 2.9V | 00:00:00 | 01:00:39 | 00:00:00 | |
| NBG1-10 | 2026-09-05 23:05:30 | 49.33280 | 12.17009 | 125° | 95km/h | 6168m | 6.7m/s | -13.1°C | 18.9% | 480.2hPa | 2.9V | 00:00:00 | 01:00:37 | 00:00:00 | |
| OE5DRO-10 | 2026-09-05 23:05:24 | 49.33353 | 12.16826 | 116° | 97km/h | 6131m | 4.7m/s | 0°C | 0% | 0hPa | 2.9V | 00:00:00 | 00:00:00 | 00:00:00 | |
| DL6DJ-15 | 2026-09-05 23:05:23 | 49.33363 | 12.16793 | 114° | 95km/h | 6126m | 5.6m/s | -12.8°C | 16.7% | 483.0hPa | 2.9V | 00:00:00 | 00:00:00 | 00:00:00 | |
| DO3MHA-11 | 2026-09-05 23:05:22 | 49.33372 | 12.16759 | 113° | 102km/h | 6121m | 6.3m/s | -12.7°C | 17.6% | 483.3hPa | 2.9V | 00:00:00 | 01:00:29 | 00:00:00 | |
| DO9HM | 2026-09-05 23:05:20 | 49.33382 | 12.16725 | 114° | 97km/h | 6115m | 4.9m/s | -12.7°C | 16.6% | 483.7hPa | 2.9V | 05:02:00 | 00:00:00 | 00:00:00 | |
| DO3MHA-11 | 2026-09-05 23:05:12 | 49.33490 | 12.16408 | 122° | 89km/h | 6067m | 5.4m/s | -12.2°C | 10.0% | 486.9hPa | 2.9V | 00:00:00 | 01:00:19 | 00:00:00 | |
| OE5DRO-10 | 2026-09-05 23:05:05 | 49.33578 | 12.16205 | 120° | 95km/h | 6027m | 4.1m/s | 0°C | 0% | 0hPa | 2.7V | 00:00:00 | 00:00:00 | 00:00:00 | |
| DO3MHA-11 | 2026-09-05 23:05:02 | 49.33607 | 12.16113 | 114° | 93km/h | 6012m | 4.1m/s | -11.8°C | 5.9% | 490.3hPa | 2.7V | 00:00:00 | 01:00:09 | 00:00:00 | |
| DF3TZ-5 | 2026-09-05 23:05:01 | 49.33771 | 12.15617 | 116° | 91km/h | 5938m | 5.4m/s | -11.4°C | 4.9% | -1.0hPa | 2.7V | 00:00:00 | 00:00:00 | 00:00:00 | |
| DO9HM | 2026-09-05 23:04:59 | 49.33625 | 12.16050 | 114° | 91km/h | 6001m | 5.8m/s | -11.8°C | 5.4% | 491.0hPa | 2.7V | 05:03:00 | 00:00:00 | 00:00:00 | |
| NBG1-10 | 2026-09-05 23:04:57 | 49.33653 | 12.15952 | 116° | 95km/h | 5987m | 5.8m/s | -11.6°C | 6.1% | 492.0hPa | 2.7V | 00:00:00 | 01:00:04 | 00:00:00 | |
| DO3MHA-11 | 2026-09-05 23:04:52 | 49.33709 | 12.15786 | 121° | 95km/h | 5960m | 3.2m/s | -11.5°C | 5.3% | 493.8hPa | 2.7V | 00:00:00 | 00:59:59 | 00:00:00 | |
| OE5DRO-10 | 2026-09-05 23:04:46 | 49.33781 | 12.15585 | 116° | 93km/h | 5933m | 5.2m/s | 0°C | 0% | 0hPa | 2.7V | 00:00:00 | 00:00:00 | 00:00:00 | |
| DO3MHA-11 | 2026-09-05 23:04:42 | 49.33817 | 12.15459 | 114° | 97km/h | 5908m | 6.0m/s | -11.1°C | 5.4% | 497.0hPa | 2.7V | 05:02:00 | 00:59:49 | 00:00:00 | |
| DO9HM | 2026-09-05 23:04:39 | 49.33838 | 12.15395 | 118° | 93km/h | 5897m | 6.0m/s | -11.1°C | 5.1% | 497.8hPa | 2.9V | 05:03:00 | 00:00:00 | 00:00:00 | |
| DO3MHA-11 | 2026-09-05 23:04:32 | 49.33930 | 12.15128 | 111° | 89km/h | 5858m | 5.2m/s | -10.9°C | 5.5% | 500.2hPa | 2.9V | 00:00:00 | 00:59:39 | 00:00:00 | |
| OE5DRO-10 | 2026-09-05 23:04:27 | 49.33975 | 12.14972 | 119° | 91km/h | 5830m | 6.6m/s | 0°C | 0% | 0hPa | 2.9V | 00:00:00 | 00:00:00 | 00:00:00 | |
| NBG1-10 | 2026-09-05 23:04:24 | 49.34010 | 12.14881 | 120° | 93km/h | 5813m | 5.5m/s | -10.5°C | 5.5% | 503.1hPa | 2.9V | 05:03:00 | 00:59:31 | 00:00:00 | |
| DO3MHA-11 | 2026-09-05 23:04:22 | 49.34031 | 12.14822 | 118° | 91km/h | 5804m | 3.7m/s | -10.5°C | 5.3% | 0hPa | 2.9V | 00:00:00 | 00:59:29 | 00:00:00 | |
| DL6DJ-15 | 2026-09-05 23:04:21 | 49.34041 | 12.14793 | 118° | 84km/h | 5799m | 4.6m/s | -10.5°C | 4.9% | 504.1hPa | 2.9V | 00:00:00 | 00:00:00 | 00:00:00 | |
| DO9HM | 2026-09-05 23:04:19 | 49.34063 | 12.14733 | 120° | 91km/h | 5790m | 4.8m/s | -10.5°C | 4.9% | 504.7hPa | 2.9V | 05:03:00 | 00:00:00 | 00:00:00 | |
| DO3MHA-11 | 2026-09-05 23:04:12 | 49.34136 | 12.14508 | 115° | 91km/h | 5762m | 3.3m/s | -10.3°C | 5.5% | 506.6hPa | 2.9V | 00:00:00 | 00:59:19 | 00:00:00 | |
| OE5DRO-10 | 2026-09-05 23:04:07 | 49.34191 | 12.14352 | 119° | 86km/h | 5743m | 3.4m/s | 0°C | 0% | 0hPa | 2.7V | 00:00:00 | 00:00:00 | 00:00:00 | |
| DO3MHA-11 | 2026-09-05 23:04:02 | 49.34241 | 12.14194 | 117° | 100km/h | 5726m | 3.4m/s | -10.2°C | 5.7% | 509.0hPa | 2.7V | 00:00:00 | 00:59:09 | 00:00:00 | |
| DF3TZ-5 | 2026-09-05 23:03:59 | 49.34287 | 12.14052 | 116° | 106km/h | 5712m | 3.4m/s | -10.2°C | 5.6% | -1.0hPa | 2.7V | 00:00:00 | 00:00:00 | 00:00:00 | |
| DL6DJ-15 | 2026-09-05 23:03:50 | 49.34391 | 12.13771 | 116° | 82km/h | 5664m | 6.5m/s | -10.0°C | 6.3% | 513.1hPa | 2.7V | 00:00:00 | 00:00:00 | 00:00:00 | |
| DO3MHA-11 | 2026-09-05 23:03:42 | 49.34463 | 12.13556 | 118° | 86km/h | 5627m | 2.4m/s | -9.7°C | 6.2% | 515.7hPa | 2.7V | 05:03:00 | 00:58:49 | 00:00:00 | |
| DO9HM | 2026-09-05 23:03:37 | 49.34506 | 12.13438 | 122° | 86km/h | 5612m | 4.0m/s | -9.7°C | 5.4% | 516.8hPa | 2.9V | 05:03:00 | 00:00:00 | 00:00:00 | |
| DF9NV-10 | 2026-09-05 23:03:36 | 49.34518 | 12.13411 | 125° | 82km/h | 5609m | 3.6m/s | 0°C | 0% | 517.0hPa | 2.9V | 00:00:00 | 00:00:00 | 00:00:00 | |
| DO3MHA-11 | 2026-09-05 23:03:32 | 49.34583 | 12.13282 | 128° | 89km/h | 5594m | 2.8m/s | -9.6°C | 6.3% | 518.0hPa | 2.9V | 00:00:00 | 00:58:39 | 00:00:00 | |
| DO3MHA-11 | 2026-09-05 23:03:22 | 49.34702 | 12.12989 | 122° | 88km/h | 5534m | 4.4m/s | -9.4°C | 7.0% | 521.9hPa | 2.9V | 00:00:00 | 00:58:29 | 00:00:00 | |
| DL6DJ-15 | 2026-09-05 23:03:19 | 49.34747 | 12.12875 | 121° | 84km/h | 5521m | 3.2m/s | -9.4°C | 7.2% | 522.9hPa | 2.9V | 00:00:00 | 00:00:00 | 00:00:00 | |
| NBG1-10 | 2026-09-05 23:03:18 | 49.34747 | 12.12875 | 122° | 88km/h | 5521m | 3.2m/s | -9.3°C | 7.7% | 522.9hPa | 2.9V | 00:00:00 | 00:58:25 | 00:00:00 | |
| DO9HM | 2026-09-05 23:03:17 | 49.34747 | 12.12875 | 122° | 86km/h | 5521m | 3.2m/s | -9.4°C | 7.2% | 522.9hPa | 2.9V | 05:04:00 | 00:00:00 | 00:00:00 | |
| DO3MHA-11 | 2026-09-05 23:03:12 | 49.34819 | 12.12701 | 122° | 86km/h | 5500m | 3.2m/s | -9.2°C | 9.7% | 524.3hPa | 2.9V | 00:00:00 | 00:58:19 | 00:00:00 | |
| DO3MHA-11 | 2026-09-05 23:03:02 | 49.34938 | 12.12423 | 122° | 91km/h | 5464m | 3.4m/s | -9.1°C | 14.8% | 526.5hPa | 3.0V | 00:00:00 | 00:58:09 | 00:00:00 | |
| DL6DJ-15 | 2026-09-05 23:02:48 | 49.35085 | 12.11975 | 120° | 82km/h | 5385m | 6.0m/s | -8.6°C | 12.2% | 532.0hPa | 3.0V | 00:00:00 | 00:00:00 | 00:00:00 | |
| DO3MHA-11 | 2026-09-05 23:02:42 | 49.35139 | 12.11832 | 117° | 95km/h | 5363m | 4.4m/s | -8.4°C | 12.9% | 533.4hPa | 3.0V | 05:04:00 | 00:57:49 | 00:00:00 | |
| NBG1-10 | 2026-09-05 23:02:36 | 49.35205 | 12.11632 | 117° | 88km/h | 5339m | 3.3m/s | -8.2°C | 14.2% | 535.2hPa | 3.0V | 00:00:00 | 00:57:43 | 00:00:00 | |
| DO3MHA-11 | 2026-09-05 23:02:32 | 49.35249 | 12.11500 | 115° | 89km/h | 5318m | 7.6m/s | -8.0°C | 14.1% | 536.5hPa | 3.0V | 00:00:00 | 00:57:39 | 00:00:00 | |
| DF9NV-10 | 2026-09-05 23:02:28 | 49.35279 | 12.11399 | 115° | 95km/h | 5297m | 6.5m/s | 0°C | 0% | 0hPa | 3.0V | 00:00:00 | 00:00:00 | 00:00:00 | |
| DO3MHA-11 | 2026-09-05 23:02:22 | 49.35345 | 12.11190 | 118° | 82km/h | 5259m | 5.2m/s | -7.6°C | 12.0% | 540.7hPa | 3.0V | 00:00:00 | 00:57:29 | 00:00:00 | |
| DL6DJ-15 | 2026-09-05 23:02:16 | 49.35398 | 12.11020 | 115° | 80km/h | 5233m | 4.2m/s | -7.4°C | 10.7% | 542.5hPa | 3.0V | 00:00:00 | 00:00:00 | 00:00:00 | |
| DO9HM | 2026-09-05 23:02:15 | 49.35398 | 12.11020 | 116° | 80km/h | 5233m | 4.2m/s | -7.4°C | 10.7% | 542.5hPa | 3.0V | 05:05:00 | 00:00:00 | 00:00:00 | |
| DO3MHA-11 | 2026-09-05 23:02:12 | 49.35436 | 12.10900 | 115° | 86km/h | 5219m | 4.4m/s | -7.3°C | 10.3% | 543.4hPa | 3.0V | 00:00:00 | 00:57:19 | 00:00:00 | |
| DF9NV-10 | 2026-09-05 23:02:05 | 49.35495 | 12.10723 | 121° | 86km/h | 5193m | 4.4m/s | 0°C | 0% | 0hPa | 3.0V | 00:00:00 | 00:00:00 | 00:00:00 | |
| DO3MHA-11 | 2026-09-05 23:02:02 | 49.35538 | 12.10609 | 120° | 82km/h | 5179m | 4.4m/s | -7.0°C | 9.1% | 546.2hPa | 3.0V | 00:00:00 | 00:57:09 | 00:00:00 | |
| DF3TZ-5 | 2026-09-05 23:01:54 | 49.35660 | 12.10273 | 118° | 84km/h | 5136m | 3.9m/s | -6.9°C | 9.9% | -1.0hPa | 3.0V | 00:00:00 | 00:00:00 | 00:00:00 | |
| DL6DJ-15 | 2026-09-05 23:01:45 | 49.35712 | 12.10133 | 121° | 84km/h | 5117m | 3.7m/s | -6.8°C | 10.6% | 550.6hPa | 3.0V | 00:00:00 | 00:00:00 | 00:00:00 | |
| DF9NV-10 | 2026-09-05 23:01:44 | 49.35712 | 12.10133 | 122° | 86km/h | 5117m | 3.7m/s | 0°C | 0% | 0hPa | 3.0V | 05:06:00 | 00:00:00 | 00:00:00 | |
| DO3MHA-11 | 2026-09-05 23:01:42 | 49.35745 | 12.10051 | 123° | 82km/h | 5106m | 3.6m/s | -6.7°C | 11.3% | 551.3hPa | 3.0V | 05:05:00 | 00:56:49 | 00:00:00 | |
| DO9HM | 2026-09-05 23:01:34 | 49.35815 | 12.09853 | 111° | 82km/h | 5081m | 4.0m/s | -6.6°C | 11.0% | 553.1hPa | 3.0V | 05:06:00 | 00:00:00 | 00:00:00 | |
| DO3MHA-11 | 2026-09-05 23:01:32 | 49.35836 | 12.09768 | 113° | 80km/h | 5071m | 3.8m/s | -6.4°C | 11.5% | 553.8hPa | 3.0V | 00:00:00 | 00:56:39 | 00:00:00 | |
| NBG1-10 | 2026-09-05 23:01:30 | 49.35852 | 12.09713 | 117° | 78km/h | 5062m | 5.6m/s | -6.4°C | 11.7% | 554.4hPa | 3.0V | 00:00:00 | 00:56:37 | 00:00:00 | |
| DF9NV-10 | 2026-09-05 23:01:24 | 49.35901 | 12.09573 | 118° | 84km/h | 5030m | 5.5m/s | 0°C | 0% | 0hPa | 3.0V | 05:06:00 | 00:00:00 | 00:00:00 | |
| DF3TZ-5 | 2026-09-05 23:01:23 | 49.35931 | 12.09492 | 123° | 75km/h | 5013m | 4.8m/s | -6.1°C | 9.7% | -1.0hPa | 3.0V | 00:00:00 | 00:00:00 | 00:00:00 | |
| DO3MHA-11 | 2026-09-05 23:01:22 | 49.35931 | 12.09492 | 124° | 78km/h | 5013m | 4.7m/s | -6.1°C | 10.2% | 558.0hPa | 3.0V | 00:00:00 | 00:56:29 | 00:00:00 | |
| DO9HM | 2026-09-05 23:01:14 | 49.36019 | 12.09288 | 122° | 78km/h | 4978m | 5.3m/s | -5.9°C | 9.6% | 560.5hPa | 3.0V | 05:06:00 | 00:00:00 | 00:00:00 | |
| DO3MHA-11 | 2026-09-05 23:01:12 | 49.36036 | 12.09238 | 115° | 75km/h | 4971m | 3.2m/s | -5.7°C | 9.9% | 561.0hPa | 3.0V | 00:00:00 | 00:56:19 | 00:00:00 | |
| DF9NV-10 | 2026-09-05 23:01:04 | 49.36086 | 12.09056 | 121° | 78km/h | 4942m | 6.4m/s | 0°C | 0% | 0hPa | 3.0V | 05:06:00 | 00:00:00 | 00:00:00 | |
| DO3MHA-11 | 2026-09-05 23:01:02 | 49.36121 | 12.08977 | 127° | 73km/h | 4922m | 5.8m/s | -5.5°C | 10.3% | 564.6hPa | 3.0V | 00:00:00 | 00:56:09 | 00:00:00 | |
| NBG1-10 | 2026-09-05 23:00:57 | 49.36170 | 12.08849 | 116° | 73km/h | 4898m | 4.3m/s | -5.4°C | 11.4% | 566.2hPa | 3.0V | 05:06:00 | 00:56:04 | 00:00:00 | |
| DO3MHA-11 | 2026-09-05 23:00:52 | 49.36207 | 12.08734 | 119° | 78km/h | 4879m | 5.3m/s | -5.2°C | 11.4% | 567.7hPa | 3.0V | 00:00:00 | 00:55:59 | 00:00:00 | |
| DL6DJ-15 | 2026-09-05 23:00:43 | 49.36303 | 12.08500 | 117° | 68km/h | 4836m | 3.8m/s | -4.9°C | 11.3% | 570.9hPa | 3.0V | 00:00:00 | 00:00:00 | 00:00:00 | |
| DO3MHA-11 | 2026-09-05 23:00:42 | 49.36311 | 12.08477 | 119° | 68km/h | 4833m | 3.2m/s | -4.8°C | 11.9% | 571.1hPa | 3.0V | 05:06:00 | 00:55:49 | 00:00:00 | |
| DO3MHA-11 | 2026-09-05 23:00:32 | 49.36398 | 12.08244 | 127° | 75km/h | 4786m | 5.7m/s | -4.4°C | 12.1% | 574.3hPa | 3.0V | 00:00:00 | 00:55:39 | 00:00:00 | |
| DO9HM | 2026-09-05 23:00:31 | 49.36398 | 12.08244 | 127° | 86km/h | 4786m | 5.7m/s | -4.5°C | 11.7% | 574.3hPa | 3.0V | 00:00:00 | 00:00:00 | 00:00:00 | |
| NBG1-10 | 2026-09-05 23:00:24 | 49.36502 | 12.08078 | 134° | 75km/h | 4747m | 6.9m/s | -4.2°C | 11.7% | 577.2hPa | 3.0V | 00:00:00 | 00:55:31 | 00:00:00 | |
| DO3MHA-11 | 2026-09-05 23:00:22 | 49.36528 | 12.08033 | 130° | 73km/h | 4733m | 7.6m/s | -4.1°C | 11.5% | 578.2hPa | 3.0V | 00:00:00 | 00:55:29 | 00:00:00 | |
| DF3TZ-5 | 2026-09-05 23:00:21 | 49.36541 | 12.08009 | 128° | 80km/h | 4726m | 6.6m/s | -4.1°C | -1.0% | -1.0hPa | 3.0V | 00:00:00 | 00:00:00 | 00:00:00 | |
| DO3MHA-11 | 2026-09-05 23:00:12 | 49.36632 | 12.07806 | 131° | 73km/h | 4685m | 4.6m/s | -3.7°C | 12.2% | 581.8hPa | 3.0V | 00:00:00 | 00:55:19 | 00:00:00 | |
| DO9HM | 2026-09-05 23:00:11 | 49.36632 | 12.07806 | 132° | 58km/h | 4685m | 4.7m/s | -3.8°C | 11.8% | 581.9hPa | 3.0V | 00:00:00 | 00:00:00 | 00:00:00 | |
| DO3MHA-11 | 2026-09-05 23:00:02 | 49.36749 | 12.07586 | 125° | 78km/h | 4626m | 4.5m/s | -3.4°C | 9.5% | 586.2hPa | 3.0V | 00:00:00 | 00:55:09 | 00:00:00 | |
| DB0NH | 2026-09-05 22:59:53 | 49.36852 | 12.07365 | 129° | 77km/h | 4576m | 6.8m/s | -3.1°C | 9.3% | 589.7hPa | 3.0V | 00:00:00 | 00:55:00 | 00:00:00 | |
| DO3MHA-11 | 2026-09-05 22:59:52 | 49.36864 | 12.07343 | 129° | 75km/h | 4570m | 5.0m/s | -3.0°C | 9.4% | 590.2hPa | 3.0V | 00:00:00 | 00:54:59 | 00:00:00 | |
| NBG1-10 | 2026-09-05 22:59:51 | 49.36876 | 12.07321 | 131° | 77km/h | 4566m | 4.3m/s | -3.0°C | 9.3% | 590.5hPa | 3.0V | 00:00:00 | 00:54:58 | 00:00:00 | |
| DO9HM | 2026-09-05 22:59:50 | 49.36875 | 12.07321 | 132° | 75km/h | 4566m | 4.3m/s | -3.1°C | 9.0% | 590.6hPa | 3.0V | 05:08:00 | 00:00:00 | 00:00:00 | |
| DO3MHA-11 | 2026-09-05 22:59:42 | 49.36986 | 12.07123 | 130° | 77km/h | 4527m | 3.5m/s | -2.8°C | 10.0% | 593.5hPa | 3.0V | 05:07:00 | 00:54:49 | 00:00:00 | |
| DL6DJ-15 | 2026-09-05 22:59:41 | 49.36999 | 12.07100 | 129° | 77km/h | 4524m | 3.4m/s | -2.8°C | 9.7% | 593.6hPa | 3.0V | 00:00:00 | 00:00:00 | 00:00:00 | |
| DO8TBO-1 | 2026-09-05 22:59:37 | 49.37048 | 12.07005 | 129° | 77km/h | 4508m | 4.5m/s | 0°C | 0% | 0hPa | 3.0V | 00:00:00 | 00:54:44 | 00:00:00 | |
| DO3MHA-11 | 2026-09-05 22:59:32 | 49.37106 | 12.06892 | 132° | 80km/h | 4490m | 4.3m/s | -2.5°C | 10.4% | 596.2hPa | 3.0V | 00:00:00 | 00:54:39 | 00:00:00 | |
| DO9HM | 2026-09-05 22:59:30 | 49.37119 | 12.06871 | 135° | 77km/h | 4486m | 4.0m/s | -2.5°C | 10.1% | 596.7hPa | 3.0V | 05:08:00 | 00:00:00 | 00:00:00 | |
| DB0NH | 2026-09-05 22:59:23 | 49.37236 | 12.06694 | 133° | 77km/h | 4453m | 5.3m/s | -2.3°C | 10.5% | 598.8hPa | 3.0V | 00:00:00 | 00:54:30 | 00:00:00 | |
| DO3MHA-11 | 2026-09-05 22:59:22 | 49.37250 | 12.06670 | 132° | 75km/h | 4448m | 6.3m/s | -2.2°C | 10.5% | 599.2hPa | 3.0V | 00:00:00 | 00:54:29 | 00:00:00 | |
| NBG1-10 | 2026-09-05 22:59:18 | 49.37299 | 12.06572 | 123° | 77km/h | 4423m | 6.1m/s | -2.0°C | 10.0% | 601.2hPa | 3.0V | 00:00:00 | 00:54:25 | 00:00:00 | |
| DO3MHA-11 | 2026-09-05 22:59:12 | 49.37358 | 12.06434 | 125° | 75km/h | 4392m | 5.2m/s | -1.8°C | 10.0% | 603.7hPa | 3.0V | 00:00:00 | 00:54:19 | 00:00:00 | |
| DL6DJ-15 | 2026-09-05 22:59:10 | 49.37378 | 12.06389 | 124° | 71km/h | 4384m | 3.6m/s | -1.8°C | 9.6% | 604.4hPa | 3.0V | 00:00:00 | 00:00:00 | 00:00:00 | |
| DO9HM | 2026-09-05 22:59:09 | 49.37378 | 12.06388 | 126° | 73km/h | 4384m | 3.6m/s | -1.8°C | 9.6% | 604.4hPa | 3.0V | 05:09:00 | 00:00:00 | 00:00:00 | |
| DO8TBO-1 | 2026-09-05 22:59:07 | 49.37414 | 12.06318 | 130° | 77km/h | 4372m | 2.7m/s | 0°C | 0% | 0hPa | 3.0V | 00:00:00 | 00:54:14 | 00:00:00 | |
| DO3MHA-11 | 2026-09-05 22:59:02 | 49.37471 | 12.06198 | 122° | 77km/h | 4356m | 2.9m/s | -1.6°C | 9.8% | 606.6hPa | 3.0V | 00:00:00 | 00:54:09 | 00:00:00 | |
| DB0NH | 2026-09-05 22:58:53 | 49.37576 | 12.05983 | 130° | 80km/h | 4322m | 4.2m/s | -1.4°C | 10.4% | 609.2hPa | 3.0V | 00:00:00 | 00:54:00 | 00:00:00 | |
| DO3MHA-11 | 2026-09-05 22:58:52 | 49.37591 | 12.05957 | 131° | 78km/h | 4318m | 3.1m/s | -1.3°C | 10.4% | 609.5hPa | 3.0V | 00:00:00 | 00:53:59 | 00:00:00 | |
| DO9HM | 2026-09-05 22:58:49 | 49.37621 | 12.05907 | 135° | 88km/h | 4312m | 3.8m/s | -1.3°C | 10.1% | 609.9hPa | 3.0V | 05:09:00 | 00:00:00 | 00:00:00 | |
| NBG1-10 | 2026-09-05 22:58:45 | 49.37688 | 12.05796 | 129° | 75km/h | 4287m | 6.1m/s | -1.1°C | 10.9% | 611.6hPa | 3.0V | 00:00:00 | 00:53:52 | 00:00:00 | |
| DO3MHA-11 | 2026-09-05 22:58:42 | 49.37717 | 12.05732 | 124° | 75km/h | 4269m | 5.4m/s | -1.0°C | 10.9% | 613.2hPa | 3.0V | 05:08:00 | 00:53:49 | 00:00:00 | |
| DL6DJ-15 | 2026-09-05 22:58:39 | 49.37747 | 12.05664 | 125° | 73km/h | 4253m | 4.3m/s | -0.9°C | 10.5% | 614.5hPa | 3.0V | 00:00:00 | 00:00:00 | 00:00:00 | |
| DO8TBO-1 | 2026-09-05 22:58:37 | 49.37771 | 12.05615 | 129° | 78km/h | 4244m | 4.7m/s | 0°C | 0% | 0hPa | 3.0V | 00:00:00 | 00:53:44 | 00:00:00 | |
| DO3MHA-11 | 2026-09-05 22:58:32 | 49.37832 | 12.05502 | 131° | 71km/h | 4226m | 3.8m/s | -0.6°C | 10.3% | 616.5hPa | 3.0V | 00:00:00 | 00:53:39 | 00:00:00 | |
| DO9HM | 2026-09-05 22:58:28 | 49.37866 | 12.05445 | 132° | 64km/h | 4214m | 3.2m/s | -0.6°C | 10.0% | 617.5hPa | 3.0V | 05:09:00 | 00:00:00 | 00:00:00 | |
| DO3MHA-11 | 2026-09-05 22:58:22 | 49.37929 | 12.05272 | 121° | 82km/h | 4178m | 6.8m/s | -0.3°C | 10.1% | 620.0hPa | 3.0V | 00:00:00 | 00:53:29 | 00:00:00 | |
| DO3MHA-11 | 2026-09-05 22:58:12 | 49.38049 | 12.05018 | 120° | 75km/h | 4122m | 6.1m/s | 0.0°C | 8.8% | 624.4hPa | 3.0V | 00:00:00 | 00:53:19 | 00:00:00 | |
| DB0NH | 2026-09-05 22:58:08 | 49.38089 | 12.04924 | 128° | 78km/h | 4104m | 4.4m/s | 0.2°C | 8.0% | 625.9hPa | 3.0V | 00:00:00 | 00:53:15 | 00:00:00 | |
| DO9HM | 2026-09-05 22:58:07 | 49.38089 | 12.04924 | 129° | 73km/h | 4104m | 4.5m/s | 0.2°C | 7.8% | 626.0hPa | 3.0V | 05:09:00 | 00:00:00 | 00:00:00 | |
| DO3MHA-11 | 2026-09-05 22:58:02 | 49.38155 | 12.04776 | 123° | 75km/h | 4080m | 3.6m/s | 0.3°C | 7.7% | 627.8hPa | 3.0V | 00:00:00 | 00:53:09 | 00:00:00 | |
| DO3MHA-11 | 2026-09-05 22:57:52 | 49.38258 | 12.04531 | 124° | 80km/h | 4043m | 2.4m/s | 0.6°C | 6.4% | 630.7hPa | 3.0V | 00:00:00 | 00:52:59 | 00:00:00 | |
| DO9HM | 2026-09-05 22:57:46 | 49.38313 | 12.04409 | 130° | 77km/h | 4026m | 3.9m/s | 0.8°C | 0% | 632.2hPa | 3.0V | 05:09:00 | 00:00:00 | 00:00:00 | |
| DO3MHA-11 | 2026-09-05 22:57:42 | 49.38381 | 12.04286 | 128° | 75km/h | 4009m | 2.6m/s | 0.8°C | 4.7% | 633.4hPa | 3.0V | 05:09:00 | 00:52:49 | 00:00:00 | |
| NBG1-10 | 2026-09-05 22:57:39 | 49.38417 | 12.04203 | 121° | 78km/h | 3995m | 6.1m/s | 0.9°C | 3.5% | 634.5hPa | 3.0V | 05:09:00 | 00:52:46 | 00:00:00 | |
| DB0NH | 2026-09-05 22:57:38 | 49.38426 | 12.04177 | 120° | 73km/h | 3990m | 5.2m/s | 0.9°C | 2.7% | 634.9hPa | 3.0V | 00:00:00 | 00:52:45 | 00:00:00 | |
| DL6DJ-15 | 2026-09-05 22:57:37 | 49.38442 | 12.04131 | 116° | 64km/h | 3980m | 4.4m/s | 0.9°C | 3.2% | 635.7hPa | 3.0V | 00:00:00 | 00:00:00 | 00:00:00 | |
| DO3MHA-11 | 2026-09-05 22:57:32 | 49.38471 | 12.04032 | 114° | 88km/h | 3965m | 4.0m/s | 0.8°C | 3.5% | 636.8hPa | 3.0V | 00:00:00 | 00:52:39 | 00:00:00 | |
| DO9HM | 2026-09-05 22:57:26 | 49.38522 | 12.03882 | 123° | 93km/h | 3939m | 5.6m/s | 0.7°C | 0% | 638.7hPa | 3.0V | 05:10:00 | 00:00:00 | 00:00:00 | |
| DO3MHA-11 | 2026-09-05 22:57:22 | 49.38587 | 12.03740 | 126° | 75km/h | 3914m | 4.0m/s | 0.7°C | 5.2% | 640.6hPa | 3.0V | 00:00:00 | 00:52:29 | 00:00:00 | |
| DO3MHA-11 | 2026-09-05 22:57:12 | 49.38691 | 12.03496 | 123° | 73km/h | 3862m | 3.6m/s | 0.4°C | 4.6% | 644.9hPa | 3.0V | 00:00:00 | 00:52:19 | 00:00:00 | |
| DL6DJ-15 | 2026-09-05 22:57:06 | 49.38768 | 12.03337 | 127° | 69km/h | 3839m | 1.7m/s | -0.0°C | 11.8% | 646.8hPa | 3.0V | 00:00:00 | 00:00:00 | 00:00:00 | |
| DO3MHA-11 | 2026-09-05 22:57:02 | 49.38792 | 12.03268 | 112° | 75km/h | 3830m | 5.0m/s | -0.0°C | 13.3% | 647.5hPa | 3.0V | 00:00:00 | 00:52:09 | 00:00:00 | |
| DO9HM | 2026-09-05 22:56:56 | 49.38822 | 12.03130 | 111° | 78km/h | 3804m | 3.3m/s | 0.1°C | 0% | 649.8hPa | 3.0V | 05:10:00 | 00:00:00 | 00:00:00 | |
| DB0NH | 2026-09-05 22:56:52 | 49.38869 | 12.03001 | 127° | 78km/h | 3779m | 5.7m/s | 0.3°C | 6.9% | 651.8hPa | 3.0V | 05:10:00 | 00:51:59 | 00:00:00 | |
| DO3MHA-11 | 2026-09-05 22:56:42 | 49.38973 | 12.02719 | 110° | 80km/h | 3736m | 4.7m/s | 0.6°C | 3.4% | 655.4hPa | 3.0V | 05:10:00 | 00:51:49 | 00:00:00 | |
| DL6DJ-15 | 2026-09-05 22:56:35 | 49.39043 | 12.02492 | 123° | 68km/h | 3699m | 5.5m/s | 0.7°C | 4.6% | 658.3hPa | 3.0V | 00:00:00 | 00:00:00 | 00:00:00 | |
| NBG1-10 | 2026-09-05 22:56:33 | 49.39053 | 12.02470 | 126° | 78km/h | 3693m | 5.6m/s | 0.7°C | 4.5% | 658.9hPa | 3.0V | 00:00:00 | 00:51:40 | 00:00:00 | |
| DO3MHA-11 | 2026-09-05 22:56:32 | 49.39064 | 12.02448 | 125° | 86km/h | 3687m | 5.3m/s | 0.7°C | 4.4% | 659.3hPa | 3.0V | 00:00:00 | 00:51:39 | 00:00:00 | |
| DO3MHA-11 | 2026-09-05 22:56:22 | 49.39171 | 12.02159 | 116° | 75km/h | 3643m | 4.9m/s | 1.0°C | 3.7% | 662.9hPa | 3.0V | 00:00:00 | 00:51:29 | 00:00:00 | |
| DO9HM | 2026-09-05 22:56:14 | 49.39223 | 12.01972 | 119° | 73km/h | 3610m | 4.2m/s | 1.1°C | 0% | 0hPa | 3.0V | 00:00:00 | 00:00:00 | 00:00:00 | |
| DO3MHA-11 | 2026-09-05 22:56:12 | 49.39253 | 12.01900 | 126° | 75km/h | 3599m | 3.4m/s | 1.0°C | 8.5% | 666.7hPa | 3.0V | 00:00:00 | 00:51:19 | 00:00:00 | |
| DL6DJ-15 | 2026-09-05 22:56:03 | 49.39319 | 12.01658 | 110° | 78km/h | 3560m | 3.9m/s | 1.1°C | 8.1% | 670.0hPa | 3.0V | 00:00:00 | 00:00:00 | 00:00:00 | |
| DO3MHA-11 | 2026-09-05 22:56:02 | 49.39326 | 12.01630 | 114° | 73km/h | 3556m | 4.5m/s | 1.1°C | 8.2% | 670.2hPa | 3.0V | 00:00:00 | 00:51:09 | 00:00:00 | |
| NBG1-10 | 2026-09-05 22:56:00 | 49.39342 | 12.01575 | 115° | 71km/h | 3545m | 5.1m/s | 1.1°C | 8.2% | 671.1hPa | 3.0V | 00:00:00 | 00:51:07 | 00:00:00 | |
| DO9HM | 2026-09-05 22:55:54 | 49.39371 | 12.01441 | 107° | 69km/h | 3523m | 3.7m/s | 1.3°C | 0% | 0hPa | 3.0V | 00:00:00 | 00:00:00 | 00:00:00 | |
| DO3MHA-11 | 2026-09-05 22:55:52 | 49.39388 | 12.01370 | 116° | 68km/h | 3513m | 3.4m/s | 1.3°C | 7.6% | 673.8hPa | 3.0V | 00:00:00 | 00:50:59 | 00:00:00 | |
| DO3MHA-11 | 2026-09-05 22:55:42 | 49.39455 | 12.01127 | 118° | 73km/h | 3460m | 5.6m/s | 1.6°C | 6.6% | 678.3hPa | 3.0V | 05:11:00 | 00:50:49 | 00:00:00 | |
| DO3MHA-11 | 2026-09-05 22:55:32 | 49.39514 | 12.00862 | 115° | 75km/h | 3405m | 5.5m/s | 1.8°C | 11.9% | 683.0hPa | 3.0V | 00:00:00 | 00:50:39 | 00:00:00 | |
| NBG1-10 | 2026-09-05 22:55:27 | 49.39559 | 12.00734 | 115° | 80km/h | 3376m | 5.3m/s | 1.7°C | 18.9% | 685.4hPa | 3.0V | 00:00:00 | 00:50:34 | 00:00:00 | |
| DO3MHA-11 | 2026-09-05 22:55:22 | 49.39595 | 12.00597 | 113° | 75km/h | 3349m | 4.9m/s | 1.8°C | 23.6% | 687.7hPa | 3.0V | 00:00:00 | 00:50:29 | 00:00:00 | |
| DO3MHA-11 | 2026-09-05 22:55:12 | 49.39648 | 12.00312 | 112° | 86km/h | 3298m | 5.1m/s | 2.2°C | 23.7% | 692.0hPa | 3.0V | 00:00:00 | 00:50:19 | 00:00:00 | |
| DO9HM | 2026-09-05 22:55:08 | 49.39674 | 12.00212 | 112° | 93km/h | 3285m | 3.7m/s | 2.4°C | 0% | 0hPa | 3.0V | 00:00:00 | 00:00:00 | 00:00:00 | |
| DO3MHA-11 | 2026-09-05 22:55:02 | 49.39712 | 12.00001 | 111° | 80km/h | 3254m | 3.9m/s | 2.3°C | 24.4% | 695.8hPa | 3.0V | 00:00:00 | 00:50:09 | 00:00:00 | |
| DL6DJ-15 | 2026-09-05 22:55:01 | 49.39719 | 11.99977 | 112° | 66km/h | 3250m | 4.1m/s | 2.4°C | 23.8% | 696.1hPa | 3.0V | 00:00:00 | 00:00:00 | 00:00:00 | |
| NBG1-10 | 2026-09-05 22:54:54 | 49.39778 | 11.99775 | 107° | 77km/h | 3217m | 3.9m/s | 2.5°C | 24.5% | 698.9hPa | 3.0V | 00:00:00 | 00:50:01 | 00:00:00 | |
| DO3MHA-11 | 2026-09-05 22:54:52 | 49.39790 | 11.99706 | 107° | 78km/h | 3211m | 3.2m/s | 2.5°C | 24.8% | 699.4hPa | 3.0V | 00:00:00 | 00:49:59 | 00:00:00 | |
| DO9HM | 2026-09-05 22:54:46 | 49.39821 | 11.99542 | 107° | 75km/h | 3187m | 6.2m/s | 2.5°C | 0% | 0hPa | 3.0V | 05:13:00 | 00:00:00 | 00:00:00 | |
| DO3MHA-11 | 2026-09-05 22:54:42 | 49.39843 | 11.99414 | 108° | 78km/h | 3161m | 3.1m/s | 2.5°C | 23.8% | 703.8hPa | 3.0V | 05:12:00 | 00:49:49 | 00:00:00 | |
| DB0NH | 2026-09-05 22:54:34 | 49.39894 | 11.99173 | 109° | 69km/h | 3126m | 6.2m/s | 2.5°C | 24.3% | 707.0hPa | 3.0V | 00:00:00 | 00:49:41 | 00:00:00 | |
| DO3MHA-11 | 2026-09-05 22:54:32 | 49.39905 | 11.99127 | 113° | 71km/h | 3115m | 4.3m/s | 2.5°C | 24.4% | 707.8hPa | 3.0V | 00:00:00 | 00:49:39 | 00:00:00 | |
| DL6DJ-15 | 2026-09-05 22:54:30 | 49.39916 | 11.99084 | 108° | 60km/h | 3108m | 3.2m/s | 2.5°C | 24.8% | 708.6hPa | 3.0V | 00:00:00 | 00:00:00 | 00:00:00 | |
| DO9HM | 2026-09-05 22:54:25 | 49.39939 | 11.98951 | 109° | 82km/h | 3090m | 3.7m/s | 2.4°C | 0% | 0hPa | 3.0V | 05:13:00 | 00:00:00 | 00:00:00 | |
| DO3MHA-11 | 2026-09-05 22:54:22 | 49.39962 | 11.98862 | 116° | 71km/h | 3076m | 5.4m/s | 2.3°C | 29.3% | 711.4hPa | 3.0V | 00:00:00 | 00:49:29 | 00:00:00 | |
| NBG1-10 | 2026-09-05 22:54:21 | 49.39971 | 11.98833 | 118° | 66km/h | 3070m | 6.1m/s | 2.2°C | 29.5% | 711.8hPa | 3.0V | 05:13:00 | 00:49:28 | 00:00:00 | |
| DO3MHA-11 | 2026-09-05 22:54:12 | 49.40054 | 11.98626 | 123° | 62km/h | 3015m | 3.8m/s | 2.3°C | 30.8% | 716.6hPa | 3.0V | 00:00:00 | 00:49:19 | 00:00:00 | |
| DO9HM | 2026-09-05 22:54:05 | 49.40088 | 11.98472 | 100° | 60km/h | 2985m | 2.9m/s | 0°C | 0% | 0hPa | 3.0V | 05:14:00 | 00:00:00 | 00:00:00 | |
| DB0NH | 2026-09-05 22:54:04 | 49.40090 | 11.98448 | 102° | 62km/h | 2982m | 2.6m/s | 2.6°C | 30.3% | 719.5hPa | 3.0V | 00:00:00 | 00:49:11 | 00:00:00 | |
| DO3MHA-11 | 2026-09-05 22:54:02 | 49.40099 | 11.98397 | 108° | 68km/h | 2975m | 3.3m/s | 2.7°C | 30.2% | 720.2hPa | 3.0V | 00:00:00 | 00:49:09 | 00:00:00 | |
| DL6DJ-15 | 2026-09-05 22:53:59 | 49.40121 | 11.98318 | 116° | 73km/h | 2959m | 5.9m/s | 2.9°C | 29.3% | 721.4hPa | 3.0V | 00:00:00 | 00:00:00 | 00:00:00 | |
| DO3MHA-11 | 2026-09-05 22:53:52 | 49.40168 | 11.98158 | 101° | 55km/h | 2928m | 4.8m/s | 3.1°C | 29.2% | 724.3hPa | 3.0V | 00:00:00 | 00:48:59 | 00:00:00 | |
| NBG1-10 | 2026-09-05 22:53:49 | 49.40177 | 11.98070 | 104° | 58km/h | 2911m | 3.9m/s | 3.3°C | 29.1% | 725.9hPa | 3.0V | 00:00:00 | 00:48:55 | 00:00:00 | |
| DO3MHA-11 | 2026-09-05 22:53:42 | 49.40212 | 11.97960 | 127° | 66km/h | 2881m | 5.5m/s | 3.5°C | 27.0% | 728.6hPa | 3.0V | 05:13:00 | 00:48:49 | 00:00:00 | |
| DO9HM | 2026-09-05 22:53:38 | 49.40240 | 11.97897 | 123° | 68km/h | 2868m | 4.6m/s | 0°C | 0% | 0hPa | 3.0V | 05:14:00 | 00:00:00 | 00:00:00 | |
| DB0NH | 2026-09-05 22:53:33 | 49.40273 | 11.97754 | 97° | 57km/h | 2840m | 7.0m/s | 3.7°C | 24.1% | 732.2hPa | 3.0V | 00:00:00 | 00:48:40 | 00:00:00 | |
| DO3MHA-11 | 2026-09-05 22:53:32 | 49.40274 | 11.97731 | 98° | 53km/h | 2833m | 7.3m/s | 3.7°C | 27.5% | 732.9hPa | 3.0V | 00:00:00 | 00:48:39 | 00:00:00 | |
| DL6DJ-15 | 2026-09-05 22:53:28 | 49.40282 | 11.97650 | 102° | 49km/h | 2814m | 4.1m/s | 3.9°C | 28.2% | 734.7hPa | 3.0V | 00:00:00 | 00:00:00 | 00:00:00 | |
| DO3MHA-11 | 2026-09-05 22:53:22 | 49.40297 | 11.97533 | 101° | 60km/h | 2790m | 5.2m/s | 4.1°C | 28.3% | 736.9hPa | 3.0V | 00:00:00 | 00:48:29 | 00:00:00 | |
| DO9HM | 2026-09-05 22:53:17 | 49.40318 | 11.97435 | 118° | 68km/h | 2773m | 4.2m/s | 0°C | 0% | 0hPa | 3.0V | 00:00:00 | 00:00:00 | 00:00:00 | |
| NBG1-10 | 2026-09-05 22:53:15 | 49.40340 | 11.97373 | 118° | 58km/h | 2758m | 5.2m/s | 4.4°C | 27.9% | 739.8hPa | 3.0V | 00:00:00 | 00:48:22 | 00:00:00 | |
| DO3MHA-11 | 2026-09-05 22:53:12 | 49.40353 | 11.97315 | 105° | 58km/h | 2742m | 5.6m/s | 4.4°C | 27.7% | 741.3hPa | 3.0V | 00:00:00 | 00:48:19 | 00:00:00 | |
| DB0NH | 2026-09-05 22:53:03 | 49.40380 | 11.97117 | 112° | 58km/h | 2704m | 4.8m/s | 4.7°C | 27.2% | 744.8hPa | 3.0V | 00:00:00 | 00:48:10 | 00:00:00 | |
| DO3MHA-11 | 2026-09-05 22:53:02 | 49.40385 | 11.97098 | 117° | 66km/h | 2699m | 4.8m/s | 4.8°C | 27.0% | 745.2hPa | 3.0V | 00:00:00 | 00:48:09 | 00:00:00 | |
| DL6DJ-15 | 2026-09-05 22:52:57 | 49.40426 | 11.96992 | 116° | 68km/h | 2674m | 3.2m/s | 5.0°C | -1.0% | 747.5hPa | 3.0V | 00:00:00 | 00:00:00 | 00:00:00 | |
| DO3MHA-11 | 2026-09-05 22:52:52 | 49.40456 | 11.96865 | 107° | 53km/h | 2655m | 4.4m/s | 5.0°C | 20.7% | 749.2hPa | 3.0V | 00:00:00 | 00:47:59 | 00:00:00 | |
| DO3MHA-11 | 2026-09-05 22:52:42 | 49.40512 | 11.96688 | 119° | 55km/h | 2610m | 5.4m/s | 5.0°C | 18.1% | 753.3hPa | 3.0V | 05:14:00 | 00:47:49 | 00:00:00 | |
| DB0NH | 2026-09-05 22:52:33 | 49.40562 | 11.96510 | 105° | 58km/h | 2558m | 5.6m/s | 4.9°C | 22.3% | 758.1hPa | 3.0V | 00:00:00 | 00:47:40 | 00:00:00 | |
| DO3MHA-11 | 2026-09-05 22:52:32 | 49.40566 | 11.96488 | 106° | 60km/h | 2554m | 3.4m/s | 4.9°C | 23.3% | 758.6hPa | 3.0V | 00:00:00 | 00:47:39 | 00:00:00 | |
| DL6DJ-15 | 2026-09-05 22:52:26 | 49.40640 | 11.96285 | 121° | 58km/h | 2516m | 4.6m/s | 0°C | -1.0% | 761.9hPa | 3.0V | 00:00:00 | 00:00:00 | 00:00:00 | |
| DO3MHA-11 | 2026-09-05 22:52:22 | 49.40640 | 11.96285 | 122° | 55km/h | 2516m | 4.6m/s | 4.8°C | 25.9% | 761.8hPa | 3.0V | 00:00:00 | 00:47:29 | 00:00:00 | |
| DO3MHA-11 | 2026-09-05 22:52:12 | 49.40693 | 11.96093 | 115° | 62km/h | 2471m | 6.1m/s | 4.9°C | 27.6% | 766.3hPa | 3.0V | 00:00:00 | 00:47:19 | 00:00:00 | |
| NBG1-10 | 2026-09-05 22:52:09 | 49.40716 | 11.96032 | 123° | 64km/h | 2454m | 6.4m/s | 4.9°C | 27.7% | 767.8hPa | 3.0V | 00:00:00 | 00:47:16 | 00:00:00 | |
| DB0NH | 2026-09-05 22:52:03 | 49.40764 | 11.95907 | 119° | 64km/h | 2426m | 5.2m/s | 5.0°C | 31.0% | 770.5hPa | 3.0V | 05:15:00 | 00:47:10 | 00:00:00 | |
| DO3MHA-11 | 2026-09-05 22:52:02 | 49.40771 | 11.95883 | 116° | 64km/h | 2420m | 5.1m/s | 5.0°C | 31.3% | 771.0hPa | 3.0V | 00:00:00 | 00:47:09 | 00:00:00 | |
| DL6DJ-15 | 2026-09-05 22:51:55 | 49.40813 | 11.95646 | 111° | 71km/h | 2367m | 6.1m/s | 0°C | -1.0% | 776.0hPa | 3.0V | 00:00:00 | 00:00:00 | 00:00:00 | |
| DO3MHA-11 | 2026-09-05 22:51:52 | 49.40813 | 11.95646 | 112° | 62km/h | 2367m | 6.1m/s | 5.1°C | 34.4% | 776.0hPa | 3.0V | 00:00:00 | 00:46:59 | 00:00:00 | |
| DO3MHA-11 | 2026-09-05 22:51:42 | 49.40855 | 11.95416 | 119° | 62km/h | 2310m | 6.1m/s | 5.2°C | 26.6% | 781.7hPa | 3.0V | 05:15:00 | 00:46:49 | 00:00:00 | |
| NBG1-10 | 2026-09-05 22:51:36 | 49.40896 | 11.95279 | 107° | 60km/h | 2277m | 6.3m/s | 4.9°C | 41.5% | 784.9hPa | 3.0V | 00:00:00 | 00:46:43 | 00:00:00 | |
| DB0NH | 2026-09-05 22:51:33 | 49.40906 | 11.95213 | 98° | 60km/h | 2262m | 4.9m/s | 4.7°C | 52.1% | 786.3hPa | 3.0V | 00:00:00 | 00:46:40 | 00:00:00 | |
| DO3MHA-11 | 2026-09-05 22:51:32 | 49.40907 | 11.95194 | 101° | 62km/h | 2256m | 5.9m/s | 4.7°C | 55.4% | 786.9hPa | 3.0V | 00:00:00 | 00:46:39 | 00:00:00 | |
| DL6DJ-15 | 2026-09-05 22:51:24 | 49.40939 | 11.95013 | 102° | 71km/h | 2209m | 5.6m/s | 0°C | -1.0% | 791.5hPa | 3.0V | 00:00:00 | 00:00:00 | 00:00:00 | |
| DO3MHA-11 | 2026-09-05 22:51:22 | 49.40948 | 11.94959 | 104° | 60km/h | 2200m | 3.0m/s | 4.9°C | 66.4% | 792.4hPa | 3.0V | 00:00:00 | 00:46:29 | 00:00:00 | |
| DO3MHA-11 | 2026-09-05 22:51:12 | 49.40995 | 11.94740 | 97° | 60km/h | 2151m | 4.8m/s | 5.1°C | 71.9% | 797.1hPa | 3.0V | 00:00:00 | 00:46:19 | 00:00:00 | |
| DB0NH | 2026-09-05 22:51:03 | 49.41010 | 11.94529 | 111° | 58km/h | 2104m | 6.0m/s | 5.5°C | 72.4% | 801.6hPa | 3.0V | 00:00:00 | 00:46:10 | 00:00:00 | |
| DO3MHA-11 | 2026-09-05 22:51:02 | 49.41015 | 11.94508 | 110° | 60km/h | 2099m | 5.1m/s | 5.6°C | 72.2% | 802.2hPa | 3.0V | 00:00:00 | 00:46:09 | 00:00:00 | |
| DL6DJ-15 | 2026-09-05 22:50:53 | 49.41058 | 11.94284 | 93° | 64km/h | 2049m | 6.4m/s | 0°C | -1.0% | 807.2hPa | 3.0V | 00:00:00 | 00:00:00 | 00:00:00 | |
| DO3MHA-11 | 2026-09-05 22:50:52 | 49.41058 | 11.94284 | 94° | 51km/h | 2049m | 6.3m/s | 6.0°C | 73.2% | 807.1hPa | 3.0V | 00:00:00 | 00:45:59 | 00:00:00 | |
| DO3MHA-11 | 2026-09-05 22:50:42 | 49.41078 | 11.94088 | 100° | 66km/h | 1987m | 5.9m/s | 6.6°C | 71.8% | 813.1hPa | 3.0V | 05:16:00 | 00:45:49 | 00:00:00 | |
| DB0NH | 2026-09-05 22:50:33 | 49.41099 | 11.93860 | 104° | 60km/h | 1946m | 3.8m/s | 6.8°C | 72.1% | 817.3hPa | 3.0V | 00:00:00 | 00:45:40 | 00:00:00 | |
| DO3MHA-11 | 2026-09-05 22:50:32 | 49.41104 | 11.93836 | 109° | 55km/h | 1942m | 4.0m/s | 6.9°C | 72.1% | 817.6hPa | 3.0V | 00:00:00 | 00:45:39 | 00:00:00 | |
| NBG1-10 | 2026-09-05 22:50:30 | 49.41113 | 11.93794 | 110° | 60km/h | 1934m | 4.9m/s | 6.9°C | 72.5% | 818.4hPa | 3.0V | 00:00:00 | 00:45:37 | 00:00:00 | |
| DO3MHA-11 | 2026-09-05 22:50:22 | 49.41151 | 11.93638 | 112° | 62km/h | 1896m | 5.1m/s | 7.1°C | 71.9% | 822.0hPa | 3.0V | 00:00:00 | 00:45:29 | 00:00:00 | |
| DO3MHA-11 | 2026-09-05 22:50:12 | 49.41200 | 11.93409 | 97° | 64km/h | 1853m | 4.6m/s | 7.2°C | 72.8% | 826.5hPa | 3.0V | 00:00:00 | 00:45:19 | 00:00:00 | |
| NBG1-10 | 2026-09-05 22:49:57 | 49.41251 | 11.93070 | 113° | 49km/h | 1771m | 5.4m/s | 7.4°C | 72.9% | 834.8hPa | 3.0V | 00:00:00 | 00:45:04 | 00:00:00 | |
| DO3MHA-11 | 2026-09-05 22:49:52 | 49.41274 | 11.92989 | 112° | 57km/h | 1745m | 4.9m/s | 7.5°C | 73.5% | 837.4hPa | 3.0V | 00:00:00 | 00:44:59 | 00:00:00 | |
| DO3MHA-11 | 2026-09-05 22:49:42 | 49.41322 | 11.92785 | 103° | 42km/h | 1688m | 4.9m/s | 7.8°C | 75.9% | 843.3hPa | 3.0V | 05:17:00 | 00:44:49 | 00:00:00 | |
| DB0NH | 2026-09-05 22:49:33 | 49.41361 | 11.92653 | 107° | 47km/h | 1638m | 6.4m/s | 0°C | 0% | 0hPa | 3.0V | 00:00:00 | 00:44:40 | 00:00:00 | |
| DO3MHA-11 | 2026-09-05 22:49:32 | 49.41364 | 11.92634 | 104° | 53km/h | 1632m | 6.2m/s | 8.1°C | 77.0% | 848.8hPa | 3.0V | 00:00:00 | 00:44:39 | 00:00:00 | |
| NBG1-10 | 2026-09-05 22:49:24 | 49.41410 | 11.92484 | 130° | 42km/h | 1595m | 4.3m/s | 8.4°C | 75.3% | 852.5hPa | 3.0V | 00:00:00 | 00:44:31 | 00:00:00 | |
| DO3MHA-11 | 2026-09-05 22:49:22 | 49.41425 | 11.92459 | 136° | 42km/h | 1586m | 4.3m/s | 8.4°C | 75.0% | 853.4hPa | 3.0V | 00:00:00 | 00:44:29 | 00:00:00 | |
| DO3MHA-11 | 2026-09-05 22:49:12 | 49.41477 | 11.92317 | 111° | 44km/h | 1537m | 5.1m/s | 8.8°C | 71.9% | 858.3hPa | 3.0V | 00:00:00 | 00:44:19 | 00:00:00 | |
| DB0NH | 2026-09-05 22:49:03 | 49.41539 | 11.92197 | 127° | 29km/h | 1494m | 4.9m/s | 0°C | 0% | 0hPa | 3.0V | 00:00:00 | 00:44:10 | 00:00:00 | |
| DO3MHA-11 | 2026-09-05 22:49:02 | 49.41543 | 11.92188 | 125° | 38km/h | 1490m | 3.6m/s | 9.3°C | 67.5% | 863.3hPa | 3.0V | 00:00:00 | 00:44:09 | 00:00:00 | |
| DO3MHA-11 | 2026-09-05 22:48:52 | 49.41584 | 11.92052 | 120° | 51km/h | 1445m | 4.2m/s | 9.7°C | 63.6% | 868.1hPa | 3.0V | 00:00:00 | 00:43:59 | 00:00:00 | |
| NBG1-10 | 2026-09-05 22:48:51 | 49.41590 | 11.92035 | 121° | 42km/h | 1441m | 3.1m/s | 9.7°C | 63.9% | 868.4hPa | 3.0V | 00:00:00 | 00:43:58 | 00:00:00 | |
| DO3MHA-11 | 2026-09-05 22:48:42 | 49.41666 | 11.91908 | 144° | 31km/h | 1404m | 3.9m/s | 10.0°C | 60.1% | 872.6hPa | 3.0V | 05:18:00 | 00:43:49 | 00:00:00 | |
| DO3MHA-11 | 2026-09-05 22:48:32 | 49.41725 | 11.91832 | 117° | 42km/h | 1364m | 3.5m/s | 10.4°C | 58.4% | 876.7hPa | 0V | 00:00:00 | 00:43:39 | 00:00:00 | |
| DO3MHA-11 | 2026-09-05 22:48:22 | 49.41786 | 11.91695 | 137° | 42km/h | 1321m | 4.5m/s | 0°C | 0% | 0hPa | 0V | 00:00:00 | 00:43:29 | 00:00:00 | |
| NBG1-10 | 2026-09-05 22:48:18 | 49.41823 | 11.91649 | 143° | 29km/h | 1301m | 4.7m/s | 0°C | 0% | 0hPa | 0V | 00:00:00 | 00:43:25 | 00:00:00 | |
| DO3MHA-11 | 2026-09-05 22:48:12 | 49.41873 | 11.91604 | 156° | 24km/h | 1279m | 2.9m/s | 0°C | 0% | 0hPa | 0V | 00:00:00 | 00:43:19 | 00:00:00 | |
| DO3MHA-11 | 2026-09-05 22:48:02 | 49.41912 | 11.91536 | 116° | 33km/h | 1242m | 4.4m/s | 0°C | 0% | 0hPa | 0V | 00:00:00 | 00:43:09 | 00:00:00 | |
| DO3MHA-11 | 2026-09-05 22:47:52 | 49.41976 | 11.91458 | 155° | 24km/h | 1198m | 3.9m/s | 0°C | 0% | 0hPa | 0V | 00:00:00 | 00:42:59 | 00:00:00 | |
| NBG1-10 | 2026-09-05 22:47:45 | 49.42001 | 11.91412 | 124° | 27km/h | 1166m | 3.9m/s | 0°C | 0% | 0hPa | 0V | 00:00:00 | 00:42:52 | 00:00:00 | |
| DO3MHA-11 | 2026-09-05 22:47:42 | 49.42011 | 11.91385 | 120° | 35km/h | 1155m | 4.8m/s | 0°C | 0% | 0hPa | 0V | 00:00:00 | 00:42:49 | 00:00:00 |